<?xml version="1.0" encoding="UTF-8" standalone="no" ?>
<gpx xmlns="http://www.topografix.com/GPX/1/1" xmlns:xsi="http://www.w3.org/2001/XMLSchema-instance" xsi:schemaLocation="http://www.topografix.com/GPX/1/1 http://www.topografix.com/GPX/1/1/gpx.xsd" version="1.1" creator="VisuGPX - https://www.visugpx.com">
  <metadata>
    <name>Pointe des Cerces en Boucle</name>
    <desc><![CDATA[grp_trc:]]></desc>
  </metadata>
  <trk>
    <name><![CDATA[22 janv. 2022]]></name>
    <cmt><![CDATA[08:29:48]]></cmt>
    <desc><![CDATA[comment ...]]></desc>
    <trkseg>
      <trkpt lat="45.01847" lon="6.46568">
        <ele>1661</ele>
        <time>2022-01-22T07:29:48Z</time>
      </trkpt>
      <trkpt lat="45.01846" lon="6.46569">
        <ele>1661</ele>
        <time>2022-01-22T07:29:49Z</time>
      </trkpt>
      <trkpt lat="45.01845" lon="6.46572">
        <ele>1661</ele>
        <time>2022-01-22T07:29:52Z</time>
      </trkpt>
      <trkpt lat="45.01841" lon="6.46575">
        <ele>1661</ele>
        <time>2022-01-22T07:29:55Z</time>
      </trkpt>
      <trkpt lat="45.0183" lon="6.46584">
        <ele>1660</ele>
        <time>2022-01-22T07:30:08Z</time>
      </trkpt>
      <trkpt lat="45.01828" lon="6.4659">
        <ele>1660</ele>
        <time>2022-01-22T07:30:15Z</time>
      </trkpt>
      <trkpt lat="45.01821" lon="6.46595">
        <ele>1660</ele>
        <time>2022-01-22T07:30:20Z</time>
      </trkpt>
      <trkpt lat="45.01819" lon="6.46597">
        <ele>1660</ele>
        <time>2022-01-22T07:30:22Z</time>
      </trkpt>
      <trkpt lat="45.01809" lon="6.46607">
        <ele>1661</ele>
        <time>2022-01-22T07:30:32Z</time>
      </trkpt>
      <trkpt lat="45.01807" lon="6.46609">
        <ele>1662</ele>
        <time>2022-01-22T07:30:34Z</time>
      </trkpt>
      <trkpt lat="45.01808" lon="6.46611">
        <ele>1662</ele>
        <time>2022-01-22T07:30:36Z</time>
      </trkpt>
      <trkpt lat="45.01809" lon="6.46614">
        <ele>1662</ele>
        <time>2022-01-22T07:30:39Z</time>
      </trkpt>
      <trkpt lat="45.01812" lon="6.4662">
        <ele>1662</ele>
        <time>2022-01-22T07:30:43Z</time>
      </trkpt>
      <trkpt lat="45.01813" lon="6.46623">
        <ele>1662</ele>
        <time>2022-01-22T07:30:45Z</time>
      </trkpt>
      <trkpt lat="45.01815" lon="6.46625">
        <ele>1663</ele>
        <time>2022-01-22T07:30:48Z</time>
      </trkpt>
      <trkpt lat="45.01815" lon="6.46628">
        <ele>1663</ele>
        <time>2022-01-22T07:30:53Z</time>
      </trkpt>
      <trkpt lat="45.01814" lon="6.46634">
        <ele>1665</ele>
        <time>2022-01-22T07:31:33Z</time>
      </trkpt>
      <trkpt lat="45.01815" lon="6.46636">
        <ele>1668</ele>
        <time>2022-01-22T07:31:39Z</time>
      </trkpt>
      <trkpt lat="45.01819" lon="6.4664">
        <ele>1670</ele>
        <time>2022-01-22T07:31:44Z</time>
      </trkpt>
      <trkpt lat="45.0182" lon="6.46643">
        <ele>1672</ele>
        <time>2022-01-22T07:31:47Z</time>
      </trkpt>
      <trkpt lat="45.0182" lon="6.46646">
        <ele>1672</ele>
        <time>2022-01-22T07:31:51Z</time>
      </trkpt>
      <trkpt lat="45.01819" lon="6.46649">
        <ele>1673</ele>
        <time>2022-01-22T07:31:53Z</time>
      </trkpt>
      <trkpt lat="45.01818" lon="6.46653">
        <ele>1673</ele>
        <time>2022-01-22T07:31:56Z</time>
      </trkpt>
      <trkpt lat="45.01818" lon="6.46656">
        <ele>1674</ele>
        <time>2022-01-22T07:32:00Z</time>
      </trkpt>
      <trkpt lat="45.01818" lon="6.4666">
        <ele>1674</ele>
        <time>2022-01-22T07:32:04Z</time>
      </trkpt>
      <trkpt lat="45.0182" lon="6.46662">
        <ele>1674</ele>
        <time>2022-01-22T07:32:07Z</time>
      </trkpt>
      <trkpt lat="45.01819" lon="6.4667">
        <ele>1673</ele>
        <time>2022-01-22T07:32:11Z</time>
      </trkpt>
      <trkpt lat="45.01822" lon="6.46677">
        <ele>1672</ele>
        <time>2022-01-22T07:32:16Z</time>
      </trkpt>
      <trkpt lat="45.01823" lon="6.46682">
        <ele>1671</ele>
        <time>2022-01-22T07:32:22Z</time>
      </trkpt>
      <trkpt lat="45.01824" lon="6.46685">
        <ele>1670</ele>
        <time>2022-01-22T07:32:25Z</time>
      </trkpt>
      <trkpt lat="45.01825" lon="6.46689">
        <ele>1670</ele>
        <time>2022-01-22T07:32:29Z</time>
      </trkpt>
      <trkpt lat="45.01825" lon="6.46695">
        <ele>1668</ele>
        <time>2022-01-22T07:32:37Z</time>
      </trkpt>
      <trkpt lat="45.01827" lon="6.46698">
        <ele>1667</ele>
        <time>2022-01-22T07:32:40Z</time>
      </trkpt>
      <trkpt lat="45.01829" lon="6.46709">
        <ele>1666</ele>
        <time>2022-01-22T07:32:49Z</time>
      </trkpt>
      <trkpt lat="45.01828" lon="6.46714">
        <ele>1665</ele>
        <time>2022-01-22T07:32:53Z</time>
      </trkpt>
      <trkpt lat="45.01825" lon="6.4672">
        <ele>1665</ele>
        <time>2022-01-22T07:32:57Z</time>
      </trkpt>
      <trkpt lat="45.01824" lon="6.46722">
        <ele>1666</ele>
        <time>2022-01-22T07:33:00Z</time>
      </trkpt>
      <trkpt lat="45.01824" lon="6.46725">
        <ele>1667</ele>
        <time>2022-01-22T07:33:03Z</time>
      </trkpt>
      <trkpt lat="45.01826" lon="6.4673">
        <ele>1668</ele>
        <time>2022-01-22T07:33:09Z</time>
      </trkpt>
      <trkpt lat="45.01827" lon="6.46732">
        <ele>1668</ele>
        <time>2022-01-22T07:33:12Z</time>
      </trkpt>
      <trkpt lat="45.01827" lon="6.46739">
        <ele>1670</ele>
        <time>2022-01-22T07:33:21Z</time>
      </trkpt>
      <trkpt lat="45.01827" lon="6.46743">
        <ele>1670</ele>
        <time>2022-01-22T07:33:24Z</time>
      </trkpt>
      <trkpt lat="45.01828" lon="6.46746">
        <ele>1671</ele>
        <time>2022-01-22T07:33:29Z</time>
      </trkpt>
      <trkpt lat="45.01829" lon="6.46749">
        <ele>1671</ele>
        <time>2022-01-22T07:33:33Z</time>
      </trkpt>
      <trkpt lat="45.01828" lon="6.46752">
        <ele>1671</ele>
        <time>2022-01-22T07:33:37Z</time>
      </trkpt>
      <trkpt lat="45.01827" lon="6.46754">
        <ele>1671</ele>
        <time>2022-01-22T07:33:40Z</time>
      </trkpt>
      <trkpt lat="45.01829" lon="6.46757">
        <ele>1672</ele>
        <time>2022-01-22T07:33:44Z</time>
      </trkpt>
      <trkpt lat="45.01829" lon="6.46761">
        <ele>1672</ele>
        <time>2022-01-22T07:33:47Z</time>
      </trkpt>
      <trkpt lat="45.01828" lon="6.46764">
        <ele>1672</ele>
        <time>2022-01-22T07:33:51Z</time>
      </trkpt>
      <trkpt lat="45.01828" lon="6.46767">
        <ele>1673</ele>
        <time>2022-01-22T07:33:55Z</time>
      </trkpt>
      <trkpt lat="45.01829" lon="6.46771">
        <ele>1673</ele>
        <time>2022-01-22T07:33:58Z</time>
      </trkpt>
      <trkpt lat="45.0183" lon="6.4678">
        <ele>1672</ele>
        <time>2022-01-22T07:34:07Z</time>
      </trkpt>
      <trkpt lat="45.0183" lon="6.46783">
        <ele>1672</ele>
        <time>2022-01-22T07:34:10Z</time>
      </trkpt>
      <trkpt lat="45.0183" lon="6.46786">
        <ele>1673</ele>
        <time>2022-01-22T07:34:12Z</time>
      </trkpt>
      <trkpt lat="45.01827" lon="6.46788">
        <ele>1673</ele>
        <time>2022-01-22T07:34:15Z</time>
      </trkpt>
      <trkpt lat="45.01824" lon="6.46788">
        <ele>1674</ele>
        <time>2022-01-22T07:34:19Z</time>
      </trkpt>
      <trkpt lat="45.01823" lon="6.46785">
        <ele>1674</ele>
        <time>2022-01-22T07:34:21Z</time>
      </trkpt>
      <trkpt lat="45.0182" lon="6.46784">
        <ele>1674</ele>
        <time>2022-01-22T07:34:24Z</time>
      </trkpt>
      <trkpt lat="45.01817" lon="6.46779">
        <ele>1675</ele>
        <time>2022-01-22T07:34:28Z</time>
      </trkpt>
      <trkpt lat="45.01816" lon="6.46777">
        <ele>1675</ele>
        <time>2022-01-22T07:34:29Z</time>
      </trkpt>
      <trkpt lat="45.01814" lon="6.46773">
        <ele>1676</ele>
        <time>2022-01-22T07:34:31Z</time>
      </trkpt>
      <trkpt lat="45.01813" lon="6.4677">
        <ele>1679</ele>
        <time>2022-01-22T07:34:38Z</time>
      </trkpt>
      <trkpt lat="45.01811" lon="6.46769">
        <ele>1679</ele>
        <time>2022-01-22T07:34:43Z</time>
      </trkpt>
      <trkpt lat="45.01809" lon="6.46771">
        <ele>1681</ele>
        <time>2022-01-22T07:34:48Z</time>
      </trkpt>
      <trkpt lat="45.01808" lon="6.46773">
        <ele>1682</ele>
        <time>2022-01-22T07:34:53Z</time>
      </trkpt>
      <trkpt lat="45.0181" lon="6.46776">
        <ele>1682</ele>
        <time>2022-01-22T07:34:58Z</time>
      </trkpt>
      <trkpt lat="45.01811" lon="6.46781">
        <ele>1682</ele>
        <time>2022-01-22T07:35:04Z</time>
      </trkpt>
      <trkpt lat="45.01812" lon="6.46784">
        <ele>1681</ele>
        <time>2022-01-22T07:35:08Z</time>
      </trkpt>
      <trkpt lat="45.01812" lon="6.4679">
        <ele>1682</ele>
        <time>2022-01-22T07:35:17Z</time>
      </trkpt>
      <trkpt lat="45.01813" lon="6.46793">
        <ele>1682</ele>
        <time>2022-01-22T07:35:22Z</time>
      </trkpt>
      <trkpt lat="45.01818" lon="6.46795">
        <ele>1683</ele>
        <time>2022-01-22T07:35:26Z</time>
      </trkpt>
      <trkpt lat="45.01818" lon="6.46798">
        <ele>1684</ele>
        <time>2022-01-22T07:35:30Z</time>
      </trkpt>
      <trkpt lat="45.0182" lon="6.46801">
        <ele>1684</ele>
        <time>2022-01-22T07:35:33Z</time>
      </trkpt>
      <trkpt lat="45.01821" lon="6.46804">
        <ele>1684</ele>
        <time>2022-01-22T07:35:35Z</time>
      </trkpt>
      <trkpt lat="45.01821" lon="6.46808">
        <ele>1685</ele>
        <time>2022-01-22T07:35:38Z</time>
      </trkpt>
      <trkpt lat="45.0182" lon="6.4681">
        <ele>1685</ele>
        <time>2022-01-22T07:35:40Z</time>
      </trkpt>
      <trkpt lat="45.01818" lon="6.46812">
        <ele>1685</ele>
        <time>2022-01-22T07:35:43Z</time>
      </trkpt>
      <trkpt lat="45.01818" lon="6.46815">
        <ele>1685</ele>
        <time>2022-01-22T07:35:46Z</time>
      </trkpt>
      <trkpt lat="45.01819" lon="6.46818">
        <ele>1685</ele>
        <time>2022-01-22T07:35:49Z</time>
      </trkpt>
      <trkpt lat="45.0182" lon="6.46827">
        <ele>1686</ele>
        <time>2022-01-22T07:35:59Z</time>
      </trkpt>
      <trkpt lat="45.01821" lon="6.46831">
        <ele>1686</ele>
        <time>2022-01-22T07:36:03Z</time>
      </trkpt>
      <trkpt lat="45.01819" lon="6.46833">
        <ele>1687</ele>
        <time>2022-01-22T07:36:07Z</time>
      </trkpt>
      <trkpt lat="45.01821" lon="6.46836">
        <ele>1687</ele>
        <time>2022-01-22T07:36:10Z</time>
      </trkpt>
      <trkpt lat="45.01821" lon="6.46843">
        <ele>1687</ele>
        <time>2022-01-22T07:36:16Z</time>
      </trkpt>
      <trkpt lat="45.01822" lon="6.46846">
        <ele>1687</ele>
        <time>2022-01-22T07:36:19Z</time>
      </trkpt>
      <trkpt lat="45.01824" lon="6.46849">
        <ele>1688</ele>
        <time>2022-01-22T07:36:22Z</time>
      </trkpt>
      <trkpt lat="45.01825" lon="6.46852">
        <ele>1688</ele>
        <time>2022-01-22T07:36:25Z</time>
      </trkpt>
      <trkpt lat="45.01824" lon="6.46855">
        <ele>1689</ele>
        <time>2022-01-22T07:36:28Z</time>
      </trkpt>
      <trkpt lat="45.01825" lon="6.46859">
        <ele>1689</ele>
        <time>2022-01-22T07:36:32Z</time>
      </trkpt>
      <trkpt lat="45.01824" lon="6.46862">
        <ele>1691</ele>
        <time>2022-01-22T07:36:36Z</time>
      </trkpt>
      <trkpt lat="45.0182" lon="6.46865">
        <ele>1692</ele>
        <time>2022-01-22T07:36:41Z</time>
      </trkpt>
      <trkpt lat="45.01818" lon="6.46864">
        <ele>1693</ele>
        <time>2022-01-22T07:36:45Z</time>
      </trkpt>
      <trkpt lat="45.01816" lon="6.46863">
        <ele>1694</ele>
        <time>2022-01-22T07:36:50Z</time>
      </trkpt>
      <trkpt lat="45.01812" lon="6.46861">
        <ele>1696</ele>
        <time>2022-01-22T07:36:58Z</time>
      </trkpt>
      <trkpt lat="45.0181" lon="6.46859">
        <ele>1698</ele>
        <time>2022-01-22T07:37:02Z</time>
      </trkpt>
      <trkpt lat="45.01806" lon="6.46862">
        <ele>1700</ele>
        <time>2022-01-22T07:37:08Z</time>
      </trkpt>
      <trkpt lat="45.01805" lon="6.46863">
        <ele>1701</ele>
        <time>2022-01-22T07:37:11Z</time>
      </trkpt>
      <trkpt lat="45.01802" lon="6.46863">
        <ele>1703</ele>
        <time>2022-01-22T07:37:15Z</time>
      </trkpt>
      <trkpt lat="45.018" lon="6.46862">
        <ele>1703</ele>
        <time>2022-01-22T07:37:16Z</time>
      </trkpt>
      <trkpt lat="45.01798" lon="6.46862">
        <ele>1705</ele>
        <time>2022-01-22T07:37:19Z</time>
      </trkpt>
      <trkpt lat="45.01796" lon="6.46862">
        <ele>1707</ele>
        <time>2022-01-22T07:37:23Z</time>
      </trkpt>
      <trkpt lat="45.01794" lon="6.46861">
        <ele>1707</ele>
        <time>2022-01-22T07:37:25Z</time>
      </trkpt>
      <trkpt lat="45.01784" lon="6.46858">
        <ele>1711</ele>
        <time>2022-01-22T07:37:37Z</time>
      </trkpt>
      <trkpt lat="45.01782" lon="6.46858">
        <ele>1712</ele>
        <time>2022-01-22T07:37:39Z</time>
      </trkpt>
      <trkpt lat="45.01778" lon="6.46858">
        <ele>1713</ele>
        <time>2022-01-22T07:37:44Z</time>
      </trkpt>
      <trkpt lat="45.01776" lon="6.46857">
        <ele>1714</ele>
        <time>2022-01-22T07:37:46Z</time>
      </trkpt>
      <trkpt lat="45.01774" lon="6.46857">
        <ele>1714</ele>
        <time>2022-01-22T07:37:48Z</time>
      </trkpt>
      <trkpt lat="45.01771" lon="6.46855">
        <ele>1716</ele>
        <time>2022-01-22T07:37:50Z</time>
      </trkpt>
      <trkpt lat="45.01769" lon="6.46855">
        <ele>1716</ele>
        <time>2022-01-22T07:37:54Z</time>
      </trkpt>
      <trkpt lat="45.01763" lon="6.46852">
        <ele>1718</ele>
        <time>2022-01-22T07:38:02Z</time>
      </trkpt>
      <trkpt lat="45.01761" lon="6.46853">
        <ele>1720</ele>
        <time>2022-01-22T07:38:06Z</time>
      </trkpt>
      <trkpt lat="45.01762" lon="6.46855">
        <ele>1720</ele>
        <time>2022-01-22T07:38:09Z</time>
      </trkpt>
      <trkpt lat="45.01764" lon="6.46857">
        <ele>1722</ele>
        <time>2022-01-22T07:38:17Z</time>
      </trkpt>
      <trkpt lat="45.01766" lon="6.46858">
        <ele>1723</ele>
        <time>2022-01-22T07:38:25Z</time>
      </trkpt>
      <trkpt lat="45.0177" lon="6.46863">
        <ele>1723</ele>
        <time>2022-01-22T07:38:30Z</time>
      </trkpt>
      <trkpt lat="45.01772" lon="6.46865">
        <ele>1724</ele>
        <time>2022-01-22T07:38:32Z</time>
      </trkpt>
      <trkpt lat="45.01775" lon="6.4687">
        <ele>1724</ele>
        <time>2022-01-22T07:38:36Z</time>
      </trkpt>
      <trkpt lat="45.01778" lon="6.46877">
        <ele>1725</ele>
        <time>2022-01-22T07:38:41Z</time>
      </trkpt>
      <trkpt lat="45.01781" lon="6.46879">
        <ele>1725</ele>
        <time>2022-01-22T07:38:43Z</time>
      </trkpt>
      <trkpt lat="45.01783" lon="6.46881">
        <ele>1725</ele>
        <time>2022-01-22T07:38:46Z</time>
      </trkpt>
      <trkpt lat="45.01784" lon="6.46884">
        <ele>1724</ele>
        <time>2022-01-22T07:38:48Z</time>
      </trkpt>
      <trkpt lat="45.0179" lon="6.46894">
        <ele>1724</ele>
        <time>2022-01-22T07:38:58Z</time>
      </trkpt>
      <trkpt lat="45.01792" lon="6.46896">
        <ele>1724</ele>
        <time>2022-01-22T07:39:01Z</time>
      </trkpt>
      <trkpt lat="45.01793" lon="6.46902">
        <ele>1726</ele>
        <time>2022-01-22T07:39:07Z</time>
      </trkpt>
      <trkpt lat="45.01797" lon="6.46907">
        <ele>1728</ele>
        <time>2022-01-22T07:39:16Z</time>
      </trkpt>
      <trkpt lat="45.01801" lon="6.46912">
        <ele>1728</ele>
        <time>2022-01-22T07:39:22Z</time>
      </trkpt>
      <trkpt lat="45.01802" lon="6.46914">
        <ele>1729</ele>
        <time>2022-01-22T07:39:25Z</time>
      </trkpt>
      <trkpt lat="45.01804" lon="6.46916">
        <ele>1729</ele>
        <time>2022-01-22T07:39:28Z</time>
      </trkpt>
      <trkpt lat="45.01806" lon="6.46919">
        <ele>1729</ele>
        <time>2022-01-22T07:39:30Z</time>
      </trkpt>
      <trkpt lat="45.01816" lon="6.46936">
        <ele>1731</ele>
        <time>2022-01-22T07:39:49Z</time>
      </trkpt>
      <trkpt lat="45.01818" lon="6.46939">
        <ele>1732</ele>
        <time>2022-01-22T07:39:52Z</time>
      </trkpt>
      <trkpt lat="45.01821" lon="6.46947">
        <ele>1734</ele>
        <time>2022-01-22T07:40:01Z</time>
      </trkpt>
      <trkpt lat="45.01822" lon="6.46954">
        <ele>1734</ele>
        <time>2022-01-22T07:40:07Z</time>
      </trkpt>
      <trkpt lat="45.01823" lon="6.46965">
        <ele>1735</ele>
        <time>2022-01-22T07:40:18Z</time>
      </trkpt>
      <trkpt lat="45.01823" lon="6.46969">
        <ele>1736</ele>
        <time>2022-01-22T07:40:22Z</time>
      </trkpt>
      <trkpt lat="45.01824" lon="6.46972">
        <ele>1736</ele>
        <time>2022-01-22T07:40:25Z</time>
      </trkpt>
      <trkpt lat="45.01825" lon="6.46976">
        <ele>1737</ele>
        <time>2022-01-22T07:40:42Z</time>
      </trkpt>
      <trkpt lat="45.01826" lon="6.46981">
        <ele>1736</ele>
        <time>2022-01-22T07:40:49Z</time>
      </trkpt>
      <trkpt lat="45.01827" lon="6.46984">
        <ele>1735</ele>
        <time>2022-01-22T07:40:53Z</time>
      </trkpt>
      <trkpt lat="45.01825" lon="6.46986">
        <ele>1737</ele>
        <time>2022-01-22T07:41:03Z</time>
      </trkpt>
      <trkpt lat="45.01825" lon="6.46985">
        <ele>1737</ele>
        <time>2022-01-22T07:42:01Z</time>
      </trkpt>
      <trkpt lat="45.01826" lon="6.46989">
        <ele>1737</ele>
        <time>2022-01-22T07:42:27Z</time>
      </trkpt>
      <trkpt lat="45.01827" lon="6.46992">
        <ele>1739</ele>
        <time>2022-01-22T07:42:30Z</time>
      </trkpt>
      <trkpt lat="45.01829" lon="6.46994">
        <ele>1742</ele>
        <time>2022-01-22T07:42:33Z</time>
      </trkpt>
      <trkpt lat="45.0183" lon="6.47">
        <ele>1746</ele>
        <time>2022-01-22T07:42:39Z</time>
      </trkpt>
      <trkpt lat="45.01832" lon="6.47001">
        <ele>1748</ele>
        <time>2022-01-22T07:42:42Z</time>
      </trkpt>
      <trkpt lat="45.01834" lon="6.47004">
        <ele>1750</ele>
        <time>2022-01-22T07:42:50Z</time>
      </trkpt>
      <trkpt lat="45.01833" lon="6.47007">
        <ele>1751</ele>
        <time>2022-01-22T07:42:54Z</time>
      </trkpt>
      <trkpt lat="45.01834" lon="6.4701">
        <ele>1750</ele>
        <time>2022-01-22T07:42:58Z</time>
      </trkpt>
      <trkpt lat="45.01836" lon="6.47012">
        <ele>1750</ele>
        <time>2022-01-22T07:43:04Z</time>
      </trkpt>
      <trkpt lat="45.01841" lon="6.47011">
        <ele>1754</ele>
        <time>2022-01-22T07:43:10Z</time>
      </trkpt>
      <trkpt lat="45.01846" lon="6.47012">
        <ele>1756</ele>
        <time>2022-01-22T07:43:17Z</time>
      </trkpt>
      <trkpt lat="45.01851" lon="6.47012">
        <ele>1758</ele>
        <time>2022-01-22T07:43:21Z</time>
      </trkpt>
      <trkpt lat="45.01852" lon="6.4701">
        <ele>1759</ele>
        <time>2022-01-22T07:43:24Z</time>
      </trkpt>
      <trkpt lat="45.01853" lon="6.47008">
        <ele>1759</ele>
        <time>2022-01-22T07:43:28Z</time>
      </trkpt>
      <trkpt lat="45.01855" lon="6.47008">
        <ele>1759</ele>
        <time>2022-01-22T07:43:31Z</time>
      </trkpt>
      <trkpt lat="45.0186" lon="6.4701">
        <ele>1759</ele>
        <time>2022-01-22T07:43:38Z</time>
      </trkpt>
      <trkpt lat="45.01862" lon="6.4701">
        <ele>1759</ele>
        <time>2022-01-22T07:43:40Z</time>
      </trkpt>
      <trkpt lat="45.01864" lon="6.4701">
        <ele>1758</ele>
        <time>2022-01-22T07:43:42Z</time>
      </trkpt>
      <trkpt lat="45.01866" lon="6.4701">
        <ele>1758</ele>
        <time>2022-01-22T07:43:44Z</time>
      </trkpt>
      <trkpt lat="45.01868" lon="6.47008">
        <ele>1758</ele>
        <time>2022-01-22T07:43:47Z</time>
      </trkpt>
      <trkpt lat="45.01869" lon="6.47005">
        <ele>1758</ele>
        <time>2022-01-22T07:43:50Z</time>
      </trkpt>
      <trkpt lat="45.01869" lon="6.47002">
        <ele>1758</ele>
        <time>2022-01-22T07:43:52Z</time>
      </trkpt>
      <trkpt lat="45.0187" lon="6.46999">
        <ele>1758</ele>
        <time>2022-01-22T07:43:54Z</time>
      </trkpt>
      <trkpt lat="45.0187" lon="6.46996">
        <ele>1758</ele>
        <time>2022-01-22T07:43:56Z</time>
      </trkpt>
      <trkpt lat="45.01869" lon="6.46992">
        <ele>1759</ele>
        <time>2022-01-22T07:43:59Z</time>
      </trkpt>
      <trkpt lat="45.01869" lon="6.4699">
        <ele>1759</ele>
        <time>2022-01-22T07:44:01Z</time>
      </trkpt>
      <trkpt lat="45.0187" lon="6.46987">
        <ele>1760</ele>
        <time>2022-01-22T07:44:05Z</time>
      </trkpt>
      <trkpt lat="45.01873" lon="6.46987">
        <ele>1761</ele>
        <time>2022-01-22T07:44:07Z</time>
      </trkpt>
      <trkpt lat="45.01875" lon="6.46987">
        <ele>1762</ele>
        <time>2022-01-22T07:44:11Z</time>
      </trkpt>
      <trkpt lat="45.01877" lon="6.46987">
        <ele>1763</ele>
        <time>2022-01-22T07:44:15Z</time>
      </trkpt>
      <trkpt lat="45.0188" lon="6.46988">
        <ele>1764</ele>
        <time>2022-01-22T07:44:18Z</time>
      </trkpt>
      <trkpt lat="45.01882" lon="6.46989">
        <ele>1764</ele>
        <time>2022-01-22T07:44:20Z</time>
      </trkpt>
      <trkpt lat="45.01886" lon="6.46993">
        <ele>1764</ele>
        <time>2022-01-22T07:44:26Z</time>
      </trkpt>
      <trkpt lat="45.01887" lon="6.47001">
        <ele>1763</ele>
        <time>2022-01-22T07:44:34Z</time>
      </trkpt>
      <trkpt lat="45.01888" lon="6.47004">
        <ele>1763</ele>
        <time>2022-01-22T07:44:37Z</time>
      </trkpt>
      <trkpt lat="45.0189" lon="6.47004">
        <ele>1764</ele>
        <time>2022-01-22T07:44:51Z</time>
      </trkpt>
      <trkpt lat="45.01889" lon="6.47">
        <ele>1764</ele>
        <time>2022-01-22T07:44:54Z</time>
      </trkpt>
      <trkpt lat="45.01891" lon="6.46999">
        <ele>1764</ele>
        <time>2022-01-22T07:44:56Z</time>
      </trkpt>
      <trkpt lat="45.01892" lon="6.46996">
        <ele>1765</ele>
        <time>2022-01-22T07:45:00Z</time>
      </trkpt>
      <trkpt lat="45.01892" lon="6.46993">
        <ele>1765</ele>
        <time>2022-01-22T07:45:04Z</time>
      </trkpt>
      <trkpt lat="45.01899" lon="6.46989">
        <ele>1767</ele>
        <time>2022-01-22T07:45:13Z</time>
      </trkpt>
      <trkpt lat="45.01905" lon="6.46986">
        <ele>1768</ele>
        <time>2022-01-22T07:45:20Z</time>
      </trkpt>
      <trkpt lat="45.01909" lon="6.46987">
        <ele>1769</ele>
        <time>2022-01-22T07:45:23Z</time>
      </trkpt>
      <trkpt lat="45.01911" lon="6.46986">
        <ele>1769</ele>
        <time>2022-01-22T07:45:25Z</time>
      </trkpt>
      <trkpt lat="45.01916" lon="6.46987">
        <ele>1770</ele>
        <time>2022-01-22T07:45:31Z</time>
      </trkpt>
      <trkpt lat="45.0192" lon="6.46989">
        <ele>1771</ele>
        <time>2022-01-22T07:45:35Z</time>
      </trkpt>
      <trkpt lat="45.01922" lon="6.4699">
        <ele>1772</ele>
        <time>2022-01-22T07:45:39Z</time>
      </trkpt>
      <trkpt lat="45.01924" lon="6.46988">
        <ele>1773</ele>
        <time>2022-01-22T07:45:43Z</time>
      </trkpt>
      <trkpt lat="45.01928" lon="6.46986">
        <ele>1774</ele>
        <time>2022-01-22T07:45:52Z</time>
      </trkpt>
      <trkpt lat="45.01938" lon="6.46987">
        <ele>1777</ele>
        <time>2022-01-22T07:46:03Z</time>
      </trkpt>
      <trkpt lat="45.01941" lon="6.46987">
        <ele>1777</ele>
        <time>2022-01-22T07:46:06Z</time>
      </trkpt>
      <trkpt lat="45.01943" lon="6.46987">
        <ele>1777</ele>
        <time>2022-01-22T07:46:08Z</time>
      </trkpt>
      <trkpt lat="45.01945" lon="6.46987">
        <ele>1777</ele>
        <time>2022-01-22T07:46:13Z</time>
      </trkpt>
      <trkpt lat="45.01947" lon="6.46989">
        <ele>1777</ele>
        <time>2022-01-22T07:46:17Z</time>
      </trkpt>
      <trkpt lat="45.0195" lon="6.4699">
        <ele>1777</ele>
        <time>2022-01-22T07:46:20Z</time>
      </trkpt>
      <trkpt lat="45.01958" lon="6.46994">
        <ele>1777</ele>
        <time>2022-01-22T07:46:28Z</time>
      </trkpt>
      <trkpt lat="45.01967" lon="6.46999">
        <ele>1779</ele>
        <time>2022-01-22T07:46:41Z</time>
      </trkpt>
      <trkpt lat="45.01968" lon="6.47005">
        <ele>1782</ele>
        <time>2022-01-22T07:46:50Z</time>
      </trkpt>
      <trkpt lat="45.0197" lon="6.47008">
        <ele>1782</ele>
        <time>2022-01-22T07:46:53Z</time>
      </trkpt>
      <trkpt lat="45.01972" lon="6.47009">
        <ele>1783</ele>
        <time>2022-01-22T07:46:56Z</time>
      </trkpt>
      <trkpt lat="45.01975" lon="6.47006">
        <ele>1784</ele>
        <time>2022-01-22T07:46:59Z</time>
      </trkpt>
      <trkpt lat="45.01977" lon="6.47003">
        <ele>1785</ele>
        <time>2022-01-22T07:47:01Z</time>
      </trkpt>
      <trkpt lat="45.01979" lon="6.47002">
        <ele>1785</ele>
        <time>2022-01-22T07:47:03Z</time>
      </trkpt>
      <trkpt lat="45.01988" lon="6.46987">
        <ele>1786</ele>
        <time>2022-01-22T07:47:16Z</time>
      </trkpt>
      <trkpt lat="45.01999" lon="6.46977">
        <ele>1788</ele>
        <time>2022-01-22T07:47:31Z</time>
      </trkpt>
      <trkpt lat="45.02004" lon="6.46976">
        <ele>1790</ele>
        <time>2022-01-22T07:47:37Z</time>
      </trkpt>
      <trkpt lat="45.02006" lon="6.46975">
        <ele>1790</ele>
        <time>2022-01-22T07:47:40Z</time>
      </trkpt>
      <trkpt lat="45.02008" lon="6.46974">
        <ele>1791</ele>
        <time>2022-01-22T07:47:42Z</time>
      </trkpt>
      <trkpt lat="45.02012" lon="6.46974">
        <ele>1792</ele>
        <time>2022-01-22T07:47:46Z</time>
      </trkpt>
      <trkpt lat="45.02016" lon="6.46973">
        <ele>1794</ele>
        <time>2022-01-22T07:47:50Z</time>
      </trkpt>
      <trkpt lat="45.02024" lon="6.46971">
        <ele>1796</ele>
        <time>2022-01-22T07:47:59Z</time>
      </trkpt>
      <trkpt lat="45.02026" lon="6.46972">
        <ele>1796</ele>
        <time>2022-01-22T07:48:01Z</time>
      </trkpt>
      <trkpt lat="45.02028" lon="6.46973">
        <ele>1797</ele>
        <time>2022-01-22T07:48:04Z</time>
      </trkpt>
      <trkpt lat="45.02033" lon="6.46973">
        <ele>1798</ele>
        <time>2022-01-22T07:48:09Z</time>
      </trkpt>
      <trkpt lat="45.02034" lon="6.46972">
        <ele>1799</ele>
        <time>2022-01-22T07:48:11Z</time>
      </trkpt>
      <trkpt lat="45.02038" lon="6.46972">
        <ele>1800</ele>
        <time>2022-01-22T07:48:16Z</time>
      </trkpt>
      <trkpt lat="45.02041" lon="6.46973">
        <ele>1801</ele>
        <time>2022-01-22T07:48:20Z</time>
      </trkpt>
      <trkpt lat="45.02046" lon="6.46976">
        <ele>1802</ele>
        <time>2022-01-22T07:48:26Z</time>
      </trkpt>
      <trkpt lat="45.02048" lon="6.46976">
        <ele>1803</ele>
        <time>2022-01-22T07:48:30Z</time>
      </trkpt>
      <trkpt lat="45.0205" lon="6.46975">
        <ele>1803</ele>
        <time>2022-01-22T07:48:33Z</time>
      </trkpt>
      <trkpt lat="45.02054" lon="6.46976">
        <ele>1805</ele>
        <time>2022-01-22T07:48:38Z</time>
      </trkpt>
      <trkpt lat="45.02058" lon="6.46979">
        <ele>1805</ele>
        <time>2022-01-22T07:48:43Z</time>
      </trkpt>
      <trkpt lat="45.0206" lon="6.46979">
        <ele>1805</ele>
        <time>2022-01-22T07:48:45Z</time>
      </trkpt>
      <trkpt lat="45.02068" lon="6.46988">
        <ele>1805</ele>
        <time>2022-01-22T07:48:57Z</time>
      </trkpt>
      <trkpt lat="45.02069" lon="6.4699">
        <ele>1805</ele>
        <time>2022-01-22T07:49:00Z</time>
      </trkpt>
      <trkpt lat="45.02077" lon="6.46996">
        <ele>1807</ele>
        <time>2022-01-22T07:49:10Z</time>
      </trkpt>
      <trkpt lat="45.02078" lon="6.46996">
        <ele>1808</ele>
        <time>2022-01-22T07:49:12Z</time>
      </trkpt>
      <trkpt lat="45.0208" lon="6.46997">
        <ele>1808</ele>
        <time>2022-01-22T07:49:15Z</time>
      </trkpt>
      <trkpt lat="45.02086" lon="6.46998">
        <ele>1809</ele>
        <time>2022-01-22T07:49:22Z</time>
      </trkpt>
      <trkpt lat="45.02087" lon="6.46999">
        <ele>1809</ele>
        <time>2022-01-22T07:49:24Z</time>
      </trkpt>
      <trkpt lat="45.02089" lon="6.47001">
        <ele>1809</ele>
        <time>2022-01-22T07:49:27Z</time>
      </trkpt>
      <trkpt lat="45.02103" lon="6.47006">
        <ele>1810</ele>
        <time>2022-01-22T07:49:42Z</time>
      </trkpt>
      <trkpt lat="45.02105" lon="6.47006">
        <ele>1811</ele>
        <time>2022-01-22T07:49:44Z</time>
      </trkpt>
      <trkpt lat="45.02107" lon="6.47006">
        <ele>1811</ele>
        <time>2022-01-22T07:49:48Z</time>
      </trkpt>
      <trkpt lat="45.02109" lon="6.47005">
        <ele>1811</ele>
        <time>2022-01-22T07:49:51Z</time>
      </trkpt>
      <trkpt lat="45.02114" lon="6.47005">
        <ele>1812</ele>
        <time>2022-01-22T07:49:56Z</time>
      </trkpt>
      <trkpt lat="45.02117" lon="6.47005">
        <ele>1812</ele>
        <time>2022-01-22T07:49:59Z</time>
      </trkpt>
      <trkpt lat="45.02125" lon="6.47004">
        <ele>1813</ele>
        <time>2022-01-22T07:50:07Z</time>
      </trkpt>
      <trkpt lat="45.02129" lon="6.47001">
        <ele>1813</ele>
        <time>2022-01-22T07:50:11Z</time>
      </trkpt>
      <trkpt lat="45.02131" lon="6.46999">
        <ele>1814</ele>
        <time>2022-01-22T07:50:13Z</time>
      </trkpt>
      <trkpt lat="45.02138" lon="6.46997">
        <ele>1814</ele>
        <time>2022-01-22T07:50:22Z</time>
      </trkpt>
      <trkpt lat="45.02143" lon="6.46993">
        <ele>1815</ele>
        <time>2022-01-22T07:50:30Z</time>
      </trkpt>
      <trkpt lat="45.02145" lon="6.46993">
        <ele>1816</ele>
        <time>2022-01-22T07:50:33Z</time>
      </trkpt>
      <trkpt lat="45.02147" lon="6.46991">
        <ele>1816</ele>
        <time>2022-01-22T07:50:35Z</time>
      </trkpt>
      <trkpt lat="45.02149" lon="6.4699">
        <ele>1817</ele>
        <time>2022-01-22T07:50:37Z</time>
      </trkpt>
      <trkpt lat="45.02151" lon="6.46989">
        <ele>1817</ele>
        <time>2022-01-22T07:50:39Z</time>
      </trkpt>
      <trkpt lat="45.02153" lon="6.46989">
        <ele>1817</ele>
        <time>2022-01-22T07:50:41Z</time>
      </trkpt>
      <trkpt lat="45.02154" lon="6.46988">
        <ele>1818</ele>
        <time>2022-01-22T07:50:44Z</time>
      </trkpt>
      <trkpt lat="45.02161" lon="6.46985">
        <ele>1818</ele>
        <time>2022-01-22T07:50:53Z</time>
      </trkpt>
      <trkpt lat="45.02169" lon="6.46985">
        <ele>1818</ele>
        <time>2022-01-22T07:50:59Z</time>
      </trkpt>
      <trkpt lat="45.02171" lon="6.46986">
        <ele>1818</ele>
        <time>2022-01-22T07:51:02Z</time>
      </trkpt>
      <trkpt lat="45.02174" lon="6.46986">
        <ele>1820</ele>
        <time>2022-01-22T07:51:05Z</time>
      </trkpt>
      <trkpt lat="45.02176" lon="6.46986">
        <ele>1821</ele>
        <time>2022-01-22T07:51:08Z</time>
      </trkpt>
      <trkpt lat="45.02177" lon="6.46983">
        <ele>1824</ele>
        <time>2022-01-22T07:51:10Z</time>
      </trkpt>
      <trkpt lat="45.02184" lon="6.46984">
        <ele>1826</ele>
        <time>2022-01-22T07:51:19Z</time>
      </trkpt>
      <trkpt lat="45.02186" lon="6.46984">
        <ele>1826</ele>
        <time>2022-01-22T07:51:22Z</time>
      </trkpt>
      <trkpt lat="45.02193" lon="6.46984">
        <ele>1824</ele>
        <time>2022-01-22T07:51:29Z</time>
      </trkpt>
      <trkpt lat="45.02198" lon="6.46985">
        <ele>1823</ele>
        <time>2022-01-22T07:51:33Z</time>
      </trkpt>
      <trkpt lat="45.022" lon="6.46985">
        <ele>1824</ele>
        <time>2022-01-22T07:51:35Z</time>
      </trkpt>
      <trkpt lat="45.02203" lon="6.46985">
        <ele>1824</ele>
        <time>2022-01-22T07:51:37Z</time>
      </trkpt>
      <trkpt lat="45.02205" lon="6.46985">
        <ele>1825</ele>
        <time>2022-01-22T07:51:40Z</time>
      </trkpt>
      <trkpt lat="45.02207" lon="6.46985">
        <ele>1826</ele>
        <time>2022-01-22T07:51:42Z</time>
      </trkpt>
      <trkpt lat="45.02213" lon="6.46989">
        <ele>1828</ele>
        <time>2022-01-22T07:51:47Z</time>
      </trkpt>
      <trkpt lat="45.02215" lon="6.4699">
        <ele>1829</ele>
        <time>2022-01-22T07:51:49Z</time>
      </trkpt>
      <trkpt lat="45.02221" lon="6.46995">
        <ele>1833</ele>
        <time>2022-01-22T07:51:57Z</time>
      </trkpt>
      <trkpt lat="45.02224" lon="6.46995">
        <ele>1834</ele>
        <time>2022-01-22T07:52:00Z</time>
      </trkpt>
      <trkpt lat="45.02226" lon="6.46995">
        <ele>1836</ele>
        <time>2022-01-22T07:52:03Z</time>
      </trkpt>
      <trkpt lat="45.02227" lon="6.46995">
        <ele>1837</ele>
        <time>2022-01-22T07:52:05Z</time>
      </trkpt>
      <trkpt lat="45.02229" lon="6.46996">
        <ele>1838</ele>
        <time>2022-01-22T07:52:08Z</time>
      </trkpt>
      <trkpt lat="45.02234" lon="6.46995">
        <ele>1839</ele>
        <time>2022-01-22T07:52:14Z</time>
      </trkpt>
      <trkpt lat="45.02236" lon="6.46994">
        <ele>1839</ele>
        <time>2022-01-22T07:52:16Z</time>
      </trkpt>
      <trkpt lat="45.02242" lon="6.46994">
        <ele>1839</ele>
        <time>2022-01-22T07:52:23Z</time>
      </trkpt>
      <trkpt lat="45.0225" lon="6.46997">
        <ele>1836</ele>
        <time>2022-01-22T07:52:28Z</time>
      </trkpt>
      <trkpt lat="45.02252" lon="6.46998">
        <ele>1835</ele>
        <time>2022-01-22T07:52:30Z</time>
      </trkpt>
      <trkpt lat="45.0227" lon="6.46998">
        <ele>1827</ele>
        <time>2022-01-22T07:52:46Z</time>
      </trkpt>
      <trkpt lat="45.02274" lon="6.46996">
        <ele>1826</ele>
        <time>2022-01-22T07:52:48Z</time>
      </trkpt>
      <trkpt lat="45.02276" lon="6.46995">
        <ele>1825</ele>
        <time>2022-01-22T07:52:50Z</time>
      </trkpt>
      <trkpt lat="45.0228" lon="6.46993">
        <ele>1823</ele>
        <time>2022-01-22T07:52:55Z</time>
      </trkpt>
      <trkpt lat="45.02288" lon="6.46985">
        <ele>1823</ele>
        <time>2022-01-22T07:53:06Z</time>
      </trkpt>
      <trkpt lat="45.0229" lon="6.46984">
        <ele>1823</ele>
        <time>2022-01-22T07:53:08Z</time>
      </trkpt>
      <trkpt lat="45.02292" lon="6.46983">
        <ele>1823</ele>
        <time>2022-01-22T07:53:11Z</time>
      </trkpt>
      <trkpt lat="45.02295" lon="6.46982">
        <ele>1821</ele>
        <time>2022-01-22T07:53:14Z</time>
      </trkpt>
      <trkpt lat="45.02297" lon="6.46982">
        <ele>1821</ele>
        <time>2022-01-22T07:53:16Z</time>
      </trkpt>
      <trkpt lat="45.023" lon="6.46982">
        <ele>1821</ele>
        <time>2022-01-22T07:53:20Z</time>
      </trkpt>
      <trkpt lat="45.02302" lon="6.46982">
        <ele>1822</ele>
        <time>2022-01-22T07:53:24Z</time>
      </trkpt>
      <trkpt lat="45.02304" lon="6.46982">
        <ele>1825</ele>
        <time>2022-01-22T07:53:27Z</time>
      </trkpt>
      <trkpt lat="45.02317" lon="6.46985">
        <ele>1833</ele>
        <time>2022-01-22T07:53:43Z</time>
      </trkpt>
      <trkpt lat="45.02319" lon="6.46987">
        <ele>1834</ele>
        <time>2022-01-22T07:53:45Z</time>
      </trkpt>
      <trkpt lat="45.02325" lon="6.46993">
        <ele>1835</ele>
        <time>2022-01-22T07:53:51Z</time>
      </trkpt>
      <trkpt lat="45.02327" lon="6.46997">
        <ele>1837</ele>
        <time>2022-01-22T07:53:56Z</time>
      </trkpt>
      <trkpt lat="45.02329" lon="6.46999">
        <ele>1837</ele>
        <time>2022-01-22T07:53:58Z</time>
      </trkpt>
      <trkpt lat="45.02332" lon="6.47002">
        <ele>1836</ele>
        <time>2022-01-22T07:54:03Z</time>
      </trkpt>
      <trkpt lat="45.02334" lon="6.47003">
        <ele>1835</ele>
        <time>2022-01-22T07:54:05Z</time>
      </trkpt>
      <trkpt lat="45.02337" lon="6.47008">
        <ele>1833</ele>
        <time>2022-01-22T07:54:09Z</time>
      </trkpt>
      <trkpt lat="45.02339" lon="6.47008">
        <ele>1833</ele>
        <time>2022-01-22T07:54:11Z</time>
      </trkpt>
      <trkpt lat="45.02342" lon="6.47011">
        <ele>1833</ele>
        <time>2022-01-22T07:54:15Z</time>
      </trkpt>
      <trkpt lat="45.02344" lon="6.47013">
        <ele>1833</ele>
        <time>2022-01-22T07:54:17Z</time>
      </trkpt>
      <trkpt lat="45.02349" lon="6.47019">
        <ele>1834</ele>
        <time>2022-01-22T07:54:25Z</time>
      </trkpt>
      <trkpt lat="45.0235" lon="6.4702">
        <ele>1834</ele>
        <time>2022-01-22T07:54:27Z</time>
      </trkpt>
      <trkpt lat="45.02352" lon="6.47022">
        <ele>1835</ele>
        <time>2022-01-22T07:54:30Z</time>
      </trkpt>
      <trkpt lat="45.02354" lon="6.47024">
        <ele>1835</ele>
        <time>2022-01-22T07:54:32Z</time>
      </trkpt>
      <trkpt lat="45.02355" lon="6.47026">
        <ele>1835</ele>
        <time>2022-01-22T07:54:34Z</time>
      </trkpt>
      <trkpt lat="45.02357" lon="6.47029">
        <ele>1835</ele>
        <time>2022-01-22T07:54:37Z</time>
      </trkpt>
      <trkpt lat="45.02359" lon="6.4703">
        <ele>1835</ele>
        <time>2022-01-22T07:54:39Z</time>
      </trkpt>
      <trkpt lat="45.02362" lon="6.47034">
        <ele>1836</ele>
        <time>2022-01-22T07:54:44Z</time>
      </trkpt>
      <trkpt lat="45.02363" lon="6.47038">
        <ele>1836</ele>
        <time>2022-01-22T07:54:47Z</time>
      </trkpt>
      <trkpt lat="45.02365" lon="6.4704">
        <ele>1836</ele>
        <time>2022-01-22T07:54:49Z</time>
      </trkpt>
      <trkpt lat="45.02366" lon="6.47043">
        <ele>1836</ele>
        <time>2022-01-22T07:54:51Z</time>
      </trkpt>
      <trkpt lat="45.02371" lon="6.47046">
        <ele>1836</ele>
        <time>2022-01-22T07:54:57Z</time>
      </trkpt>
      <trkpt lat="45.02372" lon="6.47048">
        <ele>1836</ele>
        <time>2022-01-22T07:55:00Z</time>
      </trkpt>
      <trkpt lat="45.02375" lon="6.47052">
        <ele>1835</ele>
        <time>2022-01-22T07:55:05Z</time>
      </trkpt>
      <trkpt lat="45.02383" lon="6.47059">
        <ele>1836</ele>
        <time>2022-01-22T07:55:16Z</time>
      </trkpt>
      <trkpt lat="45.02388" lon="6.47064">
        <ele>1837</ele>
        <time>2022-01-22T07:55:22Z</time>
      </trkpt>
      <trkpt lat="45.0239" lon="6.47065">
        <ele>1837</ele>
        <time>2022-01-22T07:55:24Z</time>
      </trkpt>
      <trkpt lat="45.02392" lon="6.47069">
        <ele>1838</ele>
        <time>2022-01-22T07:55:28Z</time>
      </trkpt>
      <trkpt lat="45.02394" lon="6.47075">
        <ele>1838</ele>
        <time>2022-01-22T07:55:32Z</time>
      </trkpt>
      <trkpt lat="45.02396" lon="6.47077">
        <ele>1839</ele>
        <time>2022-01-22T07:55:35Z</time>
      </trkpt>
      <trkpt lat="45.02398" lon="6.47078">
        <ele>1839</ele>
        <time>2022-01-22T07:55:37Z</time>
      </trkpt>
      <trkpt lat="45.024" lon="6.47079">
        <ele>1839</ele>
        <time>2022-01-22T07:55:40Z</time>
      </trkpt>
      <trkpt lat="45.02402" lon="6.47082">
        <ele>1839</ele>
        <time>2022-01-22T07:55:43Z</time>
      </trkpt>
      <trkpt lat="45.02403" lon="6.47085">
        <ele>1839</ele>
        <time>2022-01-22T07:55:46Z</time>
      </trkpt>
      <trkpt lat="45.02405" lon="6.47087">
        <ele>1839</ele>
        <time>2022-01-22T07:55:49Z</time>
      </trkpt>
      <trkpt lat="45.02409" lon="6.47096">
        <ele>1840</ele>
        <time>2022-01-22T07:55:56Z</time>
      </trkpt>
      <trkpt lat="45.0241" lon="6.47099">
        <ele>1840</ele>
        <time>2022-01-22T07:55:59Z</time>
      </trkpt>
      <trkpt lat="45.02411" lon="6.47101">
        <ele>1840</ele>
        <time>2022-01-22T07:56:02Z</time>
      </trkpt>
      <trkpt lat="45.02413" lon="6.47103">
        <ele>1840</ele>
        <time>2022-01-22T07:56:04Z</time>
      </trkpt>
      <trkpt lat="45.02414" lon="6.47106">
        <ele>1841</ele>
        <time>2022-01-22T07:56:06Z</time>
      </trkpt>
      <trkpt lat="45.02419" lon="6.47111">
        <ele>1841</ele>
        <time>2022-01-22T07:56:12Z</time>
      </trkpt>
      <trkpt lat="45.02421" lon="6.47114">
        <ele>1842</ele>
        <time>2022-01-22T07:56:15Z</time>
      </trkpt>
      <trkpt lat="45.02422" lon="6.47116">
        <ele>1842</ele>
        <time>2022-01-22T07:56:17Z</time>
      </trkpt>
      <trkpt lat="45.02424" lon="6.47118">
        <ele>1842</ele>
        <time>2022-01-22T07:56:20Z</time>
      </trkpt>
      <trkpt lat="45.02428" lon="6.47121">
        <ele>1843</ele>
        <time>2022-01-22T07:56:24Z</time>
      </trkpt>
      <trkpt lat="45.02431" lon="6.47132">
        <ele>1851</ele>
        <time>2022-01-22T07:56:34Z</time>
      </trkpt>
      <trkpt lat="45.02432" lon="6.47136">
        <ele>1852</ele>
        <time>2022-01-22T07:56:37Z</time>
      </trkpt>
      <trkpt lat="45.02434" lon="6.47138">
        <ele>1853</ele>
        <time>2022-01-22T07:56:39Z</time>
      </trkpt>
      <trkpt lat="45.02435" lon="6.4714">
        <ele>1854</ele>
        <time>2022-01-22T07:56:41Z</time>
      </trkpt>
      <trkpt lat="45.02437" lon="6.47146">
        <ele>1855</ele>
        <time>2022-01-22T07:56:45Z</time>
      </trkpt>
      <trkpt lat="45.0244" lon="6.4715">
        <ele>1857</ele>
        <time>2022-01-22T07:56:50Z</time>
      </trkpt>
      <trkpt lat="45.02444" lon="6.47159">
        <ele>1859</ele>
        <time>2022-01-22T07:56:59Z</time>
      </trkpt>
      <trkpt lat="45.02448" lon="6.47164">
        <ele>1859</ele>
        <time>2022-01-22T07:57:05Z</time>
      </trkpt>
      <trkpt lat="45.02447" lon="6.47167">
        <ele>1859</ele>
        <time>2022-01-22T07:57:09Z</time>
      </trkpt>
      <trkpt lat="45.02448" lon="6.4717">
        <ele>1858</ele>
        <time>2022-01-22T07:57:12Z</time>
      </trkpt>
      <trkpt lat="45.0245" lon="6.47175">
        <ele>1859</ele>
        <time>2022-01-22T07:57:16Z</time>
      </trkpt>
      <trkpt lat="45.02449" lon="6.47178">
        <ele>1859</ele>
        <time>2022-01-22T07:57:20Z</time>
      </trkpt>
      <trkpt lat="45.0245" lon="6.47181">
        <ele>1859</ele>
        <time>2022-01-22T07:57:23Z</time>
      </trkpt>
      <trkpt lat="45.0245" lon="6.47184">
        <ele>1858</ele>
        <time>2022-01-22T07:57:26Z</time>
      </trkpt>
      <trkpt lat="45.0245" lon="6.47187">
        <ele>1857</ele>
        <time>2022-01-22T07:57:29Z</time>
      </trkpt>
      <trkpt lat="45.02457" lon="6.47195">
        <ele>1855</ele>
        <time>2022-01-22T07:57:38Z</time>
      </trkpt>
      <trkpt lat="45.02462" lon="6.47204">
        <ele>1855</ele>
        <time>2022-01-22T07:57:46Z</time>
      </trkpt>
      <trkpt lat="45.02464" lon="6.47206">
        <ele>1855</ele>
        <time>2022-01-22T07:57:48Z</time>
      </trkpt>
      <trkpt lat="45.02466" lon="6.47211">
        <ele>1855</ele>
        <time>2022-01-22T07:57:55Z</time>
      </trkpt>
      <trkpt lat="45.02468" lon="6.47213">
        <ele>1854</ele>
        <time>2022-01-22T07:57:58Z</time>
      </trkpt>
      <trkpt lat="45.02468" lon="6.47217">
        <ele>1856</ele>
        <time>2022-01-22T07:58:01Z</time>
      </trkpt>
      <trkpt lat="45.02467" lon="6.47219">
        <ele>1857</ele>
        <time>2022-01-22T07:58:03Z</time>
      </trkpt>
      <trkpt lat="45.02467" lon="6.47222">
        <ele>1860</ele>
        <time>2022-01-22T07:58:06Z</time>
      </trkpt>
      <trkpt lat="45.02468" lon="6.47225">
        <ele>1861</ele>
        <time>2022-01-22T07:58:09Z</time>
      </trkpt>
      <trkpt lat="45.02469" lon="6.47228">
        <ele>1863</ele>
        <time>2022-01-22T07:58:12Z</time>
      </trkpt>
      <trkpt lat="45.0247" lon="6.47231">
        <ele>1865</ele>
        <time>2022-01-22T07:58:15Z</time>
      </trkpt>
      <trkpt lat="45.0247" lon="6.47234">
        <ele>1866</ele>
        <time>2022-01-22T07:58:17Z</time>
      </trkpt>
      <trkpt lat="45.0247" lon="6.47236">
        <ele>1867</ele>
        <time>2022-01-22T07:58:19Z</time>
      </trkpt>
      <trkpt lat="45.0247" lon="6.47239">
        <ele>1867</ele>
        <time>2022-01-22T07:58:21Z</time>
      </trkpt>
      <trkpt lat="45.02471" lon="6.47242">
        <ele>1867</ele>
        <time>2022-01-22T07:58:23Z</time>
      </trkpt>
      <trkpt lat="45.02471" lon="6.47245">
        <ele>1868</ele>
        <time>2022-01-22T07:58:26Z</time>
      </trkpt>
      <trkpt lat="45.02473" lon="6.47248">
        <ele>1869</ele>
        <time>2022-01-22T07:58:29Z</time>
      </trkpt>
      <trkpt lat="45.02474" lon="6.47253">
        <ele>1870</ele>
        <time>2022-01-22T07:58:34Z</time>
      </trkpt>
      <trkpt lat="45.02474" lon="6.47256">
        <ele>1870</ele>
        <time>2022-01-22T07:58:37Z</time>
      </trkpt>
      <trkpt lat="45.02475" lon="6.47262">
        <ele>1872</ele>
        <time>2022-01-22T07:58:44Z</time>
      </trkpt>
      <trkpt lat="45.02474" lon="6.47265">
        <ele>1872</ele>
        <time>2022-01-22T07:58:47Z</time>
      </trkpt>
      <trkpt lat="45.02474" lon="6.47268">
        <ele>1872</ele>
        <time>2022-01-22T07:58:49Z</time>
      </trkpt>
      <trkpt lat="45.02475" lon="6.47271">
        <ele>1873</ele>
        <time>2022-01-22T07:58:52Z</time>
      </trkpt>
      <trkpt lat="45.02477" lon="6.47276">
        <ele>1873</ele>
        <time>2022-01-22T07:58:56Z</time>
      </trkpt>
      <trkpt lat="45.02478" lon="6.47279">
        <ele>1873</ele>
        <time>2022-01-22T07:58:59Z</time>
      </trkpt>
      <trkpt lat="45.02478" lon="6.47282">
        <ele>1874</ele>
        <time>2022-01-22T07:59:01Z</time>
      </trkpt>
      <trkpt lat="45.02479" lon="6.47284">
        <ele>1874</ele>
        <time>2022-01-22T07:59:04Z</time>
      </trkpt>
      <trkpt lat="45.0248" lon="6.4729">
        <ele>1872</ele>
        <time>2022-01-22T07:59:12Z</time>
      </trkpt>
      <trkpt lat="45.02482" lon="6.47301">
        <ele>1872</ele>
        <time>2022-01-22T07:59:21Z</time>
      </trkpt>
      <trkpt lat="45.02482" lon="6.47304">
        <ele>1873</ele>
        <time>2022-01-22T07:59:23Z</time>
      </trkpt>
      <trkpt lat="45.02482" lon="6.47307">
        <ele>1874</ele>
        <time>2022-01-22T07:59:26Z</time>
      </trkpt>
      <trkpt lat="45.02484" lon="6.47309">
        <ele>1875</ele>
        <time>2022-01-22T07:59:30Z</time>
      </trkpt>
      <trkpt lat="45.02484" lon="6.47319">
        <ele>1879</ele>
        <time>2022-01-22T07:59:40Z</time>
      </trkpt>
      <trkpt lat="45.02485" lon="6.47322">
        <ele>1879</ele>
        <time>2022-01-22T07:59:43Z</time>
      </trkpt>
      <trkpt lat="45.02489" lon="6.47327">
        <ele>1879</ele>
        <time>2022-01-22T07:59:49Z</time>
      </trkpt>
      <trkpt lat="45.02491" lon="6.47329">
        <ele>1879</ele>
        <time>2022-01-22T07:59:52Z</time>
      </trkpt>
      <trkpt lat="45.02495" lon="6.47334">
        <ele>1879</ele>
        <time>2022-01-22T08:00:00Z</time>
      </trkpt>
      <trkpt lat="45.02496" lon="6.47348">
        <ele>1878</ele>
        <time>2022-01-22T08:00:10Z</time>
      </trkpt>
      <trkpt lat="45.02498" lon="6.47354">
        <ele>1879</ele>
        <time>2022-01-22T08:00:15Z</time>
      </trkpt>
      <trkpt lat="45.02498" lon="6.47358">
        <ele>1879</ele>
        <time>2022-01-22T08:00:19Z</time>
      </trkpt>
      <trkpt lat="45.02498" lon="6.47366">
        <ele>1880</ele>
        <time>2022-01-22T08:00:28Z</time>
      </trkpt>
      <trkpt lat="45.02497" lon="6.47369">
        <ele>1881</ele>
        <time>2022-01-22T08:00:31Z</time>
      </trkpt>
      <trkpt lat="45.02498" lon="6.47372">
        <ele>1881</ele>
        <time>2022-01-22T08:00:34Z</time>
      </trkpt>
      <trkpt lat="45.02499" lon="6.47379">
        <ele>1882</ele>
        <time>2022-01-22T08:00:39Z</time>
      </trkpt>
      <trkpt lat="45.025" lon="6.47382">
        <ele>1882</ele>
        <time>2022-01-22T08:00:42Z</time>
      </trkpt>
      <trkpt lat="45.02501" lon="6.47385">
        <ele>1883</ele>
        <time>2022-01-22T08:00:45Z</time>
      </trkpt>
      <trkpt lat="45.02503" lon="6.47387">
        <ele>1885</ele>
        <time>2022-01-22T08:00:49Z</time>
      </trkpt>
      <trkpt lat="45.02505" lon="6.47388">
        <ele>1885</ele>
        <time>2022-01-22T08:00:52Z</time>
      </trkpt>
      <trkpt lat="45.02506" lon="6.4739">
        <ele>1887</ele>
        <time>2022-01-22T08:00:57Z</time>
      </trkpt>
      <trkpt lat="45.02506" lon="6.47394">
        <ele>1888</ele>
        <time>2022-01-22T08:01:01Z</time>
      </trkpt>
      <trkpt lat="45.02508" lon="6.47396">
        <ele>1888</ele>
        <time>2022-01-22T08:01:04Z</time>
      </trkpt>
      <trkpt lat="45.02509" lon="6.474">
        <ele>1888</ele>
        <time>2022-01-22T08:01:08Z</time>
      </trkpt>
      <trkpt lat="45.02514" lon="6.47409">
        <ele>1887</ele>
        <time>2022-01-22T08:01:22Z</time>
      </trkpt>
      <trkpt lat="45.02513" lon="6.47414">
        <ele>1888</ele>
        <time>2022-01-22T08:01:27Z</time>
      </trkpt>
      <trkpt lat="45.02516" lon="6.47416">
        <ele>1888</ele>
        <time>2022-01-22T08:01:30Z</time>
      </trkpt>
      <trkpt lat="45.02518" lon="6.47418">
        <ele>1889</ele>
        <time>2022-01-22T08:01:32Z</time>
      </trkpt>
      <trkpt lat="45.0252" lon="6.4742">
        <ele>1888</ele>
        <time>2022-01-22T08:01:35Z</time>
      </trkpt>
      <trkpt lat="45.02521" lon="6.47424">
        <ele>1888</ele>
        <time>2022-01-22T08:01:38Z</time>
      </trkpt>
      <trkpt lat="45.02521" lon="6.47431">
        <ele>1888</ele>
        <time>2022-01-22T08:01:42Z</time>
      </trkpt>
      <trkpt lat="45.02521" lon="6.47435">
        <ele>1888</ele>
        <time>2022-01-22T08:01:44Z</time>
      </trkpt>
      <trkpt lat="45.02519" lon="6.47437">
        <ele>1888</ele>
        <time>2022-01-22T08:01:45Z</time>
      </trkpt>
      <trkpt lat="45.0252" lon="6.4744">
        <ele>1887</ele>
        <time>2022-01-22T08:01:54Z</time>
      </trkpt>
      <trkpt lat="45.02525" lon="6.47444">
        <ele>1888</ele>
        <time>2022-01-22T08:01:59Z</time>
      </trkpt>
      <trkpt lat="45.02526" lon="6.47446">
        <ele>1890</ele>
        <time>2022-01-22T08:02:02Z</time>
      </trkpt>
      <trkpt lat="45.02529" lon="6.47448">
        <ele>1892</ele>
        <time>2022-01-22T08:02:05Z</time>
      </trkpt>
      <trkpt lat="45.0253" lon="6.47451">
        <ele>1893</ele>
        <time>2022-01-22T08:02:09Z</time>
      </trkpt>
      <trkpt lat="45.0253" lon="6.47459">
        <ele>1894</ele>
        <time>2022-01-22T08:02:16Z</time>
      </trkpt>
      <trkpt lat="45.02532" lon="6.47461">
        <ele>1894</ele>
        <time>2022-01-22T08:02:19Z</time>
      </trkpt>
      <trkpt lat="45.02534" lon="6.47464">
        <ele>1895</ele>
        <time>2022-01-22T08:02:22Z</time>
      </trkpt>
      <trkpt lat="45.02536" lon="6.47466">
        <ele>1895</ele>
        <time>2022-01-22T08:02:25Z</time>
      </trkpt>
      <trkpt lat="45.02538" lon="6.47468">
        <ele>1895</ele>
        <time>2022-01-22T08:02:27Z</time>
      </trkpt>
      <trkpt lat="45.0254" lon="6.4747">
        <ele>1896</ele>
        <time>2022-01-22T08:02:29Z</time>
      </trkpt>
      <trkpt lat="45.02543" lon="6.4747">
        <ele>1898</ele>
        <time>2022-01-22T08:02:31Z</time>
      </trkpt>
      <trkpt lat="45.02546" lon="6.47475">
        <ele>1902</ele>
        <time>2022-01-22T08:02:37Z</time>
      </trkpt>
      <trkpt lat="45.02545" lon="6.47479">
        <ele>1903</ele>
        <time>2022-01-22T08:02:41Z</time>
      </trkpt>
      <trkpt lat="45.02546" lon="6.47483">
        <ele>1907</ele>
        <time>2022-01-22T08:02:44Z</time>
      </trkpt>
      <trkpt lat="45.02549" lon="6.47485">
        <ele>1908</ele>
        <time>2022-01-22T08:02:47Z</time>
      </trkpt>
      <trkpt lat="45.02552" lon="6.47494">
        <ele>1911</ele>
        <time>2022-01-22T08:02:59Z</time>
      </trkpt>
      <trkpt lat="45.02556" lon="6.47496">
        <ele>1911</ele>
        <time>2022-01-22T08:03:03Z</time>
      </trkpt>
      <trkpt lat="45.02563" lon="6.47498">
        <ele>1913</ele>
        <time>2022-01-22T08:03:12Z</time>
      </trkpt>
      <trkpt lat="45.02565" lon="6.47499">
        <ele>1914</ele>
        <time>2022-01-22T08:03:15Z</time>
      </trkpt>
      <trkpt lat="45.02567" lon="6.47501">
        <ele>1914</ele>
        <time>2022-01-22T08:03:19Z</time>
      </trkpt>
      <trkpt lat="45.02567" lon="6.47505">
        <ele>1915</ele>
        <time>2022-01-22T08:03:23Z</time>
      </trkpt>
      <trkpt lat="45.02566" lon="6.47508">
        <ele>1915</ele>
        <time>2022-01-22T08:03:26Z</time>
      </trkpt>
      <trkpt lat="45.02568" lon="6.47511">
        <ele>1915</ele>
        <time>2022-01-22T08:03:30Z</time>
      </trkpt>
      <trkpt lat="45.02569" lon="6.47514">
        <ele>1915</ele>
        <time>2022-01-22T08:03:34Z</time>
      </trkpt>
      <trkpt lat="45.02569" lon="6.47516">
        <ele>1915</ele>
        <time>2022-01-22T08:03:48Z</time>
      </trkpt>
      <trkpt lat="45.0257" lon="6.47514">
        <ele>1916</ele>
        <time>2022-01-22T08:03:56Z</time>
      </trkpt>
      <trkpt lat="45.02571" lon="6.47512">
        <ele>1916</ele>
        <time>2022-01-22T08:04:02Z</time>
      </trkpt>
      <trkpt lat="45.02572" lon="6.47515">
        <ele>1915</ele>
        <time>2022-01-22T08:04:21Z</time>
      </trkpt>
      <trkpt lat="45.02572" lon="6.47518">
        <ele>1915</ele>
        <time>2022-01-22T08:04:24Z</time>
      </trkpt>
      <trkpt lat="45.02573" lon="6.47521">
        <ele>1914</ele>
        <time>2022-01-22T08:04:27Z</time>
      </trkpt>
      <trkpt lat="45.02575" lon="6.47523">
        <ele>1913</ele>
        <time>2022-01-22T08:04:30Z</time>
      </trkpt>
      <trkpt lat="45.02578" lon="6.47528">
        <ele>1911</ele>
        <time>2022-01-22T08:04:37Z</time>
      </trkpt>
      <trkpt lat="45.02579" lon="6.47534">
        <ele>1910</ele>
        <time>2022-01-22T08:04:43Z</time>
      </trkpt>
      <trkpt lat="45.02579" lon="6.47537">
        <ele>1910</ele>
        <time>2022-01-22T08:04:45Z</time>
      </trkpt>
      <trkpt lat="45.0258" lon="6.4754">
        <ele>1910</ele>
        <time>2022-01-22T08:04:48Z</time>
      </trkpt>
      <trkpt lat="45.02585" lon="6.47542">
        <ele>1912</ele>
        <time>2022-01-22T08:04:55Z</time>
      </trkpt>
      <trkpt lat="45.02586" lon="6.47545">
        <ele>1912</ele>
        <time>2022-01-22T08:04:58Z</time>
      </trkpt>
      <trkpt lat="45.02585" lon="6.47548">
        <ele>1912</ele>
        <time>2022-01-22T08:05:00Z</time>
      </trkpt>
      <trkpt lat="45.02586" lon="6.47551">
        <ele>1913</ele>
        <time>2022-01-22T08:05:04Z</time>
      </trkpt>
      <trkpt lat="45.02586" lon="6.47556">
        <ele>1913</ele>
        <time>2022-01-22T08:05:07Z</time>
      </trkpt>
      <trkpt lat="45.02586" lon="6.47563">
        <ele>1914</ele>
        <time>2022-01-22T08:05:14Z</time>
      </trkpt>
      <trkpt lat="45.02585" lon="6.47568">
        <ele>1914</ele>
        <time>2022-01-22T08:05:22Z</time>
      </trkpt>
      <trkpt lat="45.02585" lon="6.47571">
        <ele>1915</ele>
        <time>2022-01-22T08:05:26Z</time>
      </trkpt>
      <trkpt lat="45.02586" lon="6.47573">
        <ele>1915</ele>
        <time>2022-01-22T08:05:29Z</time>
      </trkpt>
      <trkpt lat="45.02587" lon="6.47579">
        <ele>1915</ele>
        <time>2022-01-22T08:05:35Z</time>
      </trkpt>
      <trkpt lat="45.02586" lon="6.47583">
        <ele>1916</ele>
        <time>2022-01-22T08:05:38Z</time>
      </trkpt>
      <trkpt lat="45.02592" lon="6.47597">
        <ele>1918</ele>
        <time>2022-01-22T08:05:54Z</time>
      </trkpt>
      <trkpt lat="45.02593" lon="6.47597">
        <ele>1918</ele>
        <time>2022-01-22T08:05:59Z</time>
      </trkpt>
      <trkpt lat="45.02593" lon="6.47601">
        <ele>1919</ele>
        <time>2022-01-22T08:06:20Z</time>
      </trkpt>
      <trkpt lat="45.02592" lon="6.47603">
        <ele>1922</ele>
        <time>2022-01-22T08:06:22Z</time>
      </trkpt>
      <trkpt lat="45.02593" lon="6.47606">
        <ele>1923</ele>
        <time>2022-01-22T08:06:25Z</time>
      </trkpt>
      <trkpt lat="45.02595" lon="6.4761">
        <ele>1925</ele>
        <time>2022-01-22T08:06:31Z</time>
      </trkpt>
      <trkpt lat="45.02596" lon="6.47616">
        <ele>1925</ele>
        <time>2022-01-22T08:06:36Z</time>
      </trkpt>
      <trkpt lat="45.02599" lon="6.47626">
        <ele>1926</ele>
        <time>2022-01-22T08:06:48Z</time>
      </trkpt>
      <trkpt lat="45.02601" lon="6.47631">
        <ele>1928</ele>
        <time>2022-01-22T08:06:56Z</time>
      </trkpt>
      <trkpt lat="45.02602" lon="6.47633">
        <ele>1928</ele>
        <time>2022-01-22T08:07:00Z</time>
      </trkpt>
      <trkpt lat="45.02608" lon="6.47638">
        <ele>1929</ele>
        <time>2022-01-22T08:07:11Z</time>
      </trkpt>
      <trkpt lat="45.02609" lon="6.47645">
        <ele>1929</ele>
        <time>2022-01-22T08:07:18Z</time>
      </trkpt>
      <trkpt lat="45.02608" lon="6.47651">
        <ele>1929</ele>
        <time>2022-01-22T08:07:23Z</time>
      </trkpt>
      <trkpt lat="45.02607" lon="6.47655">
        <ele>1929</ele>
        <time>2022-01-22T08:07:26Z</time>
      </trkpt>
      <trkpt lat="45.02603" lon="6.47662">
        <ele>1929</ele>
        <time>2022-01-22T08:07:33Z</time>
      </trkpt>
      <trkpt lat="45.02602" lon="6.47665">
        <ele>1929</ele>
        <time>2022-01-22T08:07:35Z</time>
      </trkpt>
      <trkpt lat="45.02598" lon="6.47673">
        <ele>1929</ele>
        <time>2022-01-22T08:07:43Z</time>
      </trkpt>
      <trkpt lat="45.02598" lon="6.47676">
        <ele>1929</ele>
        <time>2022-01-22T08:07:48Z</time>
      </trkpt>
      <trkpt lat="45.02599" lon="6.47678">
        <ele>1929</ele>
        <time>2022-01-22T08:07:52Z</time>
      </trkpt>
      <trkpt lat="45.02602" lon="6.47678">
        <ele>1929</ele>
        <time>2022-01-22T08:07:55Z</time>
      </trkpt>
      <trkpt lat="45.02604" lon="6.4768">
        <ele>1929</ele>
        <time>2022-01-22T08:08:00Z</time>
      </trkpt>
      <trkpt lat="45.02605" lon="6.47683">
        <ele>1930</ele>
        <time>2022-01-22T08:08:06Z</time>
      </trkpt>
      <trkpt lat="45.02606" lon="6.47686">
        <ele>1930</ele>
        <time>2022-01-22T08:08:09Z</time>
      </trkpt>
      <trkpt lat="45.02607" lon="6.47688">
        <ele>1931</ele>
        <time>2022-01-22T08:08:11Z</time>
      </trkpt>
      <trkpt lat="45.02608" lon="6.47691">
        <ele>1931</ele>
        <time>2022-01-22T08:08:15Z</time>
      </trkpt>
      <trkpt lat="45.02609" lon="6.47694">
        <ele>1933</ele>
        <time>2022-01-22T08:08:20Z</time>
      </trkpt>
      <trkpt lat="45.02608" lon="6.47698">
        <ele>1933</ele>
        <time>2022-01-22T08:08:30Z</time>
      </trkpt>
      <trkpt lat="45.0261" lon="6.477">
        <ele>1935</ele>
        <time>2022-01-22T08:08:41Z</time>
      </trkpt>
      <trkpt lat="45.02611" lon="6.47702">
        <ele>1936</ele>
        <time>2022-01-22T08:08:44Z</time>
      </trkpt>
      <trkpt lat="45.02613" lon="6.47705">
        <ele>1937</ele>
        <time>2022-01-22T08:08:47Z</time>
      </trkpt>
      <trkpt lat="45.02614" lon="6.47708">
        <ele>1938</ele>
        <time>2022-01-22T08:08:50Z</time>
      </trkpt>
      <trkpt lat="45.02618" lon="6.47715">
        <ele>1942</ele>
        <time>2022-01-22T08:08:58Z</time>
      </trkpt>
      <trkpt lat="45.0262" lon="6.47717">
        <ele>1943</ele>
        <time>2022-01-22T08:09:02Z</time>
      </trkpt>
      <trkpt lat="45.02621" lon="6.4772">
        <ele>1944</ele>
        <time>2022-01-22T08:09:06Z</time>
      </trkpt>
      <trkpt lat="45.02622" lon="6.47729">
        <ele>1946</ele>
        <time>2022-01-22T08:09:15Z</time>
      </trkpt>
      <trkpt lat="45.02624" lon="6.47732">
        <ele>1946</ele>
        <time>2022-01-22T08:09:18Z</time>
      </trkpt>
      <trkpt lat="45.02626" lon="6.47732">
        <ele>1947</ele>
        <time>2022-01-22T08:09:23Z</time>
      </trkpt>
      <trkpt lat="45.02627" lon="6.47735">
        <ele>1946</ele>
        <time>2022-01-22T08:09:26Z</time>
      </trkpt>
      <trkpt lat="45.0263" lon="6.47743">
        <ele>1946</ele>
        <time>2022-01-22T08:09:35Z</time>
      </trkpt>
      <trkpt lat="45.0263" lon="6.47746">
        <ele>1946</ele>
        <time>2022-01-22T08:09:38Z</time>
      </trkpt>
      <trkpt lat="45.0263" lon="6.47749">
        <ele>1946</ele>
        <time>2022-01-22T08:09:44Z</time>
      </trkpt>
      <trkpt lat="45.02632" lon="6.4775">
        <ele>1947</ele>
        <time>2022-01-22T08:09:49Z</time>
      </trkpt>
      <trkpt lat="45.02636" lon="6.47751">
        <ele>1948</ele>
        <time>2022-01-22T08:09:53Z</time>
      </trkpt>
      <trkpt lat="45.0264" lon="6.47755">
        <ele>1949</ele>
        <time>2022-01-22T08:09:59Z</time>
      </trkpt>
      <trkpt lat="45.02641" lon="6.47758">
        <ele>1949</ele>
        <time>2022-01-22T08:10:02Z</time>
      </trkpt>
      <trkpt lat="45.02643" lon="6.47761">
        <ele>1950</ele>
        <time>2022-01-22T08:10:05Z</time>
      </trkpt>
      <trkpt lat="45.02644" lon="6.47763">
        <ele>1952</ele>
        <time>2022-01-22T08:10:08Z</time>
      </trkpt>
      <trkpt lat="45.02645" lon="6.47765">
        <ele>1953</ele>
        <time>2022-01-22T08:10:19Z</time>
      </trkpt>
      <trkpt lat="45.02647" lon="6.47768">
        <ele>1954</ele>
        <time>2022-01-22T08:10:22Z</time>
      </trkpt>
      <trkpt lat="45.02649" lon="6.4777">
        <ele>1954</ele>
        <time>2022-01-22T08:10:25Z</time>
      </trkpt>
      <trkpt lat="45.02651" lon="6.47777">
        <ele>1955</ele>
        <time>2022-01-22T08:10:32Z</time>
      </trkpt>
      <trkpt lat="45.02654" lon="6.47782">
        <ele>1956</ele>
        <time>2022-01-22T08:10:38Z</time>
      </trkpt>
      <trkpt lat="45.02654" lon="6.47786">
        <ele>1956</ele>
        <time>2022-01-22T08:10:42Z</time>
      </trkpt>
      <trkpt lat="45.02655" lon="6.47788">
        <ele>1957</ele>
        <time>2022-01-22T08:10:45Z</time>
      </trkpt>
      <trkpt lat="45.02656" lon="6.47791">
        <ele>1958</ele>
        <time>2022-01-22T08:10:49Z</time>
      </trkpt>
      <trkpt lat="45.02656" lon="6.47794">
        <ele>1960</ele>
        <time>2022-01-22T08:10:56Z</time>
      </trkpt>
      <trkpt lat="45.02654" lon="6.47798">
        <ele>1961</ele>
        <time>2022-01-22T08:11:00Z</time>
      </trkpt>
      <trkpt lat="45.02653" lon="6.478">
        <ele>1961</ele>
        <time>2022-01-22T08:11:03Z</time>
      </trkpt>
      <trkpt lat="45.02651" lon="6.47801">
        <ele>1962</ele>
        <time>2022-01-22T08:11:07Z</time>
      </trkpt>
      <trkpt lat="45.02649" lon="6.47801">
        <ele>1963</ele>
        <time>2022-01-22T08:11:09Z</time>
      </trkpt>
      <trkpt lat="45.02642" lon="6.47804">
        <ele>1968</ele>
        <time>2022-01-22T08:11:20Z</time>
      </trkpt>
      <trkpt lat="45.0264" lon="6.47811">
        <ele>1970</ele>
        <time>2022-01-22T08:11:26Z</time>
      </trkpt>
      <trkpt lat="45.0264" lon="6.47814">
        <ele>1971</ele>
        <time>2022-01-22T08:11:28Z</time>
      </trkpt>
      <trkpt lat="45.02638" lon="6.4782">
        <ele>1972</ele>
        <time>2022-01-22T08:11:38Z</time>
      </trkpt>
      <trkpt lat="45.02632" lon="6.47827">
        <ele>1972</ele>
        <time>2022-01-22T08:12:11Z</time>
      </trkpt>
      <trkpt lat="45.02631" lon="6.47833">
        <ele>1972</ele>
        <time>2022-01-22T08:12:22Z</time>
      </trkpt>
      <trkpt lat="45.02628" lon="6.47838">
        <ele>1973</ele>
        <time>2022-01-22T08:12:29Z</time>
      </trkpt>
      <trkpt lat="45.02627" lon="6.47841">
        <ele>1973</ele>
        <time>2022-01-22T08:12:33Z</time>
      </trkpt>
      <trkpt lat="45.02628" lon="6.47844">
        <ele>1973</ele>
        <time>2022-01-22T08:12:36Z</time>
      </trkpt>
      <trkpt lat="45.0263" lon="6.4785">
        <ele>1974</ele>
        <time>2022-01-22T08:12:42Z</time>
      </trkpt>
      <trkpt lat="45.02635" lon="6.47854">
        <ele>1976</ele>
        <time>2022-01-22T08:12:53Z</time>
      </trkpt>
      <trkpt lat="45.02637" lon="6.47857">
        <ele>1976</ele>
        <time>2022-01-22T08:12:57Z</time>
      </trkpt>
      <trkpt lat="45.02637" lon="6.47859">
        <ele>1976</ele>
        <time>2022-01-22T08:13:00Z</time>
      </trkpt>
      <trkpt lat="45.02637" lon="6.47862">
        <ele>1976</ele>
        <time>2022-01-22T08:13:03Z</time>
      </trkpt>
      <trkpt lat="45.02638" lon="6.47867">
        <ele>1977</ele>
        <time>2022-01-22T08:13:06Z</time>
      </trkpt>
      <trkpt lat="45.02638" lon="6.4787">
        <ele>1978</ele>
        <time>2022-01-22T08:13:10Z</time>
      </trkpt>
      <trkpt lat="45.02639" lon="6.47873">
        <ele>1979</ele>
        <time>2022-01-22T08:13:15Z</time>
      </trkpt>
      <trkpt lat="45.02639" lon="6.47875">
        <ele>1982</ele>
        <time>2022-01-22T08:13:22Z</time>
      </trkpt>
      <trkpt lat="45.02637" lon="6.47882">
        <ele>1984</ele>
        <time>2022-01-22T08:13:28Z</time>
      </trkpt>
      <trkpt lat="45.02637" lon="6.47892">
        <ele>1987</ele>
        <time>2022-01-22T08:13:39Z</time>
      </trkpt>
      <trkpt lat="45.02637" lon="6.47895">
        <ele>1987</ele>
        <time>2022-01-22T08:13:42Z</time>
      </trkpt>
      <trkpt lat="45.02638" lon="6.47897">
        <ele>1988</ele>
        <time>2022-01-22T08:13:48Z</time>
      </trkpt>
      <trkpt lat="45.02641" lon="6.47898">
        <ele>1990</ele>
        <time>2022-01-22T08:13:51Z</time>
      </trkpt>
      <trkpt lat="45.02643" lon="6.47898">
        <ele>1990</ele>
        <time>2022-01-22T08:13:53Z</time>
      </trkpt>
      <trkpt lat="45.02645" lon="6.47897">
        <ele>1991</ele>
        <time>2022-01-22T08:13:56Z</time>
      </trkpt>
      <trkpt lat="45.02649" lon="6.47898">
        <ele>1992</ele>
        <time>2022-01-22T08:14:02Z</time>
      </trkpt>
      <trkpt lat="45.02653" lon="6.47896">
        <ele>1993</ele>
        <time>2022-01-22T08:14:09Z</time>
      </trkpt>
      <trkpt lat="45.02658" lon="6.47892">
        <ele>1993</ele>
        <time>2022-01-22T08:14:16Z</time>
      </trkpt>
      <trkpt lat="45.0266" lon="6.47892">
        <ele>1994</ele>
        <time>2022-01-22T08:14:18Z</time>
      </trkpt>
      <trkpt lat="45.02669" lon="6.47889">
        <ele>1995</ele>
        <time>2022-01-22T08:14:30Z</time>
      </trkpt>
      <trkpt lat="45.02671" lon="6.47888">
        <ele>1995</ele>
        <time>2022-01-22T08:14:34Z</time>
      </trkpt>
      <trkpt lat="45.02675" lon="6.4789">
        <ele>1995</ele>
        <time>2022-01-22T08:14:46Z</time>
      </trkpt>
      <trkpt lat="45.02677" lon="6.47889">
        <ele>1996</ele>
        <time>2022-01-22T08:14:57Z</time>
      </trkpt>
      <trkpt lat="45.02679" lon="6.47888">
        <ele>1996</ele>
        <time>2022-01-22T08:15:06Z</time>
      </trkpt>
      <trkpt lat="45.02679" lon="6.47891">
        <ele>1996</ele>
        <time>2022-01-22T08:15:25Z</time>
      </trkpt>
      <trkpt lat="45.02678" lon="6.47895">
        <ele>1996</ele>
        <time>2022-01-22T08:15:28Z</time>
      </trkpt>
      <trkpt lat="45.02679" lon="6.47899">
        <ele>1996</ele>
        <time>2022-01-22T08:15:31Z</time>
      </trkpt>
      <trkpt lat="45.0268" lon="6.47901">
        <ele>1996</ele>
        <time>2022-01-22T08:15:35Z</time>
      </trkpt>
      <trkpt lat="45.02681" lon="6.47902">
        <ele>1997</ele>
        <time>2022-01-22T08:15:41Z</time>
      </trkpt>
      <trkpt lat="45.02685" lon="6.479">
        <ele>1999</ele>
        <time>2022-01-22T08:15:47Z</time>
      </trkpt>
      <trkpt lat="45.02688" lon="6.47902">
        <ele>2001</ele>
        <time>2022-01-22T08:15:50Z</time>
      </trkpt>
      <trkpt lat="45.0269" lon="6.47902">
        <ele>2002</ele>
        <time>2022-01-22T08:15:53Z</time>
      </trkpt>
      <trkpt lat="45.02693" lon="6.47903">
        <ele>2004</ele>
        <time>2022-01-22T08:15:56Z</time>
      </trkpt>
      <trkpt lat="45.02695" lon="6.47903">
        <ele>2005</ele>
        <time>2022-01-22T08:15:58Z</time>
      </trkpt>
      <trkpt lat="45.02699" lon="6.47904">
        <ele>2008</ele>
        <time>2022-01-22T08:16:05Z</time>
      </trkpt>
      <trkpt lat="45.02698" lon="6.47907">
        <ele>2009</ele>
        <time>2022-01-22T08:16:09Z</time>
      </trkpt>
      <trkpt lat="45.02696" lon="6.47908">
        <ele>2009</ele>
        <time>2022-01-22T08:16:13Z</time>
      </trkpt>
      <trkpt lat="45.02694" lon="6.4791">
        <ele>2009</ele>
        <time>2022-01-22T08:16:17Z</time>
      </trkpt>
      <trkpt lat="45.02692" lon="6.47912">
        <ele>2010</ele>
        <time>2022-01-22T08:16:20Z</time>
      </trkpt>
      <trkpt lat="45.0269" lon="6.47915">
        <ele>2010</ele>
        <time>2022-01-22T08:16:22Z</time>
      </trkpt>
      <trkpt lat="45.02688" lon="6.47918">
        <ele>2010</ele>
        <time>2022-01-22T08:16:27Z</time>
      </trkpt>
      <trkpt lat="45.02689" lon="6.4792">
        <ele>2009</ele>
        <time>2022-01-22T08:16:30Z</time>
      </trkpt>
      <trkpt lat="45.02691" lon="6.47923">
        <ele>2009</ele>
        <time>2022-01-22T08:16:33Z</time>
      </trkpt>
      <trkpt lat="45.02694" lon="6.47923">
        <ele>2010</ele>
        <time>2022-01-22T08:16:35Z</time>
      </trkpt>
      <trkpt lat="45.02696" lon="6.47923">
        <ele>2010</ele>
        <time>2022-01-22T08:16:45Z</time>
      </trkpt>
      <trkpt lat="45.02698" lon="6.47923">
        <ele>2010</ele>
        <time>2022-01-22T08:16:49Z</time>
      </trkpt>
      <trkpt lat="45.02701" lon="6.47923">
        <ele>2010</ele>
        <time>2022-01-22T08:16:52Z</time>
      </trkpt>
      <trkpt lat="45.02703" lon="6.47924">
        <ele>2011</ele>
        <time>2022-01-22T08:16:55Z</time>
      </trkpt>
      <trkpt lat="45.02704" lon="6.47927">
        <ele>2012</ele>
        <time>2022-01-22T08:16:58Z</time>
      </trkpt>
      <trkpt lat="45.02706" lon="6.47928">
        <ele>2014</ele>
        <time>2022-01-22T08:17:01Z</time>
      </trkpt>
      <trkpt lat="45.02707" lon="6.47931">
        <ele>2015</ele>
        <time>2022-01-22T08:17:05Z</time>
      </trkpt>
      <trkpt lat="45.02709" lon="6.47932">
        <ele>2017</ele>
        <time>2022-01-22T08:17:08Z</time>
      </trkpt>
      <trkpt lat="45.02713" lon="6.47935">
        <ele>2019</ele>
        <time>2022-01-22T08:17:15Z</time>
      </trkpt>
      <trkpt lat="45.02719" lon="6.47937">
        <ele>2021</ele>
        <time>2022-01-22T08:17:26Z</time>
      </trkpt>
      <trkpt lat="45.02721" lon="6.47937">
        <ele>2022</ele>
        <time>2022-01-22T08:17:29Z</time>
      </trkpt>
      <trkpt lat="45.02722" lon="6.47941">
        <ele>2023</ele>
        <time>2022-01-22T08:17:33Z</time>
      </trkpt>
      <trkpt lat="45.02723" lon="6.47948">
        <ele>2026</ele>
        <time>2022-01-22T08:17:43Z</time>
      </trkpt>
      <trkpt lat="45.02724" lon="6.4795">
        <ele>2026</ele>
        <time>2022-01-22T08:17:48Z</time>
      </trkpt>
      <trkpt lat="45.02725" lon="6.47952">
        <ele>2026</ele>
        <time>2022-01-22T08:17:51Z</time>
      </trkpt>
      <trkpt lat="45.02728" lon="6.47952">
        <ele>2026</ele>
        <time>2022-01-22T08:17:54Z</time>
      </trkpt>
      <trkpt lat="45.02731" lon="6.47952">
        <ele>2027</ele>
        <time>2022-01-22T08:17:57Z</time>
      </trkpt>
      <trkpt lat="45.0273" lon="6.47958">
        <ele>2027</ele>
        <time>2022-01-22T08:18:07Z</time>
      </trkpt>
      <trkpt lat="45.02729" lon="6.47961">
        <ele>2027</ele>
        <time>2022-01-22T08:18:10Z</time>
      </trkpt>
      <trkpt lat="45.02725" lon="6.4797">
        <ele>2028</ele>
        <time>2022-01-22T08:18:20Z</time>
      </trkpt>
      <trkpt lat="45.02726" lon="6.47973">
        <ele>2028</ele>
        <time>2022-01-22T08:18:26Z</time>
      </trkpt>
      <trkpt lat="45.02726" lon="6.47976">
        <ele>2027</ele>
        <time>2022-01-22T08:18:31Z</time>
      </trkpt>
      <trkpt lat="45.02726" lon="6.4798">
        <ele>2027</ele>
        <time>2022-01-22T08:18:38Z</time>
      </trkpt>
      <trkpt lat="45.02728" lon="6.47981">
        <ele>2026</ele>
        <time>2022-01-22T08:18:43Z</time>
      </trkpt>
      <trkpt lat="45.0273" lon="6.47983">
        <ele>2026</ele>
        <time>2022-01-22T08:18:46Z</time>
      </trkpt>
      <trkpt lat="45.02732" lon="6.47984">
        <ele>2026</ele>
        <time>2022-01-22T08:18:48Z</time>
      </trkpt>
      <trkpt lat="45.02734" lon="6.47986">
        <ele>2027</ele>
        <time>2022-01-22T08:18:53Z</time>
      </trkpt>
      <trkpt lat="45.02736" lon="6.47989">
        <ele>2028</ele>
        <time>2022-01-22T08:19:02Z</time>
      </trkpt>
      <trkpt lat="45.02738" lon="6.47991">
        <ele>2030</ele>
        <time>2022-01-22T08:19:06Z</time>
      </trkpt>
      <trkpt lat="45.02739" lon="6.47993">
        <ele>2031</ele>
        <time>2022-01-22T08:19:08Z</time>
      </trkpt>
      <trkpt lat="45.0274" lon="6.47995">
        <ele>2031</ele>
        <time>2022-01-22T08:19:10Z</time>
      </trkpt>
      <trkpt lat="45.02741" lon="6.47999">
        <ele>2032</ele>
        <time>2022-01-22T08:19:14Z</time>
      </trkpt>
      <trkpt lat="45.02741" lon="6.48002">
        <ele>2033</ele>
        <time>2022-01-22T08:19:16Z</time>
      </trkpt>
      <trkpt lat="45.02742" lon="6.48005">
        <ele>2034</ele>
        <time>2022-01-22T08:19:20Z</time>
      </trkpt>
      <trkpt lat="45.02748" lon="6.48021">
        <ele>2040</ele>
        <time>2022-01-22T08:19:39Z</time>
      </trkpt>
      <trkpt lat="45.0275" lon="6.48021">
        <ele>2041</ele>
        <time>2022-01-22T08:19:42Z</time>
      </trkpt>
      <trkpt lat="45.02754" lon="6.48027">
        <ele>2044</ele>
        <time>2022-01-22T08:19:52Z</time>
      </trkpt>
      <trkpt lat="45.02759" lon="6.48028">
        <ele>2046</ele>
        <time>2022-01-22T08:20:04Z</time>
      </trkpt>
      <trkpt lat="45.02764" lon="6.48028">
        <ele>2047</ele>
        <time>2022-01-22T08:20:12Z</time>
      </trkpt>
      <trkpt lat="45.02772" lon="6.48024">
        <ele>2049</ele>
        <time>2022-01-22T08:20:24Z</time>
      </trkpt>
      <trkpt lat="45.02775" lon="6.48023">
        <ele>2049</ele>
        <time>2022-01-22T08:20:27Z</time>
      </trkpt>
      <trkpt lat="45.02781" lon="6.48029">
        <ele>2050</ele>
        <time>2022-01-22T08:20:38Z</time>
      </trkpt>
      <trkpt lat="45.02782" lon="6.48036">
        <ele>2051</ele>
        <time>2022-01-22T08:20:45Z</time>
      </trkpt>
      <trkpt lat="45.02782" lon="6.48041">
        <ele>2053</ele>
        <time>2022-01-22T08:20:50Z</time>
      </trkpt>
      <trkpt lat="45.02782" lon="6.48044">
        <ele>2054</ele>
        <time>2022-01-22T08:20:55Z</time>
      </trkpt>
      <trkpt lat="45.02781" lon="6.48047">
        <ele>2054</ele>
        <time>2022-01-22T08:20:58Z</time>
      </trkpt>
      <trkpt lat="45.02779" lon="6.4805">
        <ele>2055</ele>
        <time>2022-01-22T08:21:02Z</time>
      </trkpt>
      <trkpt lat="45.02777" lon="6.48054">
        <ele>2055</ele>
        <time>2022-01-22T08:21:13Z</time>
      </trkpt>
      <trkpt lat="45.02776" lon="6.48056">
        <ele>2054</ele>
        <time>2022-01-22T08:21:20Z</time>
      </trkpt>
      <trkpt lat="45.02775" lon="6.48058">
        <ele>2054</ele>
        <time>2022-01-22T08:21:23Z</time>
      </trkpt>
      <trkpt lat="45.02774" lon="6.4806">
        <ele>2054</ele>
        <time>2022-01-22T08:21:27Z</time>
      </trkpt>
      <trkpt lat="45.02767" lon="6.48077">
        <ele>2055</ele>
        <time>2022-01-22T08:21:48Z</time>
      </trkpt>
      <trkpt lat="45.02764" lon="6.48081">
        <ele>2055</ele>
        <time>2022-01-22T08:21:54Z</time>
      </trkpt>
      <trkpt lat="45.02763" lon="6.48083">
        <ele>2055</ele>
        <time>2022-01-22T08:21:57Z</time>
      </trkpt>
      <trkpt lat="45.02762" lon="6.48084">
        <ele>2055</ele>
        <time>2022-01-22T08:22:00Z</time>
      </trkpt>
      <trkpt lat="45.0276" lon="6.48087">
        <ele>2057</ele>
        <time>2022-01-22T08:22:03Z</time>
      </trkpt>
      <trkpt lat="45.02761" lon="6.48089">
        <ele>2059</ele>
        <time>2022-01-22T08:22:13Z</time>
      </trkpt>
      <trkpt lat="45.02761" lon="6.48093">
        <ele>2060</ele>
        <time>2022-01-22T08:22:17Z</time>
      </trkpt>
      <trkpt lat="45.0276" lon="6.48095">
        <ele>2061</ele>
        <time>2022-01-22T08:22:21Z</time>
      </trkpt>
      <trkpt lat="45.02758" lon="6.48097">
        <ele>2065</ele>
        <time>2022-01-22T08:22:25Z</time>
      </trkpt>
      <trkpt lat="45.02759" lon="6.481">
        <ele>2067</ele>
        <time>2022-01-22T08:22:37Z</time>
      </trkpt>
      <trkpt lat="45.02758" lon="6.48102">
        <ele>2068</ele>
        <time>2022-01-22T08:22:43Z</time>
      </trkpt>
      <trkpt lat="45.02757" lon="6.48107">
        <ele>2069</ele>
        <time>2022-01-22T08:22:47Z</time>
      </trkpt>
      <trkpt lat="45.02756" lon="6.48111">
        <ele>2070</ele>
        <time>2022-01-22T08:22:50Z</time>
      </trkpt>
      <trkpt lat="45.02756" lon="6.48114">
        <ele>2070</ele>
        <time>2022-01-22T08:22:52Z</time>
      </trkpt>
      <trkpt lat="45.02755" lon="6.4812">
        <ele>2071</ele>
        <time>2022-01-22T08:23:00Z</time>
      </trkpt>
      <trkpt lat="45.02755" lon="6.48122">
        <ele>2071</ele>
        <time>2022-01-22T08:23:03Z</time>
      </trkpt>
      <trkpt lat="45.02752" lon="6.48127">
        <ele>2071</ele>
        <time>2022-01-22T08:23:11Z</time>
      </trkpt>
      <trkpt lat="45.0275" lon="6.48129">
        <ele>2071</ele>
        <time>2022-01-22T08:23:15Z</time>
      </trkpt>
      <trkpt lat="45.02745" lon="6.48134">
        <ele>2069</ele>
        <time>2022-01-22T08:23:31Z</time>
      </trkpt>
      <trkpt lat="45.02744" lon="6.48137">
        <ele>2070</ele>
        <time>2022-01-22T08:23:35Z</time>
      </trkpt>
      <trkpt lat="45.02744" lon="6.48142">
        <ele>2071</ele>
        <time>2022-01-22T08:23:46Z</time>
      </trkpt>
      <trkpt lat="45.02745" lon="6.48145">
        <ele>2072</ele>
        <time>2022-01-22T08:23:50Z</time>
      </trkpt>
      <trkpt lat="45.02746" lon="6.48148">
        <ele>2072</ele>
        <time>2022-01-22T08:23:55Z</time>
      </trkpt>
      <trkpt lat="45.02748" lon="6.48149">
        <ele>2073</ele>
        <time>2022-01-22T08:23:59Z</time>
      </trkpt>
      <trkpt lat="45.02747" lon="6.48151">
        <ele>2074</ele>
        <time>2022-01-22T08:24:16Z</time>
      </trkpt>
      <trkpt lat="45.02745" lon="6.48155">
        <ele>2075</ele>
        <time>2022-01-22T08:24:23Z</time>
      </trkpt>
      <trkpt lat="45.02744" lon="6.48158">
        <ele>2076</ele>
        <time>2022-01-22T08:24:25Z</time>
      </trkpt>
      <trkpt lat="45.02745" lon="6.48161">
        <ele>2077</ele>
        <time>2022-01-22T08:24:31Z</time>
      </trkpt>
      <trkpt lat="45.02749" lon="6.48161">
        <ele>2078</ele>
        <time>2022-01-22T08:24:38Z</time>
      </trkpt>
      <trkpt lat="45.02751" lon="6.4816">
        <ele>2079</ele>
        <time>2022-01-22T08:24:46Z</time>
      </trkpt>
      <trkpt lat="45.02752" lon="6.48162">
        <ele>2081</ele>
        <time>2022-01-22T08:24:59Z</time>
      </trkpt>
      <trkpt lat="45.02753" lon="6.48164">
        <ele>2081</ele>
        <time>2022-01-22T08:25:03Z</time>
      </trkpt>
      <trkpt lat="45.02754" lon="6.48167">
        <ele>2082</ele>
        <time>2022-01-22T08:25:06Z</time>
      </trkpt>
      <trkpt lat="45.02756" lon="6.48168">
        <ele>2083</ele>
        <time>2022-01-22T08:25:10Z</time>
      </trkpt>
      <trkpt lat="45.02763" lon="6.48176">
        <ele>2086</ele>
        <time>2022-01-22T08:25:27Z</time>
      </trkpt>
      <trkpt lat="45.02768" lon="6.48186">
        <ele>2088</ele>
        <time>2022-01-22T08:25:39Z</time>
      </trkpt>
      <trkpt lat="45.02769" lon="6.48189">
        <ele>2088</ele>
        <time>2022-01-22T08:25:42Z</time>
      </trkpt>
      <trkpt lat="45.0277" lon="6.48191">
        <ele>2089</ele>
        <time>2022-01-22T08:25:46Z</time>
      </trkpt>
      <trkpt lat="45.02772" lon="6.48195">
        <ele>2090</ele>
        <time>2022-01-22T08:25:54Z</time>
      </trkpt>
      <trkpt lat="45.02773" lon="6.48197">
        <ele>2090</ele>
        <time>2022-01-22T08:25:57Z</time>
      </trkpt>
      <trkpt lat="45.02775" lon="6.48202">
        <ele>2091</ele>
        <time>2022-01-22T08:26:04Z</time>
      </trkpt>
      <trkpt lat="45.02776" lon="6.48203">
        <ele>2091</ele>
        <time>2022-01-22T08:26:07Z</time>
      </trkpt>
      <trkpt lat="45.02778" lon="6.48205">
        <ele>2091</ele>
        <time>2022-01-22T08:26:11Z</time>
      </trkpt>
      <trkpt lat="45.0278" lon="6.48207">
        <ele>2091</ele>
        <time>2022-01-22T08:26:13Z</time>
      </trkpt>
      <trkpt lat="45.02781" lon="6.48208">
        <ele>2092</ele>
        <time>2022-01-22T08:26:15Z</time>
      </trkpt>
      <trkpt lat="45.02782" lon="6.48211">
        <ele>2092</ele>
        <time>2022-01-22T08:26:18Z</time>
      </trkpt>
      <trkpt lat="45.02781" lon="6.48213">
        <ele>2092</ele>
        <time>2022-01-22T08:26:22Z</time>
      </trkpt>
      <trkpt lat="45.02779" lon="6.48214">
        <ele>2094</ele>
        <time>2022-01-22T08:26:27Z</time>
      </trkpt>
      <trkpt lat="45.02778" lon="6.48216">
        <ele>2094</ele>
        <time>2022-01-22T08:26:31Z</time>
      </trkpt>
      <trkpt lat="45.02777" lon="6.48218">
        <ele>2095</ele>
        <time>2022-01-22T08:26:34Z</time>
      </trkpt>
      <trkpt lat="45.02778" lon="6.48219">
        <ele>2095</ele>
        <time>2022-01-22T08:26:43Z</time>
      </trkpt>
      <trkpt lat="45.0278" lon="6.4822">
        <ele>2096</ele>
        <time>2022-01-22T08:26:46Z</time>
      </trkpt>
      <trkpt lat="45.02782" lon="6.4822">
        <ele>2096</ele>
        <time>2022-01-22T08:26:50Z</time>
      </trkpt>
      <trkpt lat="45.02783" lon="6.48222">
        <ele>2096</ele>
        <time>2022-01-22T08:26:54Z</time>
      </trkpt>
      <trkpt lat="45.02785" lon="6.48223">
        <ele>2097</ele>
        <time>2022-01-22T08:26:57Z</time>
      </trkpt>
      <trkpt lat="45.02791" lon="6.48225">
        <ele>2097</ele>
        <time>2022-01-22T08:27:09Z</time>
      </trkpt>
      <trkpt lat="45.02795" lon="6.48227">
        <ele>2097</ele>
        <time>2022-01-22T08:27:13Z</time>
      </trkpt>
      <trkpt lat="45.02797" lon="6.48227">
        <ele>2098</ele>
        <time>2022-01-22T08:27:16Z</time>
      </trkpt>
      <trkpt lat="45.02799" lon="6.48225">
        <ele>2099</ele>
        <time>2022-01-22T08:27:25Z</time>
      </trkpt>
      <trkpt lat="45.028" lon="6.48224">
        <ele>2101</ele>
        <time>2022-01-22T08:27:29Z</time>
      </trkpt>
      <trkpt lat="45.02803" lon="6.48223">
        <ele>2101</ele>
        <time>2022-01-22T08:27:32Z</time>
      </trkpt>
      <trkpt lat="45.02807" lon="6.48221">
        <ele>2101</ele>
        <time>2022-01-22T08:27:41Z</time>
      </trkpt>
      <trkpt lat="45.02809" lon="6.4822">
        <ele>2102</ele>
        <time>2022-01-22T08:27:43Z</time>
      </trkpt>
      <trkpt lat="45.0281" lon="6.48219">
        <ele>2103</ele>
        <time>2022-01-22T08:27:47Z</time>
      </trkpt>
      <trkpt lat="45.0281" lon="6.48222">
        <ele>2104</ele>
        <time>2022-01-22T08:27:58Z</time>
      </trkpt>
      <trkpt lat="45.02812" lon="6.48223">
        <ele>2105</ele>
        <time>2022-01-22T08:28:01Z</time>
      </trkpt>
      <trkpt lat="45.02814" lon="6.48223">
        <ele>2106</ele>
        <time>2022-01-22T08:28:05Z</time>
      </trkpt>
      <trkpt lat="45.02815" lon="6.48225">
        <ele>2108</ele>
        <time>2022-01-22T08:28:17Z</time>
      </trkpt>
      <trkpt lat="45.02818" lon="6.48229">
        <ele>2112</ele>
        <time>2022-01-22T08:28:29Z</time>
      </trkpt>
      <trkpt lat="45.02818" lon="6.48232">
        <ele>2113</ele>
        <time>2022-01-22T08:28:34Z</time>
      </trkpt>
      <trkpt lat="45.02819" lon="6.48235">
        <ele>2114</ele>
        <time>2022-01-22T08:28:38Z</time>
      </trkpt>
      <trkpt lat="45.02818" lon="6.4824">
        <ele>2115</ele>
        <time>2022-01-22T08:28:43Z</time>
      </trkpt>
      <trkpt lat="45.02814" lon="6.48246">
        <ele>2116</ele>
        <time>2022-01-22T08:28:51Z</time>
      </trkpt>
      <trkpt lat="45.02813" lon="6.48248">
        <ele>2117</ele>
        <time>2022-01-22T08:28:54Z</time>
      </trkpt>
      <trkpt lat="45.02811" lon="6.4825">
        <ele>2117</ele>
        <time>2022-01-22T08:28:57Z</time>
      </trkpt>
      <trkpt lat="45.02809" lon="6.48252">
        <ele>2118</ele>
        <time>2022-01-22T08:29:01Z</time>
      </trkpt>
      <trkpt lat="45.02808" lon="6.48253">
        <ele>2118</ele>
        <time>2022-01-22T08:29:04Z</time>
      </trkpt>
      <trkpt lat="45.02805" lon="6.48258">
        <ele>2118</ele>
        <time>2022-01-22T08:29:09Z</time>
      </trkpt>
      <trkpt lat="45.02805" lon="6.48261">
        <ele>2118</ele>
        <time>2022-01-22T08:29:12Z</time>
      </trkpt>
      <trkpt lat="45.02804" lon="6.48266">
        <ele>2119</ele>
        <time>2022-01-22T08:29:21Z</time>
      </trkpt>
      <trkpt lat="45.02803" lon="6.48268">
        <ele>2119</ele>
        <time>2022-01-22T08:29:26Z</time>
      </trkpt>
      <trkpt lat="45.02805" lon="6.4827">
        <ele>2119</ele>
        <time>2022-01-22T08:29:32Z</time>
      </trkpt>
      <trkpt lat="45.02809" lon="6.48268">
        <ele>2119</ele>
        <time>2022-01-22T08:29:47Z</time>
      </trkpt>
      <trkpt lat="45.02812" lon="6.48265">
        <ele>2118</ele>
        <time>2022-01-22T08:29:55Z</time>
      </trkpt>
      <trkpt lat="45.02814" lon="6.48266">
        <ele>2117</ele>
        <time>2022-01-22T08:29:59Z</time>
      </trkpt>
      <trkpt lat="45.02816" lon="6.48265">
        <ele>2118</ele>
        <time>2022-01-22T08:30:05Z</time>
      </trkpt>
      <trkpt lat="45.02818" lon="6.48266">
        <ele>2118</ele>
        <time>2022-01-22T08:30:09Z</time>
      </trkpt>
      <trkpt lat="45.02823" lon="6.48266">
        <ele>2119</ele>
        <time>2022-01-22T08:30:16Z</time>
      </trkpt>
      <trkpt lat="45.02825" lon="6.48266">
        <ele>2120</ele>
        <time>2022-01-22T08:30:18Z</time>
      </trkpt>
      <trkpt lat="45.02827" lon="6.48265">
        <ele>2120</ele>
        <time>2022-01-22T08:30:20Z</time>
      </trkpt>
      <trkpt lat="45.02829" lon="6.48264">
        <ele>2121</ele>
        <time>2022-01-22T08:30:23Z</time>
      </trkpt>
      <trkpt lat="45.02831" lon="6.48264">
        <ele>2122</ele>
        <time>2022-01-22T08:30:31Z</time>
      </trkpt>
      <trkpt lat="45.02835" lon="6.48268">
        <ele>2123</ele>
        <time>2022-01-22T08:30:41Z</time>
      </trkpt>
      <trkpt lat="45.02837" lon="6.4827">
        <ele>2124</ele>
        <time>2022-01-22T08:30:43Z</time>
      </trkpt>
      <trkpt lat="45.02839" lon="6.48271">
        <ele>2125</ele>
        <time>2022-01-22T08:30:46Z</time>
      </trkpt>
      <trkpt lat="45.02841" lon="6.48271">
        <ele>2125</ele>
        <time>2022-01-22T08:30:48Z</time>
      </trkpt>
      <trkpt lat="45.02844" lon="6.48272">
        <ele>2126</ele>
        <time>2022-01-22T08:30:51Z</time>
      </trkpt>
      <trkpt lat="45.02845" lon="6.48275">
        <ele>2126</ele>
        <time>2022-01-22T08:30:55Z</time>
      </trkpt>
      <trkpt lat="45.02847" lon="6.48277">
        <ele>2127</ele>
        <time>2022-01-22T08:30:57Z</time>
      </trkpt>
      <trkpt lat="45.02848" lon="6.48279">
        <ele>2127</ele>
        <time>2022-01-22T08:31:00Z</time>
      </trkpt>
      <trkpt lat="45.0285" lon="6.4828">
        <ele>2128</ele>
        <time>2022-01-22T08:31:03Z</time>
      </trkpt>
      <trkpt lat="45.02854" lon="6.48283">
        <ele>2129</ele>
        <time>2022-01-22T08:31:09Z</time>
      </trkpt>
      <trkpt lat="45.02856" lon="6.48285">
        <ele>2129</ele>
        <time>2022-01-22T08:31:11Z</time>
      </trkpt>
      <trkpt lat="45.02858" lon="6.48289">
        <ele>2130</ele>
        <time>2022-01-22T08:31:18Z</time>
      </trkpt>
      <trkpt lat="45.02859" lon="6.48292">
        <ele>2130</ele>
        <time>2022-01-22T08:31:23Z</time>
      </trkpt>
      <trkpt lat="45.02861" lon="6.48294">
        <ele>2131</ele>
        <time>2022-01-22T08:31:25Z</time>
      </trkpt>
      <trkpt lat="45.02864" lon="6.48298">
        <ele>2132</ele>
        <time>2022-01-22T08:31:30Z</time>
      </trkpt>
      <trkpt lat="45.02865" lon="6.48301">
        <ele>2133</ele>
        <time>2022-01-22T08:31:32Z</time>
      </trkpt>
      <trkpt lat="45.02866" lon="6.48303">
        <ele>2133</ele>
        <time>2022-01-22T08:31:34Z</time>
      </trkpt>
      <trkpt lat="45.02868" lon="6.48305">
        <ele>2134</ele>
        <time>2022-01-22T08:31:37Z</time>
      </trkpt>
      <trkpt lat="45.0287" lon="6.48306">
        <ele>2135</ele>
        <time>2022-01-22T08:31:41Z</time>
      </trkpt>
      <trkpt lat="45.02872" lon="6.48306">
        <ele>2136</ele>
        <time>2022-01-22T08:31:44Z</time>
      </trkpt>
      <trkpt lat="45.02876" lon="6.48311">
        <ele>2138</ele>
        <time>2022-01-22T08:31:54Z</time>
      </trkpt>
      <trkpt lat="45.02877" lon="6.48319">
        <ele>2140</ele>
        <time>2022-01-22T08:32:02Z</time>
      </trkpt>
      <trkpt lat="45.02879" lon="6.48324">
        <ele>2141</ele>
        <time>2022-01-22T08:32:11Z</time>
      </trkpt>
      <trkpt lat="45.02879" lon="6.48327">
        <ele>2141</ele>
        <time>2022-01-22T08:32:15Z</time>
      </trkpt>
      <trkpt lat="45.0288" lon="6.4833">
        <ele>2142</ele>
        <time>2022-01-22T08:32:18Z</time>
      </trkpt>
      <trkpt lat="45.02881" lon="6.48332">
        <ele>2142</ele>
        <time>2022-01-22T08:32:22Z</time>
      </trkpt>
      <trkpt lat="45.02883" lon="6.48334">
        <ele>2143</ele>
        <time>2022-01-22T08:32:26Z</time>
      </trkpt>
      <trkpt lat="45.02883" lon="6.4834">
        <ele>2144</ele>
        <time>2022-01-22T08:32:50Z</time>
      </trkpt>
      <trkpt lat="45.02882" lon="6.48351">
        <ele>2144</ele>
        <time>2022-01-22T08:33:01Z</time>
      </trkpt>
      <trkpt lat="45.02881" lon="6.48364">
        <ele>2146</ele>
        <time>2022-01-22T08:33:10Z</time>
      </trkpt>
      <trkpt lat="45.02881" lon="6.48367">
        <ele>2147</ele>
        <time>2022-01-22T08:33:13Z</time>
      </trkpt>
      <trkpt lat="45.02881" lon="6.48377">
        <ele>2146</ele>
        <time>2022-01-22T08:33:22Z</time>
      </trkpt>
      <trkpt lat="45.02882" lon="6.48384">
        <ele>2145</ele>
        <time>2022-01-22T08:33:28Z</time>
      </trkpt>
      <trkpt lat="45.02883" lon="6.48388">
        <ele>2145</ele>
        <time>2022-01-22T08:33:30Z</time>
      </trkpt>
      <trkpt lat="45.02883" lon="6.48395">
        <ele>2145</ele>
        <time>2022-01-22T08:33:39Z</time>
      </trkpt>
      <trkpt lat="45.02884" lon="6.48401">
        <ele>2145</ele>
        <time>2022-01-22T08:33:49Z</time>
      </trkpt>
      <trkpt lat="45.02886" lon="6.48402">
        <ele>2144</ele>
        <time>2022-01-22T08:33:53Z</time>
      </trkpt>
      <trkpt lat="45.02889" lon="6.48401">
        <ele>2144</ele>
        <time>2022-01-22T08:34:01Z</time>
      </trkpt>
      <trkpt lat="45.02891" lon="6.48403">
        <ele>2144</ele>
        <time>2022-01-22T08:34:04Z</time>
      </trkpt>
      <trkpt lat="45.02892" lon="6.48406">
        <ele>2143</ele>
        <time>2022-01-22T08:34:06Z</time>
      </trkpt>
      <trkpt lat="45.02893" lon="6.48409">
        <ele>2143</ele>
        <time>2022-01-22T08:34:10Z</time>
      </trkpt>
      <trkpt lat="45.02894" lon="6.48411">
        <ele>2143</ele>
        <time>2022-01-22T08:34:12Z</time>
      </trkpt>
      <trkpt lat="45.02893" lon="6.48414">
        <ele>2142</ele>
        <time>2022-01-22T08:34:14Z</time>
      </trkpt>
      <trkpt lat="45.02893" lon="6.48416">
        <ele>2142</ele>
        <time>2022-01-22T08:34:16Z</time>
      </trkpt>
      <trkpt lat="45.02895" lon="6.48422">
        <ele>2141</ele>
        <time>2022-01-22T08:34:21Z</time>
      </trkpt>
      <trkpt lat="45.02895" lon="6.48425">
        <ele>2140</ele>
        <time>2022-01-22T08:34:25Z</time>
      </trkpt>
      <trkpt lat="45.02894" lon="6.48428">
        <ele>2140</ele>
        <time>2022-01-22T08:34:28Z</time>
      </trkpt>
      <trkpt lat="45.02893" lon="6.48435">
        <ele>2139</ele>
        <time>2022-01-22T08:34:33Z</time>
      </trkpt>
      <trkpt lat="45.02894" lon="6.4844">
        <ele>2139</ele>
        <time>2022-01-22T08:34:41Z</time>
      </trkpt>
      <trkpt lat="45.02895" lon="6.48443">
        <ele>2139</ele>
        <time>2022-01-22T08:34:44Z</time>
      </trkpt>
      <trkpt lat="45.02897" lon="6.48444">
        <ele>2140</ele>
        <time>2022-01-22T08:34:47Z</time>
      </trkpt>
      <trkpt lat="45.02897" lon="6.48446">
        <ele>2140</ele>
        <time>2022-01-22T08:34:49Z</time>
      </trkpt>
      <trkpt lat="45.02897" lon="6.4845">
        <ele>2140</ele>
        <time>2022-01-22T08:34:52Z</time>
      </trkpt>
      <trkpt lat="45.02897" lon="6.48454">
        <ele>2140</ele>
        <time>2022-01-22T08:34:54Z</time>
      </trkpt>
      <trkpt lat="45.02898" lon="6.48457">
        <ele>2140</ele>
        <time>2022-01-22T08:34:57Z</time>
      </trkpt>
      <trkpt lat="45.02899" lon="6.4846">
        <ele>2141</ele>
        <time>2022-01-22T08:34:59Z</time>
      </trkpt>
      <trkpt lat="45.029" lon="6.48463">
        <ele>2141</ele>
        <time>2022-01-22T08:35:02Z</time>
      </trkpt>
      <trkpt lat="45.029" lon="6.48468">
        <ele>2142</ele>
        <time>2022-01-22T08:35:05Z</time>
      </trkpt>
      <trkpt lat="45.02898" lon="6.48478">
        <ele>2144</ele>
        <time>2022-01-22T08:35:11Z</time>
      </trkpt>
      <trkpt lat="45.02898" lon="6.48481">
        <ele>2145</ele>
        <time>2022-01-22T08:35:14Z</time>
      </trkpt>
      <trkpt lat="45.02902" lon="6.48487">
        <ele>2148</ele>
        <time>2022-01-22T08:35:20Z</time>
      </trkpt>
      <trkpt lat="45.02904" lon="6.48495">
        <ele>2151</ele>
        <time>2022-01-22T08:35:29Z</time>
      </trkpt>
      <trkpt lat="45.02906" lon="6.48496">
        <ele>2152</ele>
        <time>2022-01-22T08:35:53Z</time>
      </trkpt>
      <trkpt lat="45.02907" lon="6.48497">
        <ele>2153</ele>
        <time>2022-01-22T08:35:57Z</time>
      </trkpt>
      <trkpt lat="45.02909" lon="6.485">
        <ele>2153</ele>
        <time>2022-01-22T08:36:00Z</time>
      </trkpt>
      <trkpt lat="45.02916" lon="6.48509">
        <ele>2155</ele>
        <time>2022-01-22T08:36:21Z</time>
      </trkpt>
      <trkpt lat="45.02918" lon="6.48511">
        <ele>2155</ele>
        <time>2022-01-22T08:36:25Z</time>
      </trkpt>
      <trkpt lat="45.02921" lon="6.48513">
        <ele>2154</ele>
        <time>2022-01-22T08:36:30Z</time>
      </trkpt>
      <trkpt lat="45.02924" lon="6.48514">
        <ele>2154</ele>
        <time>2022-01-22T08:36:33Z</time>
      </trkpt>
      <trkpt lat="45.02928" lon="6.48516">
        <ele>2154</ele>
        <time>2022-01-22T08:36:39Z</time>
      </trkpt>
      <trkpt lat="45.02928" lon="6.48518">
        <ele>2154</ele>
        <time>2022-01-22T08:36:42Z</time>
      </trkpt>
      <trkpt lat="45.0293" lon="6.4852">
        <ele>2154</ele>
        <time>2022-01-22T08:36:45Z</time>
      </trkpt>
      <trkpt lat="45.02934" lon="6.48522">
        <ele>2153</ele>
        <time>2022-01-22T08:36:49Z</time>
      </trkpt>
      <trkpt lat="45.02936" lon="6.48523">
        <ele>2153</ele>
        <time>2022-01-22T08:36:51Z</time>
      </trkpt>
      <trkpt lat="45.02939" lon="6.48526">
        <ele>2154</ele>
        <time>2022-01-22T08:36:57Z</time>
      </trkpt>
      <trkpt lat="45.02941" lon="6.48526">
        <ele>2154</ele>
        <time>2022-01-22T08:37:03Z</time>
      </trkpt>
      <trkpt lat="45.02946" lon="6.48531">
        <ele>2154</ele>
        <time>2022-01-22T08:37:12Z</time>
      </trkpt>
      <trkpt lat="45.02948" lon="6.48532">
        <ele>2154</ele>
        <time>2022-01-22T08:37:15Z</time>
      </trkpt>
      <trkpt lat="45.0295" lon="6.48533">
        <ele>2154</ele>
        <time>2022-01-22T08:37:18Z</time>
      </trkpt>
      <trkpt lat="45.0295" lon="6.48536">
        <ele>2155</ele>
        <time>2022-01-22T08:37:26Z</time>
      </trkpt>
      <trkpt lat="45.02951" lon="6.48536">
        <ele>2155</ele>
        <time>2022-01-22T08:38:02Z</time>
      </trkpt>
      <trkpt lat="45.02964" lon="6.48548">
        <ele>2152</ele>
        <time>2022-01-22T08:38:26Z</time>
      </trkpt>
      <trkpt lat="45.02966" lon="6.48549">
        <ele>2153</ele>
        <time>2022-01-22T08:38:28Z</time>
      </trkpt>
      <trkpt lat="45.02967" lon="6.48549">
        <ele>2153</ele>
        <time>2022-01-22T08:38:43Z</time>
      </trkpt>
      <trkpt lat="45.02972" lon="6.48551">
        <ele>2154</ele>
        <time>2022-01-22T08:38:49Z</time>
      </trkpt>
      <trkpt lat="45.02977" lon="6.48554">
        <ele>2155</ele>
        <time>2022-01-22T08:38:56Z</time>
      </trkpt>
      <trkpt lat="45.02978" lon="6.48555">
        <ele>2155</ele>
        <time>2022-01-22T08:39:00Z</time>
      </trkpt>
      <trkpt lat="45.02986" lon="6.48559">
        <ele>2158</ele>
        <time>2022-01-22T08:39:14Z</time>
      </trkpt>
      <trkpt lat="45.02992" lon="6.48566">
        <ele>2160</ele>
        <time>2022-01-22T08:39:27Z</time>
      </trkpt>
      <trkpt lat="45.02994" lon="6.48565">
        <ele>2160</ele>
        <time>2022-01-22T08:39:32Z</time>
      </trkpt>
      <trkpt lat="45.02996" lon="6.48564">
        <ele>2161</ele>
        <time>2022-01-22T08:39:37Z</time>
      </trkpt>
      <trkpt lat="45.02998" lon="6.48564">
        <ele>2161</ele>
        <time>2022-01-22T08:39:40Z</time>
      </trkpt>
      <trkpt lat="45.03" lon="6.48565">
        <ele>2161</ele>
        <time>2022-01-22T08:39:43Z</time>
      </trkpt>
      <trkpt lat="45.03002" lon="6.48565">
        <ele>2161</ele>
        <time>2022-01-22T08:39:46Z</time>
      </trkpt>
      <trkpt lat="45.03004" lon="6.48565">
        <ele>2161</ele>
        <time>2022-01-22T08:39:49Z</time>
      </trkpt>
      <trkpt lat="45.03007" lon="6.48567">
        <ele>2162</ele>
        <time>2022-01-22T08:39:54Z</time>
      </trkpt>
      <trkpt lat="45.03009" lon="6.48566">
        <ele>2162</ele>
        <time>2022-01-22T08:39:56Z</time>
      </trkpt>
      <trkpt lat="45.03012" lon="6.48564">
        <ele>2163</ele>
        <time>2022-01-22T08:40:02Z</time>
      </trkpt>
      <trkpt lat="45.03014" lon="6.48564">
        <ele>2163</ele>
        <time>2022-01-22T08:40:07Z</time>
      </trkpt>
      <trkpt lat="45.03019" lon="6.48571">
        <ele>2164</ele>
        <time>2022-01-22T08:40:15Z</time>
      </trkpt>
      <trkpt lat="45.03022" lon="6.48572">
        <ele>2165</ele>
        <time>2022-01-22T08:40:17Z</time>
      </trkpt>
      <trkpt lat="45.03037" lon="6.48577">
        <ele>2167</ele>
        <time>2022-01-22T08:40:42Z</time>
      </trkpt>
      <trkpt lat="45.03041" lon="6.48573">
        <ele>2169</ele>
        <time>2022-01-22T08:40:48Z</time>
      </trkpt>
      <trkpt lat="45.03041" lon="6.4857">
        <ele>2171</ele>
        <time>2022-01-22T08:40:51Z</time>
      </trkpt>
      <trkpt lat="45.03042" lon="6.48568">
        <ele>2171</ele>
        <time>2022-01-22T08:40:53Z</time>
      </trkpt>
      <trkpt lat="45.03046" lon="6.4856">
        <ele>2174</ele>
        <time>2022-01-22T08:41:00Z</time>
      </trkpt>
      <trkpt lat="45.03048" lon="6.48559">
        <ele>2174</ele>
        <time>2022-01-22T08:41:04Z</time>
      </trkpt>
      <trkpt lat="45.03049" lon="6.48556">
        <ele>2175</ele>
        <time>2022-01-22T08:41:08Z</time>
      </trkpt>
      <trkpt lat="45.0305" lon="6.48553">
        <ele>2175</ele>
        <time>2022-01-22T08:41:11Z</time>
      </trkpt>
      <trkpt lat="45.0305" lon="6.48551">
        <ele>2175</ele>
        <time>2022-01-22T08:41:13Z</time>
      </trkpt>
      <trkpt lat="45.03048" lon="6.48545">
        <ele>2176</ele>
        <time>2022-01-22T08:41:24Z</time>
      </trkpt>
      <trkpt lat="45.03048" lon="6.48542">
        <ele>2175</ele>
        <time>2022-01-22T08:41:29Z</time>
      </trkpt>
      <trkpt lat="45.0305" lon="6.48538">
        <ele>2175</ele>
        <time>2022-01-22T08:41:33Z</time>
      </trkpt>
      <trkpt lat="45.03049" lon="6.48535">
        <ele>2176</ele>
        <time>2022-01-22T08:41:41Z</time>
      </trkpt>
      <trkpt lat="45.03048" lon="6.48532">
        <ele>2177</ele>
        <time>2022-01-22T08:41:43Z</time>
      </trkpt>
      <trkpt lat="45.03052" lon="6.48527">
        <ele>2179</ele>
        <time>2022-01-22T08:41:49Z</time>
      </trkpt>
      <trkpt lat="45.03053" lon="6.48526">
        <ele>2180</ele>
        <time>2022-01-22T08:41:53Z</time>
      </trkpt>
      <trkpt lat="45.03056" lon="6.48525">
        <ele>2180</ele>
        <time>2022-01-22T08:41:58Z</time>
      </trkpt>
      <trkpt lat="45.03058" lon="6.48524">
        <ele>2180</ele>
        <time>2022-01-22T08:42:02Z</time>
      </trkpt>
      <trkpt lat="45.0306" lon="6.48524">
        <ele>2181</ele>
        <time>2022-01-22T08:42:05Z</time>
      </trkpt>
      <trkpt lat="45.03065" lon="6.48525">
        <ele>2181</ele>
        <time>2022-01-22T08:42:10Z</time>
      </trkpt>
      <trkpt lat="45.03067" lon="6.48527">
        <ele>2181</ele>
        <time>2022-01-22T08:42:12Z</time>
      </trkpt>
      <trkpt lat="45.03071" lon="6.48528">
        <ele>2181</ele>
        <time>2022-01-22T08:42:17Z</time>
      </trkpt>
      <trkpt lat="45.03079" lon="6.48533">
        <ele>2182</ele>
        <time>2022-01-22T08:42:26Z</time>
      </trkpt>
      <trkpt lat="45.0308" lon="6.48534">
        <ele>2182</ele>
        <time>2022-01-22T08:42:28Z</time>
      </trkpt>
      <trkpt lat="45.03086" lon="6.48539">
        <ele>2183</ele>
        <time>2022-01-22T08:42:35Z</time>
      </trkpt>
      <trkpt lat="45.03087" lon="6.48541">
        <ele>2184</ele>
        <time>2022-01-22T08:42:38Z</time>
      </trkpt>
      <trkpt lat="45.03096" lon="6.48547">
        <ele>2187</ele>
        <time>2022-01-22T08:42:50Z</time>
      </trkpt>
      <trkpt lat="45.03099" lon="6.48553">
        <ele>2187</ele>
        <time>2022-01-22T08:42:54Z</time>
      </trkpt>
      <trkpt lat="45.03101" lon="6.48555">
        <ele>2187</ele>
        <time>2022-01-22T08:42:56Z</time>
      </trkpt>
      <trkpt lat="45.03104" lon="6.48558">
        <ele>2188</ele>
        <time>2022-01-22T08:43:01Z</time>
      </trkpt>
      <trkpt lat="45.03105" lon="6.48561">
        <ele>2188</ele>
        <time>2022-01-22T08:43:04Z</time>
      </trkpt>
      <trkpt lat="45.03106" lon="6.48564">
        <ele>2188</ele>
        <time>2022-01-22T08:43:06Z</time>
      </trkpt>
      <trkpt lat="45.03109" lon="6.48568">
        <ele>2190</ele>
        <time>2022-01-22T08:43:13Z</time>
      </trkpt>
      <trkpt lat="45.03111" lon="6.4857">
        <ele>2190</ele>
        <time>2022-01-22T08:43:16Z</time>
      </trkpt>
      <trkpt lat="45.03112" lon="6.48572">
        <ele>2190</ele>
        <time>2022-01-22T08:43:18Z</time>
      </trkpt>
      <trkpt lat="45.03113" lon="6.48574">
        <ele>2191</ele>
        <time>2022-01-22T08:43:20Z</time>
      </trkpt>
      <trkpt lat="45.03115" lon="6.48577">
        <ele>2191</ele>
        <time>2022-01-22T08:43:24Z</time>
      </trkpt>
      <trkpt lat="45.03119" lon="6.48579">
        <ele>2192</ele>
        <time>2022-01-22T08:43:28Z</time>
      </trkpt>
      <trkpt lat="45.0312" lon="6.48582">
        <ele>2192</ele>
        <time>2022-01-22T08:43:30Z</time>
      </trkpt>
      <trkpt lat="45.03122" lon="6.48584">
        <ele>2192</ele>
        <time>2022-01-22T08:43:33Z</time>
      </trkpt>
      <trkpt lat="45.03123" lon="6.48586">
        <ele>2192</ele>
        <time>2022-01-22T08:43:35Z</time>
      </trkpt>
      <trkpt lat="45.03125" lon="6.48588">
        <ele>2192</ele>
        <time>2022-01-22T08:43:37Z</time>
      </trkpt>
      <trkpt lat="45.03127" lon="6.4859">
        <ele>2191</ele>
        <time>2022-01-22T08:43:39Z</time>
      </trkpt>
      <trkpt lat="45.03128" lon="6.48592">
        <ele>2191</ele>
        <time>2022-01-22T08:43:41Z</time>
      </trkpt>
      <trkpt lat="45.0313" lon="6.48594">
        <ele>2191</ele>
        <time>2022-01-22T08:43:43Z</time>
      </trkpt>
      <trkpt lat="45.03131" lon="6.48596">
        <ele>2191</ele>
        <time>2022-01-22T08:43:45Z</time>
      </trkpt>
      <trkpt lat="45.03132" lon="6.48599">
        <ele>2190</ele>
        <time>2022-01-22T08:43:49Z</time>
      </trkpt>
      <trkpt lat="45.03134" lon="6.486">
        <ele>2190</ele>
        <time>2022-01-22T08:43:52Z</time>
      </trkpt>
      <trkpt lat="45.03137" lon="6.48602">
        <ele>2188</ele>
        <time>2022-01-22T08:43:57Z</time>
      </trkpt>
      <trkpt lat="45.0314" lon="6.48603">
        <ele>2188</ele>
        <time>2022-01-22T08:43:59Z</time>
      </trkpt>
      <trkpt lat="45.03142" lon="6.48604">
        <ele>2188</ele>
        <time>2022-01-22T08:44:01Z</time>
      </trkpt>
      <trkpt lat="45.03146" lon="6.48606">
        <ele>2187</ele>
        <time>2022-01-22T08:44:05Z</time>
      </trkpt>
      <trkpt lat="45.03148" lon="6.48607">
        <ele>2186</ele>
        <time>2022-01-22T08:44:07Z</time>
      </trkpt>
      <trkpt lat="45.03149" lon="6.48609">
        <ele>2187</ele>
        <time>2022-01-22T08:44:14Z</time>
      </trkpt>
      <trkpt lat="45.03159" lon="6.48616">
        <ele>2189</ele>
        <time>2022-01-22T08:44:27Z</time>
      </trkpt>
      <trkpt lat="45.03161" lon="6.48617">
        <ele>2189</ele>
        <time>2022-01-22T08:44:29Z</time>
      </trkpt>
      <trkpt lat="45.03163" lon="6.48618">
        <ele>2189</ele>
        <time>2022-01-22T08:44:31Z</time>
      </trkpt>
      <trkpt lat="45.03167" lon="6.48622">
        <ele>2189</ele>
        <time>2022-01-22T08:44:36Z</time>
      </trkpt>
      <trkpt lat="45.03169" lon="6.48623">
        <ele>2189</ele>
        <time>2022-01-22T08:44:38Z</time>
      </trkpt>
      <trkpt lat="45.03173" lon="6.48624">
        <ele>2189</ele>
        <time>2022-01-22T08:44:42Z</time>
      </trkpt>
      <trkpt lat="45.03181" lon="6.48628">
        <ele>2189</ele>
        <time>2022-01-22T08:44:51Z</time>
      </trkpt>
      <trkpt lat="45.03185" lon="6.4863">
        <ele>2189</ele>
        <time>2022-01-22T08:44:55Z</time>
      </trkpt>
      <trkpt lat="45.03186" lon="6.48631">
        <ele>2189</ele>
        <time>2022-01-22T08:44:57Z</time>
      </trkpt>
      <trkpt lat="45.03188" lon="6.48631">
        <ele>2189</ele>
        <time>2022-01-22T08:45:00Z</time>
      </trkpt>
      <trkpt lat="45.03188" lon="6.4863">
        <ele>2190</ele>
        <time>2022-01-22T08:45:11Z</time>
      </trkpt>
      <trkpt lat="45.03193" lon="6.48635">
        <ele>2189</ele>
        <time>2022-01-22T08:45:19Z</time>
      </trkpt>
      <trkpt lat="45.03199" lon="6.4864">
        <ele>2190</ele>
        <time>2022-01-22T08:45:25Z</time>
      </trkpt>
      <trkpt lat="45.03201" lon="6.48642">
        <ele>2190</ele>
        <time>2022-01-22T08:45:28Z</time>
      </trkpt>
      <trkpt lat="45.03203" lon="6.48643">
        <ele>2191</ele>
        <time>2022-01-22T08:45:31Z</time>
      </trkpt>
      <trkpt lat="45.03205" lon="6.48644">
        <ele>2191</ele>
        <time>2022-01-22T08:45:33Z</time>
      </trkpt>
      <trkpt lat="45.03206" lon="6.48645">
        <ele>2192</ele>
        <time>2022-01-22T08:45:35Z</time>
      </trkpt>
      <trkpt lat="45.03208" lon="6.48645">
        <ele>2192</ele>
        <time>2022-01-22T08:45:37Z</time>
      </trkpt>
      <trkpt lat="45.0321" lon="6.48647">
        <ele>2192</ele>
        <time>2022-01-22T08:45:39Z</time>
      </trkpt>
      <trkpt lat="45.03211" lon="6.48648">
        <ele>2192</ele>
        <time>2022-01-22T08:45:41Z</time>
      </trkpt>
      <trkpt lat="45.03214" lon="6.48648">
        <ele>2192</ele>
        <time>2022-01-22T08:45:44Z</time>
      </trkpt>
      <trkpt lat="45.03215" lon="6.48647">
        <ele>2193</ele>
        <time>2022-01-22T08:45:46Z</time>
      </trkpt>
      <trkpt lat="45.03225" lon="6.48652">
        <ele>2192</ele>
        <time>2022-01-22T08:45:57Z</time>
      </trkpt>
      <trkpt lat="45.03227" lon="6.48654">
        <ele>2192</ele>
        <time>2022-01-22T08:46:00Z</time>
      </trkpt>
      <trkpt lat="45.03229" lon="6.48656">
        <ele>2192</ele>
        <time>2022-01-22T08:46:02Z</time>
      </trkpt>
      <trkpt lat="45.0323" lon="6.48657">
        <ele>2192</ele>
        <time>2022-01-22T08:46:04Z</time>
      </trkpt>
      <trkpt lat="45.03233" lon="6.48661">
        <ele>2192</ele>
        <time>2022-01-22T08:46:08Z</time>
      </trkpt>
      <trkpt lat="45.03241" lon="6.48665">
        <ele>2194</ele>
        <time>2022-01-22T08:46:15Z</time>
      </trkpt>
      <trkpt lat="45.03255" lon="6.48666">
        <ele>2196</ele>
        <time>2022-01-22T08:46:31Z</time>
      </trkpt>
      <trkpt lat="45.03258" lon="6.48666">
        <ele>2196</ele>
        <time>2022-01-22T08:46:33Z</time>
      </trkpt>
      <trkpt lat="45.03263" lon="6.48665">
        <ele>2195</ele>
        <time>2022-01-22T08:46:37Z</time>
      </trkpt>
      <trkpt lat="45.03271" lon="6.48665">
        <ele>2194</ele>
        <time>2022-01-22T08:46:43Z</time>
      </trkpt>
      <trkpt lat="45.03275" lon="6.48665">
        <ele>2194</ele>
        <time>2022-01-22T08:46:47Z</time>
      </trkpt>
      <trkpt lat="45.03282" lon="6.48665">
        <ele>2194</ele>
        <time>2022-01-22T08:46:54Z</time>
      </trkpt>
      <trkpt lat="45.03284" lon="6.48665">
        <ele>2194</ele>
        <time>2022-01-22T08:46:57Z</time>
      </trkpt>
      <trkpt lat="45.03288" lon="6.48668">
        <ele>2195</ele>
        <time>2022-01-22T08:47:04Z</time>
      </trkpt>
      <trkpt lat="45.03292" lon="6.48667">
        <ele>2196</ele>
        <time>2022-01-22T08:47:11Z</time>
      </trkpt>
      <trkpt lat="45.03297" lon="6.48666">
        <ele>2196</ele>
        <time>2022-01-22T08:47:17Z</time>
      </trkpt>
      <trkpt lat="45.03299" lon="6.48664">
        <ele>2196</ele>
        <time>2022-01-22T08:47:19Z</time>
      </trkpt>
      <trkpt lat="45.03305" lon="6.48664">
        <ele>2196</ele>
        <time>2022-01-22T08:47:25Z</time>
      </trkpt>
      <trkpt lat="45.03315" lon="6.48661">
        <ele>2197</ele>
        <time>2022-01-22T08:47:39Z</time>
      </trkpt>
      <trkpt lat="45.03319" lon="6.48661">
        <ele>2198</ele>
        <time>2022-01-22T08:47:43Z</time>
      </trkpt>
      <trkpt lat="45.0332" lon="6.4866">
        <ele>2199</ele>
        <time>2022-01-22T08:47:45Z</time>
      </trkpt>
      <trkpt lat="45.03322" lon="6.48658">
        <ele>2200</ele>
        <time>2022-01-22T08:47:49Z</time>
      </trkpt>
      <trkpt lat="45.03324" lon="6.4866">
        <ele>2200</ele>
        <time>2022-01-22T08:47:54Z</time>
      </trkpt>
      <trkpt lat="45.03326" lon="6.4866">
        <ele>2200</ele>
        <time>2022-01-22T08:47:58Z</time>
      </trkpt>
      <trkpt lat="45.0333" lon="6.48663">
        <ele>2201</ele>
        <time>2022-01-22T08:48:02Z</time>
      </trkpt>
      <trkpt lat="45.03332" lon="6.48663">
        <ele>2201</ele>
        <time>2022-01-22T08:48:04Z</time>
      </trkpt>
      <trkpt lat="45.03334" lon="6.48665">
        <ele>2202</ele>
        <time>2022-01-22T08:48:07Z</time>
      </trkpt>
      <trkpt lat="45.03336" lon="6.48663">
        <ele>2202</ele>
        <time>2022-01-22T08:48:10Z</time>
      </trkpt>
      <trkpt lat="45.03338" lon="6.48663">
        <ele>2203</ele>
        <time>2022-01-22T08:48:13Z</time>
      </trkpt>
      <trkpt lat="45.03342" lon="6.48664">
        <ele>2205</ele>
        <time>2022-01-22T08:48:20Z</time>
      </trkpt>
      <trkpt lat="45.03344" lon="6.48663">
        <ele>2206</ele>
        <time>2022-01-22T08:48:23Z</time>
      </trkpt>
      <trkpt lat="45.03346" lon="6.48663">
        <ele>2208</ele>
        <time>2022-01-22T08:48:27Z</time>
      </trkpt>
      <trkpt lat="45.03349" lon="6.48663">
        <ele>2208</ele>
        <time>2022-01-22T08:48:31Z</time>
      </trkpt>
      <trkpt lat="45.03366" lon="6.48662">
        <ele>2210</ele>
        <time>2022-01-22T08:48:49Z</time>
      </trkpt>
      <trkpt lat="45.03372" lon="6.48662">
        <ele>2209</ele>
        <time>2022-01-22T08:48:58Z</time>
      </trkpt>
      <trkpt lat="45.03377" lon="6.48659">
        <ele>2208</ele>
        <time>2022-01-22T08:49:06Z</time>
      </trkpt>
      <trkpt lat="45.03381" lon="6.48659">
        <ele>2208</ele>
        <time>2022-01-22T08:49:10Z</time>
      </trkpt>
      <trkpt lat="45.03382" lon="6.48659">
        <ele>2208</ele>
        <time>2022-01-22T08:49:13Z</time>
      </trkpt>
      <trkpt lat="45.03384" lon="6.4866">
        <ele>2208</ele>
        <time>2022-01-22T08:49:15Z</time>
      </trkpt>
      <trkpt lat="45.03391" lon="6.48661">
        <ele>2209</ele>
        <time>2022-01-22T08:49:26Z</time>
      </trkpt>
      <trkpt lat="45.03394" lon="6.48662">
        <ele>2209</ele>
        <time>2022-01-22T08:49:28Z</time>
      </trkpt>
      <trkpt lat="45.034" lon="6.48663">
        <ele>2208</ele>
        <time>2022-01-22T08:49:36Z</time>
      </trkpt>
      <trkpt lat="45.03403" lon="6.48665">
        <ele>2207</ele>
        <time>2022-01-22T08:49:41Z</time>
      </trkpt>
      <trkpt lat="45.03405" lon="6.48664">
        <ele>2207</ele>
        <time>2022-01-22T08:49:43Z</time>
      </trkpt>
      <trkpt lat="45.03407" lon="6.48663">
        <ele>2206</ele>
        <time>2022-01-22T08:49:45Z</time>
      </trkpt>
      <trkpt lat="45.03412" lon="6.48667">
        <ele>2205</ele>
        <time>2022-01-22T08:49:51Z</time>
      </trkpt>
      <trkpt lat="45.03414" lon="6.48669">
        <ele>2204</ele>
        <time>2022-01-22T08:49:53Z</time>
      </trkpt>
      <trkpt lat="45.03418" lon="6.4867">
        <ele>2204</ele>
        <time>2022-01-22T08:49:59Z</time>
      </trkpt>
      <trkpt lat="45.03423" lon="6.48668">
        <ele>2204</ele>
        <time>2022-01-22T08:50:04Z</time>
      </trkpt>
      <trkpt lat="45.03424" lon="6.48667">
        <ele>2204</ele>
        <time>2022-01-22T08:50:06Z</time>
      </trkpt>
      <trkpt lat="45.03426" lon="6.48666">
        <ele>2203</ele>
        <time>2022-01-22T08:50:08Z</time>
      </trkpt>
      <trkpt lat="45.03428" lon="6.48664">
        <ele>2203</ele>
        <time>2022-01-22T08:50:11Z</time>
      </trkpt>
      <trkpt lat="45.03429" lon="6.48662">
        <ele>2202</ele>
        <time>2022-01-22T08:50:13Z</time>
      </trkpt>
      <trkpt lat="45.03433" lon="6.48659">
        <ele>2202</ele>
        <time>2022-01-22T08:50:19Z</time>
      </trkpt>
      <trkpt lat="45.03434" lon="6.48657">
        <ele>2202</ele>
        <time>2022-01-22T08:50:23Z</time>
      </trkpt>
      <trkpt lat="45.03436" lon="6.48656">
        <ele>2202</ele>
        <time>2022-01-22T08:50:26Z</time>
      </trkpt>
      <trkpt lat="45.0344" lon="6.48658">
        <ele>2203</ele>
        <time>2022-01-22T08:50:35Z</time>
      </trkpt>
      <trkpt lat="45.03442" lon="6.48659">
        <ele>2204</ele>
        <time>2022-01-22T08:50:39Z</time>
      </trkpt>
      <trkpt lat="45.03446" lon="6.4866">
        <ele>2205</ele>
        <time>2022-01-22T08:50:45Z</time>
      </trkpt>
      <trkpt lat="45.03448" lon="6.4866">
        <ele>2205</ele>
        <time>2022-01-22T08:50:47Z</time>
      </trkpt>
      <trkpt lat="45.03449" lon="6.48659">
        <ele>2205</ele>
        <time>2022-01-22T08:50:51Z</time>
      </trkpt>
      <trkpt lat="45.03453" lon="6.48662">
        <ele>2206</ele>
        <time>2022-01-22T08:50:55Z</time>
      </trkpt>
      <trkpt lat="45.03457" lon="6.48663">
        <ele>2207</ele>
        <time>2022-01-22T08:51:00Z</time>
      </trkpt>
      <trkpt lat="45.03458" lon="6.48663">
        <ele>2208</ele>
        <time>2022-01-22T08:51:05Z</time>
      </trkpt>
      <trkpt lat="45.0346" lon="6.48662">
        <ele>2209</ele>
        <time>2022-01-22T08:51:10Z</time>
      </trkpt>
      <trkpt lat="45.03466" lon="6.48657">
        <ele>2212</ele>
        <time>2022-01-22T08:51:29Z</time>
      </trkpt>
      <trkpt lat="45.03468" lon="6.48658">
        <ele>2212</ele>
        <time>2022-01-22T08:51:32Z</time>
      </trkpt>
      <trkpt lat="45.03474" lon="6.48653">
        <ele>2214</ele>
        <time>2022-01-22T08:51:41Z</time>
      </trkpt>
      <trkpt lat="45.03476" lon="6.48652">
        <ele>2215</ele>
        <time>2022-01-22T08:51:44Z</time>
      </trkpt>
      <trkpt lat="45.03477" lon="6.48651">
        <ele>2215</ele>
        <time>2022-01-22T08:51:46Z</time>
      </trkpt>
      <trkpt lat="45.0348" lon="6.4865">
        <ele>2216</ele>
        <time>2022-01-22T08:51:49Z</time>
      </trkpt>
      <trkpt lat="45.03481" lon="6.48648">
        <ele>2216</ele>
        <time>2022-01-22T08:51:51Z</time>
      </trkpt>
      <trkpt lat="45.03485" lon="6.48643">
        <ele>2218</ele>
        <time>2022-01-22T08:51:59Z</time>
      </trkpt>
      <trkpt lat="45.03491" lon="6.48641">
        <ele>2219</ele>
        <time>2022-01-22T08:52:08Z</time>
      </trkpt>
      <trkpt lat="45.03493" lon="6.48641">
        <ele>2219</ele>
        <time>2022-01-22T08:52:10Z</time>
      </trkpt>
      <trkpt lat="45.03497" lon="6.48636">
        <ele>2220</ele>
        <time>2022-01-22T08:52:19Z</time>
      </trkpt>
      <trkpt lat="45.03499" lon="6.48636">
        <ele>2221</ele>
        <time>2022-01-22T08:52:22Z</time>
      </trkpt>
      <trkpt lat="45.03501" lon="6.48634">
        <ele>2221</ele>
        <time>2022-01-22T08:52:25Z</time>
      </trkpt>
      <trkpt lat="45.03503" lon="6.48634">
        <ele>2222</ele>
        <time>2022-01-22T08:52:28Z</time>
      </trkpt>
      <trkpt lat="45.03507" lon="6.48633">
        <ele>2223</ele>
        <time>2022-01-22T08:52:34Z</time>
      </trkpt>
      <trkpt lat="45.03511" lon="6.48631">
        <ele>2223</ele>
        <time>2022-01-22T08:52:38Z</time>
      </trkpt>
      <trkpt lat="45.03514" lon="6.48632">
        <ele>2224</ele>
        <time>2022-01-22T08:52:42Z</time>
      </trkpt>
      <trkpt lat="45.03522" lon="6.48626">
        <ele>2225</ele>
        <time>2022-01-22T08:52:55Z</time>
      </trkpt>
      <trkpt lat="45.03524" lon="6.48627">
        <ele>2225</ele>
        <time>2022-01-22T08:52:57Z</time>
      </trkpt>
      <trkpt lat="45.03526" lon="6.48627">
        <ele>2225</ele>
        <time>2022-01-22T08:52:59Z</time>
      </trkpt>
      <trkpt lat="45.03528" lon="6.48626">
        <ele>2225</ele>
        <time>2022-01-22T08:53:02Z</time>
      </trkpt>
      <trkpt lat="45.0353" lon="6.48626">
        <ele>2225</ele>
        <time>2022-01-22T08:53:05Z</time>
      </trkpt>
      <trkpt lat="45.03531" lon="6.48626">
        <ele>2225</ele>
        <time>2022-01-22T08:53:07Z</time>
      </trkpt>
      <trkpt lat="45.03535" lon="6.48627">
        <ele>2226</ele>
        <time>2022-01-22T08:53:11Z</time>
      </trkpt>
      <trkpt lat="45.03537" lon="6.48627">
        <ele>2226</ele>
        <time>2022-01-22T08:53:13Z</time>
      </trkpt>
      <trkpt lat="45.03542" lon="6.48629">
        <ele>2227</ele>
        <time>2022-01-22T08:53:21Z</time>
      </trkpt>
      <trkpt lat="45.03544" lon="6.48628">
        <ele>2227</ele>
        <time>2022-01-22T08:53:24Z</time>
      </trkpt>
      <trkpt lat="45.03545" lon="6.48628">
        <ele>2228</ele>
        <time>2022-01-22T08:53:27Z</time>
      </trkpt>
      <trkpt lat="45.03547" lon="6.48628">
        <ele>2228</ele>
        <time>2022-01-22T08:53:30Z</time>
      </trkpt>
      <trkpt lat="45.03554" lon="6.48623">
        <ele>2231</ele>
        <time>2022-01-22T08:53:40Z</time>
      </trkpt>
      <trkpt lat="45.03557" lon="6.48619">
        <ele>2232</ele>
        <time>2022-01-22T08:53:45Z</time>
      </trkpt>
      <trkpt lat="45.03561" lon="6.48613">
        <ele>2234</ele>
        <time>2022-01-22T08:53:52Z</time>
      </trkpt>
      <trkpt lat="45.03562" lon="6.48609">
        <ele>2236</ele>
        <time>2022-01-22T08:53:58Z</time>
      </trkpt>
      <trkpt lat="45.03566" lon="6.48606">
        <ele>2239</ele>
        <time>2022-01-22T08:54:03Z</time>
      </trkpt>
      <trkpt lat="45.03567" lon="6.48605">
        <ele>2239</ele>
        <time>2022-01-22T08:54:06Z</time>
      </trkpt>
      <trkpt lat="45.03579" lon="6.48595">
        <ele>2243</ele>
        <time>2022-01-22T08:54:26Z</time>
      </trkpt>
      <trkpt lat="45.03582" lon="6.48592">
        <ele>2244</ele>
        <time>2022-01-22T08:54:31Z</time>
      </trkpt>
      <trkpt lat="45.03584" lon="6.48592">
        <ele>2244</ele>
        <time>2022-01-22T08:54:34Z</time>
      </trkpt>
      <trkpt lat="45.03585" lon="6.48591">
        <ele>2244</ele>
        <time>2022-01-22T08:54:37Z</time>
      </trkpt>
      <trkpt lat="45.03587" lon="6.48589">
        <ele>2245</ele>
        <time>2022-01-22T08:54:40Z</time>
      </trkpt>
      <trkpt lat="45.03588" lon="6.48586">
        <ele>2245</ele>
        <time>2022-01-22T08:54:43Z</time>
      </trkpt>
      <trkpt lat="45.03588" lon="6.48584">
        <ele>2246</ele>
        <time>2022-01-22T08:54:47Z</time>
      </trkpt>
      <trkpt lat="45.03592" lon="6.48576">
        <ele>2248</ele>
        <time>2022-01-22T08:55:01Z</time>
      </trkpt>
      <trkpt lat="45.03592" lon="6.48573">
        <ele>2249</ele>
        <time>2022-01-22T08:55:03Z</time>
      </trkpt>
      <trkpt lat="45.03593" lon="6.48569">
        <ele>2250</ele>
        <time>2022-01-22T08:55:09Z</time>
      </trkpt>
      <trkpt lat="45.03595" lon="6.48564">
        <ele>2252</ele>
        <time>2022-01-22T08:55:16Z</time>
      </trkpt>
      <trkpt lat="45.03597" lon="6.48564">
        <ele>2252</ele>
        <time>2022-01-22T08:55:19Z</time>
      </trkpt>
      <trkpt lat="45.03603" lon="6.48567">
        <ele>2253</ele>
        <time>2022-01-22T08:55:30Z</time>
      </trkpt>
      <trkpt lat="45.03604" lon="6.48568">
        <ele>2253</ele>
        <time>2022-01-22T08:55:32Z</time>
      </trkpt>
      <trkpt lat="45.03612" lon="6.48572">
        <ele>2254</ele>
        <time>2022-01-22T08:55:42Z</time>
      </trkpt>
      <trkpt lat="45.03613" lon="6.48572">
        <ele>2254</ele>
        <time>2022-01-22T08:55:45Z</time>
      </trkpt>
      <trkpt lat="45.03615" lon="6.48572">
        <ele>2255</ele>
        <time>2022-01-22T08:55:48Z</time>
      </trkpt>
      <trkpt lat="45.03616" lon="6.48573">
        <ele>2255</ele>
        <time>2022-01-22T08:55:51Z</time>
      </trkpt>
      <trkpt lat="45.03621" lon="6.48575">
        <ele>2255</ele>
        <time>2022-01-22T08:56:01Z</time>
      </trkpt>
      <trkpt lat="45.03623" lon="6.48575">
        <ele>2256</ele>
        <time>2022-01-22T08:56:04Z</time>
      </trkpt>
      <trkpt lat="45.03625" lon="6.48575">
        <ele>2256</ele>
        <time>2022-01-22T08:56:10Z</time>
      </trkpt>
      <trkpt lat="45.0363" lon="6.48575">
        <ele>2258</ele>
        <time>2022-01-22T08:56:19Z</time>
      </trkpt>
      <trkpt lat="45.03632" lon="6.48574">
        <ele>2259</ele>
        <time>2022-01-22T08:56:22Z</time>
      </trkpt>
      <trkpt lat="45.03634" lon="6.48576">
        <ele>2259</ele>
        <time>2022-01-22T08:56:35Z</time>
      </trkpt>
      <trkpt lat="45.03637" lon="6.48577">
        <ele>2259</ele>
        <time>2022-01-22T08:56:40Z</time>
      </trkpt>
      <trkpt lat="45.03639" lon="6.48577">
        <ele>2259</ele>
        <time>2022-01-22T08:56:42Z</time>
      </trkpt>
      <trkpt lat="45.03641" lon="6.48576">
        <ele>2259</ele>
        <time>2022-01-22T08:56:46Z</time>
      </trkpt>
      <trkpt lat="45.03649" lon="6.48577">
        <ele>2260</ele>
        <time>2022-01-22T08:56:59Z</time>
      </trkpt>
      <trkpt lat="45.03651" lon="6.48578">
        <ele>2261</ele>
        <time>2022-01-22T08:57:02Z</time>
      </trkpt>
      <trkpt lat="45.03655" lon="6.48577">
        <ele>2261</ele>
        <time>2022-01-22T08:57:07Z</time>
      </trkpt>
      <trkpt lat="45.03656" lon="6.48577">
        <ele>2262</ele>
        <time>2022-01-22T08:57:10Z</time>
      </trkpt>
      <trkpt lat="45.0366" lon="6.48577">
        <ele>2263</ele>
        <time>2022-01-22T08:57:15Z</time>
      </trkpt>
      <trkpt lat="45.03664" lon="6.48579">
        <ele>2263</ele>
        <time>2022-01-22T08:57:20Z</time>
      </trkpt>
      <trkpt lat="45.03673" lon="6.4858">
        <ele>2265</ele>
        <time>2022-01-22T08:57:30Z</time>
      </trkpt>
      <trkpt lat="45.03674" lon="6.4858">
        <ele>2266</ele>
        <time>2022-01-22T08:57:33Z</time>
      </trkpt>
      <trkpt lat="45.03677" lon="6.48579">
        <ele>2267</ele>
        <time>2022-01-22T08:57:38Z</time>
      </trkpt>
      <trkpt lat="45.03679" lon="6.4858">
        <ele>2268</ele>
        <time>2022-01-22T08:57:41Z</time>
      </trkpt>
      <trkpt lat="45.03683" lon="6.48583">
        <ele>2269</ele>
        <time>2022-01-22T08:57:53Z</time>
      </trkpt>
      <trkpt lat="45.03686" lon="6.48585">
        <ele>2269</ele>
        <time>2022-01-22T08:57:59Z</time>
      </trkpt>
      <trkpt lat="45.03687" lon="6.48588">
        <ele>2270</ele>
        <time>2022-01-22T08:58:02Z</time>
      </trkpt>
      <trkpt lat="45.03694" lon="6.48589">
        <ele>2270</ele>
        <time>2022-01-22T08:58:12Z</time>
      </trkpt>
      <trkpt lat="45.03698" lon="6.4859">
        <ele>2270</ele>
        <time>2022-01-22T08:58:18Z</time>
      </trkpt>
      <trkpt lat="45.03699" lon="6.48591">
        <ele>2270</ele>
        <time>2022-01-22T08:58:20Z</time>
      </trkpt>
      <trkpt lat="45.03701" lon="6.48592">
        <ele>2271</ele>
        <time>2022-01-22T08:58:23Z</time>
      </trkpt>
      <trkpt lat="45.03703" lon="6.48593">
        <ele>2271</ele>
        <time>2022-01-22T08:58:26Z</time>
      </trkpt>
      <trkpt lat="45.03705" lon="6.48592">
        <ele>2271</ele>
        <time>2022-01-22T08:58:29Z</time>
      </trkpt>
      <trkpt lat="45.03709" lon="6.48592">
        <ele>2273</ele>
        <time>2022-01-22T08:58:36Z</time>
      </trkpt>
      <trkpt lat="45.03716" lon="6.4859">
        <ele>2274</ele>
        <time>2022-01-22T08:58:48Z</time>
      </trkpt>
      <trkpt lat="45.03718" lon="6.48591">
        <ele>2274</ele>
        <time>2022-01-22T08:58:51Z</time>
      </trkpt>
      <trkpt lat="45.03729" lon="6.48591">
        <ele>2275</ele>
        <time>2022-01-22T08:59:08Z</time>
      </trkpt>
      <trkpt lat="45.03731" lon="6.48593">
        <ele>2276</ele>
        <time>2022-01-22T08:59:12Z</time>
      </trkpt>
      <trkpt lat="45.03732" lon="6.48595">
        <ele>2276</ele>
        <time>2022-01-22T08:59:14Z</time>
      </trkpt>
      <trkpt lat="45.03732" lon="6.486">
        <ele>2277</ele>
        <time>2022-01-22T08:59:19Z</time>
      </trkpt>
      <trkpt lat="45.03732" lon="6.48602">
        <ele>2277</ele>
        <time>2022-01-22T08:59:22Z</time>
      </trkpt>
      <trkpt lat="45.03732" lon="6.48607">
        <ele>2278</ele>
        <time>2022-01-22T08:59:30Z</time>
      </trkpt>
      <trkpt lat="45.03732" lon="6.4861">
        <ele>2279</ele>
        <time>2022-01-22T08:59:32Z</time>
      </trkpt>
      <trkpt lat="45.03732" lon="6.48612">
        <ele>2279</ele>
        <time>2022-01-22T08:59:34Z</time>
      </trkpt>
      <trkpt lat="45.03729" lon="6.48619">
        <ele>2280</ele>
        <time>2022-01-22T08:59:42Z</time>
      </trkpt>
      <trkpt lat="45.03729" lon="6.48622">
        <ele>2280</ele>
        <time>2022-01-22T08:59:44Z</time>
      </trkpt>
      <trkpt lat="45.03728" lon="6.48627">
        <ele>2281</ele>
        <time>2022-01-22T08:59:49Z</time>
      </trkpt>
      <trkpt lat="45.03728" lon="6.48631">
        <ele>2281</ele>
        <time>2022-01-22T08:59:52Z</time>
      </trkpt>
      <trkpt lat="45.03727" lon="6.48633">
        <ele>2282</ele>
        <time>2022-01-22T08:59:54Z</time>
      </trkpt>
      <trkpt lat="45.03726" lon="6.48635">
        <ele>2282</ele>
        <time>2022-01-22T08:59:58Z</time>
      </trkpt>
      <trkpt lat="45.03725" lon="6.48638">
        <ele>2283</ele>
        <time>2022-01-22T09:00:01Z</time>
      </trkpt>
      <trkpt lat="45.03723" lon="6.48642">
        <ele>2283</ele>
        <time>2022-01-22T09:00:07Z</time>
      </trkpt>
      <trkpt lat="45.03721" lon="6.48644">
        <ele>2284</ele>
        <time>2022-01-22T09:00:10Z</time>
      </trkpt>
      <trkpt lat="45.03719" lon="6.48646">
        <ele>2285</ele>
        <time>2022-01-22T09:00:16Z</time>
      </trkpt>
      <trkpt lat="45.03717" lon="6.4865">
        <ele>2287</ele>
        <time>2022-01-22T09:00:21Z</time>
      </trkpt>
      <trkpt lat="45.03716" lon="6.48652">
        <ele>2288</ele>
        <time>2022-01-22T09:00:24Z</time>
      </trkpt>
      <trkpt lat="45.03712" lon="6.48656">
        <ele>2289</ele>
        <time>2022-01-22T09:00:31Z</time>
      </trkpt>
      <trkpt lat="45.03711" lon="6.48658">
        <ele>2290</ele>
        <time>2022-01-22T09:00:34Z</time>
      </trkpt>
      <trkpt lat="45.0371" lon="6.48659">
        <ele>2290</ele>
        <time>2022-01-22T09:00:37Z</time>
      </trkpt>
      <trkpt lat="45.03708" lon="6.4866">
        <ele>2291</ele>
        <time>2022-01-22T09:00:40Z</time>
      </trkpt>
      <trkpt lat="45.03707" lon="6.48662">
        <ele>2291</ele>
        <time>2022-01-22T09:00:42Z</time>
      </trkpt>
      <trkpt lat="45.03702" lon="6.48665">
        <ele>2293</ele>
        <time>2022-01-22T09:00:49Z</time>
      </trkpt>
      <trkpt lat="45.037" lon="6.48668">
        <ele>2294</ele>
        <time>2022-01-22T09:00:55Z</time>
      </trkpt>
      <trkpt lat="45.03698" lon="6.48669">
        <ele>2295</ele>
        <time>2022-01-22T09:00:58Z</time>
      </trkpt>
      <trkpt lat="45.03696" lon="6.48673">
        <ele>2296</ele>
        <time>2022-01-22T09:01:03Z</time>
      </trkpt>
      <trkpt lat="45.03694" lon="6.48674">
        <ele>2296</ele>
        <time>2022-01-22T09:01:06Z</time>
      </trkpt>
      <trkpt lat="45.03693" lon="6.48676">
        <ele>2297</ele>
        <time>2022-01-22T09:01:12Z</time>
      </trkpt>
      <trkpt lat="45.03692" lon="6.48677">
        <ele>2297</ele>
        <time>2022-01-22T09:01:15Z</time>
      </trkpt>
      <trkpt lat="45.03693" lon="6.48678">
        <ele>2296</ele>
        <time>2022-01-22T09:01:26Z</time>
      </trkpt>
      <trkpt lat="45.037" lon="6.48682">
        <ele>2296</ele>
        <time>2022-01-22T09:01:38Z</time>
      </trkpt>
      <trkpt lat="45.03702" lon="6.48683">
        <ele>2296</ele>
        <time>2022-01-22T09:01:41Z</time>
      </trkpt>
      <trkpt lat="45.03704" lon="6.48684">
        <ele>2297</ele>
        <time>2022-01-22T09:01:45Z</time>
      </trkpt>
      <trkpt lat="45.03705" lon="6.48684">
        <ele>2297</ele>
        <time>2022-01-22T09:01:48Z</time>
      </trkpt>
      <trkpt lat="45.03709" lon="6.48687">
        <ele>2297</ele>
        <time>2022-01-22T09:01:55Z</time>
      </trkpt>
      <trkpt lat="45.03714" lon="6.48691">
        <ele>2296</ele>
        <time>2022-01-22T09:02:03Z</time>
      </trkpt>
      <trkpt lat="45.03714" lon="6.48694">
        <ele>2297</ele>
        <time>2022-01-22T09:02:09Z</time>
      </trkpt>
      <trkpt lat="45.03713" lon="6.48696">
        <ele>2297</ele>
        <time>2022-01-22T09:02:12Z</time>
      </trkpt>
      <trkpt lat="45.03713" lon="6.48697">
        <ele>2298</ele>
        <time>2022-01-22T09:02:31Z</time>
      </trkpt>
      <trkpt lat="45.03711" lon="6.48699">
        <ele>2299</ele>
        <time>2022-01-22T09:02:34Z</time>
      </trkpt>
      <trkpt lat="45.03709" lon="6.48703">
        <ele>2299</ele>
        <time>2022-01-22T09:02:39Z</time>
      </trkpt>
      <trkpt lat="45.03707" lon="6.48704">
        <ele>2299</ele>
        <time>2022-01-22T09:02:41Z</time>
      </trkpt>
      <trkpt lat="45.03707" lon="6.48705">
        <ele>2300</ele>
        <time>2022-01-22T09:02:50Z</time>
      </trkpt>
      <trkpt lat="45.03705" lon="6.48706">
        <ele>2301</ele>
        <time>2022-01-22T09:03:04Z</time>
      </trkpt>
      <trkpt lat="45.03705" lon="6.48708">
        <ele>2302</ele>
        <time>2022-01-22T09:03:06Z</time>
      </trkpt>
      <trkpt lat="45.03703" lon="6.48708">
        <ele>2302</ele>
        <time>2022-01-22T09:03:08Z</time>
      </trkpt>
      <trkpt lat="45.03702" lon="6.48709">
        <ele>2303</ele>
        <time>2022-01-22T09:03:11Z</time>
      </trkpt>
      <trkpt lat="45.037" lon="6.48712">
        <ele>2304</ele>
        <time>2022-01-22T09:03:18Z</time>
      </trkpt>
      <trkpt lat="45.03695" lon="6.48717">
        <ele>2306</ele>
        <time>2022-01-22T09:03:26Z</time>
      </trkpt>
      <trkpt lat="45.03692" lon="6.48722">
        <ele>2309</ele>
        <time>2022-01-22T09:03:34Z</time>
      </trkpt>
      <trkpt lat="45.03686" lon="6.48726">
        <ele>2312</ele>
        <time>2022-01-22T09:03:58Z</time>
      </trkpt>
      <trkpt lat="45.03687" lon="6.48723">
        <ele>2312</ele>
        <time>2022-01-22T09:04:06Z</time>
      </trkpt>
      <trkpt lat="45.03688" lon="6.48723">
        <ele>2312</ele>
        <time>2022-01-22T09:04:09Z</time>
      </trkpt>
      <trkpt lat="45.0369" lon="6.48725">
        <ele>2312</ele>
        <time>2022-01-22T09:04:16Z</time>
      </trkpt>
      <trkpt lat="45.03695" lon="6.48726">
        <ele>2313</ele>
        <time>2022-01-22T09:04:26Z</time>
      </trkpt>
      <trkpt lat="45.03699" lon="6.48727">
        <ele>2314</ele>
        <time>2022-01-22T09:04:32Z</time>
      </trkpt>
      <trkpt lat="45.037" lon="6.48728">
        <ele>2314</ele>
        <time>2022-01-22T09:04:34Z</time>
      </trkpt>
      <trkpt lat="45.03702" lon="6.48729">
        <ele>2314</ele>
        <time>2022-01-22T09:04:37Z</time>
      </trkpt>
      <trkpt lat="45.03704" lon="6.4873">
        <ele>2315</ele>
        <time>2022-01-22T09:04:40Z</time>
      </trkpt>
      <trkpt lat="45.03706" lon="6.48732">
        <ele>2315</ele>
        <time>2022-01-22T09:04:42Z</time>
      </trkpt>
      <trkpt lat="45.03708" lon="6.48733">
        <ele>2316</ele>
        <time>2022-01-22T09:04:45Z</time>
      </trkpt>
      <trkpt lat="45.0371" lon="6.48733">
        <ele>2316</ele>
        <time>2022-01-22T09:04:48Z</time>
      </trkpt>
      <trkpt lat="45.03709" lon="6.48737">
        <ele>2316</ele>
        <time>2022-01-22T09:04:56Z</time>
      </trkpt>
      <trkpt lat="45.03706" lon="6.48741">
        <ele>2316</ele>
        <time>2022-01-22T09:05:01Z</time>
      </trkpt>
      <trkpt lat="45.03704" lon="6.48746">
        <ele>2317</ele>
        <time>2022-01-22T09:05:07Z</time>
      </trkpt>
      <trkpt lat="45.03703" lon="6.48747">
        <ele>2318</ele>
        <time>2022-01-22T09:05:09Z</time>
      </trkpt>
      <trkpt lat="45.03702" lon="6.48748">
        <ele>2318</ele>
        <time>2022-01-22T09:05:12Z</time>
      </trkpt>
      <trkpt lat="45.037" lon="6.48752">
        <ele>2318</ele>
        <time>2022-01-22T09:05:16Z</time>
      </trkpt>
      <trkpt lat="45.037" lon="6.48754">
        <ele>2318</ele>
        <time>2022-01-22T09:05:20Z</time>
      </trkpt>
      <trkpt lat="45.03702" lon="6.48755">
        <ele>2319</ele>
        <time>2022-01-22T09:05:23Z</time>
      </trkpt>
      <trkpt lat="45.03707" lon="6.48754">
        <ele>2321</ele>
        <time>2022-01-22T09:05:31Z</time>
      </trkpt>
      <trkpt lat="45.03709" lon="6.48754">
        <ele>2322</ele>
        <time>2022-01-22T09:05:35Z</time>
      </trkpt>
      <trkpt lat="45.0371" lon="6.48754">
        <ele>2322</ele>
        <time>2022-01-22T09:05:37Z</time>
      </trkpt>
      <trkpt lat="45.03712" lon="6.48753">
        <ele>2323</ele>
        <time>2022-01-22T09:05:40Z</time>
      </trkpt>
      <trkpt lat="45.03723" lon="6.48754">
        <ele>2325</ele>
        <time>2022-01-22T09:05:55Z</time>
      </trkpt>
      <trkpt lat="45.03725" lon="6.48753">
        <ele>2325</ele>
        <time>2022-01-22T09:05:57Z</time>
      </trkpt>
      <trkpt lat="45.03727" lon="6.48753">
        <ele>2326</ele>
        <time>2022-01-22T09:05:59Z</time>
      </trkpt>
      <trkpt lat="45.03729" lon="6.48751">
        <ele>2326</ele>
        <time>2022-01-22T09:06:02Z</time>
      </trkpt>
      <trkpt lat="45.03729" lon="6.48749">
        <ele>2327</ele>
        <time>2022-01-22T09:06:09Z</time>
      </trkpt>
      <trkpt lat="45.03733" lon="6.48748">
        <ele>2328</ele>
        <time>2022-01-22T09:06:15Z</time>
      </trkpt>
      <trkpt lat="45.03735" lon="6.48749">
        <ele>2328</ele>
        <time>2022-01-22T09:06:18Z</time>
      </trkpt>
      <trkpt lat="45.03739" lon="6.48748">
        <ele>2328</ele>
        <time>2022-01-22T09:06:23Z</time>
      </trkpt>
      <trkpt lat="45.03741" lon="6.48747">
        <ele>2328</ele>
        <time>2022-01-22T09:06:25Z</time>
      </trkpt>
      <trkpt lat="45.03743" lon="6.48747">
        <ele>2328</ele>
        <time>2022-01-22T09:06:27Z</time>
      </trkpt>
      <trkpt lat="45.03745" lon="6.48747">
        <ele>2329</ele>
        <time>2022-01-22T09:06:30Z</time>
      </trkpt>
      <trkpt lat="45.03752" lon="6.48745">
        <ele>2330</ele>
        <time>2022-01-22T09:06:39Z</time>
      </trkpt>
      <trkpt lat="45.03758" lon="6.48744">
        <ele>2330</ele>
        <time>2022-01-22T09:06:48Z</time>
      </trkpt>
      <trkpt lat="45.03759" lon="6.48742">
        <ele>2330</ele>
        <time>2022-01-22T09:06:50Z</time>
      </trkpt>
      <trkpt lat="45.0376" lon="6.48742">
        <ele>2330</ele>
        <time>2022-01-22T09:06:52Z</time>
      </trkpt>
      <trkpt lat="45.03767" lon="6.48739">
        <ele>2331</ele>
        <time>2022-01-22T09:07:01Z</time>
      </trkpt>
      <trkpt lat="45.03769" lon="6.48738">
        <ele>2331</ele>
        <time>2022-01-22T09:07:04Z</time>
      </trkpt>
      <trkpt lat="45.03771" lon="6.48739">
        <ele>2331</ele>
        <time>2022-01-22T09:07:06Z</time>
      </trkpt>
      <trkpt lat="45.03773" lon="6.48739">
        <ele>2331</ele>
        <time>2022-01-22T09:07:08Z</time>
      </trkpt>
      <trkpt lat="45.03775" lon="6.4874">
        <ele>2332</ele>
        <time>2022-01-22T09:07:10Z</time>
      </trkpt>
      <trkpt lat="45.03782" lon="6.48737">
        <ele>2333</ele>
        <time>2022-01-22T09:07:18Z</time>
      </trkpt>
      <trkpt lat="45.03784" lon="6.48737">
        <ele>2333</ele>
        <time>2022-01-22T09:07:20Z</time>
      </trkpt>
      <trkpt lat="45.03785" lon="6.48737">
        <ele>2333</ele>
        <time>2022-01-22T09:07:22Z</time>
      </trkpt>
      <trkpt lat="45.03789" lon="6.48737">
        <ele>2333</ele>
        <time>2022-01-22T09:07:29Z</time>
      </trkpt>
      <trkpt lat="45.03794" lon="6.48737">
        <ele>2334</ele>
        <time>2022-01-22T09:07:35Z</time>
      </trkpt>
      <trkpt lat="45.038" lon="6.48737">
        <ele>2334</ele>
        <time>2022-01-22T09:07:41Z</time>
      </trkpt>
      <trkpt lat="45.03801" lon="6.48738">
        <ele>2334</ele>
        <time>2022-01-22T09:07:43Z</time>
      </trkpt>
      <trkpt lat="45.03815" lon="6.48743">
        <ele>2336</ele>
        <time>2022-01-22T09:08:05Z</time>
      </trkpt>
      <trkpt lat="45.03817" lon="6.48743">
        <ele>2336</ele>
        <time>2022-01-22T09:08:07Z</time>
      </trkpt>
      <trkpt lat="45.03819" lon="6.48743">
        <ele>2336</ele>
        <time>2022-01-22T09:08:10Z</time>
      </trkpt>
      <trkpt lat="45.03826" lon="6.48741">
        <ele>2336</ele>
        <time>2022-01-22T09:08:18Z</time>
      </trkpt>
      <trkpt lat="45.03828" lon="6.48741">
        <ele>2336</ele>
        <time>2022-01-22T09:08:21Z</time>
      </trkpt>
      <trkpt lat="45.03832" lon="6.48739">
        <ele>2336</ele>
        <time>2022-01-22T09:08:26Z</time>
      </trkpt>
      <trkpt lat="45.03834" lon="6.48738">
        <ele>2336</ele>
        <time>2022-01-22T09:08:30Z</time>
      </trkpt>
      <trkpt lat="45.03836" lon="6.48737">
        <ele>2336</ele>
        <time>2022-01-22T09:08:34Z</time>
      </trkpt>
      <trkpt lat="45.03839" lon="6.48737">
        <ele>2336</ele>
        <time>2022-01-22T09:08:37Z</time>
      </trkpt>
      <trkpt lat="45.03842" lon="6.48737">
        <ele>2336</ele>
        <time>2022-01-22T09:08:41Z</time>
      </trkpt>
      <trkpt lat="45.03846" lon="6.48736">
        <ele>2337</ele>
        <time>2022-01-22T09:08:46Z</time>
      </trkpt>
      <trkpt lat="45.03848" lon="6.48737">
        <ele>2337</ele>
        <time>2022-01-22T09:08:49Z</time>
      </trkpt>
      <trkpt lat="45.03852" lon="6.48737">
        <ele>2338</ele>
        <time>2022-01-22T09:08:55Z</time>
      </trkpt>
      <trkpt lat="45.03854" lon="6.48733">
        <ele>2340</ele>
        <time>2022-01-22T09:09:02Z</time>
      </trkpt>
      <trkpt lat="45.03859" lon="6.4873">
        <ele>2342</ele>
        <time>2022-01-22T09:09:09Z</time>
      </trkpt>
      <trkpt lat="45.0386" lon="6.48727">
        <ele>2342</ele>
        <time>2022-01-22T09:09:12Z</time>
      </trkpt>
      <trkpt lat="45.03861" lon="6.48726">
        <ele>2343</ele>
        <time>2022-01-22T09:09:16Z</time>
      </trkpt>
      <trkpt lat="45.03867" lon="6.48725">
        <ele>2345</ele>
        <time>2022-01-22T09:09:27Z</time>
      </trkpt>
      <trkpt lat="45.03868" lon="6.48727">
        <ele>2345</ele>
        <time>2022-01-22T09:09:31Z</time>
      </trkpt>
      <trkpt lat="45.03867" lon="6.48737">
        <ele>2347</ele>
        <time>2022-01-22T09:09:40Z</time>
      </trkpt>
      <trkpt lat="45.03865" lon="6.48743">
        <ele>2347</ele>
        <time>2022-01-22T09:09:44Z</time>
      </trkpt>
      <trkpt lat="45.03865" lon="6.48745">
        <ele>2348</ele>
        <time>2022-01-22T09:09:46Z</time>
      </trkpt>
      <trkpt lat="45.03865" lon="6.48747">
        <ele>2348</ele>
        <time>2022-01-22T09:09:49Z</time>
      </trkpt>
      <trkpt lat="45.03864" lon="6.4875">
        <ele>2349</ele>
        <time>2022-01-22T09:09:51Z</time>
      </trkpt>
      <trkpt lat="45.03864" lon="6.48752">
        <ele>2349</ele>
        <time>2022-01-22T09:09:54Z</time>
      </trkpt>
      <trkpt lat="45.03864" lon="6.48755">
        <ele>2350</ele>
        <time>2022-01-22T09:09:57Z</time>
      </trkpt>
      <trkpt lat="45.03865" lon="6.48758">
        <ele>2350</ele>
        <time>2022-01-22T09:10:01Z</time>
      </trkpt>
      <trkpt lat="45.03865" lon="6.48763">
        <ele>2351</ele>
        <time>2022-01-22T09:10:06Z</time>
      </trkpt>
      <trkpt lat="45.03865" lon="6.48765">
        <ele>2351</ele>
        <time>2022-01-22T09:10:08Z</time>
      </trkpt>
      <trkpt lat="45.03867" lon="6.48769">
        <ele>2352</ele>
        <time>2022-01-22T09:10:13Z</time>
      </trkpt>
      <trkpt lat="45.03869" lon="6.48774">
        <ele>2353</ele>
        <time>2022-01-22T09:10:19Z</time>
      </trkpt>
      <trkpt lat="45.03871" lon="6.48777">
        <ele>2353</ele>
        <time>2022-01-22T09:10:24Z</time>
      </trkpt>
      <trkpt lat="45.03873" lon="6.48783">
        <ele>2353</ele>
        <time>2022-01-22T09:10:29Z</time>
      </trkpt>
      <trkpt lat="45.03878" lon="6.48786">
        <ele>2353</ele>
        <time>2022-01-22T09:10:36Z</time>
      </trkpt>
      <trkpt lat="45.03879" lon="6.48787">
        <ele>2353</ele>
        <time>2022-01-22T09:10:40Z</time>
      </trkpt>
      <trkpt lat="45.03881" lon="6.48786">
        <ele>2354</ele>
        <time>2022-01-22T09:10:44Z</time>
      </trkpt>
      <trkpt lat="45.03883" lon="6.48787">
        <ele>2354</ele>
        <time>2022-01-22T09:10:48Z</time>
      </trkpt>
      <trkpt lat="45.03884" lon="6.48785">
        <ele>2355</ele>
        <time>2022-01-22T09:10:51Z</time>
      </trkpt>
      <trkpt lat="45.03887" lon="6.48776">
        <ele>2358</ele>
        <time>2022-01-22T09:11:06Z</time>
      </trkpt>
      <trkpt lat="45.03887" lon="6.48774">
        <ele>2358</ele>
        <time>2022-01-22T09:11:09Z</time>
      </trkpt>
      <trkpt lat="45.03887" lon="6.48772">
        <ele>2359</ele>
        <time>2022-01-22T09:11:12Z</time>
      </trkpt>
      <trkpt lat="45.03886" lon="6.48765">
        <ele>2359</ele>
        <time>2022-01-22T09:11:27Z</time>
      </trkpt>
      <trkpt lat="45.03889" lon="6.48768">
        <ele>2363</ele>
        <time>2022-01-22T09:13:00Z</time>
      </trkpt>
      <trkpt lat="45.03891" lon="6.4877">
        <ele>2364</ele>
        <time>2022-01-22T09:13:12Z</time>
      </trkpt>
      <trkpt lat="45.03892" lon="6.48773">
        <ele>2364</ele>
        <time>2022-01-22T09:13:16Z</time>
      </trkpt>
      <trkpt lat="45.03892" lon="6.48776">
        <ele>2364</ele>
        <time>2022-01-22T09:13:19Z</time>
      </trkpt>
      <trkpt lat="45.0389" lon="6.48776">
        <ele>2364</ele>
        <time>2022-01-22T09:13:36Z</time>
      </trkpt>
      <trkpt lat="45.03893" lon="6.48773">
        <ele>2364</ele>
        <time>2022-01-22T09:14:26Z</time>
      </trkpt>
      <trkpt lat="45.03894" lon="6.48773">
        <ele>2364</ele>
        <time>2022-01-22T09:14:35Z</time>
      </trkpt>
      <trkpt lat="45.03896" lon="6.48775">
        <ele>2364</ele>
        <time>2022-01-22T09:15:15Z</time>
      </trkpt>
      <trkpt lat="45.03898" lon="6.48777">
        <ele>2364</ele>
        <time>2022-01-22T09:15:18Z</time>
      </trkpt>
      <trkpt lat="45.03898" lon="6.48774">
        <ele>2364</ele>
        <time>2022-01-22T09:15:26Z</time>
      </trkpt>
      <trkpt lat="45.039" lon="6.48775">
        <ele>2364</ele>
        <time>2022-01-22T09:15:32Z</time>
      </trkpt>
      <trkpt lat="45.03904" lon="6.48776">
        <ele>2364</ele>
        <time>2022-01-22T09:15:37Z</time>
      </trkpt>
      <trkpt lat="45.03909" lon="6.48772">
        <ele>2364</ele>
        <time>2022-01-22T09:15:43Z</time>
      </trkpt>
      <trkpt lat="45.03911" lon="6.48771">
        <ele>2364</ele>
        <time>2022-01-22T09:15:45Z</time>
      </trkpt>
      <trkpt lat="45.03913" lon="6.4877">
        <ele>2365</ele>
        <time>2022-01-22T09:15:48Z</time>
      </trkpt>
      <trkpt lat="45.03914" lon="6.4877">
        <ele>2365</ele>
        <time>2022-01-22T09:15:51Z</time>
      </trkpt>
      <trkpt lat="45.03917" lon="6.4877">
        <ele>2365</ele>
        <time>2022-01-22T09:15:53Z</time>
      </trkpt>
      <trkpt lat="45.03919" lon="6.4877">
        <ele>2366</ele>
        <time>2022-01-22T09:15:57Z</time>
      </trkpt>
      <trkpt lat="45.0392" lon="6.4877">
        <ele>2366</ele>
        <time>2022-01-22T09:15:59Z</time>
      </trkpt>
      <trkpt lat="45.03924" lon="6.48768">
        <ele>2366</ele>
        <time>2022-01-22T09:16:04Z</time>
      </trkpt>
      <trkpt lat="45.03925" lon="6.48765">
        <ele>2366</ele>
        <time>2022-01-22T09:16:07Z</time>
      </trkpt>
      <trkpt lat="45.03926" lon="6.48763">
        <ele>2366</ele>
        <time>2022-01-22T09:16:12Z</time>
      </trkpt>
      <trkpt lat="45.03928" lon="6.48761">
        <ele>2368</ele>
        <time>2022-01-22T09:16:15Z</time>
      </trkpt>
      <trkpt lat="45.0393" lon="6.48761">
        <ele>2368</ele>
        <time>2022-01-22T09:16:17Z</time>
      </trkpt>
      <trkpt lat="45.03931" lon="6.48758">
        <ele>2369</ele>
        <time>2022-01-22T09:16:36Z</time>
      </trkpt>
      <trkpt lat="45.03934" lon="6.48759">
        <ele>2369</ele>
        <time>2022-01-22T09:16:41Z</time>
      </trkpt>
      <trkpt lat="45.03936" lon="6.48759">
        <ele>2370</ele>
        <time>2022-01-22T09:16:44Z</time>
      </trkpt>
      <trkpt lat="45.03941" lon="6.48754">
        <ele>2371</ele>
        <time>2022-01-22T09:16:49Z</time>
      </trkpt>
      <trkpt lat="45.03944" lon="6.48753">
        <ele>2372</ele>
        <time>2022-01-22T09:16:52Z</time>
      </trkpt>
      <trkpt lat="45.03946" lon="6.48752">
        <ele>2372</ele>
        <time>2022-01-22T09:16:54Z</time>
      </trkpt>
      <trkpt lat="45.03948" lon="6.48751">
        <ele>2372</ele>
        <time>2022-01-22T09:16:57Z</time>
      </trkpt>
      <trkpt lat="45.03953" lon="6.48748">
        <ele>2371</ele>
        <time>2022-01-22T09:17:03Z</time>
      </trkpt>
      <trkpt lat="45.03961" lon="6.48743">
        <ele>2375</ele>
        <time>2022-01-22T09:17:15Z</time>
      </trkpt>
      <trkpt lat="45.03963" lon="6.4874">
        <ele>2375</ele>
        <time>2022-01-22T09:17:18Z</time>
      </trkpt>
      <trkpt lat="45.03964" lon="6.48739">
        <ele>2374</ele>
        <time>2022-01-22T09:17:20Z</time>
      </trkpt>
      <trkpt lat="45.0397" lon="6.48742">
        <ele>2375</ele>
        <time>2022-01-22T09:17:28Z</time>
      </trkpt>
      <trkpt lat="45.03971" lon="6.48744">
        <ele>2375</ele>
        <time>2022-01-22T09:17:30Z</time>
      </trkpt>
      <trkpt lat="45.03975" lon="6.48748">
        <ele>2375</ele>
        <time>2022-01-22T09:17:34Z</time>
      </trkpt>
      <trkpt lat="45.03986" lon="6.48754">
        <ele>2377</ele>
        <time>2022-01-22T09:17:48Z</time>
      </trkpt>
      <trkpt lat="45.03989" lon="6.48758">
        <ele>2378</ele>
        <time>2022-01-22T09:17:54Z</time>
      </trkpt>
      <trkpt lat="45.0399" lon="6.4876">
        <ele>2379</ele>
        <time>2022-01-22T09:17:56Z</time>
      </trkpt>
      <trkpt lat="45.03992" lon="6.48762">
        <ele>2379</ele>
        <time>2022-01-22T09:17:59Z</time>
      </trkpt>
      <trkpt lat="45.03997" lon="6.48765">
        <ele>2381</ele>
        <time>2022-01-22T09:18:08Z</time>
      </trkpt>
      <trkpt lat="45.03999" lon="6.48766">
        <ele>2381</ele>
        <time>2022-01-22T09:18:11Z</time>
      </trkpt>
      <trkpt lat="45.04001" lon="6.48767">
        <ele>2382</ele>
        <time>2022-01-22T09:18:15Z</time>
      </trkpt>
      <trkpt lat="45.04003" lon="6.48767">
        <ele>2382</ele>
        <time>2022-01-22T09:18:18Z</time>
      </trkpt>
      <trkpt lat="45.04008" lon="6.4877">
        <ele>2383</ele>
        <time>2022-01-22T09:18:23Z</time>
      </trkpt>
      <trkpt lat="45.04009" lon="6.48771">
        <ele>2383</ele>
        <time>2022-01-22T09:18:25Z</time>
      </trkpt>
      <trkpt lat="45.04016" lon="6.48772">
        <ele>2384</ele>
        <time>2022-01-22T09:18:32Z</time>
      </trkpt>
      <trkpt lat="45.04018" lon="6.48773">
        <ele>2384</ele>
        <time>2022-01-22T09:18:34Z</time>
      </trkpt>
      <trkpt lat="45.0402" lon="6.48773">
        <ele>2384</ele>
        <time>2022-01-22T09:18:36Z</time>
      </trkpt>
      <trkpt lat="45.04022" lon="6.48774">
        <ele>2384</ele>
        <time>2022-01-22T09:18:38Z</time>
      </trkpt>
      <trkpt lat="45.04024" lon="6.48774">
        <ele>2384</ele>
        <time>2022-01-22T09:18:40Z</time>
      </trkpt>
      <trkpt lat="45.04027" lon="6.48776">
        <ele>2384</ele>
        <time>2022-01-22T09:18:44Z</time>
      </trkpt>
      <trkpt lat="45.04029" lon="6.48776">
        <ele>2384</ele>
        <time>2022-01-22T09:18:48Z</time>
      </trkpt>
      <trkpt lat="45.04031" lon="6.48777">
        <ele>2384</ele>
        <time>2022-01-22T09:18:51Z</time>
      </trkpt>
      <trkpt lat="45.04032" lon="6.4878">
        <ele>2385</ele>
        <time>2022-01-22T09:18:53Z</time>
      </trkpt>
      <trkpt lat="45.04034" lon="6.48783">
        <ele>2385</ele>
        <time>2022-01-22T09:18:59Z</time>
      </trkpt>
      <trkpt lat="45.04043" lon="6.48788">
        <ele>2388</ele>
        <time>2022-01-22T09:19:10Z</time>
      </trkpt>
      <trkpt lat="45.04049" lon="6.48792">
        <ele>2389</ele>
        <time>2022-01-22T09:19:18Z</time>
      </trkpt>
      <trkpt lat="45.04051" lon="6.48793">
        <ele>2389</ele>
        <time>2022-01-22T09:19:20Z</time>
      </trkpt>
      <trkpt lat="45.04055" lon="6.48796">
        <ele>2389</ele>
        <time>2022-01-22T09:19:25Z</time>
      </trkpt>
      <trkpt lat="45.04058" lon="6.48796">
        <ele>2389</ele>
        <time>2022-01-22T09:19:27Z</time>
      </trkpt>
      <trkpt lat="45.04059" lon="6.48797">
        <ele>2389</ele>
        <time>2022-01-22T09:19:29Z</time>
      </trkpt>
      <trkpt lat="45.04065" lon="6.48803">
        <ele>2389</ele>
        <time>2022-01-22T09:19:37Z</time>
      </trkpt>
      <trkpt lat="45.04067" lon="6.48805">
        <ele>2389</ele>
        <time>2022-01-22T09:19:40Z</time>
      </trkpt>
      <trkpt lat="45.04072" lon="6.48809">
        <ele>2389</ele>
        <time>2022-01-22T09:19:46Z</time>
      </trkpt>
      <trkpt lat="45.04078" lon="6.48813">
        <ele>2388</ele>
        <time>2022-01-22T09:19:53Z</time>
      </trkpt>
      <trkpt lat="45.04081" lon="6.48815">
        <ele>2388</ele>
        <time>2022-01-22T09:19:57Z</time>
      </trkpt>
      <trkpt lat="45.04082" lon="6.48817">
        <ele>2388</ele>
        <time>2022-01-22T09:20:01Z</time>
      </trkpt>
      <trkpt lat="45.04085" lon="6.48821">
        <ele>2388</ele>
        <time>2022-01-22T09:20:06Z</time>
      </trkpt>
      <trkpt lat="45.04087" lon="6.48822">
        <ele>2389</ele>
        <time>2022-01-22T09:20:09Z</time>
      </trkpt>
      <trkpt lat="45.0409" lon="6.48825">
        <ele>2389</ele>
        <time>2022-01-22T09:20:13Z</time>
      </trkpt>
      <trkpt lat="45.04095" lon="6.48829">
        <ele>2390</ele>
        <time>2022-01-22T09:20:19Z</time>
      </trkpt>
      <trkpt lat="45.04097" lon="6.48831">
        <ele>2390</ele>
        <time>2022-01-22T09:20:22Z</time>
      </trkpt>
      <trkpt lat="45.04098" lon="6.48833">
        <ele>2391</ele>
        <time>2022-01-22T09:20:25Z</time>
      </trkpt>
      <trkpt lat="45.041" lon="6.48835">
        <ele>2391</ele>
        <time>2022-01-22T09:20:28Z</time>
      </trkpt>
      <trkpt lat="45.04102" lon="6.48836">
        <ele>2392</ele>
        <time>2022-01-22T09:20:31Z</time>
      </trkpt>
      <trkpt lat="45.0411" lon="6.48847">
        <ele>2393</ele>
        <time>2022-01-22T09:20:45Z</time>
      </trkpt>
      <trkpt lat="45.04112" lon="6.4885">
        <ele>2393</ele>
        <time>2022-01-22T09:20:50Z</time>
      </trkpt>
      <trkpt lat="45.04114" lon="6.48851">
        <ele>2393</ele>
        <time>2022-01-22T09:20:52Z</time>
      </trkpt>
      <trkpt lat="45.04116" lon="6.48852">
        <ele>2394</ele>
        <time>2022-01-22T09:20:54Z</time>
      </trkpt>
      <trkpt lat="45.04121" lon="6.48856">
        <ele>2394</ele>
        <time>2022-01-22T09:21:03Z</time>
      </trkpt>
      <trkpt lat="45.04124" lon="6.48859">
        <ele>2395</ele>
        <time>2022-01-22T09:21:08Z</time>
      </trkpt>
      <trkpt lat="45.04128" lon="6.48865">
        <ele>2396</ele>
        <time>2022-01-22T09:21:15Z</time>
      </trkpt>
      <trkpt lat="45.0413" lon="6.48866">
        <ele>2396</ele>
        <time>2022-01-22T09:21:20Z</time>
      </trkpt>
      <trkpt lat="45.04132" lon="6.48868">
        <ele>2396</ele>
        <time>2022-01-22T09:21:22Z</time>
      </trkpt>
      <trkpt lat="45.04134" lon="6.48869">
        <ele>2396</ele>
        <time>2022-01-22T09:21:25Z</time>
      </trkpt>
      <trkpt lat="45.04136" lon="6.4887">
        <ele>2397</ele>
        <time>2022-01-22T09:21:28Z</time>
      </trkpt>
      <trkpt lat="45.04139" lon="6.48872">
        <ele>2398</ele>
        <time>2022-01-22T09:21:34Z</time>
      </trkpt>
      <trkpt lat="45.04142" lon="6.48871">
        <ele>2398</ele>
        <time>2022-01-22T09:21:36Z</time>
      </trkpt>
      <trkpt lat="45.04146" lon="6.48874">
        <ele>2398</ele>
        <time>2022-01-22T09:21:43Z</time>
      </trkpt>
      <trkpt lat="45.04148" lon="6.48875">
        <ele>2398</ele>
        <time>2022-01-22T09:21:45Z</time>
      </trkpt>
      <trkpt lat="45.04154" lon="6.48882">
        <ele>2398</ele>
        <time>2022-01-22T09:21:56Z</time>
      </trkpt>
      <trkpt lat="45.04156" lon="6.48883">
        <ele>2399</ele>
        <time>2022-01-22T09:22:02Z</time>
      </trkpt>
      <trkpt lat="45.04159" lon="6.48886">
        <ele>2400</ele>
        <time>2022-01-22T09:22:06Z</time>
      </trkpt>
      <trkpt lat="45.04163" lon="6.48889">
        <ele>2401</ele>
        <time>2022-01-22T09:22:10Z</time>
      </trkpt>
      <trkpt lat="45.0417" lon="6.48897">
        <ele>2403</ele>
        <time>2022-01-22T09:22:22Z</time>
      </trkpt>
      <trkpt lat="45.04177" lon="6.489">
        <ele>2406</ele>
        <time>2022-01-22T09:22:33Z</time>
      </trkpt>
      <trkpt lat="45.04189" lon="6.48905">
        <ele>2410</ele>
        <time>2022-01-22T09:22:51Z</time>
      </trkpt>
      <trkpt lat="45.0419" lon="6.48906">
        <ele>2410</ele>
        <time>2022-01-22T09:22:53Z</time>
      </trkpt>
      <trkpt lat="45.04201" lon="6.48914">
        <ele>2411</ele>
        <time>2022-01-22T09:23:09Z</time>
      </trkpt>
      <trkpt lat="45.04202" lon="6.48915">
        <ele>2411</ele>
        <time>2022-01-22T09:23:11Z</time>
      </trkpt>
      <trkpt lat="45.04205" lon="6.48916">
        <ele>2411</ele>
        <time>2022-01-22T09:23:13Z</time>
      </trkpt>
      <trkpt lat="45.04207" lon="6.48917">
        <ele>2411</ele>
        <time>2022-01-22T09:23:16Z</time>
      </trkpt>
      <trkpt lat="45.04208" lon="6.48918">
        <ele>2412</ele>
        <time>2022-01-22T09:23:21Z</time>
      </trkpt>
      <trkpt lat="45.0421" lon="6.48919">
        <ele>2412</ele>
        <time>2022-01-22T09:23:24Z</time>
      </trkpt>
      <trkpt lat="45.04214" lon="6.48924">
        <ele>2413</ele>
        <time>2022-01-22T09:23:31Z</time>
      </trkpt>
      <trkpt lat="45.04218" lon="6.48924">
        <ele>2413</ele>
        <time>2022-01-22T09:23:35Z</time>
      </trkpt>
      <trkpt lat="45.0422" lon="6.48925">
        <ele>2414</ele>
        <time>2022-01-22T09:23:37Z</time>
      </trkpt>
      <trkpt lat="45.04222" lon="6.48925">
        <ele>2414</ele>
        <time>2022-01-22T09:23:39Z</time>
      </trkpt>
      <trkpt lat="45.04224" lon="6.48926">
        <ele>2414</ele>
        <time>2022-01-22T09:23:42Z</time>
      </trkpt>
      <trkpt lat="45.04226" lon="6.48926">
        <ele>2415</ele>
        <time>2022-01-22T09:23:45Z</time>
      </trkpt>
      <trkpt lat="45.04229" lon="6.48927">
        <ele>2415</ele>
        <time>2022-01-22T09:23:50Z</time>
      </trkpt>
      <trkpt lat="45.04233" lon="6.48929">
        <ele>2414</ele>
        <time>2022-01-22T09:23:54Z</time>
      </trkpt>
      <trkpt lat="45.04234" lon="6.48928">
        <ele>2414</ele>
        <time>2022-01-22T09:23:56Z</time>
      </trkpt>
      <trkpt lat="45.04246" lon="6.48933">
        <ele>2414</ele>
        <time>2022-01-22T09:24:14Z</time>
      </trkpt>
      <trkpt lat="45.04248" lon="6.48934">
        <ele>2414</ele>
        <time>2022-01-22T09:24:16Z</time>
      </trkpt>
      <trkpt lat="45.04251" lon="6.48933">
        <ele>2415</ele>
        <time>2022-01-22T09:24:21Z</time>
      </trkpt>
      <trkpt lat="45.04253" lon="6.48934">
        <ele>2415</ele>
        <time>2022-01-22T09:24:23Z</time>
      </trkpt>
      <trkpt lat="45.04254" lon="6.48936">
        <ele>2415</ele>
        <time>2022-01-22T09:24:26Z</time>
      </trkpt>
      <trkpt lat="45.04256" lon="6.48937">
        <ele>2415</ele>
        <time>2022-01-22T09:24:29Z</time>
      </trkpt>
      <trkpt lat="45.04267" lon="6.48945">
        <ele>2417</ele>
        <time>2022-01-22T09:24:46Z</time>
      </trkpt>
      <trkpt lat="45.04269" lon="6.48946">
        <ele>2417</ele>
        <time>2022-01-22T09:24:49Z</time>
      </trkpt>
      <trkpt lat="45.04272" lon="6.48947">
        <ele>2417</ele>
        <time>2022-01-22T09:24:53Z</time>
      </trkpt>
      <trkpt lat="45.04273" lon="6.48948">
        <ele>2418</ele>
        <time>2022-01-22T09:24:56Z</time>
      </trkpt>
      <trkpt lat="45.04279" lon="6.48949">
        <ele>2419</ele>
        <time>2022-01-22T09:25:05Z</time>
      </trkpt>
      <trkpt lat="45.04281" lon="6.48948">
        <ele>2419</ele>
        <time>2022-01-22T09:25:07Z</time>
      </trkpt>
      <trkpt lat="45.04283" lon="6.48948">
        <ele>2420</ele>
        <time>2022-01-22T09:25:10Z</time>
      </trkpt>
      <trkpt lat="45.04288" lon="6.48946">
        <ele>2420</ele>
        <time>2022-01-22T09:25:18Z</time>
      </trkpt>
      <trkpt lat="45.04291" lon="6.48946">
        <ele>2421</ele>
        <time>2022-01-22T09:25:20Z</time>
      </trkpt>
      <trkpt lat="45.04297" lon="6.48946">
        <ele>2422</ele>
        <time>2022-01-22T09:25:28Z</time>
      </trkpt>
      <trkpt lat="45.04298" lon="6.48945">
        <ele>2422</ele>
        <time>2022-01-22T09:25:30Z</time>
      </trkpt>
      <trkpt lat="45.043" lon="6.48943">
        <ele>2422</ele>
        <time>2022-01-22T09:25:33Z</time>
      </trkpt>
      <trkpt lat="45.04302" lon="6.48942">
        <ele>2422</ele>
        <time>2022-01-22T09:25:35Z</time>
      </trkpt>
      <trkpt lat="45.04304" lon="6.48942">
        <ele>2422</ele>
        <time>2022-01-22T09:25:37Z</time>
      </trkpt>
      <trkpt lat="45.04307" lon="6.4894">
        <ele>2423</ele>
        <time>2022-01-22T09:25:43Z</time>
      </trkpt>
      <trkpt lat="45.04309" lon="6.4894">
        <ele>2423</ele>
        <time>2022-01-22T09:25:45Z</time>
      </trkpt>
      <trkpt lat="45.04312" lon="6.4894">
        <ele>2424</ele>
        <time>2022-01-22T09:25:48Z</time>
      </trkpt>
      <trkpt lat="45.04314" lon="6.4894">
        <ele>2424</ele>
        <time>2022-01-22T09:25:50Z</time>
      </trkpt>
      <trkpt lat="45.04317" lon="6.48942">
        <ele>2424</ele>
        <time>2022-01-22T09:25:55Z</time>
      </trkpt>
      <trkpt lat="45.04319" lon="6.48943">
        <ele>2425</ele>
        <time>2022-01-22T09:25:58Z</time>
      </trkpt>
      <trkpt lat="45.04321" lon="6.48943">
        <ele>2425</ele>
        <time>2022-01-22T09:26:02Z</time>
      </trkpt>
      <trkpt lat="45.04327" lon="6.48941">
        <ele>2427</ele>
        <time>2022-01-22T09:26:09Z</time>
      </trkpt>
      <trkpt lat="45.04329" lon="6.4894">
        <ele>2428</ele>
        <time>2022-01-22T09:26:11Z</time>
      </trkpt>
      <trkpt lat="45.04331" lon="6.48939">
        <ele>2429</ele>
        <time>2022-01-22T09:26:14Z</time>
      </trkpt>
      <trkpt lat="45.04333" lon="6.48939">
        <ele>2429</ele>
        <time>2022-01-22T09:26:17Z</time>
      </trkpt>
      <trkpt lat="45.04334" lon="6.48939">
        <ele>2429</ele>
        <time>2022-01-22T09:26:19Z</time>
      </trkpt>
      <trkpt lat="45.04342" lon="6.48937">
        <ele>2428</ele>
        <time>2022-01-22T09:26:30Z</time>
      </trkpt>
      <trkpt lat="45.04344" lon="6.48937">
        <ele>2428</ele>
        <time>2022-01-22T09:26:32Z</time>
      </trkpt>
      <trkpt lat="45.04346" lon="6.48938">
        <ele>2428</ele>
        <time>2022-01-22T09:26:34Z</time>
      </trkpt>
      <trkpt lat="45.04349" lon="6.48938">
        <ele>2428</ele>
        <time>2022-01-22T09:26:36Z</time>
      </trkpt>
      <trkpt lat="45.0435" lon="6.48937">
        <ele>2429</ele>
        <time>2022-01-22T09:26:39Z</time>
      </trkpt>
      <trkpt lat="45.04357" lon="6.4894">
        <ele>2430</ele>
        <time>2022-01-22T09:26:46Z</time>
      </trkpt>
      <trkpt lat="45.04358" lon="6.4894">
        <ele>2430</ele>
        <time>2022-01-22T09:26:48Z</time>
      </trkpt>
      <trkpt lat="45.04364" lon="6.4894">
        <ele>2431</ele>
        <time>2022-01-22T09:26:54Z</time>
      </trkpt>
      <trkpt lat="45.04371" lon="6.48937">
        <ele>2432</ele>
        <time>2022-01-22T09:27:04Z</time>
      </trkpt>
      <trkpt lat="45.04374" lon="6.48937">
        <ele>2432</ele>
        <time>2022-01-22T09:27:07Z</time>
      </trkpt>
      <trkpt lat="45.0438" lon="6.48939">
        <ele>2432</ele>
        <time>2022-01-22T09:27:14Z</time>
      </trkpt>
      <trkpt lat="45.04381" lon="6.48939">
        <ele>2433</ele>
        <time>2022-01-22T09:27:16Z</time>
      </trkpt>
      <trkpt lat="45.04383" lon="6.4894">
        <ele>2433</ele>
        <time>2022-01-22T09:27:18Z</time>
      </trkpt>
      <trkpt lat="45.04385" lon="6.48941">
        <ele>2433</ele>
        <time>2022-01-22T09:27:21Z</time>
      </trkpt>
      <trkpt lat="45.04394" lon="6.48943">
        <ele>2434</ele>
        <time>2022-01-22T09:27:31Z</time>
      </trkpt>
      <trkpt lat="45.04404" lon="6.48946">
        <ele>2436</ele>
        <time>2022-01-22T09:27:41Z</time>
      </trkpt>
      <trkpt lat="45.04405" lon="6.48948">
        <ele>2436</ele>
        <time>2022-01-22T09:27:43Z</time>
      </trkpt>
      <trkpt lat="45.04407" lon="6.48948">
        <ele>2436</ele>
        <time>2022-01-22T09:27:45Z</time>
      </trkpt>
      <trkpt lat="45.04409" lon="6.48949">
        <ele>2437</ele>
        <time>2022-01-22T09:27:47Z</time>
      </trkpt>
      <trkpt lat="45.04414" lon="6.48952">
        <ele>2438</ele>
        <time>2022-01-22T09:27:53Z</time>
      </trkpt>
      <trkpt lat="45.04418" lon="6.48955">
        <ele>2438</ele>
        <time>2022-01-22T09:27:58Z</time>
      </trkpt>
      <trkpt lat="45.04425" lon="6.48958">
        <ele>2440</ele>
        <time>2022-01-22T09:28:06Z</time>
      </trkpt>
      <trkpt lat="45.04426" lon="6.4896">
        <ele>2440</ele>
        <time>2022-01-22T09:28:09Z</time>
      </trkpt>
      <trkpt lat="45.04436" lon="6.48971">
        <ele>2440</ele>
        <time>2022-01-22T09:28:22Z</time>
      </trkpt>
      <trkpt lat="45.04438" lon="6.48972">
        <ele>2440</ele>
        <time>2022-01-22T09:28:25Z</time>
      </trkpt>
      <trkpt lat="45.04443" lon="6.48973">
        <ele>2440</ele>
        <time>2022-01-22T09:28:33Z</time>
      </trkpt>
      <trkpt lat="45.04446" lon="6.48973">
        <ele>2440</ele>
        <time>2022-01-22T09:28:37Z</time>
      </trkpt>
      <trkpt lat="45.0445" lon="6.48973">
        <ele>2440</ele>
        <time>2022-01-22T09:28:43Z</time>
      </trkpt>
      <trkpt lat="45.04454" lon="6.48972">
        <ele>2441</ele>
        <time>2022-01-22T09:28:47Z</time>
      </trkpt>
      <trkpt lat="45.04458" lon="6.48972">
        <ele>2441</ele>
        <time>2022-01-22T09:28:51Z</time>
      </trkpt>
      <trkpt lat="45.0446" lon="6.48971">
        <ele>2441</ele>
        <time>2022-01-22T09:28:53Z</time>
      </trkpt>
      <trkpt lat="45.04467" lon="6.48971">
        <ele>2441</ele>
        <time>2022-01-22T09:29:00Z</time>
      </trkpt>
      <trkpt lat="45.04469" lon="6.48973">
        <ele>2441</ele>
        <time>2022-01-22T09:29:03Z</time>
      </trkpt>
      <trkpt lat="45.04474" lon="6.48979">
        <ele>2441</ele>
        <time>2022-01-22T09:29:09Z</time>
      </trkpt>
      <trkpt lat="45.04479" lon="6.48985">
        <ele>2441</ele>
        <time>2022-01-22T09:29:16Z</time>
      </trkpt>
      <trkpt lat="45.04481" lon="6.48986">
        <ele>2442</ele>
        <time>2022-01-22T09:29:19Z</time>
      </trkpt>
      <trkpt lat="45.04483" lon="6.48989">
        <ele>2442</ele>
        <time>2022-01-22T09:29:25Z</time>
      </trkpt>
      <trkpt lat="45.04485" lon="6.48992">
        <ele>2443</ele>
        <time>2022-01-22T09:29:27Z</time>
      </trkpt>
      <trkpt lat="45.04486" lon="6.48995">
        <ele>2443</ele>
        <time>2022-01-22T09:29:29Z</time>
      </trkpt>
      <trkpt lat="45.04486" lon="6.48998">
        <ele>2444</ele>
        <time>2022-01-22T09:29:31Z</time>
      </trkpt>
      <trkpt lat="45.04487" lon="6.49">
        <ele>2444</ele>
        <time>2022-01-22T09:29:33Z</time>
      </trkpt>
      <trkpt lat="45.04489" lon="6.49002">
        <ele>2444</ele>
        <time>2022-01-22T09:29:35Z</time>
      </trkpt>
      <trkpt lat="45.04492" lon="6.49005">
        <ele>2445</ele>
        <time>2022-01-22T09:29:40Z</time>
      </trkpt>
      <trkpt lat="45.04493" lon="6.49008">
        <ele>2446</ele>
        <time>2022-01-22T09:29:43Z</time>
      </trkpt>
      <trkpt lat="45.04495" lon="6.49009">
        <ele>2446</ele>
        <time>2022-01-22T09:29:45Z</time>
      </trkpt>
      <trkpt lat="45.04499" lon="6.49013">
        <ele>2447</ele>
        <time>2022-01-22T09:29:49Z</time>
      </trkpt>
      <trkpt lat="45.04502" lon="6.49017">
        <ele>2448</ele>
        <time>2022-01-22T09:29:54Z</time>
      </trkpt>
      <trkpt lat="45.04508" lon="6.49022">
        <ele>2449</ele>
        <time>2022-01-22T09:30:02Z</time>
      </trkpt>
      <trkpt lat="45.04508" lon="6.49025">
        <ele>2449</ele>
        <time>2022-01-22T09:30:04Z</time>
      </trkpt>
      <trkpt lat="45.0451" lon="6.49027">
        <ele>2449</ele>
        <time>2022-01-22T09:30:07Z</time>
      </trkpt>
      <trkpt lat="45.04516" lon="6.49031">
        <ele>2451</ele>
        <time>2022-01-22T09:30:16Z</time>
      </trkpt>
      <trkpt lat="45.04517" lon="6.49032">
        <ele>2451</ele>
        <time>2022-01-22T09:30:18Z</time>
      </trkpt>
      <trkpt lat="45.04519" lon="6.49032">
        <ele>2451</ele>
        <time>2022-01-22T09:30:20Z</time>
      </trkpt>
      <trkpt lat="45.04521" lon="6.49033">
        <ele>2451</ele>
        <time>2022-01-22T09:30:22Z</time>
      </trkpt>
      <trkpt lat="45.04522" lon="6.49033">
        <ele>2451</ele>
        <time>2022-01-22T09:30:24Z</time>
      </trkpt>
      <trkpt lat="45.04524" lon="6.49033">
        <ele>2452</ele>
        <time>2022-01-22T09:30:26Z</time>
      </trkpt>
      <trkpt lat="45.04526" lon="6.49033">
        <ele>2452</ele>
        <time>2022-01-22T09:30:28Z</time>
      </trkpt>
      <trkpt lat="45.0453" lon="6.49033">
        <ele>2452</ele>
        <time>2022-01-22T09:30:32Z</time>
      </trkpt>
      <trkpt lat="45.04533" lon="6.49035">
        <ele>2453</ele>
        <time>2022-01-22T09:30:37Z</time>
      </trkpt>
      <trkpt lat="45.04535" lon="6.49037">
        <ele>2453</ele>
        <time>2022-01-22T09:30:40Z</time>
      </trkpt>
      <trkpt lat="45.04537" lon="6.49039">
        <ele>2453</ele>
        <time>2022-01-22T09:30:44Z</time>
      </trkpt>
      <trkpt lat="45.04539" lon="6.4904">
        <ele>2454</ele>
        <time>2022-01-22T09:30:47Z</time>
      </trkpt>
      <trkpt lat="45.04543" lon="6.49042">
        <ele>2454</ele>
        <time>2022-01-22T09:30:51Z</time>
      </trkpt>
      <trkpt lat="45.04545" lon="6.49043">
        <ele>2454</ele>
        <time>2022-01-22T09:30:54Z</time>
      </trkpt>
      <trkpt lat="45.04548" lon="6.49044">
        <ele>2455</ele>
        <time>2022-01-22T09:30:57Z</time>
      </trkpt>
      <trkpt lat="45.04561" lon="6.49049">
        <ele>2455</ele>
        <time>2022-01-22T09:31:15Z</time>
      </trkpt>
      <trkpt lat="45.04563" lon="6.4905">
        <ele>2456</ele>
        <time>2022-01-22T09:31:17Z</time>
      </trkpt>
      <trkpt lat="45.04566" lon="6.49051">
        <ele>2456</ele>
        <time>2022-01-22T09:31:20Z</time>
      </trkpt>
      <trkpt lat="45.04574" lon="6.49053">
        <ele>2458</ele>
        <time>2022-01-22T09:31:30Z</time>
      </trkpt>
      <trkpt lat="45.04576" lon="6.49054">
        <ele>2458</ele>
        <time>2022-01-22T09:31:33Z</time>
      </trkpt>
      <trkpt lat="45.04579" lon="6.49054">
        <ele>2460</ele>
        <time>2022-01-22T09:31:39Z</time>
      </trkpt>
      <trkpt lat="45.04581" lon="6.49053">
        <ele>2460</ele>
        <time>2022-01-22T09:31:41Z</time>
      </trkpt>
      <trkpt lat="45.04583" lon="6.49055">
        <ele>2460</ele>
        <time>2022-01-22T09:31:44Z</time>
      </trkpt>
      <trkpt lat="45.0459" lon="6.4906">
        <ele>2463</ele>
        <time>2022-01-22T09:31:56Z</time>
      </trkpt>
      <trkpt lat="45.04593" lon="6.49062">
        <ele>2463</ele>
        <time>2022-01-22T09:32:02Z</time>
      </trkpt>
      <trkpt lat="45.04595" lon="6.49063">
        <ele>2463</ele>
        <time>2022-01-22T09:32:05Z</time>
      </trkpt>
      <trkpt lat="45.04599" lon="6.49069">
        <ele>2464</ele>
        <time>2022-01-22T09:32:14Z</time>
      </trkpt>
      <trkpt lat="45.04601" lon="6.49071">
        <ele>2464</ele>
        <time>2022-01-22T09:32:16Z</time>
      </trkpt>
      <trkpt lat="45.04602" lon="6.49073">
        <ele>2465</ele>
        <time>2022-01-22T09:32:18Z</time>
      </trkpt>
      <trkpt lat="45.04606" lon="6.49075">
        <ele>2465</ele>
        <time>2022-01-22T09:32:24Z</time>
      </trkpt>
      <trkpt lat="45.04608" lon="6.49075">
        <ele>2465</ele>
        <time>2022-01-22T09:32:26Z</time>
      </trkpt>
      <trkpt lat="45.0461" lon="6.49074">
        <ele>2465</ele>
        <time>2022-01-22T09:32:28Z</time>
      </trkpt>
      <trkpt lat="45.04611" lon="6.49075">
        <ele>2465</ele>
        <time>2022-01-22T09:32:31Z</time>
      </trkpt>
      <trkpt lat="45.04614" lon="6.49082">
        <ele>2464</ele>
        <time>2022-01-22T09:32:38Z</time>
      </trkpt>
      <trkpt lat="45.0462" lon="6.49089">
        <ele>2464</ele>
        <time>2022-01-22T09:32:46Z</time>
      </trkpt>
      <trkpt lat="45.04622" lon="6.49091">
        <ele>2465</ele>
        <time>2022-01-22T09:32:49Z</time>
      </trkpt>
      <trkpt lat="45.04623" lon="6.49092">
        <ele>2465</ele>
        <time>2022-01-22T09:32:52Z</time>
      </trkpt>
      <trkpt lat="45.04625" lon="6.49094">
        <ele>2466</ele>
        <time>2022-01-22T09:32:54Z</time>
      </trkpt>
      <trkpt lat="45.04626" lon="6.49096">
        <ele>2467</ele>
        <time>2022-01-22T09:32:57Z</time>
      </trkpt>
      <trkpt lat="45.0463" lon="6.49098">
        <ele>2468</ele>
        <time>2022-01-22T09:33:02Z</time>
      </trkpt>
      <trkpt lat="45.04633" lon="6.49101">
        <ele>2468</ele>
        <time>2022-01-22T09:33:06Z</time>
      </trkpt>
      <trkpt lat="45.04637" lon="6.49103">
        <ele>2469</ele>
        <time>2022-01-22T09:33:10Z</time>
      </trkpt>
      <trkpt lat="45.04639" lon="6.49103">
        <ele>2469</ele>
        <time>2022-01-22T09:33:13Z</time>
      </trkpt>
      <trkpt lat="45.04641" lon="6.49105">
        <ele>2470</ele>
        <time>2022-01-22T09:33:17Z</time>
      </trkpt>
      <trkpt lat="45.04643" lon="6.49106">
        <ele>2471</ele>
        <time>2022-01-22T09:33:20Z</time>
      </trkpt>
      <trkpt lat="45.04645" lon="6.49106">
        <ele>2471</ele>
        <time>2022-01-22T09:33:23Z</time>
      </trkpt>
      <trkpt lat="45.04647" lon="6.49106">
        <ele>2472</ele>
        <time>2022-01-22T09:33:26Z</time>
      </trkpt>
      <trkpt lat="45.04653" lon="6.49106">
        <ele>2474</ele>
        <time>2022-01-22T09:33:34Z</time>
      </trkpt>
      <trkpt lat="45.04655" lon="6.49107">
        <ele>2475</ele>
        <time>2022-01-22T09:33:39Z</time>
      </trkpt>
      <trkpt lat="45.0466" lon="6.4911">
        <ele>2477</ele>
        <time>2022-01-22T09:33:45Z</time>
      </trkpt>
      <trkpt lat="45.04667" lon="6.49111">
        <ele>2479</ele>
        <time>2022-01-22T09:33:55Z</time>
      </trkpt>
      <trkpt lat="45.0467" lon="6.49112">
        <ele>2480</ele>
        <time>2022-01-22T09:34:01Z</time>
      </trkpt>
      <trkpt lat="45.04672" lon="6.49113">
        <ele>2481</ele>
        <time>2022-01-22T09:34:04Z</time>
      </trkpt>
      <trkpt lat="45.04674" lon="6.49114">
        <ele>2481</ele>
        <time>2022-01-22T09:34:07Z</time>
      </trkpt>
      <trkpt lat="45.04676" lon="6.49115">
        <ele>2482</ele>
        <time>2022-01-22T09:34:10Z</time>
      </trkpt>
      <trkpt lat="45.04683" lon="6.49114">
        <ele>2483</ele>
        <time>2022-01-22T09:34:18Z</time>
      </trkpt>
      <trkpt lat="45.04685" lon="6.49114">
        <ele>2483</ele>
        <time>2022-01-22T09:34:21Z</time>
      </trkpt>
      <trkpt lat="45.04686" lon="6.49113">
        <ele>2483</ele>
        <time>2022-01-22T09:34:25Z</time>
      </trkpt>
      <trkpt lat="45.04688" lon="6.49113">
        <ele>2483</ele>
        <time>2022-01-22T09:34:27Z</time>
      </trkpt>
      <trkpt lat="45.04692" lon="6.49113">
        <ele>2483</ele>
        <time>2022-01-22T09:34:34Z</time>
      </trkpt>
      <trkpt lat="45.04694" lon="6.49112">
        <ele>2484</ele>
        <time>2022-01-22T09:34:36Z</time>
      </trkpt>
      <trkpt lat="45.04696" lon="6.49113">
        <ele>2484</ele>
        <time>2022-01-22T09:34:38Z</time>
      </trkpt>
      <trkpt lat="45.04704" lon="6.49113">
        <ele>2485</ele>
        <time>2022-01-22T09:34:48Z</time>
      </trkpt>
      <trkpt lat="45.04709" lon="6.49113">
        <ele>2486</ele>
        <time>2022-01-22T09:34:55Z</time>
      </trkpt>
      <trkpt lat="45.04712" lon="6.49117">
        <ele>2486</ele>
        <time>2022-01-22T09:35:02Z</time>
      </trkpt>
      <trkpt lat="45.04718" lon="6.49121">
        <ele>2487</ele>
        <time>2022-01-22T09:35:10Z</time>
      </trkpt>
      <trkpt lat="45.0472" lon="6.49122">
        <ele>2487</ele>
        <time>2022-01-22T09:35:13Z</time>
      </trkpt>
      <trkpt lat="45.04722" lon="6.49122">
        <ele>2488</ele>
        <time>2022-01-22T09:35:16Z</time>
      </trkpt>
      <trkpt lat="45.04724" lon="6.49123">
        <ele>2488</ele>
        <time>2022-01-22T09:35:18Z</time>
      </trkpt>
      <trkpt lat="45.04727" lon="6.49125">
        <ele>2489</ele>
        <time>2022-01-22T09:35:21Z</time>
      </trkpt>
      <trkpt lat="45.04728" lon="6.49127">
        <ele>2489</ele>
        <time>2022-01-22T09:35:25Z</time>
      </trkpt>
      <trkpt lat="45.04729" lon="6.4913">
        <ele>2489</ele>
        <time>2022-01-22T09:35:28Z</time>
      </trkpt>
      <trkpt lat="45.04732" lon="6.49137">
        <ele>2490</ele>
        <time>2022-01-22T09:35:36Z</time>
      </trkpt>
      <trkpt lat="45.04733" lon="6.4914">
        <ele>2490</ele>
        <time>2022-01-22T09:35:38Z</time>
      </trkpt>
      <trkpt lat="45.04736" lon="6.49145">
        <ele>2490</ele>
        <time>2022-01-22T09:35:43Z</time>
      </trkpt>
      <trkpt lat="45.04736" lon="6.49147">
        <ele>2490</ele>
        <time>2022-01-22T09:35:45Z</time>
      </trkpt>
      <trkpt lat="45.04737" lon="6.4915">
        <ele>2490</ele>
        <time>2022-01-22T09:35:48Z</time>
      </trkpt>
      <trkpt lat="45.04738" lon="6.49152">
        <ele>2490</ele>
        <time>2022-01-22T09:35:50Z</time>
      </trkpt>
      <trkpt lat="45.04739" lon="6.49155">
        <ele>2490</ele>
        <time>2022-01-22T09:35:53Z</time>
      </trkpt>
      <trkpt lat="45.0474" lon="6.49157">
        <ele>2491</ele>
        <time>2022-01-22T09:35:56Z</time>
      </trkpt>
      <trkpt lat="45.04743" lon="6.49158">
        <ele>2490</ele>
        <time>2022-01-22T09:35:59Z</time>
      </trkpt>
      <trkpt lat="45.04745" lon="6.49162">
        <ele>2488</ele>
        <time>2022-01-22T09:36:04Z</time>
      </trkpt>
      <trkpt lat="45.04746" lon="6.49165">
        <ele>2488</ele>
        <time>2022-01-22T09:36:07Z</time>
      </trkpt>
      <trkpt lat="45.04747" lon="6.49185">
        <ele>2485</ele>
        <time>2022-01-22T09:36:25Z</time>
      </trkpt>
      <trkpt lat="45.04747" lon="6.49187">
        <ele>2485</ele>
        <time>2022-01-22T09:36:28Z</time>
      </trkpt>
      <trkpt lat="45.04747" lon="6.49191">
        <ele>2485</ele>
        <time>2022-01-22T09:36:32Z</time>
      </trkpt>
      <trkpt lat="45.04747" lon="6.49196">
        <ele>2485</ele>
        <time>2022-01-22T09:36:38Z</time>
      </trkpt>
      <trkpt lat="45.04746" lon="6.49199">
        <ele>2485</ele>
        <time>2022-01-22T09:36:41Z</time>
      </trkpt>
      <trkpt lat="45.04745" lon="6.49202">
        <ele>2486</ele>
        <time>2022-01-22T09:36:43Z</time>
      </trkpt>
      <trkpt lat="45.04745" lon="6.49204">
        <ele>2486</ele>
        <time>2022-01-22T09:36:45Z</time>
      </trkpt>
      <trkpt lat="45.04743" lon="6.49205">
        <ele>2487</ele>
        <time>2022-01-22T09:36:48Z</time>
      </trkpt>
      <trkpt lat="45.0474" lon="6.49209">
        <ele>2488</ele>
        <time>2022-01-22T09:36:55Z</time>
      </trkpt>
      <trkpt lat="45.04739" lon="6.49214">
        <ele>2489</ele>
        <time>2022-01-22T09:37:00Z</time>
      </trkpt>
      <trkpt lat="45.04739" lon="6.49217">
        <ele>2491</ele>
        <time>2022-01-22T09:37:03Z</time>
      </trkpt>
      <trkpt lat="45.04739" lon="6.49219">
        <ele>2491</ele>
        <time>2022-01-22T09:37:07Z</time>
      </trkpt>
      <trkpt lat="45.04739" lon="6.49223">
        <ele>2492</ele>
        <time>2022-01-22T09:37:10Z</time>
      </trkpt>
      <trkpt lat="45.04738" lon="6.49226">
        <ele>2494</ele>
        <time>2022-01-22T09:37:13Z</time>
      </trkpt>
      <trkpt lat="45.04738" lon="6.49229">
        <ele>2494</ele>
        <time>2022-01-22T09:37:16Z</time>
      </trkpt>
      <trkpt lat="45.04738" lon="6.49238">
        <ele>2498</ele>
        <time>2022-01-22T09:37:25Z</time>
      </trkpt>
      <trkpt lat="45.04739" lon="6.49243">
        <ele>2500</ele>
        <time>2022-01-22T09:37:32Z</time>
      </trkpt>
      <trkpt lat="45.04738" lon="6.49245">
        <ele>2502</ele>
        <time>2022-01-22T09:37:35Z</time>
      </trkpt>
      <trkpt lat="45.04738" lon="6.49248">
        <ele>2502</ele>
        <time>2022-01-22T09:37:39Z</time>
      </trkpt>
      <trkpt lat="45.04736" lon="6.49255">
        <ele>2506</ele>
        <time>2022-01-22T09:37:48Z</time>
      </trkpt>
      <trkpt lat="45.04735" lon="6.49257">
        <ele>2506</ele>
        <time>2022-01-22T09:37:51Z</time>
      </trkpt>
      <trkpt lat="45.04734" lon="6.49265">
        <ele>2510</ele>
        <time>2022-01-22T09:37:59Z</time>
      </trkpt>
      <trkpt lat="45.04734" lon="6.49268">
        <ele>2510</ele>
        <time>2022-01-22T09:38:01Z</time>
      </trkpt>
      <trkpt lat="45.04737" lon="6.49275">
        <ele>2512</ele>
        <time>2022-01-22T09:38:10Z</time>
      </trkpt>
      <trkpt lat="45.04738" lon="6.49278">
        <ele>2512</ele>
        <time>2022-01-22T09:38:13Z</time>
      </trkpt>
      <trkpt lat="45.04744" lon="6.49282">
        <ele>2513</ele>
        <time>2022-01-22T09:38:21Z</time>
      </trkpt>
      <trkpt lat="45.04746" lon="6.49283">
        <ele>2513</ele>
        <time>2022-01-22T09:38:24Z</time>
      </trkpt>
      <trkpt lat="45.04748" lon="6.49283">
        <ele>2513</ele>
        <time>2022-01-22T09:38:27Z</time>
      </trkpt>
      <trkpt lat="45.0475" lon="6.49284">
        <ele>2513</ele>
        <time>2022-01-22T09:38:29Z</time>
      </trkpt>
      <trkpt lat="45.04758" lon="6.49286">
        <ele>2513</ele>
        <time>2022-01-22T09:38:42Z</time>
      </trkpt>
      <trkpt lat="45.0476" lon="6.49287">
        <ele>2514</ele>
        <time>2022-01-22T09:38:44Z</time>
      </trkpt>
      <trkpt lat="45.04761" lon="6.49289">
        <ele>2514</ele>
        <time>2022-01-22T09:38:47Z</time>
      </trkpt>
      <trkpt lat="45.0476" lon="6.49291">
        <ele>2515</ele>
        <time>2022-01-22T09:38:52Z</time>
      </trkpt>
      <trkpt lat="45.04759" lon="6.49296">
        <ele>2515</ele>
        <time>2022-01-22T09:38:59Z</time>
      </trkpt>
      <trkpt lat="45.04758" lon="6.49299">
        <ele>2515</ele>
        <time>2022-01-22T09:39:03Z</time>
      </trkpt>
      <trkpt lat="45.04758" lon="6.49301">
        <ele>2516</ele>
        <time>2022-01-22T09:39:06Z</time>
      </trkpt>
      <trkpt lat="45.04761" lon="6.49304">
        <ele>2516</ele>
        <time>2022-01-22T09:39:11Z</time>
      </trkpt>
      <trkpt lat="45.04762" lon="6.49306">
        <ele>2516</ele>
        <time>2022-01-22T09:39:14Z</time>
      </trkpt>
      <trkpt lat="45.04764" lon="6.49307">
        <ele>2516</ele>
        <time>2022-01-22T09:39:17Z</time>
      </trkpt>
      <trkpt lat="45.04768" lon="6.49309">
        <ele>2517</ele>
        <time>2022-01-22T09:39:24Z</time>
      </trkpt>
      <trkpt lat="45.0477" lon="6.49311">
        <ele>2517</ele>
        <time>2022-01-22T09:39:27Z</time>
      </trkpt>
      <trkpt lat="45.04772" lon="6.49311">
        <ele>2517</ele>
        <time>2022-01-22T09:39:29Z</time>
      </trkpt>
      <trkpt lat="45.0478" lon="6.49317">
        <ele>2519</ele>
        <time>2022-01-22T09:39:41Z</time>
      </trkpt>
      <trkpt lat="45.04783" lon="6.49321">
        <ele>2520</ele>
        <time>2022-01-22T09:39:48Z</time>
      </trkpt>
      <trkpt lat="45.04785" lon="6.49324">
        <ele>2521</ele>
        <time>2022-01-22T09:39:51Z</time>
      </trkpt>
      <trkpt lat="45.04786" lon="6.49325">
        <ele>2521</ele>
        <time>2022-01-22T09:39:55Z</time>
      </trkpt>
      <trkpt lat="45.04786" lon="6.49328">
        <ele>2521</ele>
        <time>2022-01-22T09:39:58Z</time>
      </trkpt>
      <trkpt lat="45.04788" lon="6.49329">
        <ele>2522</ele>
        <time>2022-01-22T09:40:01Z</time>
      </trkpt>
      <trkpt lat="45.0479" lon="6.49334">
        <ele>2522</ele>
        <time>2022-01-22T09:40:07Z</time>
      </trkpt>
      <trkpt lat="45.04791" lon="6.49336">
        <ele>2522</ele>
        <time>2022-01-22T09:40:11Z</time>
      </trkpt>
      <trkpt lat="45.04793" lon="6.49337">
        <ele>2523</ele>
        <time>2022-01-22T09:40:13Z</time>
      </trkpt>
      <trkpt lat="45.04795" lon="6.49337">
        <ele>2523</ele>
        <time>2022-01-22T09:40:16Z</time>
      </trkpt>
      <trkpt lat="45.04797" lon="6.49337">
        <ele>2523</ele>
        <time>2022-01-22T09:40:19Z</time>
      </trkpt>
      <trkpt lat="45.04799" lon="6.49338">
        <ele>2523</ele>
        <time>2022-01-22T09:40:21Z</time>
      </trkpt>
      <trkpt lat="45.04802" lon="6.49339">
        <ele>2523</ele>
        <time>2022-01-22T09:40:24Z</time>
      </trkpt>
      <trkpt lat="45.04803" lon="6.49338">
        <ele>2524</ele>
        <time>2022-01-22T09:40:28Z</time>
      </trkpt>
      <trkpt lat="45.04814" lon="6.49336">
        <ele>2525</ele>
        <time>2022-01-22T09:40:43Z</time>
      </trkpt>
      <trkpt lat="45.04816" lon="6.49336">
        <ele>2525</ele>
        <time>2022-01-22T09:40:46Z</time>
      </trkpt>
      <trkpt lat="45.04818" lon="6.49336">
        <ele>2526</ele>
        <time>2022-01-22T09:40:50Z</time>
      </trkpt>
      <trkpt lat="45.0482" lon="6.49334">
        <ele>2526</ele>
        <time>2022-01-22T09:40:53Z</time>
      </trkpt>
      <trkpt lat="45.04821" lon="6.49334">
        <ele>2526</ele>
        <time>2022-01-22T09:40:55Z</time>
      </trkpt>
      <trkpt lat="45.04823" lon="6.49335">
        <ele>2527</ele>
        <time>2022-01-22T09:41:00Z</time>
      </trkpt>
      <trkpt lat="45.04825" lon="6.49334">
        <ele>2528</ele>
        <time>2022-01-22T09:41:05Z</time>
      </trkpt>
      <trkpt lat="45.04826" lon="6.49331">
        <ele>2529</ele>
        <time>2022-01-22T09:41:07Z</time>
      </trkpt>
      <trkpt lat="45.04836" lon="6.49326">
        <ele>2531</ele>
        <time>2022-01-22T09:41:18Z</time>
      </trkpt>
      <trkpt lat="45.04837" lon="6.49324">
        <ele>2532</ele>
        <time>2022-01-22T09:41:21Z</time>
      </trkpt>
      <trkpt lat="45.04838" lon="6.49322">
        <ele>2533</ele>
        <time>2022-01-22T09:41:24Z</time>
      </trkpt>
      <trkpt lat="45.04838" lon="6.49319">
        <ele>2534</ele>
        <time>2022-01-22T09:41:27Z</time>
      </trkpt>
      <trkpt lat="45.04839" lon="6.49317">
        <ele>2535</ele>
        <time>2022-01-22T09:41:31Z</time>
      </trkpt>
      <trkpt lat="45.04839" lon="6.49314">
        <ele>2535</ele>
        <time>2022-01-22T09:41:34Z</time>
      </trkpt>
      <trkpt lat="45.0484" lon="6.4931">
        <ele>2536</ele>
        <time>2022-01-22T09:41:39Z</time>
      </trkpt>
      <trkpt lat="45.04842" lon="6.49307">
        <ele>2537</ele>
        <time>2022-01-22T09:41:42Z</time>
      </trkpt>
      <trkpt lat="45.04843" lon="6.49306">
        <ele>2537</ele>
        <time>2022-01-22T09:41:44Z</time>
      </trkpt>
      <trkpt lat="45.04846" lon="6.49301">
        <ele>2540</ele>
        <time>2022-01-22T09:41:50Z</time>
      </trkpt>
      <trkpt lat="45.04847" lon="6.49297">
        <ele>2540</ele>
        <time>2022-01-22T09:41:53Z</time>
      </trkpt>
      <trkpt lat="45.04848" lon="6.49296">
        <ele>2542</ele>
        <time>2022-01-22T09:41:55Z</time>
      </trkpt>
      <trkpt lat="45.0485" lon="6.49295">
        <ele>2542</ele>
        <time>2022-01-22T09:41:58Z</time>
      </trkpt>
      <trkpt lat="45.04852" lon="6.49295">
        <ele>2543</ele>
        <time>2022-01-22T09:42:01Z</time>
      </trkpt>
      <trkpt lat="45.04857" lon="6.49293">
        <ele>2544</ele>
        <time>2022-01-22T09:42:06Z</time>
      </trkpt>
      <trkpt lat="45.04859" lon="6.49293">
        <ele>2544</ele>
        <time>2022-01-22T09:42:08Z</time>
      </trkpt>
      <trkpt lat="45.04861" lon="6.49292">
        <ele>2544</ele>
        <time>2022-01-22T09:42:09Z</time>
      </trkpt>
      <trkpt lat="45.04868" lon="6.49294">
        <ele>2544</ele>
        <time>2022-01-22T09:42:15Z</time>
      </trkpt>
      <trkpt lat="45.04885" lon="6.49292">
        <ele>2542</ele>
        <time>2022-01-22T09:42:35Z</time>
      </trkpt>
      <trkpt lat="45.04892" lon="6.49292">
        <ele>2542</ele>
        <time>2022-01-22T09:42:43Z</time>
      </trkpt>
      <trkpt lat="45.04894" lon="6.49293">
        <ele>2542</ele>
        <time>2022-01-22T09:42:45Z</time>
      </trkpt>
      <trkpt lat="45.04896" lon="6.49293">
        <ele>2542</ele>
        <time>2022-01-22T09:42:47Z</time>
      </trkpt>
      <trkpt lat="45.04904" lon="6.49294">
        <ele>2544</ele>
        <time>2022-01-22T09:42:56Z</time>
      </trkpt>
      <trkpt lat="45.04916" lon="6.49293">
        <ele>2545</ele>
        <time>2022-01-22T09:43:10Z</time>
      </trkpt>
      <trkpt lat="45.04918" lon="6.49292">
        <ele>2545</ele>
        <time>2022-01-22T09:43:12Z</time>
      </trkpt>
      <trkpt lat="45.04922" lon="6.4929">
        <ele>2546</ele>
        <time>2022-01-22T09:43:16Z</time>
      </trkpt>
      <trkpt lat="45.04927" lon="6.49287">
        <ele>2546</ele>
        <time>2022-01-22T09:43:20Z</time>
      </trkpt>
      <trkpt lat="45.04928" lon="6.49285">
        <ele>2547</ele>
        <time>2022-01-22T09:43:22Z</time>
      </trkpt>
      <trkpt lat="45.04931" lon="6.49281">
        <ele>2547</ele>
        <time>2022-01-22T09:43:27Z</time>
      </trkpt>
      <trkpt lat="45.04933" lon="6.49279">
        <ele>2547</ele>
        <time>2022-01-22T09:43:29Z</time>
      </trkpt>
      <trkpt lat="45.04935" lon="6.49277">
        <ele>2547</ele>
        <time>2022-01-22T09:43:31Z</time>
      </trkpt>
      <trkpt lat="45.04936" lon="6.49275">
        <ele>2547</ele>
        <time>2022-01-22T09:43:34Z</time>
      </trkpt>
      <trkpt lat="45.04937" lon="6.4927">
        <ele>2545</ele>
        <time>2022-01-22T09:43:39Z</time>
      </trkpt>
      <trkpt lat="45.04939" lon="6.49268">
        <ele>2544</ele>
        <time>2022-01-22T09:43:42Z</time>
      </trkpt>
      <trkpt lat="45.04941" lon="6.49267">
        <ele>2544</ele>
        <time>2022-01-22T09:43:45Z</time>
      </trkpt>
      <trkpt lat="45.04943" lon="6.49265">
        <ele>2544</ele>
        <time>2022-01-22T09:43:48Z</time>
      </trkpt>
      <trkpt lat="45.04943" lon="6.49263">
        <ele>2544</ele>
        <time>2022-01-22T09:43:51Z</time>
      </trkpt>
      <trkpt lat="45.04942" lon="6.4926">
        <ele>2544</ele>
        <time>2022-01-22T09:43:55Z</time>
      </trkpt>
      <trkpt lat="45.04942" lon="6.49258">
        <ele>2545</ele>
        <time>2022-01-22T09:43:58Z</time>
      </trkpt>
      <trkpt lat="45.04942" lon="6.49256">
        <ele>2545</ele>
        <time>2022-01-22T09:44:01Z</time>
      </trkpt>
      <trkpt lat="45.04943" lon="6.49253">
        <ele>2546</ele>
        <time>2022-01-22T09:44:04Z</time>
      </trkpt>
      <trkpt lat="45.04943" lon="6.49251">
        <ele>2546</ele>
        <time>2022-01-22T09:44:06Z</time>
      </trkpt>
      <trkpt lat="45.04942" lon="6.49248">
        <ele>2546</ele>
        <time>2022-01-22T09:44:09Z</time>
      </trkpt>
      <trkpt lat="45.04941" lon="6.49243">
        <ele>2548</ele>
        <time>2022-01-22T09:44:14Z</time>
      </trkpt>
      <trkpt lat="45.0494" lon="6.4924">
        <ele>2549</ele>
        <time>2022-01-22T09:44:17Z</time>
      </trkpt>
      <trkpt lat="45.0494" lon="6.49234">
        <ele>2550</ele>
        <time>2022-01-22T09:44:23Z</time>
      </trkpt>
      <trkpt lat="45.04941" lon="6.49232">
        <ele>2551</ele>
        <time>2022-01-22T09:44:25Z</time>
      </trkpt>
      <trkpt lat="45.0494" lon="6.49227">
        <ele>2552</ele>
        <time>2022-01-22T09:44:30Z</time>
      </trkpt>
      <trkpt lat="45.0494" lon="6.49221">
        <ele>2552</ele>
        <time>2022-01-22T09:44:35Z</time>
      </trkpt>
      <trkpt lat="45.0494" lon="6.49218">
        <ele>2553</ele>
        <time>2022-01-22T09:44:38Z</time>
      </trkpt>
      <trkpt lat="45.04941" lon="6.49218">
        <ele>2554</ele>
        <time>2022-01-22T09:44:52Z</time>
      </trkpt>
      <trkpt lat="45.04943" lon="6.49222">
        <ele>2555</ele>
        <time>2022-01-22T09:44:59Z</time>
      </trkpt>
      <trkpt lat="45.04948" lon="6.49225">
        <ele>2556</ele>
        <time>2022-01-22T09:45:06Z</time>
      </trkpt>
      <trkpt lat="45.04949" lon="6.49228">
        <ele>2557</ele>
        <time>2022-01-22T09:45:09Z</time>
      </trkpt>
      <trkpt lat="45.04951" lon="6.49229">
        <ele>2557</ele>
        <time>2022-01-22T09:45:12Z</time>
      </trkpt>
      <trkpt lat="45.04952" lon="6.4923">
        <ele>2557</ele>
        <time>2022-01-22T09:45:17Z</time>
      </trkpt>
      <trkpt lat="45.04954" lon="6.49232">
        <ele>2558</ele>
        <time>2022-01-22T09:45:29Z</time>
      </trkpt>
      <trkpt lat="45.04956" lon="6.49231">
        <ele>2558</ele>
        <time>2022-01-22T09:45:31Z</time>
      </trkpt>
      <trkpt lat="45.04958" lon="6.4923">
        <ele>2559</ele>
        <time>2022-01-22T09:45:33Z</time>
      </trkpt>
      <trkpt lat="45.04961" lon="6.4922">
        <ele>2560</ele>
        <time>2022-01-22T09:45:42Z</time>
      </trkpt>
      <trkpt lat="45.04964" lon="6.4922">
        <ele>2560</ele>
        <time>2022-01-22T09:45:48Z</time>
      </trkpt>
      <trkpt lat="45.04966" lon="6.49222">
        <ele>2561</ele>
        <time>2022-01-22T09:45:50Z</time>
      </trkpt>
      <trkpt lat="45.04968" lon="6.49223">
        <ele>2561</ele>
        <time>2022-01-22T09:45:54Z</time>
      </trkpt>
      <trkpt lat="45.04969" lon="6.49225">
        <ele>2561</ele>
        <time>2022-01-22T09:45:57Z</time>
      </trkpt>
      <trkpt lat="45.04971" lon="6.49227">
        <ele>2562</ele>
        <time>2022-01-22T09:46:00Z</time>
      </trkpt>
      <trkpt lat="45.04972" lon="6.49231">
        <ele>2563</ele>
        <time>2022-01-22T09:46:16Z</time>
      </trkpt>
      <trkpt lat="45.04972" lon="6.49234">
        <ele>2563</ele>
        <time>2022-01-22T09:46:19Z</time>
      </trkpt>
      <trkpt lat="45.04976" lon="6.49236">
        <ele>2564</ele>
        <time>2022-01-22T09:46:24Z</time>
      </trkpt>
      <trkpt lat="45.04978" lon="6.49236">
        <ele>2564</ele>
        <time>2022-01-22T09:46:27Z</time>
      </trkpt>
      <trkpt lat="45.04979" lon="6.49238">
        <ele>2565</ele>
        <time>2022-01-22T09:46:31Z</time>
      </trkpt>
      <trkpt lat="45.04982" lon="6.49243">
        <ele>2565</ele>
        <time>2022-01-22T09:46:37Z</time>
      </trkpt>
      <trkpt lat="45.04984" lon="6.49245">
        <ele>2566</ele>
        <time>2022-01-22T09:46:41Z</time>
      </trkpt>
      <trkpt lat="45.04985" lon="6.49247">
        <ele>2566</ele>
        <time>2022-01-22T09:46:45Z</time>
      </trkpt>
      <trkpt lat="45.04984" lon="6.4925">
        <ele>2567</ele>
        <time>2022-01-22T09:46:50Z</time>
      </trkpt>
      <trkpt lat="45.04985" lon="6.49253">
        <ele>2568</ele>
        <time>2022-01-22T09:46:53Z</time>
      </trkpt>
      <trkpt lat="45.04987" lon="6.49255">
        <ele>2569</ele>
        <time>2022-01-22T09:46:59Z</time>
      </trkpt>
      <trkpt lat="45.04988" lon="6.49258">
        <ele>2570</ele>
        <time>2022-01-22T09:47:03Z</time>
      </trkpt>
      <trkpt lat="45.0499" lon="6.49259">
        <ele>2571</ele>
        <time>2022-01-22T09:47:07Z</time>
      </trkpt>
      <trkpt lat="45.04992" lon="6.4926">
        <ele>2571</ele>
        <time>2022-01-22T09:47:10Z</time>
      </trkpt>
      <trkpt lat="45.04995" lon="6.49264">
        <ele>2573</ele>
        <time>2022-01-22T09:47:16Z</time>
      </trkpt>
      <trkpt lat="45.04996" lon="6.49267">
        <ele>2574</ele>
        <time>2022-01-22T09:47:20Z</time>
      </trkpt>
      <trkpt lat="45.04997" lon="6.49269">
        <ele>2575</ele>
        <time>2022-01-22T09:47:23Z</time>
      </trkpt>
      <trkpt lat="45.04999" lon="6.49271">
        <ele>2576</ele>
        <time>2022-01-22T09:47:26Z</time>
      </trkpt>
      <trkpt lat="45.05" lon="6.49269">
        <ele>2576</ele>
        <time>2022-01-22T09:47:35Z</time>
      </trkpt>
      <trkpt lat="45.05002" lon="6.49267">
        <ele>2577</ele>
        <time>2022-01-22T09:47:38Z</time>
      </trkpt>
      <trkpt lat="45.05002" lon="6.49265">
        <ele>2578</ele>
        <time>2022-01-22T09:47:47Z</time>
      </trkpt>
      <trkpt lat="45.05001" lon="6.49262">
        <ele>2579</ele>
        <time>2022-01-22T09:47:53Z</time>
      </trkpt>
      <trkpt lat="45.05001" lon="6.49259">
        <ele>2580</ele>
        <time>2022-01-22T09:47:56Z</time>
      </trkpt>
      <trkpt lat="45.05001" lon="6.49257">
        <ele>2581</ele>
        <time>2022-01-22T09:47:59Z</time>
      </trkpt>
      <trkpt lat="45.05002" lon="6.49254">
        <ele>2581</ele>
        <time>2022-01-22T09:48:02Z</time>
      </trkpt>
      <trkpt lat="45.05002" lon="6.49251">
        <ele>2582</ele>
        <time>2022-01-22T09:48:09Z</time>
      </trkpt>
      <trkpt lat="45.05005" lon="6.49248">
        <ele>2582</ele>
        <time>2022-01-22T09:48:13Z</time>
      </trkpt>
      <trkpt lat="45.05006" lon="6.49245">
        <ele>2582</ele>
        <time>2022-01-22T09:48:18Z</time>
      </trkpt>
      <trkpt lat="45.05008" lon="6.49237">
        <ele>2583</ele>
        <time>2022-01-22T09:48:30Z</time>
      </trkpt>
      <trkpt lat="45.05009" lon="6.49235">
        <ele>2583</ele>
        <time>2022-01-22T09:48:34Z</time>
      </trkpt>
      <trkpt lat="45.05009" lon="6.49233">
        <ele>2584</ele>
        <time>2022-01-22T09:48:39Z</time>
      </trkpt>
      <trkpt lat="45.05009" lon="6.4923">
        <ele>2583</ele>
        <time>2022-01-22T09:48:41Z</time>
      </trkpt>
      <trkpt lat="45.0501" lon="6.49227">
        <ele>2583</ele>
        <time>2022-01-22T09:48:44Z</time>
      </trkpt>
      <trkpt lat="45.05009" lon="6.49225">
        <ele>2583</ele>
        <time>2022-01-22T09:48:47Z</time>
      </trkpt>
      <trkpt lat="45.05009" lon="6.49222">
        <ele>2582</ele>
        <time>2022-01-22T09:48:52Z</time>
      </trkpt>
      <trkpt lat="45.05011" lon="6.4922">
        <ele>2582</ele>
        <time>2022-01-22T09:48:58Z</time>
      </trkpt>
      <trkpt lat="45.05014" lon="6.49216">
        <ele>2583</ele>
        <time>2022-01-22T09:49:04Z</time>
      </trkpt>
      <trkpt lat="45.05014" lon="6.49212">
        <ele>2583</ele>
        <time>2022-01-22T09:49:07Z</time>
      </trkpt>
      <trkpt lat="45.05014" lon="6.4921">
        <ele>2584</ele>
        <time>2022-01-22T09:49:10Z</time>
      </trkpt>
      <trkpt lat="45.05015" lon="6.49207">
        <ele>2585</ele>
        <time>2022-01-22T09:49:13Z</time>
      </trkpt>
      <trkpt lat="45.05016" lon="6.49211">
        <ele>2587</ele>
        <time>2022-01-22T09:49:25Z</time>
      </trkpt>
      <trkpt lat="45.05019" lon="6.49214">
        <ele>2588</ele>
        <time>2022-01-22T09:49:31Z</time>
      </trkpt>
      <trkpt lat="45.05025" lon="6.49218">
        <ele>2591</ele>
        <time>2022-01-22T09:49:42Z</time>
      </trkpt>
      <trkpt lat="45.05027" lon="6.4922">
        <ele>2592</ele>
        <time>2022-01-22T09:49:47Z</time>
      </trkpt>
      <trkpt lat="45.05031" lon="6.49226">
        <ele>2595</ele>
        <time>2022-01-22T09:49:58Z</time>
      </trkpt>
      <trkpt lat="45.05031" lon="6.49229">
        <ele>2596</ele>
        <time>2022-01-22T09:50:03Z</time>
      </trkpt>
      <trkpt lat="45.05033" lon="6.49231">
        <ele>2597</ele>
        <time>2022-01-22T09:50:08Z</time>
      </trkpt>
      <trkpt lat="45.05035" lon="6.49233">
        <ele>2598</ele>
        <time>2022-01-22T09:50:11Z</time>
      </trkpt>
      <trkpt lat="45.05035" lon="6.49235">
        <ele>2599</ele>
        <time>2022-01-22T09:50:15Z</time>
      </trkpt>
      <trkpt lat="45.05035" lon="6.49238">
        <ele>2599</ele>
        <time>2022-01-22T09:50:16Z</time>
      </trkpt>
      <trkpt lat="45.05036" lon="6.49241">
        <ele>2601</ele>
        <time>2022-01-22T09:50:26Z</time>
      </trkpt>
      <trkpt lat="45.05035" lon="6.49243">
        <ele>2602</ele>
        <time>2022-01-22T09:50:29Z</time>
      </trkpt>
      <trkpt lat="45.05033" lon="6.49242">
        <ele>2603</ele>
        <time>2022-01-22T09:50:44Z</time>
      </trkpt>
      <trkpt lat="45.05035" lon="6.4924">
        <ele>2603</ele>
        <time>2022-01-22T09:50:48Z</time>
      </trkpt>
      <trkpt lat="45.05036" lon="6.49239">
        <ele>2603</ele>
        <time>2022-01-22T09:50:51Z</time>
      </trkpt>
      <trkpt lat="45.05038" lon="6.49237">
        <ele>2603</ele>
        <time>2022-01-22T09:50:54Z</time>
      </trkpt>
      <trkpt lat="45.05038" lon="6.49234">
        <ele>2603</ele>
        <time>2022-01-22T09:50:59Z</time>
      </trkpt>
      <trkpt lat="45.0504" lon="6.49232">
        <ele>2603</ele>
        <time>2022-01-22T09:51:02Z</time>
      </trkpt>
      <trkpt lat="45.05041" lon="6.4923">
        <ele>2603</ele>
        <time>2022-01-22T09:51:05Z</time>
      </trkpt>
      <trkpt lat="45.05044" lon="6.49227">
        <ele>2603</ele>
        <time>2022-01-22T09:51:10Z</time>
      </trkpt>
      <trkpt lat="45.05044" lon="6.49224">
        <ele>2604</ele>
        <time>2022-01-22T09:51:14Z</time>
      </trkpt>
      <trkpt lat="45.05046" lon="6.4922">
        <ele>2604</ele>
        <time>2022-01-22T09:51:19Z</time>
      </trkpt>
      <trkpt lat="45.05047" lon="6.49218">
        <ele>2604</ele>
        <time>2022-01-22T09:51:21Z</time>
      </trkpt>
      <trkpt lat="45.05049" lon="6.49216">
        <ele>2604</ele>
        <time>2022-01-22T09:51:24Z</time>
      </trkpt>
      <trkpt lat="45.05053" lon="6.49211">
        <ele>2605</ele>
        <time>2022-01-22T09:51:28Z</time>
      </trkpt>
      <trkpt lat="45.05053" lon="6.49209">
        <ele>2605</ele>
        <time>2022-01-22T09:51:30Z</time>
      </trkpt>
      <trkpt lat="45.05053" lon="6.49207">
        <ele>2606</ele>
        <time>2022-01-22T09:51:35Z</time>
      </trkpt>
      <trkpt lat="45.05058" lon="6.49205">
        <ele>2608</ele>
        <time>2022-01-22T09:51:47Z</time>
      </trkpt>
      <trkpt lat="45.0506" lon="6.49202">
        <ele>2610</ele>
        <time>2022-01-22T09:51:51Z</time>
      </trkpt>
      <trkpt lat="45.05063" lon="6.49198">
        <ele>2613</ele>
        <time>2022-01-22T09:51:58Z</time>
      </trkpt>
      <trkpt lat="45.05064" lon="6.49195">
        <ele>2614</ele>
        <time>2022-01-22T09:52:02Z</time>
      </trkpt>
      <trkpt lat="45.05065" lon="6.49193">
        <ele>2614</ele>
        <time>2022-01-22T09:52:05Z</time>
      </trkpt>
      <trkpt lat="45.05071" lon="6.49183">
        <ele>2617</ele>
        <time>2022-01-22T09:52:14Z</time>
      </trkpt>
      <trkpt lat="45.05074" lon="6.49179">
        <ele>2619</ele>
        <time>2022-01-22T09:52:21Z</time>
      </trkpt>
      <trkpt lat="45.05076" lon="6.49174">
        <ele>2621</ele>
        <time>2022-01-22T09:52:27Z</time>
      </trkpt>
      <trkpt lat="45.05081" lon="6.49169">
        <ele>2623</ele>
        <time>2022-01-22T09:52:41Z</time>
      </trkpt>
      <trkpt lat="45.05084" lon="6.49168">
        <ele>2623</ele>
        <time>2022-01-22T09:52:46Z</time>
      </trkpt>
      <trkpt lat="45.05086" lon="6.4917">
        <ele>2622</ele>
        <time>2022-01-22T09:52:52Z</time>
      </trkpt>
      <trkpt lat="45.05087" lon="6.49175">
        <ele>2622</ele>
        <time>2022-01-22T09:53:02Z</time>
      </trkpt>
      <trkpt lat="45.05088" lon="6.49178">
        <ele>2622</ele>
        <time>2022-01-22T09:53:07Z</time>
      </trkpt>
      <trkpt lat="45.05088" lon="6.49183">
        <ele>2623</ele>
        <time>2022-01-22T09:53:14Z</time>
      </trkpt>
      <trkpt lat="45.05089" lon="6.49189">
        <ele>2624</ele>
        <time>2022-01-22T09:53:21Z</time>
      </trkpt>
      <trkpt lat="45.05088" lon="6.4919">
        <ele>2624</ele>
        <time>2022-01-22T09:53:27Z</time>
      </trkpt>
      <trkpt lat="45.05087" lon="6.49192">
        <ele>2624</ele>
        <time>2022-01-22T09:53:29Z</time>
      </trkpt>
      <trkpt lat="45.05087" lon="6.49195">
        <ele>2624</ele>
        <time>2022-01-22T09:53:32Z</time>
      </trkpt>
      <trkpt lat="45.05088" lon="6.49197">
        <ele>2625</ele>
        <time>2022-01-22T09:53:35Z</time>
      </trkpt>
      <trkpt lat="45.05089" lon="6.49199">
        <ele>2625</ele>
        <time>2022-01-22T09:53:39Z</time>
      </trkpt>
      <trkpt lat="45.05089" lon="6.49202">
        <ele>2625</ele>
        <time>2022-01-22T09:53:43Z</time>
      </trkpt>
      <trkpt lat="45.05089" lon="6.49205">
        <ele>2625</ele>
        <time>2022-01-22T09:53:47Z</time>
      </trkpt>
      <trkpt lat="45.05088" lon="6.49211">
        <ele>2626</ele>
        <time>2022-01-22T09:53:56Z</time>
      </trkpt>
      <trkpt lat="45.05087" lon="6.49214">
        <ele>2627</ele>
        <time>2022-01-22T09:54:01Z</time>
      </trkpt>
      <trkpt lat="45.05087" lon="6.4922">
        <ele>2630</ele>
        <time>2022-01-22T09:54:13Z</time>
      </trkpt>
      <trkpt lat="45.05086" lon="6.49222">
        <ele>2631</ele>
        <time>2022-01-22T09:54:18Z</time>
      </trkpt>
      <trkpt lat="45.05086" lon="6.49225">
        <ele>2632</ele>
        <time>2022-01-22T09:54:23Z</time>
      </trkpt>
      <trkpt lat="45.05085" lon="6.49232">
        <ele>2632</ele>
        <time>2022-01-22T09:54:29Z</time>
      </trkpt>
      <trkpt lat="45.05086" lon="6.49235">
        <ele>2633</ele>
        <time>2022-01-22T09:54:34Z</time>
      </trkpt>
      <trkpt lat="45.05088" lon="6.49237">
        <ele>2634</ele>
        <time>2022-01-22T09:54:38Z</time>
      </trkpt>
      <trkpt lat="45.05089" lon="6.49239">
        <ele>2635</ele>
        <time>2022-01-22T09:54:42Z</time>
      </trkpt>
      <trkpt lat="45.05089" lon="6.49241">
        <ele>2636</ele>
        <time>2022-01-22T09:54:46Z</time>
      </trkpt>
      <trkpt lat="45.0509" lon="6.49244">
        <ele>2636</ele>
        <time>2022-01-22T09:54:50Z</time>
      </trkpt>
      <trkpt lat="45.05091" lon="6.4925">
        <ele>2637</ele>
        <time>2022-01-22T09:54:57Z</time>
      </trkpt>
      <trkpt lat="45.05092" lon="6.49253">
        <ele>2638</ele>
        <time>2022-01-22T09:55:00Z</time>
      </trkpt>
      <trkpt lat="45.05092" lon="6.49251">
        <ele>2639</ele>
        <time>2022-01-22T09:55:14Z</time>
      </trkpt>
      <trkpt lat="45.05094" lon="6.49251">
        <ele>2639</ele>
        <time>2022-01-22T09:55:33Z</time>
      </trkpt>
      <trkpt lat="45.05099" lon="6.49256">
        <ele>2637</ele>
        <time>2022-01-22T09:55:45Z</time>
      </trkpt>
      <trkpt lat="45.05104" lon="6.49257">
        <ele>2636</ele>
        <time>2022-01-22T09:55:50Z</time>
      </trkpt>
      <trkpt lat="45.05106" lon="6.49257">
        <ele>2635</ele>
        <time>2022-01-22T09:55:53Z</time>
      </trkpt>
      <trkpt lat="45.05109" lon="6.49255">
        <ele>2634</ele>
        <time>2022-01-22T09:55:59Z</time>
      </trkpt>
      <trkpt lat="45.05111" lon="6.49254">
        <ele>2634</ele>
        <time>2022-01-22T09:56:01Z</time>
      </trkpt>
      <trkpt lat="45.05113" lon="6.49254">
        <ele>2634</ele>
        <time>2022-01-22T09:56:04Z</time>
      </trkpt>
      <trkpt lat="45.05112" lon="6.49256">
        <ele>2635</ele>
        <time>2022-01-22T09:56:09Z</time>
      </trkpt>
      <trkpt lat="45.05112" lon="6.49257">
        <ele>2641</ele>
        <time>2022-01-22T09:56:15Z</time>
      </trkpt>
      <trkpt lat="45.05114" lon="6.49259">
        <ele>2642</ele>
        <time>2022-01-22T09:56:32Z</time>
      </trkpt>
      <trkpt lat="45.05117" lon="6.49259">
        <ele>2642</ele>
        <time>2022-01-22T09:56:36Z</time>
      </trkpt>
      <trkpt lat="45.05119" lon="6.49258">
        <ele>2643</ele>
        <time>2022-01-22T09:56:40Z</time>
      </trkpt>
      <trkpt lat="45.05121" lon="6.49257">
        <ele>2644</ele>
        <time>2022-01-22T09:56:43Z</time>
      </trkpt>
      <trkpt lat="45.05123" lon="6.49255">
        <ele>2645</ele>
        <time>2022-01-22T09:56:46Z</time>
      </trkpt>
      <trkpt lat="45.05124" lon="6.49253">
        <ele>2647</ele>
        <time>2022-01-22T09:56:49Z</time>
      </trkpt>
      <trkpt lat="45.05133" lon="6.49245">
        <ele>2649</ele>
        <time>2022-01-22T09:57:21Z</time>
      </trkpt>
      <trkpt lat="45.05135" lon="6.49242">
        <ele>2649</ele>
        <time>2022-01-22T09:57:24Z</time>
      </trkpt>
      <trkpt lat="45.05139" lon="6.49239">
        <ele>2650</ele>
        <time>2022-01-22T09:57:29Z</time>
      </trkpt>
      <trkpt lat="45.05141" lon="6.49238">
        <ele>2650</ele>
        <time>2022-01-22T09:57:32Z</time>
      </trkpt>
      <trkpt lat="45.05142" lon="6.49232">
        <ele>2652</ele>
        <time>2022-01-22T09:57:39Z</time>
      </trkpt>
      <trkpt lat="45.05142" lon="6.49229">
        <ele>2653</ele>
        <time>2022-01-22T09:57:42Z</time>
      </trkpt>
      <trkpt lat="45.05141" lon="6.49224">
        <ele>2654</ele>
        <time>2022-01-22T09:57:47Z</time>
      </trkpt>
      <trkpt lat="45.05141" lon="6.49221">
        <ele>2654</ele>
        <time>2022-01-22T09:57:50Z</time>
      </trkpt>
      <trkpt lat="45.05141" lon="6.49219">
        <ele>2655</ele>
        <time>2022-01-22T09:57:53Z</time>
      </trkpt>
      <trkpt lat="45.05142" lon="6.49216">
        <ele>2655</ele>
        <time>2022-01-22T09:57:56Z</time>
      </trkpt>
      <trkpt lat="45.05142" lon="6.49214">
        <ele>2655</ele>
        <time>2022-01-22T09:58:00Z</time>
      </trkpt>
      <trkpt lat="45.05144" lon="6.49208">
        <ele>2655</ele>
        <time>2022-01-22T09:58:07Z</time>
      </trkpt>
      <trkpt lat="45.05144" lon="6.49205">
        <ele>2656</ele>
        <time>2022-01-22T09:58:10Z</time>
      </trkpt>
      <trkpt lat="45.05145" lon="6.49202">
        <ele>2657</ele>
        <time>2022-01-22T09:58:13Z</time>
      </trkpt>
      <trkpt lat="45.05145" lon="6.492">
        <ele>2657</ele>
        <time>2022-01-22T09:58:16Z</time>
      </trkpt>
      <trkpt lat="45.05147" lon="6.49195">
        <ele>2658</ele>
        <time>2022-01-22T09:58:21Z</time>
      </trkpt>
      <trkpt lat="45.05148" lon="6.49193">
        <ele>2658</ele>
        <time>2022-01-22T09:58:24Z</time>
      </trkpt>
      <trkpt lat="45.05153" lon="6.49186">
        <ele>2658</ele>
        <time>2022-01-22T09:58:38Z</time>
      </trkpt>
      <trkpt lat="45.05154" lon="6.4918">
        <ele>2659</ele>
        <time>2022-01-22T09:58:44Z</time>
      </trkpt>
      <trkpt lat="45.05154" lon="6.49177">
        <ele>2659</ele>
        <time>2022-01-22T09:58:47Z</time>
      </trkpt>
      <trkpt lat="45.05156" lon="6.49175">
        <ele>2659</ele>
        <time>2022-01-22T09:58:51Z</time>
      </trkpt>
      <trkpt lat="45.05161" lon="6.49171">
        <ele>2659</ele>
        <time>2022-01-22T09:59:02Z</time>
      </trkpt>
      <trkpt lat="45.05162" lon="6.49168">
        <ele>2659</ele>
        <time>2022-01-22T09:59:05Z</time>
      </trkpt>
      <trkpt lat="45.05163" lon="6.49166">
        <ele>2660</ele>
        <time>2022-01-22T09:59:08Z</time>
      </trkpt>
      <trkpt lat="45.05163" lon="6.49163">
        <ele>2660</ele>
        <time>2022-01-22T09:59:12Z</time>
      </trkpt>
      <trkpt lat="45.05165" lon="6.49158">
        <ele>2660</ele>
        <time>2022-01-22T09:59:18Z</time>
      </trkpt>
      <trkpt lat="45.05167" lon="6.49156">
        <ele>2661</ele>
        <time>2022-01-22T09:59:21Z</time>
      </trkpt>
      <trkpt lat="45.05168" lon="6.49154">
        <ele>2661</ele>
        <time>2022-01-22T09:59:23Z</time>
      </trkpt>
      <trkpt lat="45.05173" lon="6.49151">
        <ele>2663</ele>
        <time>2022-01-22T09:59:25Z</time>
      </trkpt>
      <trkpt lat="45.05174" lon="6.4915">
        <ele>2664</ele>
        <time>2022-01-22T09:59:28Z</time>
      </trkpt>
      <trkpt lat="45.05174" lon="6.49147">
        <ele>2665</ele>
        <time>2022-01-22T09:59:31Z</time>
      </trkpt>
      <trkpt lat="45.05174" lon="6.49144">
        <ele>2665</ele>
        <time>2022-01-22T09:59:35Z</time>
      </trkpt>
      <trkpt lat="45.05175" lon="6.49141">
        <ele>2665</ele>
        <time>2022-01-22T09:59:39Z</time>
      </trkpt>
      <trkpt lat="45.05182" lon="6.49135">
        <ele>2664</ele>
        <time>2022-01-22T09:59:48Z</time>
      </trkpt>
      <trkpt lat="45.05183" lon="6.49133">
        <ele>2664</ele>
        <time>2022-01-22T09:59:50Z</time>
      </trkpt>
      <trkpt lat="45.05184" lon="6.49131">
        <ele>2664</ele>
        <time>2022-01-22T09:59:54Z</time>
      </trkpt>
      <trkpt lat="45.05185" lon="6.49129">
        <ele>2663</ele>
        <time>2022-01-22T09:59:58Z</time>
      </trkpt>
      <trkpt lat="45.05187" lon="6.49127">
        <ele>2663</ele>
        <time>2022-01-22T10:00:01Z</time>
      </trkpt>
      <trkpt lat="45.05188" lon="6.49125">
        <ele>2663</ele>
        <time>2022-01-22T10:00:04Z</time>
      </trkpt>
      <trkpt lat="45.05189" lon="6.49122">
        <ele>2663</ele>
        <time>2022-01-22T10:00:07Z</time>
      </trkpt>
      <trkpt lat="45.05191" lon="6.49119">
        <ele>2662</ele>
        <time>2022-01-22T10:00:11Z</time>
      </trkpt>
      <trkpt lat="45.05193" lon="6.49118">
        <ele>2662</ele>
        <time>2022-01-22T10:00:13Z</time>
      </trkpt>
      <trkpt lat="45.05195" lon="6.49117">
        <ele>2662</ele>
        <time>2022-01-22T10:00:16Z</time>
      </trkpt>
      <trkpt lat="45.05197" lon="6.49115">
        <ele>2662</ele>
        <time>2022-01-22T10:00:18Z</time>
      </trkpt>
      <trkpt lat="45.05199" lon="6.49114">
        <ele>2662</ele>
        <time>2022-01-22T10:00:21Z</time>
      </trkpt>
      <trkpt lat="45.05201" lon="6.49111">
        <ele>2663</ele>
        <time>2022-01-22T10:00:27Z</time>
      </trkpt>
      <trkpt lat="45.05203" lon="6.4911">
        <ele>2663</ele>
        <time>2022-01-22T10:00:32Z</time>
      </trkpt>
      <trkpt lat="45.05205" lon="6.49109">
        <ele>2663</ele>
        <time>2022-01-22T10:00:34Z</time>
      </trkpt>
      <trkpt lat="45.05206" lon="6.49106">
        <ele>2664</ele>
        <time>2022-01-22T10:00:38Z</time>
      </trkpt>
      <trkpt lat="45.05213" lon="6.491">
        <ele>2666</ele>
        <time>2022-01-22T10:00:49Z</time>
      </trkpt>
      <trkpt lat="45.05215" lon="6.49099">
        <ele>2666</ele>
        <time>2022-01-22T10:00:51Z</time>
      </trkpt>
      <trkpt lat="45.05217" lon="6.49097">
        <ele>2667</ele>
        <time>2022-01-22T10:00:56Z</time>
      </trkpt>
      <trkpt lat="45.05221" lon="6.49097">
        <ele>2668</ele>
        <time>2022-01-22T10:01:02Z</time>
      </trkpt>
      <trkpt lat="45.05223" lon="6.49095">
        <ele>2668</ele>
        <time>2022-01-22T10:01:04Z</time>
      </trkpt>
      <trkpt lat="45.05225" lon="6.49094">
        <ele>2669</ele>
        <time>2022-01-22T10:01:06Z</time>
      </trkpt>
      <trkpt lat="45.05229" lon="6.49092">
        <ele>2669</ele>
        <time>2022-01-22T10:01:10Z</time>
      </trkpt>
      <trkpt lat="45.05232" lon="6.49092">
        <ele>2673</ele>
        <time>2022-01-22T10:01:12Z</time>
      </trkpt>
      <trkpt lat="45.05233" lon="6.49091">
        <ele>2675</ele>
        <time>2022-01-22T10:01:15Z</time>
      </trkpt>
      <trkpt lat="45.05235" lon="6.49089">
        <ele>2677</ele>
        <time>2022-01-22T10:01:20Z</time>
      </trkpt>
      <trkpt lat="45.05236" lon="6.49087">
        <ele>2677</ele>
        <time>2022-01-22T10:01:26Z</time>
      </trkpt>
      <trkpt lat="45.0524" lon="6.49085">
        <ele>2677</ele>
        <time>2022-01-22T10:01:32Z</time>
      </trkpt>
      <trkpt lat="45.05242" lon="6.49084">
        <ele>2677</ele>
        <time>2022-01-22T10:01:34Z</time>
      </trkpt>
      <trkpt lat="45.05244" lon="6.49084">
        <ele>2677</ele>
        <time>2022-01-22T10:01:36Z</time>
      </trkpt>
      <trkpt lat="45.05246" lon="6.49083">
        <ele>2677</ele>
        <time>2022-01-22T10:01:38Z</time>
      </trkpt>
      <trkpt lat="45.05248" lon="6.49082">
        <ele>2677</ele>
        <time>2022-01-22T10:01:42Z</time>
      </trkpt>
      <trkpt lat="45.0525" lon="6.49082">
        <ele>2677</ele>
        <time>2022-01-22T10:01:45Z</time>
      </trkpt>
      <trkpt lat="45.05251" lon="6.4908">
        <ele>2677</ele>
        <time>2022-01-22T10:01:49Z</time>
      </trkpt>
      <trkpt lat="45.05253" lon="6.49078">
        <ele>2677</ele>
        <time>2022-01-22T10:01:52Z</time>
      </trkpt>
      <trkpt lat="45.05255" lon="6.49076">
        <ele>2677</ele>
        <time>2022-01-22T10:01:54Z</time>
      </trkpt>
      <trkpt lat="45.05257" lon="6.49075">
        <ele>2677</ele>
        <time>2022-01-22T10:01:58Z</time>
      </trkpt>
      <trkpt lat="45.05259" lon="6.49074">
        <ele>2677</ele>
        <time>2022-01-22T10:02:01Z</time>
      </trkpt>
      <trkpt lat="45.05261" lon="6.49074">
        <ele>2677</ele>
        <time>2022-01-22T10:02:05Z</time>
      </trkpt>
      <trkpt lat="45.05263" lon="6.49073">
        <ele>2676</ele>
        <time>2022-01-22T10:02:08Z</time>
      </trkpt>
      <trkpt lat="45.05267" lon="6.49071">
        <ele>2677</ele>
        <time>2022-01-22T10:02:16Z</time>
      </trkpt>
      <trkpt lat="45.05269" lon="6.4907">
        <ele>2677</ele>
        <time>2022-01-22T10:02:19Z</time>
      </trkpt>
      <trkpt lat="45.0527" lon="6.49068">
        <ele>2677</ele>
        <time>2022-01-22T10:02:22Z</time>
      </trkpt>
      <trkpt lat="45.05275" lon="6.49066">
        <ele>2677</ele>
        <time>2022-01-22T10:02:27Z</time>
      </trkpt>
      <trkpt lat="45.05276" lon="6.49063">
        <ele>2677</ele>
        <time>2022-01-22T10:02:30Z</time>
      </trkpt>
      <trkpt lat="45.05278" lon="6.49062">
        <ele>2677</ele>
        <time>2022-01-22T10:02:33Z</time>
      </trkpt>
      <trkpt lat="45.0528" lon="6.49062">
        <ele>2677</ele>
        <time>2022-01-22T10:02:35Z</time>
      </trkpt>
      <trkpt lat="45.05287" lon="6.4906">
        <ele>2678</ele>
        <time>2022-01-22T10:02:44Z</time>
      </trkpt>
      <trkpt lat="45.0529" lon="6.49058">
        <ele>2678</ele>
        <time>2022-01-22T10:02:48Z</time>
      </trkpt>
      <trkpt lat="45.05294" lon="6.49057">
        <ele>2680</ele>
        <time>2022-01-22T10:03:49Z</time>
      </trkpt>
      <trkpt lat="45.05296" lon="6.49055">
        <ele>2681</ele>
        <time>2022-01-22T10:03:52Z</time>
      </trkpt>
      <trkpt lat="45.05298" lon="6.49054">
        <ele>2682</ele>
        <time>2022-01-22T10:03:58Z</time>
      </trkpt>
      <trkpt lat="45.053" lon="6.49053">
        <ele>2682</ele>
        <time>2022-01-22T10:04:03Z</time>
      </trkpt>
      <trkpt lat="45.05301" lon="6.49051">
        <ele>2682</ele>
        <time>2022-01-22T10:04:06Z</time>
      </trkpt>
      <trkpt lat="45.05304" lon="6.49046">
        <ele>2682</ele>
        <time>2022-01-22T10:04:13Z</time>
      </trkpt>
      <trkpt lat="45.05304" lon="6.49047">
        <ele>2683</ele>
        <time>2022-01-22T10:04:36Z</time>
      </trkpt>
      <trkpt lat="45.0531" lon="6.49048">
        <ele>2684</ele>
        <time>2022-01-22T10:04:39Z</time>
      </trkpt>
      <trkpt lat="45.05312" lon="6.49047">
        <ele>2684</ele>
        <time>2022-01-22T10:04:41Z</time>
      </trkpt>
      <trkpt lat="45.05314" lon="6.49045">
        <ele>2685</ele>
        <time>2022-01-22T10:04:44Z</time>
      </trkpt>
      <trkpt lat="45.05317" lon="6.49045">
        <ele>2685</ele>
        <time>2022-01-22T10:04:48Z</time>
      </trkpt>
      <trkpt lat="45.05323" lon="6.49043">
        <ele>2685</ele>
        <time>2022-01-22T10:05:04Z</time>
      </trkpt>
      <trkpt lat="45.05326" lon="6.49042">
        <ele>2685</ele>
        <time>2022-01-22T10:05:07Z</time>
      </trkpt>
      <trkpt lat="45.0533" lon="6.4904">
        <ele>2686</ele>
        <time>2022-01-22T10:05:25Z</time>
      </trkpt>
      <trkpt lat="45.05341" lon="6.49044">
        <ele>2688</ele>
        <time>2022-01-22T10:05:49Z</time>
      </trkpt>
      <trkpt lat="45.05344" lon="6.49043">
        <ele>2688</ele>
        <time>2022-01-22T10:05:53Z</time>
      </trkpt>
      <trkpt lat="45.0535" lon="6.49048">
        <ele>2690</ele>
        <time>2022-01-22T10:06:03Z</time>
      </trkpt>
      <trkpt lat="45.05351" lon="6.49051">
        <ele>2691</ele>
        <time>2022-01-22T10:06:06Z</time>
      </trkpt>
      <trkpt lat="45.05353" lon="6.49052">
        <ele>2692</ele>
        <time>2022-01-22T10:06:11Z</time>
      </trkpt>
      <trkpt lat="45.05357" lon="6.49054">
        <ele>2694</ele>
        <time>2022-01-22T10:06:19Z</time>
      </trkpt>
      <trkpt lat="45.05359" lon="6.49056">
        <ele>2695</ele>
        <time>2022-01-22T10:06:24Z</time>
      </trkpt>
      <trkpt lat="45.05359" lon="6.49059">
        <ele>2695</ele>
        <time>2022-01-22T10:06:27Z</time>
      </trkpt>
      <trkpt lat="45.0536" lon="6.49061">
        <ele>2697</ele>
        <time>2022-01-22T10:06:31Z</time>
      </trkpt>
      <trkpt lat="45.05363" lon="6.49062">
        <ele>2698</ele>
        <time>2022-01-22T10:06:40Z</time>
      </trkpt>
      <trkpt lat="45.05364" lon="6.49064">
        <ele>2699</ele>
        <time>2022-01-22T10:06:49Z</time>
      </trkpt>
      <trkpt lat="45.05365" lon="6.49059">
        <ele>2700</ele>
        <time>2022-01-22T10:06:53Z</time>
      </trkpt>
      <trkpt lat="45.05367" lon="6.49053">
        <ele>2700</ele>
        <time>2022-01-22T10:06:57Z</time>
      </trkpt>
      <trkpt lat="45.05369" lon="6.49051">
        <ele>2700</ele>
        <time>2022-01-22T10:06:59Z</time>
      </trkpt>
      <trkpt lat="45.05368" lon="6.49048">
        <ele>2700</ele>
        <time>2022-01-22T10:07:03Z</time>
      </trkpt>
      <trkpt lat="45.05366" lon="6.49046">
        <ele>2700</ele>
        <time>2022-01-22T10:07:08Z</time>
      </trkpt>
      <trkpt lat="45.05366" lon="6.49043">
        <ele>2700</ele>
        <time>2022-01-22T10:07:10Z</time>
      </trkpt>
      <trkpt lat="45.05365" lon="6.49041">
        <ele>2700</ele>
        <time>2022-01-22T10:07:12Z</time>
      </trkpt>
      <trkpt lat="45.05364" lon="6.49039">
        <ele>2700</ele>
        <time>2022-01-22T10:07:14Z</time>
      </trkpt>
      <trkpt lat="45.05363" lon="6.49036">
        <ele>2700</ele>
        <time>2022-01-22T10:07:18Z</time>
      </trkpt>
      <trkpt lat="45.05363" lon="6.49034">
        <ele>2700</ele>
        <time>2022-01-22T10:07:22Z</time>
      </trkpt>
      <trkpt lat="45.05362" lon="6.49031">
        <ele>2700</ele>
        <time>2022-01-22T10:07:26Z</time>
      </trkpt>
      <trkpt lat="45.05362" lon="6.49028">
        <ele>2700</ele>
        <time>2022-01-22T10:07:31Z</time>
      </trkpt>
      <trkpt lat="45.05359" lon="6.49017">
        <ele>2701</ele>
        <time>2022-01-22T10:07:44Z</time>
      </trkpt>
      <trkpt lat="45.05358" lon="6.49015">
        <ele>2702</ele>
        <time>2022-01-22T10:07:51Z</time>
      </trkpt>
      <trkpt lat="45.05359" lon="6.49011">
        <ele>2702</ele>
        <time>2022-01-22T10:07:56Z</time>
      </trkpt>
      <trkpt lat="45.05358" lon="6.49009">
        <ele>2703</ele>
        <time>2022-01-22T10:07:59Z</time>
      </trkpt>
      <trkpt lat="45.05358" lon="6.49006">
        <ele>2703</ele>
        <time>2022-01-22T10:08:02Z</time>
      </trkpt>
      <trkpt lat="45.05358" lon="6.49003">
        <ele>2704</ele>
        <time>2022-01-22T10:08:05Z</time>
      </trkpt>
      <trkpt lat="45.05358" lon="6.49">
        <ele>2704</ele>
        <time>2022-01-22T10:08:07Z</time>
      </trkpt>
      <trkpt lat="45.05357" lon="6.48998">
        <ele>2705</ele>
        <time>2022-01-22T10:08:13Z</time>
      </trkpt>
      <trkpt lat="45.05357" lon="6.48991">
        <ele>2706</ele>
        <time>2022-01-22T10:08:19Z</time>
      </trkpt>
      <trkpt lat="45.05358" lon="6.48988">
        <ele>2707</ele>
        <time>2022-01-22T10:08:22Z</time>
      </trkpt>
      <trkpt lat="45.05357" lon="6.48981">
        <ele>2709</ele>
        <time>2022-01-22T10:08:29Z</time>
      </trkpt>
      <trkpt lat="45.05357" lon="6.48979">
        <ele>2709</ele>
        <time>2022-01-22T10:08:32Z</time>
      </trkpt>
      <trkpt lat="45.05355" lon="6.48981">
        <ele>2711</ele>
        <time>2022-01-22T10:08:49Z</time>
      </trkpt>
      <trkpt lat="45.05356" lon="6.48984">
        <ele>2713</ele>
        <time>2022-01-22T10:08:53Z</time>
      </trkpt>
      <trkpt lat="45.05357" lon="6.48987">
        <ele>2714</ele>
        <time>2022-01-22T10:08:56Z</time>
      </trkpt>
      <trkpt lat="45.05359" lon="6.48989">
        <ele>2716</ele>
        <time>2022-01-22T10:08:59Z</time>
      </trkpt>
      <trkpt lat="45.05361" lon="6.48991">
        <ele>2717</ele>
        <time>2022-01-22T10:09:02Z</time>
      </trkpt>
      <trkpt lat="45.05367" lon="6.48994">
        <ele>2719</ele>
        <time>2022-01-22T10:09:10Z</time>
      </trkpt>
      <trkpt lat="45.05369" lon="6.48994">
        <ele>2719</ele>
        <time>2022-01-22T10:09:13Z</time>
      </trkpt>
      <trkpt lat="45.05375" lon="6.48998">
        <ele>2720</ele>
        <time>2022-01-22T10:09:25Z</time>
      </trkpt>
      <trkpt lat="45.05381" lon="6.49002">
        <ele>2723</ele>
        <time>2022-01-22T10:09:36Z</time>
      </trkpt>
      <trkpt lat="45.05383" lon="6.49003">
        <ele>2723</ele>
        <time>2022-01-22T10:09:42Z</time>
      </trkpt>
      <trkpt lat="45.05385" lon="6.49005">
        <ele>2724</ele>
        <time>2022-01-22T10:09:46Z</time>
      </trkpt>
      <trkpt lat="45.05387" lon="6.49008">
        <ele>2725</ele>
        <time>2022-01-22T10:09:49Z</time>
      </trkpt>
      <trkpt lat="45.05389" lon="6.49011">
        <ele>2725</ele>
        <time>2022-01-22T10:09:55Z</time>
      </trkpt>
      <trkpt lat="45.05391" lon="6.49012">
        <ele>2724</ele>
        <time>2022-01-22T10:09:57Z</time>
      </trkpt>
      <trkpt lat="45.05394" lon="6.49011">
        <ele>2724</ele>
        <time>2022-01-22T10:09:59Z</time>
      </trkpt>
      <trkpt lat="45.05396" lon="6.49012">
        <ele>2724</ele>
        <time>2022-01-22T10:10:02Z</time>
      </trkpt>
      <trkpt lat="45.05397" lon="6.49014">
        <ele>2724</ele>
        <time>2022-01-22T10:10:10Z</time>
      </trkpt>
      <trkpt lat="45.05398" lon="6.49018">
        <ele>2726</ele>
        <time>2022-01-22T10:10:20Z</time>
      </trkpt>
      <trkpt lat="45.05399" lon="6.49021">
        <ele>2727</ele>
        <time>2022-01-22T10:10:23Z</time>
      </trkpt>
      <trkpt lat="45.05401" lon="6.49023">
        <ele>2729</ele>
        <time>2022-01-22T10:10:27Z</time>
      </trkpt>
      <trkpt lat="45.05402" lon="6.49026">
        <ele>2730</ele>
        <time>2022-01-22T10:10:32Z</time>
      </trkpt>
      <trkpt lat="45.05401" lon="6.49027">
        <ele>2731</ele>
        <time>2022-01-22T10:10:36Z</time>
      </trkpt>
      <trkpt lat="45.05403" lon="6.49021">
        <ele>2732</ele>
        <time>2022-01-22T10:10:52Z</time>
      </trkpt>
      <trkpt lat="45.05405" lon="6.49018">
        <ele>2732</ele>
        <time>2022-01-22T10:10:58Z</time>
      </trkpt>
      <trkpt lat="45.05406" lon="6.49015">
        <ele>2732</ele>
        <time>2022-01-22T10:11:02Z</time>
      </trkpt>
      <trkpt lat="45.05405" lon="6.4901">
        <ele>2732</ele>
        <time>2022-01-22T10:11:11Z</time>
      </trkpt>
      <trkpt lat="45.05404" lon="6.49006">
        <ele>2732</ele>
        <time>2022-01-22T10:11:15Z</time>
      </trkpt>
      <trkpt lat="45.05403" lon="6.49004">
        <ele>2733</ele>
        <time>2022-01-22T10:11:17Z</time>
      </trkpt>
      <trkpt lat="45.05403" lon="6.48998">
        <ele>2733</ele>
        <time>2022-01-22T10:11:20Z</time>
      </trkpt>
      <trkpt lat="45.05401" lon="6.48995">
        <ele>2733</ele>
        <time>2022-01-22T10:11:23Z</time>
      </trkpt>
      <trkpt lat="45.05401" lon="6.48992">
        <ele>2734</ele>
        <time>2022-01-22T10:11:27Z</time>
      </trkpt>
      <trkpt lat="45.05401" lon="6.48989">
        <ele>2734</ele>
        <time>2022-01-22T10:11:29Z</time>
      </trkpt>
      <trkpt lat="45.05401" lon="6.48986">
        <ele>2735</ele>
        <time>2022-01-22T10:11:32Z</time>
      </trkpt>
      <trkpt lat="45.05401" lon="6.48983">
        <ele>2735</ele>
        <time>2022-01-22T10:11:35Z</time>
      </trkpt>
      <trkpt lat="45.05399" lon="6.48977">
        <ele>2736</ele>
        <time>2022-01-22T10:11:41Z</time>
      </trkpt>
      <trkpt lat="45.05397" lon="6.48976">
        <ele>2737</ele>
        <time>2022-01-22T10:11:44Z</time>
      </trkpt>
      <trkpt lat="45.05395" lon="6.48973">
        <ele>2737</ele>
        <time>2022-01-22T10:11:47Z</time>
      </trkpt>
      <trkpt lat="45.05394" lon="6.48971">
        <ele>2738</ele>
        <time>2022-01-22T10:11:51Z</time>
      </trkpt>
      <trkpt lat="45.05394" lon="6.48969">
        <ele>2738</ele>
        <time>2022-01-22T10:11:54Z</time>
      </trkpt>
      <trkpt lat="45.05394" lon="6.48966">
        <ele>2738</ele>
        <time>2022-01-22T10:11:57Z</time>
      </trkpt>
      <trkpt lat="45.05393" lon="6.48964">
        <ele>2738</ele>
        <time>2022-01-22T10:12:00Z</time>
      </trkpt>
      <trkpt lat="45.05393" lon="6.4896">
        <ele>2739</ele>
        <time>2022-01-22T10:12:05Z</time>
      </trkpt>
      <trkpt lat="45.05392" lon="6.48957">
        <ele>2739</ele>
        <time>2022-01-22T10:12:09Z</time>
      </trkpt>
      <trkpt lat="45.05392" lon="6.48954">
        <ele>2739</ele>
        <time>2022-01-22T10:12:11Z</time>
      </trkpt>
      <trkpt lat="45.0539" lon="6.48951">
        <ele>2739</ele>
        <time>2022-01-22T10:12:13Z</time>
      </trkpt>
      <trkpt lat="45.05389" lon="6.48948">
        <ele>2739</ele>
        <time>2022-01-22T10:12:18Z</time>
      </trkpt>
      <trkpt lat="45.05389" lon="6.48945">
        <ele>2739</ele>
        <time>2022-01-22T10:12:25Z</time>
      </trkpt>
      <trkpt lat="45.05388" lon="6.48942">
        <ele>2740</ele>
        <time>2022-01-22T10:12:27Z</time>
      </trkpt>
      <trkpt lat="45.05386" lon="6.48939">
        <ele>2740</ele>
        <time>2022-01-22T10:12:28Z</time>
      </trkpt>
      <trkpt lat="45.05385" lon="6.48936">
        <ele>2742</ele>
        <time>2022-01-22T10:12:30Z</time>
      </trkpt>
      <trkpt lat="45.05385" lon="6.48936">
        <ele>2744</ele>
        <time>2022-01-22T10:12:44Z</time>
      </trkpt>
      <trkpt lat="45.05387" lon="6.48939">
        <ele>2744</ele>
        <time>2022-01-22T10:12:46Z</time>
      </trkpt>
      <trkpt lat="45.0539" lon="6.48941">
        <ele>2746</ele>
        <time>2022-01-22T10:12:48Z</time>
      </trkpt>
      <trkpt lat="45.05399" lon="6.48945">
        <ele>2751</ele>
        <time>2022-01-22T10:12:57Z</time>
      </trkpt>
      <trkpt lat="45.05401" lon="6.48949">
        <ele>2752</ele>
        <time>2022-01-22T10:13:03Z</time>
      </trkpt>
      <trkpt lat="45.05404" lon="6.48953">
        <ele>2753</ele>
        <time>2022-01-22T10:13:11Z</time>
      </trkpt>
      <trkpt lat="45.05406" lon="6.48955">
        <ele>2755</ele>
        <time>2022-01-22T10:13:18Z</time>
      </trkpt>
      <trkpt lat="45.05409" lon="6.48958">
        <ele>2755</ele>
        <time>2022-01-22T10:13:21Z</time>
      </trkpt>
      <trkpt lat="45.05414" lon="6.48959">
        <ele>2756</ele>
        <time>2022-01-22T10:13:27Z</time>
      </trkpt>
      <trkpt lat="45.05421" lon="6.48963">
        <ele>2756</ele>
        <time>2022-01-22T10:13:40Z</time>
      </trkpt>
      <trkpt lat="45.05423" lon="6.48964">
        <ele>2757</ele>
        <time>2022-01-22T10:13:47Z</time>
      </trkpt>
      <trkpt lat="45.05425" lon="6.48965">
        <ele>2757</ele>
        <time>2022-01-22T10:13:52Z</time>
      </trkpt>
      <trkpt lat="45.0543" lon="6.48966">
        <ele>2758</ele>
        <time>2022-01-22T10:13:59Z</time>
      </trkpt>
      <trkpt lat="45.05431" lon="6.48968">
        <ele>2760</ele>
        <time>2022-01-22T10:14:10Z</time>
      </trkpt>
      <trkpt lat="45.05434" lon="6.48971">
        <ele>2761</ele>
        <time>2022-01-22T10:14:22Z</time>
      </trkpt>
      <trkpt lat="45.05437" lon="6.48972">
        <ele>2762</ele>
        <time>2022-01-22T10:14:24Z</time>
      </trkpt>
      <trkpt lat="45.05439" lon="6.48968">
        <ele>2763</ele>
        <time>2022-01-22T10:14:28Z</time>
      </trkpt>
      <trkpt lat="45.05437" lon="6.48964">
        <ele>2763</ele>
        <time>2022-01-22T10:14:30Z</time>
      </trkpt>
      <trkpt lat="45.05435" lon="6.48957">
        <ele>2763</ele>
        <time>2022-01-22T10:14:33Z</time>
      </trkpt>
      <trkpt lat="45.05434" lon="6.48954">
        <ele>2764</ele>
        <time>2022-01-22T10:14:35Z</time>
      </trkpt>
      <trkpt lat="45.05432" lon="6.48951">
        <ele>2764</ele>
        <time>2022-01-22T10:14:38Z</time>
      </trkpt>
      <trkpt lat="45.05431" lon="6.48947">
        <ele>2764</ele>
        <time>2022-01-22T10:14:41Z</time>
      </trkpt>
      <trkpt lat="45.0543" lon="6.48945">
        <ele>2764</ele>
        <time>2022-01-22T10:14:44Z</time>
      </trkpt>
      <trkpt lat="45.05428" lon="6.48942">
        <ele>2765</ele>
        <time>2022-01-22T10:14:48Z</time>
      </trkpt>
      <trkpt lat="45.05426" lon="6.48941">
        <ele>2765</ele>
        <time>2022-01-22T10:14:52Z</time>
      </trkpt>
      <trkpt lat="45.05425" lon="6.48938">
        <ele>2766</ele>
        <time>2022-01-22T10:14:56Z</time>
      </trkpt>
      <trkpt lat="45.05425" lon="6.48928">
        <ele>2766</ele>
        <time>2022-01-22T10:15:04Z</time>
      </trkpt>
      <trkpt lat="45.05425" lon="6.48924">
        <ele>2767</ele>
        <time>2022-01-22T10:15:08Z</time>
      </trkpt>
      <trkpt lat="45.05424" lon="6.48921">
        <ele>2767</ele>
        <time>2022-01-22T10:15:11Z</time>
      </trkpt>
      <trkpt lat="45.05422" lon="6.48918">
        <ele>2767</ele>
        <time>2022-01-22T10:15:14Z</time>
      </trkpt>
      <trkpt lat="45.05421" lon="6.48916">
        <ele>2768</ele>
        <time>2022-01-22T10:15:20Z</time>
      </trkpt>
      <trkpt lat="45.05421" lon="6.48912">
        <ele>2769</ele>
        <time>2022-01-22T10:15:24Z</time>
      </trkpt>
      <trkpt lat="45.05421" lon="6.48909">
        <ele>2769</ele>
        <time>2022-01-22T10:15:30Z</time>
      </trkpt>
      <trkpt lat="45.05421" lon="6.48906">
        <ele>2770</ele>
        <time>2022-01-22T10:15:33Z</time>
      </trkpt>
      <trkpt lat="45.0542" lon="6.48903">
        <ele>2770</ele>
        <time>2022-01-22T10:15:37Z</time>
      </trkpt>
      <trkpt lat="45.05418" lon="6.489">
        <ele>2771</ele>
        <time>2022-01-22T10:15:42Z</time>
      </trkpt>
      <trkpt lat="45.05419" lon="6.48897">
        <ele>2772</ele>
        <time>2022-01-22T10:15:48Z</time>
      </trkpt>
      <trkpt lat="45.0542" lon="6.48896">
        <ele>2774</ele>
        <time>2022-01-22T10:17:17Z</time>
      </trkpt>
      <trkpt lat="45.05418" lon="6.48901">
        <ele>2777</ele>
        <time>2022-01-22T10:17:52Z</time>
      </trkpt>
      <trkpt lat="45.0542" lon="6.48905">
        <ele>2781</ele>
        <time>2022-01-22T10:18:04Z</time>
      </trkpt>
      <trkpt lat="45.05427" lon="6.48919">
        <ele>2786</ele>
        <time>2022-01-22T10:18:24Z</time>
      </trkpt>
      <trkpt lat="45.05425" lon="6.48919">
        <ele>2787</ele>
        <time>2022-01-22T10:18:31Z</time>
      </trkpt>
      <trkpt lat="45.05423" lon="6.48917">
        <ele>2787</ele>
        <time>2022-01-22T10:18:34Z</time>
      </trkpt>
      <trkpt lat="45.05425" lon="6.48915">
        <ele>2787</ele>
        <time>2022-01-22T10:18:41Z</time>
      </trkpt>
      <trkpt lat="45.05425" lon="6.48914">
        <ele>2786</ele>
        <time>2022-01-22T10:18:59Z</time>
      </trkpt>
      <trkpt lat="45.05429" lon="6.48907">
        <ele>2785</ele>
        <time>2022-01-22T10:19:32Z</time>
      </trkpt>
      <trkpt lat="45.05431" lon="6.4891">
        <ele>2785</ele>
        <time>2022-01-22T10:19:36Z</time>
      </trkpt>
      <trkpt lat="45.05431" lon="6.48917">
        <ele>2785</ele>
        <time>2022-01-22T10:19:43Z</time>
      </trkpt>
      <trkpt lat="45.05434" lon="6.48922">
        <ele>2785</ele>
        <time>2022-01-22T10:19:49Z</time>
      </trkpt>
      <trkpt lat="45.05437" lon="6.48922">
        <ele>2785</ele>
        <time>2022-01-22T10:19:53Z</time>
      </trkpt>
      <trkpt lat="45.05449" lon="6.48932">
        <ele>2787</ele>
        <time>2022-01-22T10:20:13Z</time>
      </trkpt>
      <trkpt lat="45.05452" lon="6.48934">
        <ele>2787</ele>
        <time>2022-01-22T10:20:18Z</time>
      </trkpt>
      <trkpt lat="45.05453" lon="6.48937">
        <ele>2787</ele>
        <time>2022-01-22T10:20:21Z</time>
      </trkpt>
      <trkpt lat="45.05455" lon="6.48938">
        <ele>2788</ele>
        <time>2022-01-22T10:20:25Z</time>
      </trkpt>
      <trkpt lat="45.05458" lon="6.48939">
        <ele>2788</ele>
        <time>2022-01-22T10:20:33Z</time>
      </trkpt>
      <trkpt lat="45.0546" lon="6.48941">
        <ele>2788</ele>
        <time>2022-01-22T10:20:36Z</time>
      </trkpt>
      <trkpt lat="45.05462" lon="6.48943">
        <ele>2788</ele>
        <time>2022-01-22T10:20:40Z</time>
      </trkpt>
      <trkpt lat="45.05463" lon="6.48946">
        <ele>2789</ele>
        <time>2022-01-22T10:20:43Z</time>
      </trkpt>
      <trkpt lat="45.05464" lon="6.48949">
        <ele>2789</ele>
        <time>2022-01-22T10:20:49Z</time>
      </trkpt>
      <trkpt lat="45.05463" lon="6.48952">
        <ele>2790</ele>
        <time>2022-01-22T10:20:54Z</time>
      </trkpt>
      <trkpt lat="45.05468" lon="6.48951">
        <ele>2790</ele>
        <time>2022-01-22T10:21:04Z</time>
      </trkpt>
      <trkpt lat="45.05471" lon="6.48943">
        <ele>2789</ele>
        <time>2022-01-22T10:21:09Z</time>
      </trkpt>
      <trkpt lat="45.05472" lon="6.4894">
        <ele>2789</ele>
        <time>2022-01-22T10:21:12Z</time>
      </trkpt>
      <trkpt lat="45.05472" lon="6.48932">
        <ele>2791</ele>
        <time>2022-01-22T10:21:18Z</time>
      </trkpt>
      <trkpt lat="45.05472" lon="6.48929">
        <ele>2791</ele>
        <time>2022-01-22T10:21:23Z</time>
      </trkpt>
      <trkpt lat="45.05472" lon="6.48925">
        <ele>2792</ele>
        <time>2022-01-22T10:21:27Z</time>
      </trkpt>
      <trkpt lat="45.05472" lon="6.48922">
        <ele>2792</ele>
        <time>2022-01-22T10:21:32Z</time>
      </trkpt>
      <trkpt lat="45.05471" lon="6.48917">
        <ele>2792</ele>
        <time>2022-01-22T10:21:37Z</time>
      </trkpt>
      <trkpt lat="45.05469" lon="6.48909">
        <ele>2792</ele>
        <time>2022-01-22T10:21:43Z</time>
      </trkpt>
      <trkpt lat="45.05466" lon="6.489">
        <ele>2793</ele>
        <time>2022-01-22T10:22:00Z</time>
      </trkpt>
      <trkpt lat="45.05465" lon="6.48897">
        <ele>2793</ele>
        <time>2022-01-22T10:22:03Z</time>
      </trkpt>
      <trkpt lat="45.05464" lon="6.48893">
        <ele>2793</ele>
        <time>2022-01-22T10:22:06Z</time>
      </trkpt>
      <trkpt lat="45.05464" lon="6.4889">
        <ele>2793</ele>
        <time>2022-01-22T10:22:08Z</time>
      </trkpt>
      <trkpt lat="45.05464" lon="6.48884">
        <ele>2794</ele>
        <time>2022-01-22T10:22:14Z</time>
      </trkpt>
      <trkpt lat="45.05463" lon="6.48881">
        <ele>2794</ele>
        <time>2022-01-22T10:22:20Z</time>
      </trkpt>
      <trkpt lat="45.05462" lon="6.48864">
        <ele>2795</ele>
        <time>2022-01-22T10:22:36Z</time>
      </trkpt>
      <trkpt lat="45.05458" lon="6.48859">
        <ele>2796</ele>
        <time>2022-01-22T10:22:48Z</time>
      </trkpt>
      <trkpt lat="45.05457" lon="6.48857">
        <ele>2797</ele>
        <time>2022-01-22T10:22:55Z</time>
      </trkpt>
      <trkpt lat="45.05455" lon="6.48856">
        <ele>2799</ele>
        <time>2022-01-22T10:23:09Z</time>
      </trkpt>
      <trkpt lat="45.05454" lon="6.48854">
        <ele>2800</ele>
        <time>2022-01-22T10:23:23Z</time>
      </trkpt>
      <trkpt lat="45.05453" lon="6.48853">
        <ele>2800</ele>
        <time>2022-01-22T10:23:29Z</time>
      </trkpt>
      <trkpt lat="45.05458" lon="6.48851">
        <ele>2801</ele>
        <time>2022-01-22T10:24:15Z</time>
      </trkpt>
      <trkpt lat="45.05462" lon="6.48852">
        <ele>2803</ele>
        <time>2022-01-22T10:24:21Z</time>
      </trkpt>
      <trkpt lat="45.05466" lon="6.48854">
        <ele>2805</ele>
        <time>2022-01-22T10:24:31Z</time>
      </trkpt>
      <trkpt lat="45.05469" lon="6.48856">
        <ele>2806</ele>
        <time>2022-01-22T10:24:35Z</time>
      </trkpt>
      <trkpt lat="45.05471" lon="6.48858">
        <ele>2807</ele>
        <time>2022-01-22T10:24:40Z</time>
      </trkpt>
      <trkpt lat="45.05475" lon="6.4886">
        <ele>2811</ele>
        <time>2022-01-22T10:24:49Z</time>
      </trkpt>
      <trkpt lat="45.05478" lon="6.48864">
        <ele>2812</ele>
        <time>2022-01-22T10:24:59Z</time>
      </trkpt>
      <trkpt lat="45.05482" lon="6.48866">
        <ele>2814</ele>
        <time>2022-01-22T10:25:08Z</time>
      </trkpt>
      <trkpt lat="45.05484" lon="6.48867">
        <ele>2815</ele>
        <time>2022-01-22T10:25:13Z</time>
      </trkpt>
      <trkpt lat="45.05488" lon="6.48869">
        <ele>2816</ele>
        <time>2022-01-22T10:25:21Z</time>
      </trkpt>
      <trkpt lat="45.05491" lon="6.48871">
        <ele>2817</ele>
        <time>2022-01-22T10:25:27Z</time>
      </trkpt>
      <trkpt lat="45.05493" lon="6.48872">
        <ele>2817</ele>
        <time>2022-01-22T10:25:31Z</time>
      </trkpt>
      <trkpt lat="45.05495" lon="6.48873">
        <ele>2818</ele>
        <time>2022-01-22T10:25:34Z</time>
      </trkpt>
      <trkpt lat="45.05496" lon="6.48874">
        <ele>2818</ele>
        <time>2022-01-22T10:25:41Z</time>
      </trkpt>
      <trkpt lat="45.05496" lon="6.48871">
        <ele>2819</ele>
        <time>2022-01-22T10:26:01Z</time>
      </trkpt>
      <trkpt lat="45.05495" lon="6.48866">
        <ele>2819</ele>
        <time>2022-01-22T10:26:10Z</time>
      </trkpt>
      <trkpt lat="45.05493" lon="6.48864">
        <ele>2819</ele>
        <time>2022-01-22T10:26:14Z</time>
      </trkpt>
      <trkpt lat="45.05493" lon="6.48861">
        <ele>2819</ele>
        <time>2022-01-22T10:26:20Z</time>
      </trkpt>
      <trkpt lat="45.05492" lon="6.48859">
        <ele>2819</ele>
        <time>2022-01-22T10:26:23Z</time>
      </trkpt>
      <trkpt lat="45.05492" lon="6.48853">
        <ele>2820</ele>
        <time>2022-01-22T10:26:35Z</time>
      </trkpt>
      <trkpt lat="45.05492" lon="6.4885">
        <ele>2820</ele>
        <time>2022-01-22T10:26:39Z</time>
      </trkpt>
      <trkpt lat="45.0549" lon="6.48849">
        <ele>2821</ele>
        <time>2022-01-22T10:26:47Z</time>
      </trkpt>
      <trkpt lat="45.05489" lon="6.48849">
        <ele>2821</ele>
        <time>2022-01-22T10:27:03Z</time>
      </trkpt>
      <trkpt lat="45.05489" lon="6.48851">
        <ele>2821</ele>
        <time>2022-01-22T10:27:12Z</time>
      </trkpt>
      <trkpt lat="45.0549" lon="6.48848">
        <ele>2822</ele>
        <time>2022-01-22T10:27:25Z</time>
      </trkpt>
      <trkpt lat="45.05499" lon="6.48853">
        <ele>2826</ele>
        <time>2022-01-22T10:27:56Z</time>
      </trkpt>
      <trkpt lat="45.05503" lon="6.48859">
        <ele>2829</ele>
        <time>2022-01-22T10:28:06Z</time>
      </trkpt>
      <trkpt lat="45.05505" lon="6.48863">
        <ele>2831</ele>
        <time>2022-01-22T10:28:12Z</time>
      </trkpt>
      <trkpt lat="45.05507" lon="6.48865">
        <ele>2832</ele>
        <time>2022-01-22T10:28:15Z</time>
      </trkpt>
      <trkpt lat="45.0552" lon="6.48874">
        <ele>2839</ele>
        <time>2022-01-22T10:28:51Z</time>
      </trkpt>
      <trkpt lat="45.05528" lon="6.48885">
        <ele>2840</ele>
        <time>2022-01-22T10:29:09Z</time>
      </trkpt>
      <trkpt lat="45.05529" lon="6.48887">
        <ele>2840</ele>
        <time>2022-01-22T10:29:12Z</time>
      </trkpt>
      <trkpt lat="45.0553" lon="6.4889">
        <ele>2841</ele>
        <time>2022-01-22T10:29:21Z</time>
      </trkpt>
      <trkpt lat="45.05533" lon="6.4889">
        <ele>2842</ele>
        <time>2022-01-22T10:29:24Z</time>
      </trkpt>
      <trkpt lat="45.05535" lon="6.48893">
        <ele>2842</ele>
        <time>2022-01-22T10:29:28Z</time>
      </trkpt>
      <trkpt lat="45.05535" lon="6.48896">
        <ele>2844</ele>
        <time>2022-01-22T10:29:33Z</time>
      </trkpt>
      <trkpt lat="45.05537" lon="6.48899">
        <ele>2844</ele>
        <time>2022-01-22T10:29:38Z</time>
      </trkpt>
      <trkpt lat="45.05538" lon="6.48901">
        <ele>2845</ele>
        <time>2022-01-22T10:29:42Z</time>
      </trkpt>
      <trkpt lat="45.05539" lon="6.48911">
        <ele>2849</ele>
        <time>2022-01-22T10:30:00Z</time>
      </trkpt>
      <trkpt lat="45.05539" lon="6.48911">
        <ele>2849</ele>
        <time>2022-01-22T10:30:26Z</time>
      </trkpt>
      <trkpt lat="45.05538" lon="6.48917">
        <ele>2848</ele>
        <time>2022-01-22T10:30:49Z</time>
      </trkpt>
      <trkpt lat="45.05536" lon="6.48914">
        <ele>2848</ele>
        <time>2022-01-22T10:30:56Z</time>
      </trkpt>
      <trkpt lat="45.05538" lon="6.48904">
        <ele>2848</ele>
        <time>2022-01-22T10:31:03Z</time>
      </trkpt>
      <trkpt lat="45.0554" lon="6.48899">
        <ele>2848</ele>
        <time>2022-01-22T10:31:07Z</time>
      </trkpt>
      <trkpt lat="45.05541" lon="6.48896">
        <ele>2849</ele>
        <time>2022-01-22T10:31:11Z</time>
      </trkpt>
      <trkpt lat="45.05541" lon="6.48893">
        <ele>2849</ele>
        <time>2022-01-22T10:31:14Z</time>
      </trkpt>
      <trkpt lat="45.05541" lon="6.4889">
        <ele>2849</ele>
        <time>2022-01-22T10:31:18Z</time>
      </trkpt>
      <trkpt lat="45.05541" lon="6.48887">
        <ele>2849</ele>
        <time>2022-01-22T10:31:22Z</time>
      </trkpt>
      <trkpt lat="45.05542" lon="6.48884">
        <ele>2849</ele>
        <time>2022-01-22T10:31:25Z</time>
      </trkpt>
      <trkpt lat="45.0554" lon="6.48881">
        <ele>2849</ele>
        <time>2022-01-22T10:31:29Z</time>
      </trkpt>
      <trkpt lat="45.05541" lon="6.48878">
        <ele>2849</ele>
        <time>2022-01-22T10:31:33Z</time>
      </trkpt>
      <trkpt lat="45.0554" lon="6.48872">
        <ele>2850</ele>
        <time>2022-01-22T10:31:40Z</time>
      </trkpt>
      <trkpt lat="45.05539" lon="6.4887">
        <ele>2850</ele>
        <time>2022-01-22T10:31:44Z</time>
      </trkpt>
      <trkpt lat="45.05538" lon="6.48868">
        <ele>2850</ele>
        <time>2022-01-22T10:31:48Z</time>
      </trkpt>
      <trkpt lat="45.05536" lon="6.48866">
        <ele>2850</ele>
        <time>2022-01-22T10:31:51Z</time>
      </trkpt>
      <trkpt lat="45.05536" lon="6.48863">
        <ele>2851</ele>
        <time>2022-01-22T10:31:55Z</time>
      </trkpt>
      <trkpt lat="45.05535" lon="6.48857">
        <ele>2852</ele>
        <time>2022-01-22T10:32:03Z</time>
      </trkpt>
      <trkpt lat="45.05534" lon="6.48855">
        <ele>2853</ele>
        <time>2022-01-22T10:32:07Z</time>
      </trkpt>
      <trkpt lat="45.05533" lon="6.48852">
        <ele>2854</ele>
        <time>2022-01-22T10:32:12Z</time>
      </trkpt>
      <trkpt lat="45.05532" lon="6.4885">
        <ele>2854</ele>
        <time>2022-01-22T10:32:16Z</time>
      </trkpt>
      <trkpt lat="45.05532" lon="6.48846">
        <ele>2855</ele>
        <time>2022-01-22T10:32:20Z</time>
      </trkpt>
      <trkpt lat="45.05533" lon="6.48843">
        <ele>2856</ele>
        <time>2022-01-22T10:32:27Z</time>
      </trkpt>
      <trkpt lat="45.05532" lon="6.48841">
        <ele>2856</ele>
        <time>2022-01-22T10:32:30Z</time>
      </trkpt>
      <trkpt lat="45.05532" lon="6.48837">
        <ele>2856</ele>
        <time>2022-01-22T10:32:33Z</time>
      </trkpt>
      <trkpt lat="45.05532" lon="6.48835">
        <ele>2856</ele>
        <time>2022-01-22T10:32:35Z</time>
      </trkpt>
      <trkpt lat="45.05533" lon="6.48829">
        <ele>2856</ele>
        <time>2022-01-22T10:32:41Z</time>
      </trkpt>
      <trkpt lat="45.05533" lon="6.48826">
        <ele>2856</ele>
        <time>2022-01-22T10:32:44Z</time>
      </trkpt>
      <trkpt lat="45.05532" lon="6.48823">
        <ele>2856</ele>
        <time>2022-01-22T10:32:47Z</time>
      </trkpt>
      <trkpt lat="45.05531" lon="6.4882">
        <ele>2855</ele>
        <time>2022-01-22T10:32:50Z</time>
      </trkpt>
      <trkpt lat="45.0553" lon="6.48817">
        <ele>2855</ele>
        <time>2022-01-22T10:32:53Z</time>
      </trkpt>
      <trkpt lat="45.0553" lon="6.48815">
        <ele>2856</ele>
        <time>2022-01-22T10:32:55Z</time>
      </trkpt>
      <trkpt lat="45.05528" lon="6.4881">
        <ele>2856</ele>
        <time>2022-01-22T10:33:02Z</time>
      </trkpt>
      <trkpt lat="45.05527" lon="6.48804">
        <ele>2858</ele>
        <time>2022-01-22T10:33:12Z</time>
      </trkpt>
      <trkpt lat="45.05527" lon="6.48801">
        <ele>2858</ele>
        <time>2022-01-22T10:33:42Z</time>
      </trkpt>
      <trkpt lat="45.05532" lon="6.48803">
        <ele>2860</ele>
        <time>2022-01-22T10:33:51Z</time>
      </trkpt>
      <trkpt lat="45.05534" lon="6.48804">
        <ele>2861</ele>
        <time>2022-01-22T10:33:55Z</time>
      </trkpt>
      <trkpt lat="45.05536" lon="6.48806">
        <ele>2862</ele>
        <time>2022-01-22T10:34:00Z</time>
      </trkpt>
      <trkpt lat="45.05537" lon="6.48808">
        <ele>2863</ele>
        <time>2022-01-22T10:34:13Z</time>
      </trkpt>
      <trkpt lat="45.05539" lon="6.48809">
        <ele>2865</ele>
        <time>2022-01-22T10:34:20Z</time>
      </trkpt>
      <trkpt lat="45.05542" lon="6.4881">
        <ele>2866</ele>
        <time>2022-01-22T10:34:26Z</time>
      </trkpt>
      <trkpt lat="45.05544" lon="6.48813">
        <ele>2868</ele>
        <time>2022-01-22T10:34:54Z</time>
      </trkpt>
      <trkpt lat="45.05544" lon="6.48816">
        <ele>2871</ele>
        <time>2022-01-22T10:35:12Z</time>
      </trkpt>
      <trkpt lat="45.05543" lon="6.48805">
        <ele>2872</ele>
        <time>2022-01-22T10:35:49Z</time>
      </trkpt>
      <trkpt lat="45.05541" lon="6.48804">
        <ele>2872</ele>
        <time>2022-01-22T10:35:53Z</time>
      </trkpt>
      <trkpt lat="45.05541" lon="6.48801">
        <ele>2873</ele>
        <time>2022-01-22T10:35:56Z</time>
      </trkpt>
      <trkpt lat="45.0554" lon="6.48799">
        <ele>2874</ele>
        <time>2022-01-22T10:36:00Z</time>
      </trkpt>
      <trkpt lat="45.05539" lon="6.48797">
        <ele>2874</ele>
        <time>2022-01-22T10:36:03Z</time>
      </trkpt>
      <trkpt lat="45.05539" lon="6.48794">
        <ele>2875</ele>
        <time>2022-01-22T10:36:08Z</time>
      </trkpt>
      <trkpt lat="45.0554" lon="6.4879">
        <ele>2876</ele>
        <time>2022-01-22T10:36:14Z</time>
      </trkpt>
      <trkpt lat="45.05541" lon="6.48781">
        <ele>2876</ele>
        <time>2022-01-22T10:36:21Z</time>
      </trkpt>
      <trkpt lat="45.0554" lon="6.48779">
        <ele>2876</ele>
        <time>2022-01-22T10:36:24Z</time>
      </trkpt>
      <trkpt lat="45.05538" lon="6.48778">
        <ele>2876</ele>
        <time>2022-01-22T10:36:30Z</time>
      </trkpt>
      <trkpt lat="45.05537" lon="6.48778">
        <ele>2877</ele>
        <time>2022-01-22T10:37:05Z</time>
      </trkpt>
      <trkpt lat="45.05537" lon="6.48783">
        <ele>2879</ele>
        <time>2022-01-22T10:37:21Z</time>
      </trkpt>
      <trkpt lat="45.0554" lon="6.48782">
        <ele>2880</ele>
        <time>2022-01-22T10:37:32Z</time>
      </trkpt>
      <trkpt lat="45.05542" lon="6.48781">
        <ele>2880</ele>
        <time>2022-01-22T10:37:36Z</time>
      </trkpt>
      <trkpt lat="45.05543" lon="6.4878">
        <ele>2880</ele>
        <time>2022-01-22T10:37:45Z</time>
      </trkpt>
      <trkpt lat="45.05545" lon="6.4878">
        <ele>2880</ele>
        <time>2022-01-22T10:37:51Z</time>
      </trkpt>
      <trkpt lat="45.05547" lon="6.48782">
        <ele>2881</ele>
        <time>2022-01-22T10:37:55Z</time>
      </trkpt>
      <trkpt lat="45.05548" lon="6.48784">
        <ele>2881</ele>
        <time>2022-01-22T10:38:00Z</time>
      </trkpt>
      <trkpt lat="45.0555" lon="6.48784">
        <ele>2881</ele>
        <time>2022-01-22T10:38:04Z</time>
      </trkpt>
      <trkpt lat="45.05552" lon="6.48792">
        <ele>2882</ele>
        <time>2022-01-22T10:38:25Z</time>
      </trkpt>
      <trkpt lat="45.05551" lon="6.48789">
        <ele>2883</ele>
        <time>2022-01-22T10:38:39Z</time>
      </trkpt>
      <trkpt lat="45.0555" lon="6.48787">
        <ele>2883</ele>
        <time>2022-01-22T10:38:41Z</time>
      </trkpt>
      <trkpt lat="45.05549" lon="6.48785">
        <ele>2883</ele>
        <time>2022-01-22T10:38:43Z</time>
      </trkpt>
      <trkpt lat="45.05549" lon="6.48782">
        <ele>2883</ele>
        <time>2022-01-22T10:38:45Z</time>
      </trkpt>
      <trkpt lat="45.05549" lon="6.48779">
        <ele>2883</ele>
        <time>2022-01-22T10:38:48Z</time>
      </trkpt>
      <trkpt lat="45.05548" lon="6.48777">
        <ele>2883</ele>
        <time>2022-01-22T10:38:55Z</time>
      </trkpt>
      <trkpt lat="45.05546" lon="6.48775">
        <ele>2883</ele>
        <time>2022-01-22T10:38:58Z</time>
      </trkpt>
      <trkpt lat="45.05546" lon="6.48772">
        <ele>2883</ele>
        <time>2022-01-22T10:39:03Z</time>
      </trkpt>
      <trkpt lat="45.05547" lon="6.48769">
        <ele>2883</ele>
        <time>2022-01-22T10:39:07Z</time>
      </trkpt>
      <trkpt lat="45.05549" lon="6.48768">
        <ele>2884</ele>
        <time>2022-01-22T10:39:21Z</time>
      </trkpt>
      <trkpt lat="45.05553" lon="6.48771">
        <ele>2886</ele>
        <time>2022-01-22T10:39:29Z</time>
      </trkpt>
      <trkpt lat="45.05554" lon="6.48773">
        <ele>2887</ele>
        <time>2022-01-22T10:39:34Z</time>
      </trkpt>
      <trkpt lat="45.05556" lon="6.48774">
        <ele>2888</ele>
        <time>2022-01-22T10:39:52Z</time>
      </trkpt>
      <trkpt lat="45.05558" lon="6.48775">
        <ele>2889</ele>
        <time>2022-01-22T10:39:55Z</time>
      </trkpt>
      <trkpt lat="45.05558" lon="6.48777">
        <ele>2890</ele>
        <time>2022-01-22T10:40:06Z</time>
      </trkpt>
      <trkpt lat="45.0556" lon="6.48777">
        <ele>2891</ele>
        <time>2022-01-22T10:40:10Z</time>
      </trkpt>
      <trkpt lat="45.05559" lon="6.48774">
        <ele>2891</ele>
        <time>2022-01-22T10:40:30Z</time>
      </trkpt>
      <trkpt lat="45.05556" lon="6.48771">
        <ele>2891</ele>
        <time>2022-01-22T10:40:37Z</time>
      </trkpt>
      <trkpt lat="45.05555" lon="6.4877">
        <ele>2891</ele>
        <time>2022-01-22T10:40:41Z</time>
      </trkpt>
      <trkpt lat="45.05554" lon="6.48766">
        <ele>2892</ele>
        <time>2022-01-22T10:40:45Z</time>
      </trkpt>
      <trkpt lat="45.05554" lon="6.48764">
        <ele>2893</ele>
        <time>2022-01-22T10:40:53Z</time>
      </trkpt>
      <trkpt lat="45.05555" lon="6.48764">
        <ele>2894</ele>
        <time>2022-01-22T10:41:24Z</time>
      </trkpt>
      <trkpt lat="45.05557" lon="6.48765">
        <ele>2896</ele>
        <time>2022-01-22T10:41:32Z</time>
      </trkpt>
      <trkpt lat="45.05563" lon="6.48765">
        <ele>2898</ele>
        <time>2022-01-22T10:41:45Z</time>
      </trkpt>
      <trkpt lat="45.05565" lon="6.48766">
        <ele>2899</ele>
        <time>2022-01-22T10:41:49Z</time>
      </trkpt>
      <trkpt lat="45.05565" lon="6.4877">
        <ele>2900</ele>
        <time>2022-01-22T10:41:57Z</time>
      </trkpt>
      <trkpt lat="45.05568" lon="6.4877">
        <ele>2901</ele>
        <time>2022-01-22T10:42:10Z</time>
      </trkpt>
      <trkpt lat="45.05568" lon="6.48762">
        <ele>2901</ele>
        <time>2022-01-22T10:42:22Z</time>
      </trkpt>
      <trkpt lat="45.05567" lon="6.48759">
        <ele>2901</ele>
        <time>2022-01-22T10:42:26Z</time>
      </trkpt>
      <trkpt lat="45.05565" lon="6.48757">
        <ele>2901</ele>
        <time>2022-01-22T10:42:31Z</time>
      </trkpt>
      <trkpt lat="45.05564" lon="6.48756">
        <ele>2901</ele>
        <time>2022-01-22T10:42:34Z</time>
      </trkpt>
      <trkpt lat="45.05563" lon="6.48758">
        <ele>2903</ele>
        <time>2022-01-22T10:42:51Z</time>
      </trkpt>
      <trkpt lat="45.05566" lon="6.48759">
        <ele>2904</ele>
        <time>2022-01-22T10:42:55Z</time>
      </trkpt>
      <trkpt lat="45.05568" lon="6.48759">
        <ele>2904</ele>
        <time>2022-01-22T10:42:57Z</time>
      </trkpt>
      <trkpt lat="45.05575" lon="6.48767">
        <ele>2908</ele>
        <time>2022-01-22T10:43:17Z</time>
      </trkpt>
      <trkpt lat="45.05577" lon="6.48764">
        <ele>2909</ele>
        <time>2022-01-22T10:43:24Z</time>
      </trkpt>
      <trkpt lat="45.05571" lon="6.4877">
        <ele>2915</ele>
        <time>2022-01-22T10:43:34Z</time>
      </trkpt>
      <trkpt lat="45.05572" lon="6.48771">
        <ele>2919</ele>
        <time>2022-01-22T10:43:40Z</time>
      </trkpt>
      <trkpt lat="45.05573" lon="6.48769">
        <ele>2920</ele>
        <time>2022-01-22T10:43:47Z</time>
      </trkpt>
      <trkpt lat="45.05574" lon="6.48765">
        <ele>2920</ele>
        <time>2022-01-22T10:43:50Z</time>
      </trkpt>
      <trkpt lat="45.05574" lon="6.48762">
        <ele>2920</ele>
        <time>2022-01-22T10:43:53Z</time>
      </trkpt>
      <trkpt lat="45.05574" lon="6.48749">
        <ele>2920</ele>
        <time>2022-01-22T10:44:08Z</time>
      </trkpt>
      <trkpt lat="45.05577" lon="6.48747">
        <ele>2919</ele>
        <time>2022-01-22T10:44:29Z</time>
      </trkpt>
      <trkpt lat="45.05579" lon="6.48748">
        <ele>2919</ele>
        <time>2022-01-22T10:44:33Z</time>
      </trkpt>
      <trkpt lat="45.05581" lon="6.48749">
        <ele>2919</ele>
        <time>2022-01-22T10:44:37Z</time>
      </trkpt>
      <trkpt lat="45.05583" lon="6.48748">
        <ele>2919</ele>
        <time>2022-01-22T10:44:42Z</time>
      </trkpt>
      <trkpt lat="45.05585" lon="6.48754">
        <ele>2921</ele>
        <time>2022-01-22T10:45:01Z</time>
      </trkpt>
      <trkpt lat="45.05586" lon="6.48753">
        <ele>2921</ele>
        <time>2022-01-22T10:45:19Z</time>
      </trkpt>
      <trkpt lat="45.05586" lon="6.48756">
        <ele>2922</ele>
        <time>2022-01-22T10:45:23Z</time>
      </trkpt>
      <trkpt lat="45.05585" lon="6.48762">
        <ele>2923</ele>
        <time>2022-01-22T10:45:24Z</time>
      </trkpt>
      <trkpt lat="45.05585" lon="6.48761">
        <ele>2926</ele>
        <time>2022-01-22T10:45:43Z</time>
      </trkpt>
      <trkpt lat="45.05585" lon="6.48749">
        <ele>2927</ele>
        <time>2022-01-22T10:45:49Z</time>
      </trkpt>
      <trkpt lat="45.05586" lon="6.48745">
        <ele>2927</ele>
        <time>2022-01-22T10:45:52Z</time>
      </trkpt>
      <trkpt lat="45.05588" lon="6.48742">
        <ele>2926</ele>
        <time>2022-01-22T10:45:55Z</time>
      </trkpt>
      <trkpt lat="45.05587" lon="6.48739">
        <ele>2925</ele>
        <time>2022-01-22T10:46:03Z</time>
      </trkpt>
      <trkpt lat="45.05587" lon="6.48737">
        <ele>2925</ele>
        <time>2022-01-22T10:46:07Z</time>
      </trkpt>
      <trkpt lat="45.05587" lon="6.48734">
        <ele>2924</ele>
        <time>2022-01-22T10:46:21Z</time>
      </trkpt>
      <trkpt lat="45.05585" lon="6.48738">
        <ele>2925</ele>
        <time>2022-01-22T10:46:31Z</time>
      </trkpt>
      <trkpt lat="45.05586" lon="6.4874">
        <ele>2925</ele>
        <time>2022-01-22T10:46:35Z</time>
      </trkpt>
      <trkpt lat="45.05587" lon="6.48743">
        <ele>2925</ele>
        <time>2022-01-22T10:46:39Z</time>
      </trkpt>
      <trkpt lat="45.05589" lon="6.48744">
        <ele>2925</ele>
        <time>2022-01-22T10:46:42Z</time>
      </trkpt>
      <trkpt lat="45.05591" lon="6.48745">
        <ele>2926</ele>
        <time>2022-01-22T10:46:45Z</time>
      </trkpt>
      <trkpt lat="45.05593" lon="6.48744">
        <ele>2926</ele>
        <time>2022-01-22T10:46:49Z</time>
      </trkpt>
      <trkpt lat="45.05595" lon="6.48742">
        <ele>2927</ele>
        <time>2022-01-22T10:46:52Z</time>
      </trkpt>
      <trkpt lat="45.05597" lon="6.48743">
        <ele>2927</ele>
        <time>2022-01-22T10:47:02Z</time>
      </trkpt>
      <trkpt lat="45.05598" lon="6.48744">
        <ele>2929</ele>
        <time>2022-01-22T10:47:07Z</time>
      </trkpt>
      <trkpt lat="45.05599" lon="6.48746">
        <ele>2930</ele>
        <time>2022-01-22T10:47:14Z</time>
      </trkpt>
      <trkpt lat="45.05598" lon="6.48749">
        <ele>2931</ele>
        <time>2022-01-22T10:47:19Z</time>
      </trkpt>
      <trkpt lat="45.05598" lon="6.48747">
        <ele>2934</ele>
        <time>2022-01-22T10:47:40Z</time>
      </trkpt>
      <trkpt lat="45.05599" lon="6.4874">
        <ele>2935</ele>
        <time>2022-01-22T10:47:46Z</time>
      </trkpt>
      <trkpt lat="45.05601" lon="6.48735">
        <ele>2935</ele>
        <time>2022-01-22T10:47:55Z</time>
      </trkpt>
      <trkpt lat="45.05601" lon="6.48731">
        <ele>2936</ele>
        <time>2022-01-22T10:48:06Z</time>
      </trkpt>
      <trkpt lat="45.05603" lon="6.48733">
        <ele>2936</ele>
        <time>2022-01-22T10:48:11Z</time>
      </trkpt>
      <trkpt lat="45.05605" lon="6.48735">
        <ele>2936</ele>
        <time>2022-01-22T10:48:22Z</time>
      </trkpt>
      <trkpt lat="45.05606" lon="6.48739">
        <ele>2936</ele>
        <time>2022-01-22T10:48:28Z</time>
      </trkpt>
      <trkpt lat="45.05607" lon="6.48735">
        <ele>2937</ele>
        <time>2022-01-22T10:48:37Z</time>
      </trkpt>
      <trkpt lat="45.05606" lon="6.48732">
        <ele>2937</ele>
        <time>2022-01-22T10:48:40Z</time>
      </trkpt>
      <trkpt lat="45.05607" lon="6.48725">
        <ele>2939</ele>
        <time>2022-01-22T10:48:47Z</time>
      </trkpt>
      <trkpt lat="45.05607" lon="6.48722">
        <ele>2940</ele>
        <time>2022-01-22T10:48:59Z</time>
      </trkpt>
      <trkpt lat="45.05607" lon="6.48718">
        <ele>2940</ele>
        <time>2022-01-22T10:49:12Z</time>
      </trkpt>
      <trkpt lat="45.05609" lon="6.48719">
        <ele>2940</ele>
        <time>2022-01-22T10:49:17Z</time>
      </trkpt>
      <trkpt lat="45.05611" lon="6.4872">
        <ele>2940</ele>
        <time>2022-01-22T10:49:21Z</time>
      </trkpt>
      <trkpt lat="45.05613" lon="6.48722">
        <ele>2940</ele>
        <time>2022-01-22T10:49:26Z</time>
      </trkpt>
      <trkpt lat="45.05612" lon="6.48731">
        <ele>2942</ele>
        <time>2022-01-22T10:49:51Z</time>
      </trkpt>
      <trkpt lat="45.05614" lon="6.48732">
        <ele>2943</ele>
        <time>2022-01-22T10:50:04Z</time>
      </trkpt>
      <trkpt lat="45.05615" lon="6.48724">
        <ele>2945</ele>
        <time>2022-01-22T10:50:12Z</time>
      </trkpt>
      <trkpt lat="45.05614" lon="6.4872">
        <ele>2945</ele>
        <time>2022-01-22T10:50:15Z</time>
      </trkpt>
      <trkpt lat="45.05615" lon="6.48719">
        <ele>2945</ele>
        <time>2022-01-22T10:50:23Z</time>
      </trkpt>
      <trkpt lat="45.05614" lon="6.48711">
        <ele>2946</ele>
        <time>2022-01-22T10:50:43Z</time>
      </trkpt>
      <trkpt lat="45.05616" lon="6.48709">
        <ele>2945</ele>
        <time>2022-01-22T10:50:49Z</time>
      </trkpt>
      <trkpt lat="45.05618" lon="6.48706">
        <ele>2945</ele>
        <time>2022-01-22T10:51:11Z</time>
      </trkpt>
      <trkpt lat="45.05618" lon="6.487">
        <ele>2946</ele>
        <time>2022-01-22T10:51:53Z</time>
      </trkpt>
      <trkpt lat="45.0562" lon="6.48699">
        <ele>2947</ele>
        <time>2022-01-22T10:52:09Z</time>
      </trkpt>
      <trkpt lat="45.05623" lon="6.48698">
        <ele>2947</ele>
        <time>2022-01-22T10:52:21Z</time>
      </trkpt>
      <trkpt lat="45.05623" lon="6.48705">
        <ele>2947</ele>
        <time>2022-01-22T10:52:46Z</time>
      </trkpt>
      <trkpt lat="45.0562" lon="6.48703">
        <ele>2947</ele>
        <time>2022-01-22T10:52:50Z</time>
      </trkpt>
      <trkpt lat="45.05621" lon="6.48693">
        <ele>2947</ele>
        <time>2022-01-22T10:53:01Z</time>
      </trkpt>
      <trkpt lat="45.05624" lon="6.48692">
        <ele>2947</ele>
        <time>2022-01-22T10:53:05Z</time>
      </trkpt>
      <trkpt lat="45.05627" lon="6.48691">
        <ele>2948</ele>
        <time>2022-01-22T10:53:11Z</time>
      </trkpt>
      <trkpt lat="45.05628" lon="6.48697">
        <ele>2949</ele>
        <time>2022-01-22T10:53:20Z</time>
      </trkpt>
      <trkpt lat="45.05629" lon="6.48694">
        <ele>2953</ele>
        <time>2022-01-22T10:53:49Z</time>
      </trkpt>
      <trkpt lat="45.05631" lon="6.4869">
        <ele>2955</ele>
        <time>2022-01-22T10:53:54Z</time>
      </trkpt>
      <trkpt lat="45.05628" lon="6.48689">
        <ele>2956</ele>
        <time>2022-01-22T10:54:02Z</time>
      </trkpt>
      <trkpt lat="45.0563" lon="6.4869">
        <ele>2958</ele>
        <time>2022-01-22T10:54:17Z</time>
      </trkpt>
      <trkpt lat="45.05632" lon="6.48693">
        <ele>2958</ele>
        <time>2022-01-22T10:54:22Z</time>
      </trkpt>
      <trkpt lat="45.05632" lon="6.48696">
        <ele>2958</ele>
        <time>2022-01-22T10:54:30Z</time>
      </trkpt>
      <trkpt lat="45.05632" lon="6.48699">
        <ele>2959</ele>
        <time>2022-01-22T10:54:33Z</time>
      </trkpt>
      <trkpt lat="45.05633" lon="6.48701">
        <ele>2963</ele>
        <time>2022-01-22T10:54:59Z</time>
      </trkpt>
      <trkpt lat="45.05634" lon="6.48698">
        <ele>2963</ele>
        <time>2022-01-22T10:55:02Z</time>
      </trkpt>
      <trkpt lat="45.05633" lon="6.48694">
        <ele>2965</ele>
        <time>2022-01-22T10:55:09Z</time>
      </trkpt>
      <trkpt lat="45.05635" lon="6.4869">
        <ele>2966</ele>
        <time>2022-01-22T10:55:17Z</time>
      </trkpt>
      <trkpt lat="45.05638" lon="6.48694">
        <ele>2966</ele>
        <time>2022-01-22T10:55:30Z</time>
      </trkpt>
      <trkpt lat="45.05639" lon="6.48696">
        <ele>2966</ele>
        <time>2022-01-22T10:55:39Z</time>
      </trkpt>
      <trkpt lat="45.05637" lon="6.48696">
        <ele>2968</ele>
        <time>2022-01-22T10:56:44Z</time>
      </trkpt>
      <trkpt lat="45.05637" lon="6.48695">
        <ele>2970</ele>
        <time>2022-01-22T10:57:10Z</time>
      </trkpt>
      <trkpt lat="45.05637" lon="6.48704">
        <ele>2971</ele>
        <time>2022-01-22T10:57:22Z</time>
      </trkpt>
      <trkpt lat="45.05638" lon="6.48709">
        <ele>2973</ele>
        <time>2022-01-22T10:57:26Z</time>
      </trkpt>
      <trkpt lat="45.0564" lon="6.4871">
        <ele>2974</ele>
        <time>2022-01-22T10:57:29Z</time>
      </trkpt>
      <trkpt lat="45.05643" lon="6.48711">
        <ele>2975</ele>
        <time>2022-01-22T10:57:35Z</time>
      </trkpt>
      <trkpt lat="45.05644" lon="6.48717">
        <ele>2980</ele>
        <time>2022-01-22T10:58:06Z</time>
      </trkpt>
      <trkpt lat="45.05645" lon="6.48713">
        <ele>2982</ele>
        <time>2022-01-22T10:58:23Z</time>
      </trkpt>
      <trkpt lat="45.05646" lon="6.48715">
        <ele>2982</ele>
        <time>2022-01-22T10:58:29Z</time>
      </trkpt>
      <trkpt lat="45.0565" lon="6.48715">
        <ele>2984</ele>
        <time>2022-01-22T10:59:21Z</time>
      </trkpt>
      <trkpt lat="45.0565" lon="6.48712">
        <ele>2985</ele>
        <time>2022-01-22T10:59:24Z</time>
      </trkpt>
      <trkpt lat="45.0565" lon="6.48706">
        <ele>2985</ele>
        <time>2022-01-22T10:59:29Z</time>
      </trkpt>
      <trkpt lat="45.05651" lon="6.48704">
        <ele>2985</ele>
        <time>2022-01-22T10:59:32Z</time>
      </trkpt>
      <trkpt lat="45.05651" lon="6.48702">
        <ele>2985</ele>
        <time>2022-01-22T10:59:35Z</time>
      </trkpt>
      <trkpt lat="45.05649" lon="6.48701">
        <ele>2985</ele>
        <time>2022-01-22T10:59:43Z</time>
      </trkpt>
      <trkpt lat="45.05647" lon="6.48701">
        <ele>2984</ele>
        <time>2022-01-22T10:59:45Z</time>
      </trkpt>
      <trkpt lat="45.05647" lon="6.48704">
        <ele>2985</ele>
        <time>2022-01-22T10:59:57Z</time>
      </trkpt>
      <trkpt lat="45.05646" lon="6.48704">
        <ele>2990</ele>
        <time>2022-01-22T11:00:45Z</time>
      </trkpt>
      <trkpt lat="45.05645" lon="6.48705">
        <ele>2990</ele>
        <time>2022-01-22T11:00:49Z</time>
      </trkpt>
      <trkpt lat="45.05645" lon="6.48707">
        <ele>2991</ele>
        <time>2022-01-22T11:00:54Z</time>
      </trkpt>
      <trkpt lat="45.05645" lon="6.48711">
        <ele>2991</ele>
        <time>2022-01-22T11:01:19Z</time>
      </trkpt>
      <trkpt lat="45.05646" lon="6.48709">
        <ele>2991</ele>
        <time>2022-01-22T11:01:23Z</time>
      </trkpt>
      <trkpt lat="45.05648" lon="6.48709">
        <ele>2991</ele>
        <time>2022-01-22T11:01:27Z</time>
      </trkpt>
      <trkpt lat="45.05649" lon="6.48705">
        <ele>2991</ele>
        <time>2022-01-22T11:01:30Z</time>
      </trkpt>
      <trkpt lat="45.05649" lon="6.48703">
        <ele>2989</ele>
        <time>2022-01-22T11:01:39Z</time>
      </trkpt>
      <trkpt lat="45.0565" lon="6.48705">
        <ele>2989</ele>
        <time>2022-01-22T11:01:42Z</time>
      </trkpt>
      <trkpt lat="45.05653" lon="6.48706">
        <ele>2988</ele>
        <time>2022-01-22T11:01:46Z</time>
      </trkpt>
      <trkpt lat="45.05655" lon="6.48703">
        <ele>2988</ele>
        <time>2022-01-22T11:02:03Z</time>
      </trkpt>
      <trkpt lat="45.05653" lon="6.487">
        <ele>2987</ele>
        <time>2022-01-22T11:02:16Z</time>
      </trkpt>
      <trkpt lat="45.05652" lon="6.48704">
        <ele>2987</ele>
        <time>2022-01-22T11:02:28Z</time>
      </trkpt>
      <trkpt lat="45.05652" lon="6.48704">
        <ele>2986</ele>
        <time>2022-01-22T11:02:38Z</time>
      </trkpt>
      <trkpt lat="45.05652" lon="6.48699">
        <ele>2985</ele>
        <time>2022-01-22T11:02:41Z</time>
      </trkpt>
      <trkpt lat="45.05651" lon="6.48696">
        <ele>2985</ele>
        <time>2022-01-22T11:02:45Z</time>
      </trkpt>
      <trkpt lat="45.05651" lon="6.48692">
        <ele>2984</ele>
        <time>2022-01-22T11:02:50Z</time>
      </trkpt>
      <trkpt lat="45.05651" lon="6.48689">
        <ele>2983</ele>
        <time>2022-01-22T11:03:12Z</time>
      </trkpt>
      <trkpt lat="45.05652" lon="6.48689">
        <ele>2984</ele>
        <time>2022-01-22T11:03:30Z</time>
      </trkpt>
      <trkpt lat="45.05651" lon="6.48686">
        <ele>2984</ele>
        <time>2022-01-22T11:03:33Z</time>
      </trkpt>
      <trkpt lat="45.05651" lon="6.48684">
        <ele>2984</ele>
        <time>2022-01-22T11:03:41Z</time>
      </trkpt>
      <trkpt lat="45.05655" lon="6.48686">
        <ele>2985</ele>
        <time>2022-01-22T11:04:48Z</time>
      </trkpt>
      <trkpt lat="45.05655" lon="6.48689">
        <ele>2985</ele>
        <time>2022-01-22T11:04:54Z</time>
      </trkpt>
      <trkpt lat="45.05653" lon="6.48693">
        <ele>2985</ele>
        <time>2022-01-22T11:05:13Z</time>
      </trkpt>
      <trkpt lat="45.05652" lon="6.48695">
        <ele>2985</ele>
        <time>2022-01-22T11:05:28Z</time>
      </trkpt>
      <trkpt lat="45.05651" lon="6.48692">
        <ele>2985</ele>
        <time>2022-01-22T11:05:38Z</time>
      </trkpt>
      <trkpt lat="45.05652" lon="6.48689">
        <ele>2985</ele>
        <time>2022-01-22T11:05:45Z</time>
      </trkpt>
      <trkpt lat="45.05653" lon="6.4869">
        <ele>2985</ele>
        <time>2022-01-22T11:06:07Z</time>
      </trkpt>
      <trkpt lat="45.05655" lon="6.48692">
        <ele>2988</ele>
        <time>2022-01-22T11:06:09Z</time>
      </trkpt>
      <trkpt lat="45.05657" lon="6.48697">
        <ele>2990</ele>
        <time>2022-01-22T11:06:13Z</time>
      </trkpt>
      <trkpt lat="45.05657" lon="6.48696">
        <ele>2992</ele>
        <time>2022-01-22T11:06:30Z</time>
      </trkpt>
      <trkpt lat="45.05655" lon="6.48694">
        <ele>2991</ele>
        <time>2022-01-22T11:06:43Z</time>
      </trkpt>
      <trkpt lat="45.05653" lon="6.48689">
        <ele>2985</ele>
        <time>2022-01-22T11:07:40Z</time>
      </trkpt>
      <trkpt lat="45.05654" lon="6.48691">
        <ele>2983</ele>
        <time>2022-01-22T11:07:46Z</time>
      </trkpt>
      <trkpt lat="45.05656" lon="6.48688">
        <ele>2982</ele>
        <time>2022-01-22T11:08:23Z</time>
      </trkpt>
      <trkpt lat="45.05655" lon="6.48686">
        <ele>2982</ele>
        <time>2022-01-22T11:08:35Z</time>
      </trkpt>
      <trkpt lat="45.05652" lon="6.48687">
        <ele>2982</ele>
        <time>2022-01-22T11:08:59Z</time>
      </trkpt>
      <trkpt lat="45.05651" lon="6.48684">
        <ele>2983</ele>
        <time>2022-01-22T11:09:06Z</time>
      </trkpt>
      <trkpt lat="45.05654" lon="6.48684">
        <ele>2984</ele>
        <time>2022-01-22T11:09:16Z</time>
      </trkpt>
      <trkpt lat="45.05656" lon="6.48685">
        <ele>2984</ele>
        <time>2022-01-22T11:09:18Z</time>
      </trkpt>
      <trkpt lat="45.05658" lon="6.48688">
        <ele>2987</ele>
        <time>2022-01-22T11:09:33Z</time>
      </trkpt>
      <trkpt lat="45.05654" lon="6.48688">
        <ele>2988</ele>
        <time>2022-01-22T11:09:46Z</time>
      </trkpt>
      <trkpt lat="45.05656" lon="6.48691">
        <ele>2988</ele>
        <time>2022-01-22T11:09:48Z</time>
      </trkpt>
      <trkpt lat="45.05656" lon="6.48689">
        <ele>2989</ele>
        <time>2022-01-22T11:10:27Z</time>
      </trkpt>
      <trkpt lat="45.05651" lon="6.48687">
        <ele>2990</ele>
        <time>2022-01-22T11:10:38Z</time>
      </trkpt>
      <trkpt lat="45.05654" lon="6.48687">
        <ele>2991</ele>
        <time>2022-01-22T11:10:40Z</time>
      </trkpt>
      <trkpt lat="45.05655" lon="6.48689">
        <ele>2991</ele>
        <time>2022-01-22T11:11:19Z</time>
      </trkpt>
      <trkpt lat="45.05655" lon="6.48687">
        <ele>2990</ele>
        <time>2022-01-22T11:12:00Z</time>
      </trkpt>
      <trkpt lat="45.05652" lon="6.48688">
        <ele>2989</ele>
        <time>2022-01-22T11:12:04Z</time>
      </trkpt>
      <trkpt lat="45.05651" lon="6.48691">
        <ele>2987</ele>
        <time>2022-01-22T11:12:07Z</time>
      </trkpt>
      <trkpt lat="45.05653" lon="6.48693">
        <ele>2985</ele>
        <time>2022-01-22T11:12:16Z</time>
      </trkpt>
      <trkpt lat="45.05654" lon="6.48689">
        <ele>2985</ele>
        <time>2022-01-22T11:12:19Z</time>
      </trkpt>
      <trkpt lat="45.05654" lon="6.48689">
        <ele>2986</ele>
        <time>2022-01-22T11:12:48Z</time>
      </trkpt>
      <trkpt lat="45.05652" lon="6.48689">
        <ele>2987</ele>
        <time>2022-01-22T11:12:58Z</time>
      </trkpt>
      <trkpt lat="45.05652" lon="6.48691">
        <ele>2986</ele>
        <time>2022-01-22T11:13:12Z</time>
      </trkpt>
      <trkpt lat="45.05654" lon="6.48691">
        <ele>2986</ele>
        <time>2022-01-22T11:13:22Z</time>
      </trkpt>
      <trkpt lat="45.05655" lon="6.48689">
        <ele>2985</ele>
        <time>2022-01-22T11:13:25Z</time>
      </trkpt>
      <trkpt lat="45.05658" lon="6.48687">
        <ele>2985</ele>
        <time>2022-01-22T11:13:33Z</time>
      </trkpt>
      <trkpt lat="45.05659" lon="6.4869">
        <ele>2984</ele>
        <time>2022-01-22T11:13:37Z</time>
      </trkpt>
      <trkpt lat="45.05661" lon="6.48691">
        <ele>2983</ele>
        <time>2022-01-22T11:13:39Z</time>
      </trkpt>
      <trkpt lat="45.05663" lon="6.48692">
        <ele>2982</ele>
        <time>2022-01-22T11:14:34Z</time>
      </trkpt>
      <trkpt lat="45.05664" lon="6.4869">
        <ele>2982</ele>
        <time>2022-01-22T11:15:04Z</time>
      </trkpt>
      <trkpt lat="45.05667" lon="6.48686">
        <ele>2981</ele>
        <time>2022-01-22T11:15:06Z</time>
      </trkpt>
      <trkpt lat="45.05669" lon="6.48683">
        <ele>2981</ele>
        <time>2022-01-22T11:15:08Z</time>
      </trkpt>
      <trkpt lat="45.0567" lon="6.48681">
        <ele>2981</ele>
        <time>2022-01-22T11:15:11Z</time>
      </trkpt>
      <trkpt lat="45.05672" lon="6.48691">
        <ele>2979</ele>
        <time>2022-01-22T11:15:15Z</time>
      </trkpt>
      <trkpt lat="45.05675" lon="6.48691">
        <ele>2979</ele>
        <time>2022-01-22T11:15:27Z</time>
      </trkpt>
      <trkpt lat="45.05676" lon="6.48686">
        <ele>2980</ele>
        <time>2022-01-22T11:15:28Z</time>
      </trkpt>
      <trkpt lat="45.05679" lon="6.48673">
        <ele>2980</ele>
        <time>2022-01-22T11:15:32Z</time>
      </trkpt>
      <trkpt lat="45.05682" lon="6.48673">
        <ele>2978</ele>
        <time>2022-01-22T11:15:34Z</time>
      </trkpt>
      <trkpt lat="45.05685" lon="6.48665">
        <ele>2975</ele>
        <time>2022-01-22T11:15:36Z</time>
      </trkpt>
      <trkpt lat="45.05685" lon="6.4866">
        <ele>2974</ele>
        <time>2022-01-22T11:15:37Z</time>
      </trkpt>
      <trkpt lat="45.05687" lon="6.48659">
        <ele>2973</ele>
        <time>2022-01-22T11:15:38Z</time>
      </trkpt>
      <trkpt lat="45.0569" lon="6.48659">
        <ele>2971</ele>
        <time>2022-01-22T11:15:39Z</time>
      </trkpt>
      <trkpt lat="45.05693" lon="6.48657">
        <ele>2969</ele>
        <time>2022-01-22T11:15:40Z</time>
      </trkpt>
      <trkpt lat="45.05694" lon="6.48652">
        <ele>2967</ele>
        <time>2022-01-22T11:15:41Z</time>
      </trkpt>
      <trkpt lat="45.05695" lon="6.48649">
        <ele>2965</ele>
        <time>2022-01-22T11:15:42Z</time>
      </trkpt>
      <trkpt lat="45.05701" lon="6.48649">
        <ele>2960</ele>
        <time>2022-01-22T11:15:44Z</time>
      </trkpt>
      <trkpt lat="45.05705" lon="6.48646">
        <ele>2957</ele>
        <time>2022-01-22T11:15:45Z</time>
      </trkpt>
      <trkpt lat="45.05706" lon="6.4864">
        <ele>2955</ele>
        <time>2022-01-22T11:15:46Z</time>
      </trkpt>
      <trkpt lat="45.05709" lon="6.4864">
        <ele>2953</ele>
        <time>2022-01-22T11:15:47Z</time>
      </trkpt>
      <trkpt lat="45.05709" lon="6.48645">
        <ele>2950</ele>
        <time>2022-01-22T11:15:49Z</time>
      </trkpt>
      <trkpt lat="45.05713" lon="6.48644">
        <ele>2943</ele>
        <time>2022-01-22T11:15:51Z</time>
      </trkpt>
      <trkpt lat="45.05717" lon="6.48638">
        <ele>2942</ele>
        <time>2022-01-22T11:15:52Z</time>
      </trkpt>
      <trkpt lat="45.05717" lon="6.48632">
        <ele>2940</ele>
        <time>2022-01-22T11:15:53Z</time>
      </trkpt>
      <trkpt lat="45.05719" lon="6.48629">
        <ele>2938</ele>
        <time>2022-01-22T11:15:59Z</time>
      </trkpt>
      <trkpt lat="45.05722" lon="6.48627">
        <ele>2937</ele>
        <time>2022-01-22T11:16:02Z</time>
      </trkpt>
      <trkpt lat="45.05723" lon="6.48623">
        <ele>2937</ele>
        <time>2022-01-22T11:16:04Z</time>
      </trkpt>
      <trkpt lat="45.05725" lon="6.48621">
        <ele>2937</ele>
        <time>2022-01-22T11:16:15Z</time>
      </trkpt>
      <trkpt lat="45.05728" lon="6.4862">
        <ele>2937</ele>
        <time>2022-01-22T11:16:23Z</time>
      </trkpt>
      <trkpt lat="45.0573" lon="6.48619">
        <ele>2937</ele>
        <time>2022-01-22T11:16:29Z</time>
      </trkpt>
      <trkpt lat="45.05732" lon="6.48621">
        <ele>2937</ele>
        <time>2022-01-22T11:17:07Z</time>
      </trkpt>
      <trkpt lat="45.05735" lon="6.4862">
        <ele>2937</ele>
        <time>2022-01-22T11:17:17Z</time>
      </trkpt>
      <trkpt lat="45.05737" lon="6.48626">
        <ele>2937</ele>
        <time>2022-01-22T11:17:20Z</time>
      </trkpt>
      <trkpt lat="45.05748" lon="6.48646">
        <ele>2936</ele>
        <time>2022-01-22T11:17:24Z</time>
      </trkpt>
      <trkpt lat="45.05754" lon="6.48646">
        <ele>2936</ele>
        <time>2022-01-22T11:17:26Z</time>
      </trkpt>
      <trkpt lat="45.05762" lon="6.48627">
        <ele>2937</ele>
        <time>2022-01-22T11:17:29Z</time>
      </trkpt>
      <trkpt lat="45.05769" lon="6.4863">
        <ele>2937</ele>
        <time>2022-01-22T11:17:31Z</time>
      </trkpt>
      <trkpt lat="45.05774" lon="6.48631">
        <ele>2937</ele>
        <time>2022-01-22T11:17:32Z</time>
      </trkpt>
      <trkpt lat="45.05779" lon="6.48625">
        <ele>2935</ele>
        <time>2022-01-22T11:17:34Z</time>
      </trkpt>
      <trkpt lat="45.05783" lon="6.48625">
        <ele>2933</ele>
        <time>2022-01-22T11:17:35Z</time>
      </trkpt>
      <trkpt lat="45.05785" lon="6.48619">
        <ele>2931</ele>
        <time>2022-01-22T11:17:37Z</time>
      </trkpt>
      <trkpt lat="45.05787" lon="6.48618">
        <ele>2923</ele>
        <time>2022-01-22T11:17:43Z</time>
      </trkpt>
      <trkpt lat="45.05786" lon="6.48607">
        <ele>2915</ele>
        <time>2022-01-22T11:17:49Z</time>
      </trkpt>
      <trkpt lat="45.05787" lon="6.48595">
        <ele>2911</ele>
        <time>2022-01-22T11:17:52Z</time>
      </trkpt>
      <trkpt lat="45.05789" lon="6.4859">
        <ele>2910</ele>
        <time>2022-01-22T11:17:54Z</time>
      </trkpt>
      <trkpt lat="45.05794" lon="6.48594">
        <ele>2906</ele>
        <time>2022-01-22T11:18:00Z</time>
      </trkpt>
      <trkpt lat="45.058" lon="6.486">
        <ele>2904</ele>
        <time>2022-01-22T11:18:02Z</time>
      </trkpt>
      <trkpt lat="45.05804" lon="6.48602">
        <ele>2904</ele>
        <time>2022-01-22T11:18:04Z</time>
      </trkpt>
      <trkpt lat="45.05806" lon="6.48605">
        <ele>2901</ele>
        <time>2022-01-22T11:18:09Z</time>
      </trkpt>
      <trkpt lat="45.0581" lon="6.48612">
        <ele>2894</ele>
        <time>2022-01-22T11:18:15Z</time>
      </trkpt>
      <trkpt lat="45.05812" lon="6.48616">
        <ele>2893</ele>
        <time>2022-01-22T11:18:17Z</time>
      </trkpt>
      <trkpt lat="45.05812" lon="6.4862">
        <ele>2891</ele>
        <time>2022-01-22T11:18:21Z</time>
      </trkpt>
      <trkpt lat="45.05815" lon="6.48623">
        <ele>2890</ele>
        <time>2022-01-22T11:18:34Z</time>
      </trkpt>
      <trkpt lat="45.05812" lon="6.48625">
        <ele>2892</ele>
        <time>2022-01-22T11:19:13Z</time>
      </trkpt>
      <trkpt lat="45.05813" lon="6.48623">
        <ele>2891</ele>
        <time>2022-01-22T11:19:31Z</time>
      </trkpt>
      <trkpt lat="45.05817" lon="6.48629">
        <ele>2891</ele>
        <time>2022-01-22T11:19:33Z</time>
      </trkpt>
      <trkpt lat="45.05819" lon="6.48632">
        <ele>2891</ele>
        <time>2022-01-22T11:19:38Z</time>
      </trkpt>
      <trkpt lat="45.05823" lon="6.48629">
        <ele>2890</ele>
        <time>2022-01-22T11:19:44Z</time>
      </trkpt>
      <trkpt lat="45.05855" lon="6.48623">
        <ele>2887</ele>
        <time>2022-01-22T11:19:49Z</time>
      </trkpt>
      <trkpt lat="45.05869" lon="6.4861">
        <ele>2886</ele>
        <time>2022-01-22T11:19:52Z</time>
      </trkpt>
      <trkpt lat="45.05874" lon="6.48593">
        <ele>2886</ele>
        <time>2022-01-22T11:19:54Z</time>
      </trkpt>
      <trkpt lat="45.05879" lon="6.48578">
        <ele>2886</ele>
        <time>2022-01-22T11:19:56Z</time>
      </trkpt>
      <trkpt lat="45.0594" lon="6.48507">
        <ele>2878</ele>
        <time>2022-01-22T11:20:10Z</time>
      </trkpt>
      <trkpt lat="45.05944" lon="6.48493">
        <ele>2877</ele>
        <time>2022-01-22T11:20:12Z</time>
      </trkpt>
      <trkpt lat="45.05941" lon="6.48482">
        <ele>2868</ele>
        <time>2022-01-22T11:20:18Z</time>
      </trkpt>
      <trkpt lat="45.05945" lon="6.48487">
        <ele>2867</ele>
        <time>2022-01-22T11:20:23Z</time>
      </trkpt>
      <trkpt lat="45.05946" lon="6.48493">
        <ele>2863</ele>
        <time>2022-01-22T11:20:25Z</time>
      </trkpt>
      <trkpt lat="45.05949" lon="6.48489">
        <ele>2860</ele>
        <time>2022-01-22T11:20:34Z</time>
      </trkpt>
      <trkpt lat="45.05956" lon="6.48484">
        <ele>2857</ele>
        <time>2022-01-22T11:20:36Z</time>
      </trkpt>
      <trkpt lat="45.05981" lon="6.48441">
        <ele>2848</ele>
        <time>2022-01-22T11:20:44Z</time>
      </trkpt>
      <trkpt lat="45.05986" lon="6.48439">
        <ele>2847</ele>
        <time>2022-01-22T11:20:45Z</time>
      </trkpt>
      <trkpt lat="45.05993" lon="6.48428">
        <ele>2844</ele>
        <time>2022-01-22T11:20:47Z</time>
      </trkpt>
      <trkpt lat="45.06014" lon="6.48408">
        <ele>2839</ele>
        <time>2022-01-22T11:20:51Z</time>
      </trkpt>
      <trkpt lat="45.06071" lon="6.48294">
        <ele>2813</ele>
        <time>2022-01-22T11:21:07Z</time>
      </trkpt>
      <trkpt lat="45.06148" lon="6.48094">
        <ele>2787</ele>
        <time>2022-01-22T11:21:23Z</time>
      </trkpt>
      <trkpt lat="45.06157" lon="6.48083">
        <ele>2785</ele>
        <time>2022-01-22T11:21:24Z</time>
      </trkpt>
      <trkpt lat="45.06161" lon="6.48068">
        <ele>2784</ele>
        <time>2022-01-22T11:21:25Z</time>
      </trkpt>
      <trkpt lat="45.06169" lon="6.48054">
        <ele>2782</ele>
        <time>2022-01-22T11:21:26Z</time>
      </trkpt>
      <trkpt lat="45.06182" lon="6.48041">
        <ele>2777</ele>
        <time>2022-01-22T11:21:27Z</time>
      </trkpt>
      <trkpt lat="45.0619" lon="6.48036">
        <ele>2774</ele>
        <time>2022-01-22T11:21:28Z</time>
      </trkpt>
      <trkpt lat="45.06195" lon="6.48029">
        <ele>2771</ele>
        <time>2022-01-22T11:21:29Z</time>
      </trkpt>
      <trkpt lat="45.06201" lon="6.48021">
        <ele>2769</ele>
        <time>2022-01-22T11:21:30Z</time>
      </trkpt>
      <trkpt lat="45.06207" lon="6.48012">
        <ele>2766</ele>
        <time>2022-01-22T11:21:31Z</time>
      </trkpt>
      <trkpt lat="45.06213" lon="6.48001">
        <ele>2764</ele>
        <time>2022-01-22T11:21:32Z</time>
      </trkpt>
      <trkpt lat="45.06219" lon="6.47991">
        <ele>2761</ele>
        <time>2022-01-22T11:21:33Z</time>
      </trkpt>
      <trkpt lat="45.06225" lon="6.47981">
        <ele>2759</ele>
        <time>2022-01-22T11:21:34Z</time>
      </trkpt>
      <trkpt lat="45.06232" lon="6.47972">
        <ele>2757</ele>
        <time>2022-01-22T11:21:35Z</time>
      </trkpt>
      <trkpt lat="45.0624" lon="6.47965">
        <ele>2754</ele>
        <time>2022-01-22T11:21:36Z</time>
      </trkpt>
      <trkpt lat="45.06247" lon="6.47956">
        <ele>2751</ele>
        <time>2022-01-22T11:21:37Z</time>
      </trkpt>
      <trkpt lat="45.06249" lon="6.47948">
        <ele>2748</ele>
        <time>2022-01-22T11:21:38Z</time>
      </trkpt>
      <trkpt lat="45.06247" lon="6.47947">
        <ele>2737</ele>
        <time>2022-01-22T11:21:44Z</time>
      </trkpt>
      <trkpt lat="45.0622" lon="6.4794">
        <ele>2718</ele>
        <time>2022-01-22T11:22:06Z</time>
      </trkpt>
      <trkpt lat="45.06199" lon="6.47952">
        <ele>2693</ele>
        <time>2022-01-22T11:22:37Z</time>
      </trkpt>
      <trkpt lat="45.06199" lon="6.47967">
        <ele>2667</ele>
        <time>2022-01-22T11:23:13Z</time>
      </trkpt>
      <trkpt lat="45.06196" lon="6.47971">
        <ele>2651</ele>
        <time>2022-01-22T11:23:32Z</time>
      </trkpt>
      <trkpt lat="45.06217" lon="6.47982">
        <ele>2621</ele>
        <time>2022-01-22T11:23:49Z</time>
      </trkpt>
      <trkpt lat="45.06224" lon="6.47974">
        <ele>2617</ele>
        <time>2022-01-22T11:23:54Z</time>
      </trkpt>
      <trkpt lat="45.06226" lon="6.47981">
        <ele>2613</ele>
        <time>2022-01-22T11:24:08Z</time>
      </trkpt>
      <trkpt lat="45.06215" lon="6.47981">
        <ele>2601</ele>
        <time>2022-01-22T11:24:40Z</time>
      </trkpt>
      <trkpt lat="45.06203" lon="6.47981">
        <ele>2590</ele>
        <time>2022-01-22T11:25:03Z</time>
      </trkpt>
      <trkpt lat="45.06206" lon="6.47994">
        <ele>2581</ele>
        <time>2022-01-22T11:25:50Z</time>
      </trkpt>
      <trkpt lat="45.06198" lon="6.47987">
        <ele>2574</ele>
        <time>2022-01-22T11:26:16Z</time>
      </trkpt>
      <trkpt lat="45.06199" lon="6.48">
        <ele>2568</ele>
        <time>2022-01-22T11:27:19Z</time>
      </trkpt>
      <trkpt lat="45.06201" lon="6.47998">
        <ele>2564</ele>
        <time>2022-01-22T11:27:45Z</time>
      </trkpt>
      <trkpt lat="45.06196" lon="6.47999">
        <ele>2564</ele>
        <time>2022-01-22T11:28:00Z</time>
      </trkpt>
      <trkpt lat="45.06187" lon="6.47992">
        <ele>2552</ele>
        <time>2022-01-22T11:29:43Z</time>
      </trkpt>
      <trkpt lat="45.06184" lon="6.47986">
        <ele>2549</ele>
        <time>2022-01-22T11:29:46Z</time>
      </trkpt>
      <trkpt lat="45.06185" lon="6.4799">
        <ele>2546</ele>
        <time>2022-01-22T11:29:52Z</time>
      </trkpt>
      <trkpt lat="45.0619" lon="6.47994">
        <ele>2546</ele>
        <time>2022-01-22T11:29:54Z</time>
      </trkpt>
      <trkpt lat="45.06194" lon="6.47992">
        <ele>2547</ele>
        <time>2022-01-22T11:29:55Z</time>
      </trkpt>
      <trkpt lat="45.06194" lon="6.47996">
        <ele>2547</ele>
        <time>2022-01-22T11:29:57Z</time>
      </trkpt>
      <trkpt lat="45.06193" lon="6.47994">
        <ele>2543</ele>
        <time>2022-01-22T11:31:05Z</time>
      </trkpt>
      <trkpt lat="45.06191" lon="6.47999">
        <ele>2544</ele>
        <time>2022-01-22T11:31:16Z</time>
      </trkpt>
      <trkpt lat="45.06192" lon="6.48001">
        <ele>2545</ele>
        <time>2022-01-22T11:33:48Z</time>
      </trkpt>
      <trkpt lat="45.0619" lon="6.48005">
        <ele>2545</ele>
        <time>2022-01-22T11:34:35Z</time>
      </trkpt>
      <trkpt lat="45.06196" lon="6.47998">
        <ele>2544</ele>
        <time>2022-01-22T11:37:19Z</time>
      </trkpt>
      <trkpt lat="45.06218" lon="6.47989">
        <ele>2546</ele>
        <time>2022-01-22T11:37:55Z</time>
      </trkpt>
      <trkpt lat="45.06238" lon="6.47978">
        <ele>2549</ele>
        <time>2022-01-22T11:38:26Z</time>
      </trkpt>
      <trkpt lat="45.06247" lon="6.47971">
        <ele>2551</ele>
        <time>2022-01-22T11:38:43Z</time>
      </trkpt>
      <trkpt lat="45.0627" lon="6.47955">
        <ele>2559</ele>
        <time>2022-01-22T11:39:19Z</time>
      </trkpt>
      <trkpt lat="45.06292" lon="6.47947">
        <ele>2564</ele>
        <time>2022-01-22T11:39:53Z</time>
      </trkpt>
      <trkpt lat="45.06302" lon="6.47938">
        <ele>2565</ele>
        <time>2022-01-22T11:40:24Z</time>
      </trkpt>
      <trkpt lat="45.06301" lon="6.47937">
        <ele>2564</ele>
        <time>2022-01-22T11:40:41Z</time>
      </trkpt>
      <trkpt lat="45.0631" lon="6.47943">
        <ele>2566</ele>
        <time>2022-01-22T11:40:53Z</time>
      </trkpt>
      <trkpt lat="45.06324" lon="6.47962">
        <ele>2569</ele>
        <time>2022-01-22T11:41:24Z</time>
      </trkpt>
      <trkpt lat="45.06323" lon="6.47981">
        <ele>2572</ele>
        <time>2022-01-22T11:41:58Z</time>
      </trkpt>
      <trkpt lat="45.06323" lon="6.47994">
        <ele>2573</ele>
        <time>2022-01-22T11:42:02Z</time>
      </trkpt>
      <trkpt lat="45.0634" lon="6.48013">
        <ele>2577</ele>
        <time>2022-01-22T11:42:37Z</time>
      </trkpt>
      <trkpt lat="45.06347" lon="6.48022">
        <ele>2579</ele>
        <time>2022-01-22T11:43:00Z</time>
      </trkpt>
      <trkpt lat="45.06358" lon="6.48021">
        <ele>2582</ele>
        <time>2022-01-22T11:43:26Z</time>
      </trkpt>
      <trkpt lat="45.06368" lon="6.48017">
        <ele>2585</ele>
        <time>2022-01-22T11:43:48Z</time>
      </trkpt>
      <trkpt lat="45.06378" lon="6.48013">
        <ele>2589</ele>
        <time>2022-01-22T11:44:10Z</time>
      </trkpt>
      <trkpt lat="45.06388" lon="6.48014">
        <ele>2593</ele>
        <time>2022-01-22T11:44:32Z</time>
      </trkpt>
      <trkpt lat="45.06399" lon="6.48017">
        <ele>2597</ele>
        <time>2022-01-22T11:44:55Z</time>
      </trkpt>
      <trkpt lat="45.06421" lon="6.48018">
        <ele>2606</ele>
        <time>2022-01-22T11:45:42Z</time>
      </trkpt>
      <trkpt lat="45.06431" lon="6.48023">
        <ele>2610</ele>
        <time>2022-01-22T11:46:02Z</time>
      </trkpt>
      <trkpt lat="45.06442" lon="6.48025">
        <ele>2614</ele>
        <time>2022-01-22T11:46:29Z</time>
      </trkpt>
      <trkpt lat="45.06463" lon="6.48031">
        <ele>2615</ele>
        <time>2022-01-22T11:47:08Z</time>
      </trkpt>
      <trkpt lat="45.06483" lon="6.48044">
        <ele>2616</ele>
        <time>2022-01-22T11:47:55Z</time>
      </trkpt>
      <trkpt lat="45.06503" lon="6.48056">
        <ele>2618</ele>
        <time>2022-01-22T11:48:41Z</time>
      </trkpt>
      <trkpt lat="45.06514" lon="6.48063">
        <ele>2621</ele>
        <time>2022-01-22T11:49:19Z</time>
      </trkpt>
      <trkpt lat="45.06523" lon="6.48063">
        <ele>2627</ele>
        <time>2022-01-22T11:49:32Z</time>
      </trkpt>
      <trkpt lat="45.06524" lon="6.48065">
        <ele>2633</ele>
        <time>2022-01-22T11:50:23Z</time>
      </trkpt>
      <trkpt lat="45.06529" lon="6.48065">
        <ele>2636</ele>
        <time>2022-01-22T11:51:45Z</time>
      </trkpt>
      <trkpt lat="45.06527" lon="6.48068">
        <ele>2638</ele>
        <time>2022-01-22T11:51:52Z</time>
      </trkpt>
      <trkpt lat="45.06525" lon="6.48068">
        <ele>2639</ele>
        <time>2022-01-22T11:51:55Z</time>
      </trkpt>
      <trkpt lat="45.0652" lon="6.48079">
        <ele>2639</ele>
        <time>2022-01-22T11:52:15Z</time>
      </trkpt>
      <trkpt lat="45.0651" lon="6.48088">
        <ele>2640</ele>
        <time>2022-01-22T11:52:37Z</time>
      </trkpt>
      <trkpt lat="45.06516" lon="6.48094">
        <ele>2641</ele>
        <time>2022-01-22T11:53:18Z</time>
      </trkpt>
      <trkpt lat="45.06523" lon="6.48104">
        <ele>2640</ele>
        <time>2022-01-22T11:53:44Z</time>
      </trkpt>
      <trkpt lat="45.06513" lon="6.48111">
        <ele>2647</ele>
        <time>2022-01-22T11:54:22Z</time>
      </trkpt>
      <trkpt lat="45.06503" lon="6.48116">
        <ele>2659</ele>
        <time>2022-01-22T11:54:56Z</time>
      </trkpt>
      <trkpt lat="45.06494" lon="6.48125">
        <ele>2664</ele>
        <time>2022-01-22T11:55:21Z</time>
      </trkpt>
      <trkpt lat="45.06494" lon="6.48127">
        <ele>2663</ele>
        <time>2022-01-22T11:55:53Z</time>
      </trkpt>
      <trkpt lat="45.06496" lon="6.48128">
        <ele>2663</ele>
        <time>2022-01-22T11:55:55Z</time>
      </trkpt>
      <trkpt lat="45.06478" lon="6.48141">
        <ele>2665</ele>
        <time>2022-01-22T11:56:35Z</time>
      </trkpt>
      <trkpt lat="45.0647" lon="6.48146">
        <ele>2675</ele>
        <time>2022-01-22T11:56:59Z</time>
      </trkpt>
      <trkpt lat="45.06463" lon="6.48158">
        <ele>2679</ele>
        <time>2022-01-22T11:57:20Z</time>
      </trkpt>
      <trkpt lat="45.06462" lon="6.48166">
        <ele>2681</ele>
        <time>2022-01-22T11:58:13Z</time>
      </trkpt>
      <trkpt lat="45.06456" lon="6.4817">
        <ele>2683</ele>
        <time>2022-01-22T11:58:35Z</time>
      </trkpt>
      <trkpt lat="45.06447" lon="6.48199">
        <ele>2687</ele>
        <time>2022-01-22T11:59:08Z</time>
      </trkpt>
      <trkpt lat="45.06442" lon="6.48213">
        <ele>2689</ele>
        <time>2022-01-22T11:59:25Z</time>
      </trkpt>
      <trkpt lat="45.06451" lon="6.48207">
        <ele>2691</ele>
        <time>2022-01-22T11:59:53Z</time>
      </trkpt>
      <trkpt lat="45.06464" lon="6.48214">
        <ele>2692</ele>
        <time>2022-01-22T12:00:08Z</time>
      </trkpt>
      <trkpt lat="45.06459" lon="6.48226">
        <ele>2689</ele>
        <time>2022-01-22T12:01:00Z</time>
      </trkpt>
      <trkpt lat="45.06466" lon="6.48237">
        <ele>2688</ele>
        <time>2022-01-22T12:01:21Z</time>
      </trkpt>
      <trkpt lat="45.06486" lon="6.48245">
        <ele>2688</ele>
        <time>2022-01-22T12:02:07Z</time>
      </trkpt>
      <trkpt lat="45.06497" lon="6.48244">
        <ele>2688</ele>
        <time>2022-01-22T12:02:31Z</time>
      </trkpt>
      <trkpt lat="45.06508" lon="6.48242">
        <ele>2691</ele>
        <time>2022-01-22T12:02:58Z</time>
      </trkpt>
      <trkpt lat="45.06503" lon="6.48253">
        <ele>2700</ele>
        <time>2022-01-22T12:03:38Z</time>
      </trkpt>
      <trkpt lat="45.06501" lon="6.48254">
        <ele>2706</ele>
        <time>2022-01-22T12:03:50Z</time>
      </trkpt>
      <trkpt lat="45.06492" lon="6.48258">
        <ele>2703</ele>
        <time>2022-01-22T12:03:58Z</time>
      </trkpt>
      <trkpt lat="45.06486" lon="6.48271">
        <ele>2704</ele>
        <time>2022-01-22T12:04:15Z</time>
      </trkpt>
      <trkpt lat="45.06481" lon="6.48285">
        <ele>2709</ele>
        <time>2022-01-22T12:04:29Z</time>
      </trkpt>
      <trkpt lat="45.06479" lon="6.48305">
        <ele>2713</ele>
        <time>2022-01-22T12:04:49Z</time>
      </trkpt>
      <trkpt lat="45.06488" lon="6.48296">
        <ele>2710</ele>
        <time>2022-01-22T12:04:55Z</time>
      </trkpt>
      <trkpt lat="45.06504" lon="6.48278">
        <ele>2713</ele>
        <time>2022-01-22T12:05:13Z</time>
      </trkpt>
      <trkpt lat="45.06505" lon="6.48276">
        <ele>2716</ele>
        <time>2022-01-22T12:05:15Z</time>
      </trkpt>
      <trkpt lat="45.06506" lon="6.4829">
        <ele>2721</ele>
        <time>2022-01-22T12:05:42Z</time>
      </trkpt>
      <trkpt lat="45.06492" lon="6.48316">
        <ele>2725</ele>
        <time>2022-01-22T12:06:18Z</time>
      </trkpt>
      <trkpt lat="45.06479" lon="6.48343">
        <ele>2725</ele>
        <time>2022-01-22T12:06:55Z</time>
      </trkpt>
      <trkpt lat="45.06478" lon="6.48344">
        <ele>2725</ele>
        <time>2022-01-22T12:07:21Z</time>
      </trkpt>
      <trkpt lat="45.06485" lon="6.48353">
        <ele>2724</ele>
        <time>2022-01-22T12:07:39Z</time>
      </trkpt>
      <trkpt lat="45.06505" lon="6.4834">
        <ele>2725</ele>
        <time>2022-01-22T12:08:31Z</time>
      </trkpt>
      <trkpt lat="45.06515" lon="6.48333">
        <ele>2726</ele>
        <time>2022-01-22T12:08:50Z</time>
      </trkpt>
      <trkpt lat="45.06522" lon="6.48323">
        <ele>2729</ele>
        <time>2022-01-22T12:09:10Z</time>
      </trkpt>
      <trkpt lat="45.06535" lon="6.48322">
        <ele>2732</ele>
        <time>2022-01-22T12:09:36Z</time>
      </trkpt>
      <trkpt lat="45.0653" lon="6.48333">
        <ele>2735</ele>
        <time>2022-01-22T12:10:23Z</time>
      </trkpt>
      <trkpt lat="45.06521" lon="6.48339">
        <ele>2738</ele>
        <time>2022-01-22T12:10:50Z</time>
      </trkpt>
      <trkpt lat="45.0651" lon="6.4837">
        <ele>2737</ele>
        <time>2022-01-22T12:11:20Z</time>
      </trkpt>
      <trkpt lat="45.06507" lon="6.48387">
        <ele>2736</ele>
        <time>2022-01-22T12:11:54Z</time>
      </trkpt>
      <trkpt lat="45.06515" lon="6.48383">
        <ele>2739</ele>
        <time>2022-01-22T12:12:24Z</time>
      </trkpt>
      <trkpt lat="45.06524" lon="6.48353">
        <ele>2754</ele>
        <time>2022-01-22T12:12:57Z</time>
      </trkpt>
      <trkpt lat="45.06533" lon="6.48345">
        <ele>2767</ele>
        <time>2022-01-22T12:13:08Z</time>
      </trkpt>
      <trkpt lat="45.06541" lon="6.48354">
        <ele>2776</ele>
        <time>2022-01-22T12:14:10Z</time>
      </trkpt>
      <trkpt lat="45.06552" lon="6.48351">
        <ele>2776</ele>
        <time>2022-01-22T12:14:35Z</time>
      </trkpt>
      <trkpt lat="45.0656" lon="6.48361">
        <ele>2775</ele>
        <time>2022-01-22T12:15:08Z</time>
      </trkpt>
      <trkpt lat="45.06571" lon="6.4836">
        <ele>2774</ele>
        <time>2022-01-22T12:15:32Z</time>
      </trkpt>
      <trkpt lat="45.06563" lon="6.48365">
        <ele>2776</ele>
        <time>2022-01-22T12:16:31Z</time>
      </trkpt>
      <trkpt lat="45.06572" lon="6.48369">
        <ele>2779</ele>
        <time>2022-01-22T12:17:22Z</time>
      </trkpt>
      <trkpt lat="45.06581" lon="6.48378">
        <ele>2778</ele>
        <time>2022-01-22T12:17:43Z</time>
      </trkpt>
      <trkpt lat="45.06583" lon="6.48379">
        <ele>2780</ele>
        <time>2022-01-22T12:18:19Z</time>
      </trkpt>
      <trkpt lat="45.06586" lon="6.48397">
        <ele>2769</ele>
        <time>2022-01-22T12:19:17Z</time>
      </trkpt>
      <trkpt lat="45.06578" lon="6.48403">
        <ele>2761</ele>
        <time>2022-01-22T12:20:03Z</time>
      </trkpt>
      <trkpt lat="45.06569" lon="6.48391">
        <ele>2777</ele>
        <time>2022-01-22T12:20:27Z</time>
      </trkpt>
      <trkpt lat="45.06577" lon="6.48403">
        <ele>2788</ele>
        <time>2022-01-22T12:20:51Z</time>
      </trkpt>
      <trkpt lat="45.06585" lon="6.48407">
        <ele>2789</ele>
        <time>2022-01-22T12:21:02Z</time>
      </trkpt>
      <trkpt lat="45.06591" lon="6.4842">
        <ele>2791</ele>
        <time>2022-01-22T12:21:38Z</time>
      </trkpt>
      <trkpt lat="45.06582" lon="6.48424">
        <ele>2794</ele>
        <time>2022-01-22T12:22:07Z</time>
      </trkpt>
      <trkpt lat="45.06578" lon="6.48438">
        <ele>2798</ele>
        <time>2022-01-22T12:23:25Z</time>
      </trkpt>
      <trkpt lat="45.06585" lon="6.48444">
        <ele>2800</ele>
        <time>2022-01-22T12:23:58Z</time>
      </trkpt>
      <trkpt lat="45.06595" lon="6.48446">
        <ele>2801</ele>
        <time>2022-01-22T12:24:20Z</time>
      </trkpt>
      <trkpt lat="45.06589" lon="6.48431">
        <ele>2814</ele>
        <time>2022-01-22T12:24:42Z</time>
      </trkpt>
      <trkpt lat="45.06587" lon="6.48426">
        <ele>2820</ele>
        <time>2022-01-22T12:24:44Z</time>
      </trkpt>
      <trkpt lat="45.06585" lon="6.48431">
        <ele>2821</ele>
        <time>2022-01-22T12:24:45Z</time>
      </trkpt>
      <trkpt lat="45.06595" lon="6.48444">
        <ele>2824</ele>
        <time>2022-01-22T12:24:49Z</time>
      </trkpt>
      <trkpt lat="45.06592" lon="6.48441">
        <ele>2824</ele>
        <time>2022-01-22T12:24:53Z</time>
      </trkpt>
      <trkpt lat="45.06581" lon="6.48451">
        <ele>2820</ele>
        <time>2022-01-22T12:25:17Z</time>
      </trkpt>
      <trkpt lat="45.06579" lon="6.48447">
        <ele>2818</ele>
        <time>2022-01-22T12:25:27Z</time>
      </trkpt>
      <trkpt lat="45.06577" lon="6.48449">
        <ele>2816</ele>
        <time>2022-01-22T12:25:29Z</time>
      </trkpt>
      <trkpt lat="45.06596" lon="6.48451">
        <ele>2813</ele>
        <time>2022-01-22T12:26:17Z</time>
      </trkpt>
      <trkpt lat="45.06608" lon="6.48454">
        <ele>2814</ele>
        <time>2022-01-22T12:26:45Z</time>
      </trkpt>
      <trkpt lat="45.06618" lon="6.48445">
        <ele>2820</ele>
        <time>2022-01-22T12:27:12Z</time>
      </trkpt>
      <trkpt lat="45.06611" lon="6.48454">
        <ele>2825</ele>
        <time>2022-01-22T12:27:33Z</time>
      </trkpt>
      <trkpt lat="45.06606" lon="6.48468">
        <ele>2828</ele>
        <time>2022-01-22T12:27:50Z</time>
      </trkpt>
      <trkpt lat="45.06588" lon="6.48485">
        <ele>2831</ele>
        <time>2022-01-22T12:28:46Z</time>
      </trkpt>
      <trkpt lat="45.06608" lon="6.4848">
        <ele>2839</ele>
        <time>2022-01-22T12:29:31Z</time>
      </trkpt>
      <trkpt lat="45.0661" lon="6.4848">
        <ele>2843</ele>
        <time>2022-01-22T12:29:34Z</time>
      </trkpt>
      <trkpt lat="45.06618" lon="6.48488">
        <ele>2847</ele>
        <time>2022-01-22T12:29:59Z</time>
      </trkpt>
      <trkpt lat="45.06621" lon="6.48487">
        <ele>2849</ele>
        <time>2022-01-22T12:30:02Z</time>
      </trkpt>
      <trkpt lat="45.066" lon="6.48482">
        <ele>2852</ele>
        <time>2022-01-22T12:30:21Z</time>
      </trkpt>
      <trkpt lat="45.06593" lon="6.48493">
        <ele>2854</ele>
        <time>2022-01-22T12:30:53Z</time>
      </trkpt>
      <trkpt lat="45.06583" lon="6.48493">
        <ele>2856</ele>
        <time>2022-01-22T12:35:21Z</time>
      </trkpt>
      <trkpt lat="45.06584" lon="6.48489">
        <ele>2857</ele>
        <time>2022-01-22T12:36:05Z</time>
      </trkpt>
      <trkpt lat="45.06582" lon="6.48485">
        <ele>2859</ele>
        <time>2022-01-22T12:36:12Z</time>
      </trkpt>
      <trkpt lat="45.06583" lon="6.48482">
        <ele>2860</ele>
        <time>2022-01-22T12:37:02Z</time>
      </trkpt>
      <trkpt lat="45.06591" lon="6.48492">
        <ele>2860</ele>
        <time>2022-01-22T12:37:42Z</time>
      </trkpt>
      <trkpt lat="45.06588" lon="6.48497">
        <ele>2861</ele>
        <time>2022-01-22T12:40:36Z</time>
      </trkpt>
      <trkpt lat="45.06591" lon="6.48507">
        <ele>2862</ele>
        <time>2022-01-22T12:40:40Z</time>
      </trkpt>
      <trkpt lat="45.06592" lon="6.48507">
        <ele>2861</ele>
        <time>2022-01-22T12:40:43Z</time>
      </trkpt>
      <trkpt lat="45.06593" lon="6.48502">
        <ele>2860</ele>
        <time>2022-01-22T12:40:45Z</time>
      </trkpt>
      <trkpt lat="45.06587" lon="6.48491">
        <ele>2855</ele>
        <time>2022-01-22T12:40:54Z</time>
      </trkpt>
      <trkpt lat="45.06579" lon="6.4848">
        <ele>2854</ele>
        <time>2022-01-22T12:40:59Z</time>
      </trkpt>
      <trkpt lat="45.0659" lon="6.48492">
        <ele>2854</ele>
        <time>2022-01-22T12:41:15Z</time>
      </trkpt>
      <trkpt lat="45.06592" lon="6.48497">
        <ele>2854</ele>
        <time>2022-01-22T12:41:30Z</time>
      </trkpt>
      <trkpt lat="45.06594" lon="6.48495">
        <ele>2855</ele>
        <time>2022-01-22T12:41:35Z</time>
      </trkpt>
      <trkpt lat="45.06593" lon="6.48508">
        <ele>2863</ele>
        <time>2022-01-22T12:42:35Z</time>
      </trkpt>
      <trkpt lat="45.06589" lon="6.48512">
        <ele>2867</ele>
        <time>2022-01-22T12:43:31Z</time>
      </trkpt>
      <trkpt lat="45.06591" lon="6.48511">
        <ele>2870</ele>
        <time>2022-01-22T12:43:52Z</time>
      </trkpt>
      <trkpt lat="45.06597" lon="6.48516">
        <ele>2881</ele>
        <time>2022-01-22T12:44:02Z</time>
      </trkpt>
      <trkpt lat="45.06596" lon="6.48519">
        <ele>2891</ele>
        <time>2022-01-22T12:45:17Z</time>
      </trkpt>
      <trkpt lat="45.06586" lon="6.48523">
        <ele>2899</ele>
        <time>2022-01-22T12:47:54Z</time>
      </trkpt>
      <trkpt lat="45.06585" lon="6.48532">
        <ele>2906</ele>
        <time>2022-01-22T12:49:19Z</time>
      </trkpt>
      <trkpt lat="45.0659" lon="6.48531">
        <ele>2907</ele>
        <time>2022-01-22T12:49:22Z</time>
      </trkpt>
      <trkpt lat="45.06593" lon="6.48532">
        <ele>2907</ele>
        <time>2022-01-22T12:49:26Z</time>
      </trkpt>
      <trkpt lat="45.06594" lon="6.48534">
        <ele>2908</ele>
        <time>2022-01-22T12:50:09Z</time>
      </trkpt>
      <trkpt lat="45.06594" lon="6.48539">
        <ele>2908</ele>
        <time>2022-01-22T12:50:11Z</time>
      </trkpt>
      <trkpt lat="45.06591" lon="6.48552">
        <ele>2914</ele>
        <time>2022-01-22T12:52:37Z</time>
      </trkpt>
      <trkpt lat="45.06592" lon="6.48547">
        <ele>2918</ele>
        <time>2022-01-22T12:52:39Z</time>
      </trkpt>
      <trkpt lat="45.06593" lon="6.48558">
        <ele>2918</ele>
        <time>2022-01-22T12:52:45Z</time>
      </trkpt>
      <trkpt lat="45.06596" lon="6.48562">
        <ele>2917</ele>
        <time>2022-01-22T12:52:58Z</time>
      </trkpt>
      <trkpt lat="45.06599" lon="6.48566">
        <ele>2917</ele>
        <time>2022-01-22T12:53:01Z</time>
      </trkpt>
      <trkpt lat="45.06606" lon="6.48565">
        <ele>2917</ele>
        <time>2022-01-22T12:53:08Z</time>
      </trkpt>
      <trkpt lat="45.06599" lon="6.48553">
        <ele>2919</ele>
        <time>2022-01-22T12:53:11Z</time>
      </trkpt>
      <trkpt lat="45.06596" lon="6.48554">
        <ele>2919</ele>
        <time>2022-01-22T12:53:14Z</time>
      </trkpt>
      <trkpt lat="45.06594" lon="6.4855">
        <ele>2920</ele>
        <time>2022-01-22T12:53:25Z</time>
      </trkpt>
      <trkpt lat="45.06597" lon="6.4855">
        <ele>2920</ele>
        <time>2022-01-22T12:53:27Z</time>
      </trkpt>
      <trkpt lat="45.06598" lon="6.48545">
        <ele>2923</ele>
        <time>2022-01-22T12:53:29Z</time>
      </trkpt>
      <trkpt lat="45.06596" lon="6.48543">
        <ele>2925</ele>
        <time>2022-01-22T12:53:34Z</time>
      </trkpt>
      <trkpt lat="45.06592" lon="6.48549">
        <ele>2927</ele>
        <time>2022-01-22T12:53:42Z</time>
      </trkpt>
      <trkpt lat="45.06595" lon="6.48551">
        <ele>2927</ele>
        <time>2022-01-22T12:53:45Z</time>
      </trkpt>
      <trkpt lat="45.06594" lon="6.48565">
        <ele>2931</ele>
        <time>2022-01-22T12:55:31Z</time>
      </trkpt>
      <trkpt lat="45.06592" lon="6.48564">
        <ele>2933</ele>
        <time>2022-01-22T12:55:43Z</time>
      </trkpt>
      <trkpt lat="45.06596" lon="6.48565">
        <ele>2934</ele>
        <time>2022-01-22T12:57:58Z</time>
      </trkpt>
      <trkpt lat="45.06596" lon="6.4857">
        <ele>2935</ele>
        <time>2022-01-22T12:58:08Z</time>
      </trkpt>
      <trkpt lat="45.06604" lon="6.48576">
        <ele>2935</ele>
        <time>2022-01-22T12:59:14Z</time>
      </trkpt>
      <trkpt lat="45.06606" lon="6.48582">
        <ele>2935</ele>
        <time>2022-01-22T13:00:24Z</time>
      </trkpt>
      <trkpt lat="45.06604" lon="6.48584">
        <ele>2935</ele>
        <time>2022-01-22T13:01:30Z</time>
      </trkpt>
      <trkpt lat="45.06601" lon="6.48581">
        <ele>2935</ele>
        <time>2022-01-22T13:01:31Z</time>
      </trkpt>
      <trkpt lat="45.06598" lon="6.48578">
        <ele>2940</ele>
        <time>2022-01-22T13:01:33Z</time>
      </trkpt>
      <trkpt lat="45.06596" lon="6.48574">
        <ele>2942</ele>
        <time>2022-01-22T13:01:35Z</time>
      </trkpt>
      <trkpt lat="45.06606" lon="6.48582">
        <ele>2949</ele>
        <time>2022-01-22T13:01:43Z</time>
      </trkpt>
      <trkpt lat="45.06598" lon="6.48579">
        <ele>2950</ele>
        <time>2022-01-22T13:02:51Z</time>
      </trkpt>
      <trkpt lat="45.06606" lon="6.48588">
        <ele>2949</ele>
        <time>2022-01-22T13:03:47Z</time>
      </trkpt>
      <trkpt lat="45.06606" lon="6.48581">
        <ele>2946</ele>
        <time>2022-01-22T13:05:40Z</time>
      </trkpt>
      <trkpt lat="45.06603" lon="6.48583">
        <ele>2948</ele>
        <time>2022-01-22T13:05:43Z</time>
      </trkpt>
      <trkpt lat="45.06609" lon="6.48589">
        <ele>2945</ele>
        <time>2022-01-22T13:06:46Z</time>
      </trkpt>
      <trkpt lat="45.06618" lon="6.48594">
        <ele>2942</ele>
        <time>2022-01-22T13:07:15Z</time>
      </trkpt>
      <trkpt lat="45.06619" lon="6.48595">
        <ele>2939</ele>
        <time>2022-01-22T13:07:21Z</time>
      </trkpt>
      <trkpt lat="45.06609" lon="6.48589">
        <ele>2934</ele>
        <time>2022-01-22T13:08:00Z</time>
      </trkpt>
      <trkpt lat="45.06612" lon="6.48597">
        <ele>2936</ele>
        <time>2022-01-22T13:08:47Z</time>
      </trkpt>
      <trkpt lat="45.06612" lon="6.4859">
        <ele>2939</ele>
        <time>2022-01-22T13:09:44Z</time>
      </trkpt>
      <trkpt lat="45.0661" lon="6.48591">
        <ele>2940</ele>
        <time>2022-01-22T13:10:01Z</time>
      </trkpt>
      <trkpt lat="45.06616" lon="6.48595">
        <ele>2945</ele>
        <time>2022-01-22T13:12:29Z</time>
      </trkpt>
      <trkpt lat="45.06626" lon="6.48597">
        <ele>2946</ele>
        <time>2022-01-22T13:13:19Z</time>
      </trkpt>
      <trkpt lat="45.06639" lon="6.48606">
        <ele>2949</ele>
        <time>2022-01-22T13:14:16Z</time>
      </trkpt>
      <trkpt lat="45.06636" lon="6.4861">
        <ele>2955</ele>
        <time>2022-01-22T13:14:37Z</time>
      </trkpt>
      <trkpt lat="45.06634" lon="6.48609">
        <ele>2956</ele>
        <time>2022-01-22T13:14:38Z</time>
      </trkpt>
      <trkpt lat="45.06628" lon="6.48619">
        <ele>2958</ele>
        <time>2022-01-22T13:15:07Z</time>
      </trkpt>
      <trkpt lat="45.06623" lon="6.48626">
        <ele>2962</ele>
        <time>2022-01-22T13:15:37Z</time>
      </trkpt>
      <trkpt lat="45.06633" lon="6.48626">
        <ele>2965</ele>
        <time>2022-01-22T13:16:21Z</time>
      </trkpt>
      <trkpt lat="45.06628" lon="6.48636">
        <ele>2970</ele>
        <time>2022-01-22T13:17:39Z</time>
      </trkpt>
      <trkpt lat="45.06625" lon="6.48639">
        <ele>2975</ele>
        <time>2022-01-22T13:18:13Z</time>
      </trkpt>
      <trkpt lat="45.06622" lon="6.48638">
        <ele>2976</ele>
        <time>2022-01-22T13:18:48Z</time>
      </trkpt>
      <trkpt lat="45.06617" lon="6.48632">
        <ele>2979</ele>
        <time>2022-01-22T13:18:52Z</time>
      </trkpt>
      <trkpt lat="45.06626" lon="6.48634">
        <ele>2979</ele>
        <time>2022-01-22T13:20:17Z</time>
      </trkpt>
      <trkpt lat="45.0662" lon="6.48635">
        <ele>2978</ele>
        <time>2022-01-22T13:21:27Z</time>
      </trkpt>
      <trkpt lat="45.06627" lon="6.48644">
        <ele>2976</ele>
        <time>2022-01-22T13:24:24Z</time>
      </trkpt>
      <trkpt lat="45.06626" lon="6.48646">
        <ele>2972</ele>
        <time>2022-01-22T13:24:39Z</time>
      </trkpt>
      <trkpt lat="45.06628" lon="6.48648">
        <ele>2972</ele>
        <time>2022-01-22T13:24:55Z</time>
      </trkpt>
      <trkpt lat="45.06621" lon="6.4865">
        <ele>2977</ele>
        <time>2022-01-22T13:25:49Z</time>
      </trkpt>
      <trkpt lat="45.06619" lon="6.48654">
        <ele>2981</ele>
        <time>2022-01-22T13:26:21Z</time>
      </trkpt>
      <trkpt lat="45.06615" lon="6.48664">
        <ele>2993</ele>
        <time>2022-01-22T13:28:58Z</time>
      </trkpt>
      <trkpt lat="45.06618" lon="6.48663">
        <ele>2999</ele>
        <time>2022-01-22T13:29:37Z</time>
      </trkpt>
      <trkpt lat="45.06617" lon="6.48658">
        <ele>3002</ele>
        <time>2022-01-22T13:32:00Z</time>
      </trkpt>
      <trkpt lat="45.06618" lon="6.48655">
        <ele>3003</ele>
        <time>2022-01-22T13:32:05Z</time>
      </trkpt>
      <trkpt lat="45.06624" lon="6.48668">
        <ele>3001</ele>
        <time>2022-01-22T13:32:10Z</time>
      </trkpt>
      <trkpt lat="45.06628" lon="6.48661">
        <ele>3000</ele>
        <time>2022-01-22T13:32:11Z</time>
      </trkpt>
      <trkpt lat="45.06619" lon="6.48664">
        <ele>3000</ele>
        <time>2022-01-22T13:32:13Z</time>
      </trkpt>
      <trkpt lat="45.06615" lon="6.4866">
        <ele>3001</ele>
        <time>2022-01-22T13:32:14Z</time>
      </trkpt>
      <trkpt lat="45.06617" lon="6.48672">
        <ele>2999</ele>
        <time>2022-01-22T13:35:03Z</time>
      </trkpt>
      <trkpt lat="45.06618" lon="6.48659">
        <ele>3002</ele>
        <time>2022-01-22T13:38:50Z</time>
      </trkpt>
      <trkpt lat="45.06617" lon="6.4866">
        <ele>3004</ele>
        <time>2022-01-22T13:39:11Z</time>
      </trkpt>
      <trkpt lat="45.06618" lon="6.48657">
        <ele>3005</ele>
        <time>2022-01-22T13:46:27Z</time>
      </trkpt>
      <trkpt lat="45.0662" lon="6.48661">
        <ele>3004</ele>
        <time>2022-01-22T13:47:05Z</time>
      </trkpt>
      <trkpt lat="45.06621" lon="6.4866">
        <ele>3004</ele>
        <time>2022-01-22T13:47:07Z</time>
      </trkpt>
      <trkpt lat="45.06613" lon="6.48664">
        <ele>3002</ele>
        <time>2022-01-22T13:58:16Z</time>
      </trkpt>
      <trkpt lat="45.06611" lon="6.48663">
        <ele>3001</ele>
        <time>2022-01-22T13:58:53Z</time>
      </trkpt>
      <trkpt lat="45.0661" lon="6.48661">
        <ele>2999</ele>
        <time>2022-01-22T13:59:01Z</time>
      </trkpt>
      <trkpt lat="45.0661" lon="6.4867">
        <ele>2999</ele>
        <time>2022-01-22T13:59:57Z</time>
      </trkpt>
      <trkpt lat="45.06603" lon="6.48678">
        <ele>2997</ele>
        <time>2022-01-22T14:01:31Z</time>
      </trkpt>
      <trkpt lat="45.06601" lon="6.48679">
        <ele>2997</ele>
        <time>2022-01-22T14:01:34Z</time>
      </trkpt>
      <trkpt lat="45.06592" lon="6.4868">
        <ele>3000</ele>
        <time>2022-01-22T14:01:44Z</time>
      </trkpt>
      <trkpt lat="45.06585" lon="6.4869">
        <ele>3008</ele>
        <time>2022-01-22T14:02:07Z</time>
      </trkpt>
      <trkpt lat="45.06584" lon="6.48692">
        <ele>3009</ele>
        <time>2022-01-22T14:02:11Z</time>
      </trkpt>
      <trkpt lat="45.06578" lon="6.48703">
        <ele>3009</ele>
        <time>2022-01-22T14:02:32Z</time>
      </trkpt>
      <trkpt lat="45.06576" lon="6.48704">
        <ele>3009</ele>
        <time>2022-01-22T14:02:36Z</time>
      </trkpt>
      <trkpt lat="45.06565" lon="6.48715">
        <ele>3012</ele>
        <time>2022-01-22T14:03:17Z</time>
      </trkpt>
      <trkpt lat="45.06544" lon="6.48731">
        <ele>3020</ele>
        <time>2022-01-22T14:03:39Z</time>
      </trkpt>
      <trkpt lat="45.06537" lon="6.48753">
        <ele>3024</ele>
        <time>2022-01-22T14:04:10Z</time>
      </trkpt>
      <trkpt lat="45.0654" lon="6.48761">
        <ele>3026</ele>
        <time>2022-01-22T14:04:34Z</time>
      </trkpt>
      <trkpt lat="45.06541" lon="6.48758">
        <ele>3026</ele>
        <time>2022-01-22T14:04:38Z</time>
      </trkpt>
      <trkpt lat="45.06538" lon="6.48766">
        <ele>3027</ele>
        <time>2022-01-22T14:05:07Z</time>
      </trkpt>
      <trkpt lat="45.06542" lon="6.48796">
        <ele>3039</ele>
        <time>2022-01-22T14:05:38Z</time>
      </trkpt>
      <trkpt lat="45.06544" lon="6.48807">
        <ele>3039</ele>
        <time>2022-01-22T14:05:47Z</time>
      </trkpt>
      <trkpt lat="45.06552" lon="6.48842">
        <ele>3034</ele>
        <time>2022-01-22T14:06:31Z</time>
      </trkpt>
      <trkpt lat="45.06554" lon="6.48857">
        <ele>3033</ele>
        <time>2022-01-22T14:07:27Z</time>
      </trkpt>
      <trkpt lat="45.06569" lon="6.4888">
        <ele>3034</ele>
        <time>2022-01-22T14:08:04Z</time>
      </trkpt>
      <trkpt lat="45.06571" lon="6.48893">
        <ele>3036</ele>
        <time>2022-01-22T14:08:31Z</time>
      </trkpt>
      <trkpt lat="45.0656" lon="6.48886">
        <ele>3038</ele>
        <time>2022-01-22T14:08:52Z</time>
      </trkpt>
      <trkpt lat="45.06561" lon="6.48894">
        <ele>3048</ele>
        <time>2022-01-22T14:10:31Z</time>
      </trkpt>
      <trkpt lat="45.06559" lon="6.48897">
        <ele>3050</ele>
        <time>2022-01-22T14:10:32Z</time>
      </trkpt>
      <trkpt lat="45.06556" lon="6.48899">
        <ele>3053</ele>
        <time>2022-01-22T14:14:21Z</time>
      </trkpt>
      <trkpt lat="45.06558" lon="6.48903">
        <ele>3055</ele>
        <time>2022-01-22T14:15:40Z</time>
      </trkpt>
      <trkpt lat="45.06553" lon="6.48904">
        <ele>3055</ele>
        <time>2022-01-22T14:15:43Z</time>
      </trkpt>
      <trkpt lat="45.06554" lon="6.489">
        <ele>3055</ele>
        <time>2022-01-22T14:15:48Z</time>
      </trkpt>
      <trkpt lat="45.06563" lon="6.48895">
        <ele>3054</ele>
        <time>2022-01-22T14:15:50Z</time>
      </trkpt>
      <trkpt lat="45.06562" lon="6.48896">
        <ele>3053</ele>
        <time>2022-01-22T14:15:54Z</time>
      </trkpt>
      <trkpt lat="45.06553" lon="6.48895">
        <ele>3053</ele>
        <time>2022-01-22T14:15:57Z</time>
      </trkpt>
      <trkpt lat="45.06561" lon="6.48897">
        <ele>3053</ele>
        <time>2022-01-22T14:17:01Z</time>
      </trkpt>
      <trkpt lat="45.06563" lon="6.48895">
        <ele>3053</ele>
        <time>2022-01-22T14:17:34Z</time>
      </trkpt>
      <trkpt lat="45.06562" lon="6.48894">
        <ele>3054</ele>
        <time>2022-01-22T14:20:34Z</time>
      </trkpt>
      <trkpt lat="45.0656" lon="6.48898">
        <ele>3054</ele>
        <time>2022-01-22T14:22:08Z</time>
      </trkpt>
      <trkpt lat="45.06561" lon="6.489">
        <ele>3051</ele>
        <time>2022-01-22T14:22:12Z</time>
      </trkpt>
      <trkpt lat="45.06563" lon="6.48895">
        <ele>3050</ele>
        <time>2022-01-22T14:24:19Z</time>
      </trkpt>
      <trkpt lat="45.06561" lon="6.48894">
        <ele>3050</ele>
        <time>2022-01-22T14:24:21Z</time>
      </trkpt>
      <trkpt lat="45.06559" lon="6.48897">
        <ele>3049</ele>
        <time>2022-01-22T14:27:13Z</time>
      </trkpt>
      <trkpt lat="45.06557" lon="6.48896">
        <ele>3053</ele>
        <time>2022-01-22T14:28:06Z</time>
      </trkpt>
      <trkpt lat="45.06561" lon="6.48891">
        <ele>3052</ele>
        <time>2022-01-22T14:29:31Z</time>
      </trkpt>
      <trkpt lat="45.06561" lon="6.48889">
        <ele>3052</ele>
        <time>2022-01-22T14:29:32Z</time>
      </trkpt>
      <trkpt lat="45.06564" lon="6.48886">
        <ele>3051</ele>
        <time>2022-01-22T14:29:36Z</time>
      </trkpt>
      <trkpt lat="45.06565" lon="6.48884">
        <ele>3050</ele>
        <time>2022-01-22T14:29:37Z</time>
      </trkpt>
      <trkpt lat="45.06568" lon="6.48876">
        <ele>3047</ele>
        <time>2022-01-22T14:29:44Z</time>
      </trkpt>
      <trkpt lat="45.06568" lon="6.48873">
        <ele>3047</ele>
        <time>2022-01-22T14:29:45Z</time>
      </trkpt>
      <trkpt lat="45.06551" lon="6.48815">
        <ele>3039</ele>
        <time>2022-01-22T14:29:51Z</time>
      </trkpt>
      <trkpt lat="45.06542" lon="6.48715">
        <ele>3027</ele>
        <time>2022-01-22T14:30:00Z</time>
      </trkpt>
      <trkpt lat="45.0654" lon="6.48709">
        <ele>3027</ele>
        <time>2022-01-22T14:30:01Z</time>
      </trkpt>
      <trkpt lat="45.06536" lon="6.48703">
        <ele>3027</ele>
        <time>2022-01-22T14:30:32Z</time>
      </trkpt>
      <trkpt lat="45.06535" lon="6.48701">
        <ele>3026</ele>
        <time>2022-01-22T14:30:35Z</time>
      </trkpt>
      <trkpt lat="45.06531" lon="6.48715">
        <ele>3020</ele>
        <time>2022-01-22T14:31:02Z</time>
      </trkpt>
      <trkpt lat="45.06528" lon="6.4871">
        <ele>3018</ele>
        <time>2022-01-22T14:31:03Z</time>
      </trkpt>
      <trkpt lat="45.06524" lon="6.48706">
        <ele>3017</ele>
        <time>2022-01-22T14:31:04Z</time>
      </trkpt>
      <trkpt lat="45.06502" lon="6.487">
        <ele>3012</ele>
        <time>2022-01-22T14:31:08Z</time>
      </trkpt>
      <trkpt lat="45.06497" lon="6.48699">
        <ele>3011</ele>
        <time>2022-01-22T14:31:09Z</time>
      </trkpt>
      <trkpt lat="45.06491" lon="6.48701">
        <ele>3010</ele>
        <time>2022-01-22T14:31:10Z</time>
      </trkpt>
      <trkpt lat="45.06487" lon="6.48704">
        <ele>3008</ele>
        <time>2022-01-22T14:31:11Z</time>
      </trkpt>
      <trkpt lat="45.06486" lon="6.48701">
        <ele>3006</ele>
        <time>2022-01-22T14:31:12Z</time>
      </trkpt>
      <trkpt lat="45.06482" lon="6.48695">
        <ele>3002</ele>
        <time>2022-01-22T14:31:13Z</time>
      </trkpt>
      <trkpt lat="45.06479" lon="6.48697">
        <ele>2998</ele>
        <time>2022-01-22T14:31:14Z</time>
      </trkpt>
      <trkpt lat="45.06476" lon="6.48704">
        <ele>2992</ele>
        <time>2022-01-22T14:31:15Z</time>
      </trkpt>
      <trkpt lat="45.06474" lon="6.48709">
        <ele>2987</ele>
        <time>2022-01-22T14:31:16Z</time>
      </trkpt>
      <trkpt lat="45.06471" lon="6.48709">
        <ele>2984</ele>
        <time>2022-01-22T14:31:17Z</time>
      </trkpt>
      <trkpt lat="45.06468" lon="6.48703">
        <ele>2977</ele>
        <time>2022-01-22T14:31:18Z</time>
      </trkpt>
      <trkpt lat="45.06466" lon="6.48703">
        <ele>2973</ele>
        <time>2022-01-22T14:31:19Z</time>
      </trkpt>
      <trkpt lat="45.06462" lon="6.48715">
        <ele>2961</ele>
        <time>2022-01-22T14:31:21Z</time>
      </trkpt>
      <trkpt lat="45.0646" lon="6.48729">
        <ele>2951</ele>
        <time>2022-01-22T14:31:24Z</time>
      </trkpt>
      <trkpt lat="45.06455" lon="6.48727">
        <ele>2948</ele>
        <time>2022-01-22T14:33:46Z</time>
      </trkpt>
      <trkpt lat="45.06456" lon="6.48721">
        <ele>2950</ele>
        <time>2022-01-22T14:33:48Z</time>
      </trkpt>
      <trkpt lat="45.06457" lon="6.48717">
        <ele>2950</ele>
        <time>2022-01-22T14:33:51Z</time>
      </trkpt>
      <trkpt lat="45.06459" lon="6.48716">
        <ele>2950</ele>
        <time>2022-01-22T14:33:57Z</time>
      </trkpt>
      <trkpt lat="45.06456" lon="6.48729">
        <ele>2952</ele>
        <time>2022-01-22T14:34:56Z</time>
      </trkpt>
      <trkpt lat="45.06459" lon="6.48733">
        <ele>2948</ele>
        <time>2022-01-22T14:35:25Z</time>
      </trkpt>
      <trkpt lat="45.06447" lon="6.4875">
        <ele>2944</ele>
        <time>2022-01-22T14:35:30Z</time>
      </trkpt>
      <trkpt lat="45.06444" lon="6.48752">
        <ele>2944</ele>
        <time>2022-01-22T14:35:31Z</time>
      </trkpt>
      <trkpt lat="45.06435" lon="6.48752">
        <ele>2942</ele>
        <time>2022-01-22T14:35:33Z</time>
      </trkpt>
      <trkpt lat="45.06428" lon="6.48761">
        <ele>2940</ele>
        <time>2022-01-22T14:35:35Z</time>
      </trkpt>
      <trkpt lat="45.06423" lon="6.48763">
        <ele>2939</ele>
        <time>2022-01-22T14:35:36Z</time>
      </trkpt>
      <trkpt lat="45.06391" lon="6.48767">
        <ele>2928</ele>
        <time>2022-01-22T14:35:43Z</time>
      </trkpt>
      <trkpt lat="45.06387" lon="6.48764">
        <ele>2927</ele>
        <time>2022-01-22T14:35:44Z</time>
      </trkpt>
      <trkpt lat="45.06381" lon="6.48748">
        <ele>2926</ele>
        <time>2022-01-22T14:35:46Z</time>
      </trkpt>
      <trkpt lat="45.06354" lon="6.48707">
        <ele>2922</ele>
        <time>2022-01-22T14:35:52Z</time>
      </trkpt>
      <trkpt lat="45.06342" lon="6.48699">
        <ele>2921</ele>
        <time>2022-01-22T14:35:54Z</time>
      </trkpt>
      <trkpt lat="45.06328" lon="6.48694">
        <ele>2920</ele>
        <time>2022-01-22T14:35:57Z</time>
      </trkpt>
      <trkpt lat="45.06312" lon="6.48689">
        <ele>2920</ele>
        <time>2022-01-22T14:36:01Z</time>
      </trkpt>
      <trkpt lat="45.06308" lon="6.48681">
        <ele>2918</ele>
        <time>2022-01-22T14:36:02Z</time>
      </trkpt>
      <trkpt lat="45.06298" lon="6.48673">
        <ele>2916</ele>
        <time>2022-01-22T14:36:04Z</time>
      </trkpt>
      <trkpt lat="45.06294" lon="6.48656">
        <ele>2913</ele>
        <time>2022-01-22T14:36:06Z</time>
      </trkpt>
      <trkpt lat="45.06286" lon="6.48646">
        <ele>2911</ele>
        <time>2022-01-22T14:36:08Z</time>
      </trkpt>
      <trkpt lat="45.06281" lon="6.48644">
        <ele>2910</ele>
        <time>2022-01-22T14:36:10Z</time>
      </trkpt>
      <trkpt lat="45.06269" lon="6.48649">
        <ele>2908</ele>
        <time>2022-01-22T14:36:14Z</time>
      </trkpt>
      <trkpt lat="45.06254" lon="6.48657">
        <ele>2900</ele>
        <time>2022-01-22T14:36:19Z</time>
      </trkpt>
      <trkpt lat="45.06245" lon="6.48661">
        <ele>2894</ele>
        <time>2022-01-22T14:36:23Z</time>
      </trkpt>
      <trkpt lat="45.06237" lon="6.48666">
        <ele>2891</ele>
        <time>2022-01-22T14:36:26Z</time>
      </trkpt>
      <trkpt lat="45.06231" lon="6.4867">
        <ele>2887</ele>
        <time>2022-01-22T14:36:29Z</time>
      </trkpt>
      <trkpt lat="45.06211" lon="6.48677">
        <ele>2881</ele>
        <time>2022-01-22T14:36:35Z</time>
      </trkpt>
      <trkpt lat="45.06203" lon="6.48677">
        <ele>2879</ele>
        <time>2022-01-22T14:36:37Z</time>
      </trkpt>
      <trkpt lat="45.062" lon="6.48677">
        <ele>2879</ele>
        <time>2022-01-22T14:36:38Z</time>
      </trkpt>
      <trkpt lat="45.06198" lon="6.48678">
        <ele>2878</ele>
        <time>2022-01-22T14:36:39Z</time>
      </trkpt>
      <trkpt lat="45.06195" lon="6.48678">
        <ele>2877</ele>
        <time>2022-01-22T14:36:40Z</time>
      </trkpt>
      <trkpt lat="45.06183" lon="6.48683">
        <ele>2875</ele>
        <time>2022-01-22T14:36:56Z</time>
      </trkpt>
      <trkpt lat="45.06184" lon="6.4868">
        <ele>2875</ele>
        <time>2022-01-22T14:36:59Z</time>
      </trkpt>
      <trkpt lat="45.06194" lon="6.48686">
        <ele>2867</ele>
        <time>2022-01-22T14:37:25Z</time>
      </trkpt>
      <trkpt lat="45.06198" lon="6.48693">
        <ele>2866</ele>
        <time>2022-01-22T14:37:56Z</time>
      </trkpt>
      <trkpt lat="45.06199" lon="6.48695">
        <ele>2866</ele>
        <time>2022-01-22T14:37:57Z</time>
      </trkpt>
      <trkpt lat="45.06203" lon="6.48703">
        <ele>2868</ele>
        <time>2022-01-22T14:38:39Z</time>
      </trkpt>
      <trkpt lat="45.06205" lon="6.48707">
        <ele>2868</ele>
        <time>2022-01-22T14:38:40Z</time>
      </trkpt>
      <trkpt lat="45.06232" lon="6.4872">
        <ele>2865</ele>
        <time>2022-01-22T14:38:45Z</time>
      </trkpt>
      <trkpt lat="45.06237" lon="6.48722">
        <ele>2863</ele>
        <time>2022-01-22T14:38:46Z</time>
      </trkpt>
      <trkpt lat="45.06239" lon="6.48731">
        <ele>2862</ele>
        <time>2022-01-22T14:38:47Z</time>
      </trkpt>
      <trkpt lat="45.06234" lon="6.48738">
        <ele>2861</ele>
        <time>2022-01-22T14:38:48Z</time>
      </trkpt>
      <trkpt lat="45.0623" lon="6.48746">
        <ele>2860</ele>
        <time>2022-01-22T14:38:49Z</time>
      </trkpt>
      <trkpt lat="45.06231" lon="6.48753">
        <ele>2858</ele>
        <time>2022-01-22T14:38:50Z</time>
      </trkpt>
      <trkpt lat="45.06232" lon="6.48759">
        <ele>2856</ele>
        <time>2022-01-22T14:38:51Z</time>
      </trkpt>
      <trkpt lat="45.06232" lon="6.48763">
        <ele>2853</ele>
        <time>2022-01-22T14:38:53Z</time>
      </trkpt>
      <trkpt lat="45.06228" lon="6.48763">
        <ele>2849</ele>
        <time>2022-01-22T14:38:54Z</time>
      </trkpt>
      <trkpt lat="45.06226" lon="6.48768">
        <ele>2843</ele>
        <time>2022-01-22T14:38:56Z</time>
      </trkpt>
      <trkpt lat="45.06229" lon="6.48777">
        <ele>2838</ele>
        <time>2022-01-22T14:38:58Z</time>
      </trkpt>
      <trkpt lat="45.06225" lon="6.48779">
        <ele>2834</ele>
        <time>2022-01-22T14:39:00Z</time>
      </trkpt>
      <trkpt lat="45.06221" lon="6.48778">
        <ele>2831</ele>
        <time>2022-01-22T14:39:01Z</time>
      </trkpt>
      <trkpt lat="45.06217" lon="6.48778">
        <ele>2829</ele>
        <time>2022-01-22T14:39:02Z</time>
      </trkpt>
      <trkpt lat="45.06212" lon="6.48784">
        <ele>2825</ele>
        <time>2022-01-22T14:39:04Z</time>
      </trkpt>
      <trkpt lat="45.06207" lon="6.48785">
        <ele>2822</ele>
        <time>2022-01-22T14:39:05Z</time>
      </trkpt>
      <trkpt lat="45.06205" lon="6.48789">
        <ele>2821</ele>
        <time>2022-01-22T14:39:06Z</time>
      </trkpt>
      <trkpt lat="45.06205" lon="6.48795">
        <ele>2818</ele>
        <time>2022-01-22T14:39:07Z</time>
      </trkpt>
      <trkpt lat="45.06205" lon="6.48801">
        <ele>2816</ele>
        <time>2022-01-22T14:39:08Z</time>
      </trkpt>
      <trkpt lat="45.06202" lon="6.48804">
        <ele>2813</ele>
        <time>2022-01-22T14:39:09Z</time>
      </trkpt>
      <trkpt lat="45.06195" lon="6.48805">
        <ele>2810</ele>
        <time>2022-01-22T14:39:10Z</time>
      </trkpt>
      <trkpt lat="45.06187" lon="6.48822">
        <ele>2804</ele>
        <time>2022-01-22T14:39:13Z</time>
      </trkpt>
      <trkpt lat="45.06183" lon="6.48825">
        <ele>2803</ele>
        <time>2022-01-22T14:39:14Z</time>
      </trkpt>
      <trkpt lat="45.06177" lon="6.48825">
        <ele>2800</ele>
        <time>2022-01-22T14:39:15Z</time>
      </trkpt>
      <trkpt lat="45.06175" lon="6.48828">
        <ele>2799</ele>
        <time>2022-01-22T14:39:16Z</time>
      </trkpt>
      <trkpt lat="45.06173" lon="6.48832">
        <ele>2795</ele>
        <time>2022-01-22T14:39:17Z</time>
      </trkpt>
      <trkpt lat="45.06169" lon="6.48834">
        <ele>2793</ele>
        <time>2022-01-22T14:39:18Z</time>
      </trkpt>
      <trkpt lat="45.06163" lon="6.48832">
        <ele>2789</ele>
        <time>2022-01-22T14:39:19Z</time>
      </trkpt>
      <trkpt lat="45.06159" lon="6.48835">
        <ele>2787</ele>
        <time>2022-01-22T14:39:20Z</time>
      </trkpt>
      <trkpt lat="45.06153" lon="6.48846">
        <ele>2782</ele>
        <time>2022-01-22T14:39:22Z</time>
      </trkpt>
      <trkpt lat="45.06149" lon="6.48851">
        <ele>2779</ele>
        <time>2022-01-22T14:39:23Z</time>
      </trkpt>
      <trkpt lat="45.06145" lon="6.48851">
        <ele>2776</ele>
        <time>2022-01-22T14:39:24Z</time>
      </trkpt>
      <trkpt lat="45.06139" lon="6.48853">
        <ele>2773</ele>
        <time>2022-01-22T14:39:25Z</time>
      </trkpt>
      <trkpt lat="45.06137" lon="6.48858">
        <ele>2769</ele>
        <time>2022-01-22T14:39:26Z</time>
      </trkpt>
      <trkpt lat="45.0613" lon="6.48872">
        <ele>2766</ele>
        <time>2022-01-22T14:39:28Z</time>
      </trkpt>
      <trkpt lat="45.06124" lon="6.48873">
        <ele>2764</ele>
        <time>2022-01-22T14:39:29Z</time>
      </trkpt>
      <trkpt lat="45.06118" lon="6.48876">
        <ele>2762</ele>
        <time>2022-01-22T14:39:30Z</time>
      </trkpt>
      <trkpt lat="45.06114" lon="6.4888">
        <ele>2759</ele>
        <time>2022-01-22T14:39:31Z</time>
      </trkpt>
      <trkpt lat="45.06109" lon="6.48884">
        <ele>2757</ele>
        <time>2022-01-22T14:39:32Z</time>
      </trkpt>
      <trkpt lat="45.06104" lon="6.48885">
        <ele>2755</ele>
        <time>2022-01-22T14:39:33Z</time>
      </trkpt>
      <trkpt lat="45.06098" lon="6.48878">
        <ele>2750</ele>
        <time>2022-01-22T14:39:35Z</time>
      </trkpt>
      <trkpt lat="45.06094" lon="6.48877">
        <ele>2749</ele>
        <time>2022-01-22T14:39:36Z</time>
      </trkpt>
      <trkpt lat="45.06083" lon="6.48874">
        <ele>2745</ele>
        <time>2022-01-22T14:39:38Z</time>
      </trkpt>
      <trkpt lat="45.06022" lon="6.48908">
        <ele>2729</ele>
        <time>2022-01-22T14:39:46Z</time>
      </trkpt>
      <trkpt lat="45.05994" lon="6.48932">
        <ele>2721</ele>
        <time>2022-01-22T14:39:50Z</time>
      </trkpt>
      <trkpt lat="45.05916" lon="6.48971">
        <ele>2703</ele>
        <time>2022-01-22T14:40:03Z</time>
      </trkpt>
      <trkpt lat="45.05908" lon="6.48971">
        <ele>2701</ele>
        <time>2022-01-22T14:40:06Z</time>
      </trkpt>
      <trkpt lat="45.05904" lon="6.48963">
        <ele>2701</ele>
        <time>2022-01-22T14:40:31Z</time>
      </trkpt>
      <trkpt lat="45.05897" lon="6.48961">
        <ele>2699</ele>
        <time>2022-01-22T14:40:50Z</time>
      </trkpt>
      <trkpt lat="45.05871" lon="6.48968">
        <ele>2698</ele>
        <time>2022-01-22T14:40:56Z</time>
      </trkpt>
      <trkpt lat="45.0585" lon="6.48964">
        <ele>2695</ele>
        <time>2022-01-22T14:41:02Z</time>
      </trkpt>
      <trkpt lat="45.05841" lon="6.48965">
        <ele>2693</ele>
        <time>2022-01-22T14:41:05Z</time>
      </trkpt>
      <trkpt lat="45.05831" lon="6.48972">
        <ele>2691</ele>
        <time>2022-01-22T14:41:07Z</time>
      </trkpt>
      <trkpt lat="45.05821" lon="6.48978">
        <ele>2690</ele>
        <time>2022-01-22T14:41:09Z</time>
      </trkpt>
      <trkpt lat="45.05816" lon="6.48992">
        <ele>2687</ele>
        <time>2022-01-22T14:41:11Z</time>
      </trkpt>
      <trkpt lat="45.05815" lon="6.48998">
        <ele>2686</ele>
        <time>2022-01-22T14:41:12Z</time>
      </trkpt>
      <trkpt lat="45.05814" lon="6.49008">
        <ele>2683</ele>
        <time>2022-01-22T14:41:13Z</time>
      </trkpt>
      <trkpt lat="45.05816" lon="6.49018">
        <ele>2681</ele>
        <time>2022-01-22T14:41:14Z</time>
      </trkpt>
      <trkpt lat="45.05816" lon="6.49027">
        <ele>2678</ele>
        <time>2022-01-22T14:41:15Z</time>
      </trkpt>
      <trkpt lat="45.05816" lon="6.49039">
        <ele>2675</ele>
        <time>2022-01-22T14:41:16Z</time>
      </trkpt>
      <trkpt lat="45.05818" lon="6.49051">
        <ele>2672</ele>
        <time>2022-01-22T14:41:17Z</time>
      </trkpt>
      <trkpt lat="45.05816" lon="6.49074">
        <ele>2667</ele>
        <time>2022-01-22T14:41:19Z</time>
      </trkpt>
      <trkpt lat="45.05813" lon="6.49085">
        <ele>2666</ele>
        <time>2022-01-22T14:41:20Z</time>
      </trkpt>
      <trkpt lat="45.05808" lon="6.49095">
        <ele>2663</ele>
        <time>2022-01-22T14:41:21Z</time>
      </trkpt>
      <trkpt lat="45.058" lon="6.49098">
        <ele>2660</ele>
        <time>2022-01-22T14:41:22Z</time>
      </trkpt>
      <trkpt lat="45.05792" lon="6.49103">
        <ele>2657</ele>
        <time>2022-01-22T14:41:23Z</time>
      </trkpt>
      <trkpt lat="45.05784" lon="6.49108">
        <ele>2654</ele>
        <time>2022-01-22T14:41:24Z</time>
      </trkpt>
      <trkpt lat="45.05777" lon="6.49114">
        <ele>2652</ele>
        <time>2022-01-22T14:41:25Z</time>
      </trkpt>
      <trkpt lat="45.05769" lon="6.49121">
        <ele>2650</ele>
        <time>2022-01-22T14:41:26Z</time>
      </trkpt>
      <trkpt lat="45.05763" lon="6.4913">
        <ele>2648</ele>
        <time>2022-01-22T14:41:27Z</time>
      </trkpt>
      <trkpt lat="45.05757" lon="6.49138">
        <ele>2645</ele>
        <time>2022-01-22T14:41:28Z</time>
      </trkpt>
      <trkpt lat="45.05751" lon="6.49147">
        <ele>2643</ele>
        <time>2022-01-22T14:41:29Z</time>
      </trkpt>
      <trkpt lat="45.05746" lon="6.49157">
        <ele>2640</ele>
        <time>2022-01-22T14:41:30Z</time>
      </trkpt>
      <trkpt lat="45.05741" lon="6.49168">
        <ele>2637</ele>
        <time>2022-01-22T14:41:31Z</time>
      </trkpt>
      <trkpt lat="45.05738" lon="6.49178">
        <ele>2635</ele>
        <time>2022-01-22T14:41:32Z</time>
      </trkpt>
      <trkpt lat="45.05736" lon="6.4919">
        <ele>2632</ele>
        <time>2022-01-22T14:41:33Z</time>
      </trkpt>
      <trkpt lat="45.05735" lon="6.49202">
        <ele>2630</ele>
        <time>2022-01-22T14:41:34Z</time>
      </trkpt>
      <trkpt lat="45.05735" lon="6.49214">
        <ele>2627</ele>
        <time>2022-01-22T14:41:35Z</time>
      </trkpt>
      <trkpt lat="45.05734" lon="6.49227">
        <ele>2625</ele>
        <time>2022-01-22T14:41:36Z</time>
      </trkpt>
      <trkpt lat="45.05729" lon="6.49307">
        <ele>2616</ele>
        <time>2022-01-22T14:41:45Z</time>
      </trkpt>
      <trkpt lat="45.05729" lon="6.49311">
        <ele>2616</ele>
        <time>2022-01-22T14:41:47Z</time>
      </trkpt>
      <trkpt lat="45.05728" lon="6.49318">
        <ele>2613</ele>
        <time>2022-01-22T14:41:51Z</time>
      </trkpt>
      <trkpt lat="45.05711" lon="6.49341">
        <ele>2609</ele>
        <time>2022-01-22T14:42:05Z</time>
      </trkpt>
      <trkpt lat="45.05706" lon="6.49352">
        <ele>2610</ele>
        <time>2022-01-22T14:42:09Z</time>
      </trkpt>
      <trkpt lat="45.05686" lon="6.49385">
        <ele>2609</ele>
        <time>2022-01-22T14:42:19Z</time>
      </trkpt>
      <trkpt lat="45.0568" lon="6.49391">
        <ele>2610</ele>
        <time>2022-01-22T14:42:21Z</time>
      </trkpt>
      <trkpt lat="45.05672" lon="6.49408">
        <ele>2608</ele>
        <time>2022-01-22T14:42:24Z</time>
      </trkpt>
      <trkpt lat="45.05655" lon="6.49456">
        <ele>2611</ele>
        <time>2022-01-22T14:42:34Z</time>
      </trkpt>
      <trkpt lat="45.05647" lon="6.49469">
        <ele>2611</ele>
        <time>2022-01-22T14:42:41Z</time>
      </trkpt>
      <trkpt lat="45.05643" lon="6.49473">
        <ele>2609</ele>
        <time>2022-01-22T14:42:45Z</time>
      </trkpt>
      <trkpt lat="45.05653" lon="6.49473">
        <ele>2605</ele>
        <time>2022-01-22T14:43:15Z</time>
      </trkpt>
      <trkpt lat="45.05658" lon="6.49474">
        <ele>2605</ele>
        <time>2022-01-22T14:43:16Z</time>
      </trkpt>
      <trkpt lat="45.0566" lon="6.49478">
        <ele>2604</ele>
        <time>2022-01-22T14:43:17Z</time>
      </trkpt>
      <trkpt lat="45.0566" lon="6.49485">
        <ele>2603</ele>
        <time>2022-01-22T14:43:18Z</time>
      </trkpt>
      <trkpt lat="45.05658" lon="6.49491">
        <ele>2602</ele>
        <time>2022-01-22T14:43:19Z</time>
      </trkpt>
      <trkpt lat="45.05656" lon="6.49496">
        <ele>2601</ele>
        <time>2022-01-22T14:43:20Z</time>
      </trkpt>
      <trkpt lat="45.05652" lon="6.495">
        <ele>2600</ele>
        <time>2022-01-22T14:43:22Z</time>
      </trkpt>
      <trkpt lat="45.05652" lon="6.49502">
        <ele>2599</ele>
        <time>2022-01-22T14:43:24Z</time>
      </trkpt>
      <trkpt lat="45.0565" lon="6.49504">
        <ele>2597</ele>
        <time>2022-01-22T14:43:26Z</time>
      </trkpt>
      <trkpt lat="45.05646" lon="6.49506">
        <ele>2594</ele>
        <time>2022-01-22T14:43:29Z</time>
      </trkpt>
      <trkpt lat="45.05642" lon="6.49507">
        <ele>2593</ele>
        <time>2022-01-22T14:43:31Z</time>
      </trkpt>
      <trkpt lat="45.05637" lon="6.49519">
        <ele>2590</ele>
        <time>2022-01-22T14:43:34Z</time>
      </trkpt>
      <trkpt lat="45.05635" lon="6.49523">
        <ele>2589</ele>
        <time>2022-01-22T14:43:35Z</time>
      </trkpt>
      <trkpt lat="45.05625" lon="6.49528">
        <ele>2586</ele>
        <time>2022-01-22T14:43:38Z</time>
      </trkpt>
      <trkpt lat="45.05621" lon="6.49534">
        <ele>2585</ele>
        <time>2022-01-22T14:43:39Z</time>
      </trkpt>
      <trkpt lat="45.05615" lon="6.49543">
        <ele>2583</ele>
        <time>2022-01-22T14:43:40Z</time>
      </trkpt>
      <trkpt lat="45.05585" lon="6.49581">
        <ele>2572</ele>
        <time>2022-01-22T14:43:46Z</time>
      </trkpt>
      <trkpt lat="45.05583" lon="6.49583">
        <ele>2572</ele>
        <time>2022-01-22T14:43:47Z</time>
      </trkpt>
      <trkpt lat="45.05582" lon="6.49587">
        <ele>2571</ele>
        <time>2022-01-22T14:44:06Z</time>
      </trkpt>
      <trkpt lat="45.05569" lon="6.49572">
        <ele>2567</ele>
        <time>2022-01-22T14:45:13Z</time>
      </trkpt>
      <trkpt lat="45.05565" lon="6.49569">
        <ele>2565</ele>
        <time>2022-01-22T14:45:14Z</time>
      </trkpt>
      <trkpt lat="45.05556" lon="6.49564">
        <ele>2559</ele>
        <time>2022-01-22T14:45:17Z</time>
      </trkpt>
      <trkpt lat="45.05573" lon="6.49571">
        <ele>2551</ele>
        <time>2022-01-22T14:45:38Z</time>
      </trkpt>
      <trkpt lat="45.0558" lon="6.49581">
        <ele>2550</ele>
        <time>2022-01-22T14:46:17Z</time>
      </trkpt>
      <trkpt lat="45.05572" lon="6.49576">
        <ele>2557</ele>
        <time>2022-01-22T14:50:11Z</time>
      </trkpt>
      <trkpt lat="45.05563" lon="6.49565">
        <ele>2562</ele>
        <time>2022-01-22T14:50:26Z</time>
      </trkpt>
      <trkpt lat="45.05565" lon="6.49558">
        <ele>2568</ele>
        <time>2022-01-22T14:51:03Z</time>
      </trkpt>
      <trkpt lat="45.05559" lon="6.49543">
        <ele>2574</ele>
        <time>2022-01-22T14:51:20Z</time>
      </trkpt>
      <trkpt lat="45.05557" lon="6.4954">
        <ele>2574</ele>
        <time>2022-01-22T14:51:22Z</time>
      </trkpt>
      <trkpt lat="45.0556" lon="6.49538">
        <ele>2575</ele>
        <time>2022-01-22T14:51:23Z</time>
      </trkpt>
      <trkpt lat="45.05557" lon="6.49536">
        <ele>2575</ele>
        <time>2022-01-22T14:51:25Z</time>
      </trkpt>
      <trkpt lat="45.05557" lon="6.49524">
        <ele>2576</ele>
        <time>2022-01-22T14:51:34Z</time>
      </trkpt>
      <trkpt lat="45.05555" lon="6.49522">
        <ele>2577</ele>
        <time>2022-01-22T14:51:36Z</time>
      </trkpt>
      <trkpt lat="45.05549" lon="6.49515">
        <ele>2580</ele>
        <time>2022-01-22T14:51:48Z</time>
      </trkpt>
      <trkpt lat="45.05548" lon="6.49519">
        <ele>2581</ele>
        <time>2022-01-22T14:51:54Z</time>
      </trkpt>
      <trkpt lat="45.0555" lon="6.4952">
        <ele>2581</ele>
        <time>2022-01-22T14:51:56Z</time>
      </trkpt>
      <trkpt lat="45.0554" lon="6.49523">
        <ele>2577</ele>
        <time>2022-01-22T14:52:14Z</time>
      </trkpt>
      <trkpt lat="45.05528" lon="6.4952">
        <ele>2573</ele>
        <time>2022-01-22T14:52:34Z</time>
      </trkpt>
      <trkpt lat="45.05528" lon="6.49506">
        <ele>2575</ele>
        <time>2022-01-22T14:53:03Z</time>
      </trkpt>
      <trkpt lat="45.05526" lon="6.49503">
        <ele>2576</ele>
        <time>2022-01-22T14:53:05Z</time>
      </trkpt>
      <trkpt lat="45.05531" lon="6.49501">
        <ele>2580</ele>
        <time>2022-01-22T14:53:07Z</time>
      </trkpt>
      <trkpt lat="45.05529" lon="6.49492">
        <ele>2582</ele>
        <time>2022-01-22T14:53:20Z</time>
      </trkpt>
      <trkpt lat="45.05526" lon="6.4949">
        <ele>2582</ele>
        <time>2022-01-22T14:53:22Z</time>
      </trkpt>
      <trkpt lat="45.05527" lon="6.49486">
        <ele>2584</ele>
        <time>2022-01-22T14:53:25Z</time>
      </trkpt>
      <trkpt lat="45.05528" lon="6.49483">
        <ele>2585</ele>
        <time>2022-01-22T14:53:27Z</time>
      </trkpt>
      <trkpt lat="45.05535" lon="6.49462">
        <ele>2599</ele>
        <time>2022-01-22T14:53:53Z</time>
      </trkpt>
      <trkpt lat="45.05529" lon="6.4945">
        <ele>2604</ele>
        <time>2022-01-22T14:54:30Z</time>
      </trkpt>
      <trkpt lat="45.05508" lon="6.49466">
        <ele>2604</ele>
        <time>2022-01-22T14:55:07Z</time>
      </trkpt>
      <trkpt lat="45.05505" lon="6.49469">
        <ele>2604</ele>
        <time>2022-01-22T14:55:16Z</time>
      </trkpt>
      <trkpt lat="45.05504" lon="6.49471">
        <ele>2609</ele>
        <time>2022-01-22T14:55:27Z</time>
      </trkpt>
      <trkpt lat="45.05478" lon="6.49494">
        <ele>2625</ele>
        <time>2022-01-22T14:56:09Z</time>
      </trkpt>
      <trkpt lat="45.05476" lon="6.49495">
        <ele>2630</ele>
        <time>2022-01-22T14:56:12Z</time>
      </trkpt>
      <trkpt lat="45.05475" lon="6.4949">
        <ele>2632</ele>
        <time>2022-01-22T14:56:45Z</time>
      </trkpt>
      <trkpt lat="45.05477" lon="6.49487">
        <ele>2634</ele>
        <time>2022-01-22T14:56:47Z</time>
      </trkpt>
      <trkpt lat="45.05479" lon="6.49471">
        <ele>2635</ele>
        <time>2022-01-22T14:57:05Z</time>
      </trkpt>
      <trkpt lat="45.05472" lon="6.49468">
        <ele>2634</ele>
        <time>2022-01-22T14:57:30Z</time>
      </trkpt>
      <trkpt lat="45.05478" lon="6.49467">
        <ele>2633</ele>
        <time>2022-01-22T14:57:36Z</time>
      </trkpt>
      <trkpt lat="45.05479" lon="6.49464">
        <ele>2633</ele>
        <time>2022-01-22T14:57:40Z</time>
      </trkpt>
      <trkpt lat="45.05478" lon="6.4946">
        <ele>2633</ele>
        <time>2022-01-22T14:57:46Z</time>
      </trkpt>
      <trkpt lat="45.0548" lon="6.4945">
        <ele>2635</ele>
        <time>2022-01-22T14:57:55Z</time>
      </trkpt>
      <trkpt lat="45.05479" lon="6.49448">
        <ele>2636</ele>
        <time>2022-01-22T14:57:57Z</time>
      </trkpt>
      <trkpt lat="45.05481" lon="6.49436">
        <ele>2642</ele>
        <time>2022-01-22T14:58:10Z</time>
      </trkpt>
      <trkpt lat="45.05482" lon="6.49433">
        <ele>2647</ele>
        <time>2022-01-22T14:58:14Z</time>
      </trkpt>
      <trkpt lat="45.05474" lon="6.49428">
        <ele>2654</ele>
        <time>2022-01-22T14:58:45Z</time>
      </trkpt>
      <trkpt lat="45.05466" lon="6.4944">
        <ele>2655</ele>
        <time>2022-01-22T14:59:09Z</time>
      </trkpt>
      <trkpt lat="45.05457" lon="6.49435">
        <ele>2652</ele>
        <time>2022-01-22T14:59:41Z</time>
      </trkpt>
      <trkpt lat="45.05455" lon="6.49429">
        <ele>2651</ele>
        <time>2022-01-22T14:59:44Z</time>
      </trkpt>
      <trkpt lat="45.05462" lon="6.49415">
        <ele>2657</ele>
        <time>2022-01-22T15:00:03Z</time>
      </trkpt>
      <trkpt lat="45.05464" lon="6.49413">
        <ele>2659</ele>
        <time>2022-01-22T15:00:05Z</time>
      </trkpt>
      <trkpt lat="45.0546" lon="6.49404">
        <ele>2659</ele>
        <time>2022-01-22T15:00:55Z</time>
      </trkpt>
      <trkpt lat="45.05456" lon="6.49405">
        <ele>2658</ele>
        <time>2022-01-22T15:00:57Z</time>
      </trkpt>
      <trkpt lat="45.05455" lon="6.49408">
        <ele>2658</ele>
        <time>2022-01-22T15:01:01Z</time>
      </trkpt>
      <trkpt lat="45.05455" lon="6.49417">
        <ele>2658</ele>
        <time>2022-01-22T15:01:11Z</time>
      </trkpt>
      <trkpt lat="45.05453" lon="6.49419">
        <ele>2663</ele>
        <time>2022-01-22T15:01:20Z</time>
      </trkpt>
      <trkpt lat="45.05449" lon="6.49431">
        <ele>2656</ele>
        <time>2022-01-22T15:01:37Z</time>
      </trkpt>
      <trkpt lat="45.05437" lon="6.49437">
        <ele>2651</ele>
        <time>2022-01-22T15:01:53Z</time>
      </trkpt>
      <trkpt lat="45.05434" lon="6.49426">
        <ele>2659</ele>
        <time>2022-01-22T15:02:25Z</time>
      </trkpt>
      <trkpt lat="45.0544" lon="6.49411">
        <ele>2668</ele>
        <time>2022-01-22T15:02:55Z</time>
      </trkpt>
      <trkpt lat="45.05425" lon="6.49415">
        <ele>2677</ele>
        <time>2022-01-22T15:03:10Z</time>
      </trkpt>
      <trkpt lat="45.05417" lon="6.49429">
        <ele>2682</ele>
        <time>2022-01-22T15:03:30Z</time>
      </trkpt>
      <trkpt lat="45.05412" lon="6.49442">
        <ele>2685</ele>
        <time>2022-01-22T15:04:02Z</time>
      </trkpt>
      <trkpt lat="45.05407" lon="6.49432">
        <ele>2684</ele>
        <time>2022-01-22T15:04:26Z</time>
      </trkpt>
      <trkpt lat="45.05406" lon="6.49432">
        <ele>2687</ele>
        <time>2022-01-22T15:05:20Z</time>
      </trkpt>
      <trkpt lat="45.05397" lon="6.4944">
        <ele>2689</ele>
        <time>2022-01-22T15:05:33Z</time>
      </trkpt>
      <trkpt lat="45.05381" lon="6.49462">
        <ele>2707</ele>
        <time>2022-01-22T15:06:15Z</time>
      </trkpt>
      <trkpt lat="45.05372" lon="6.49471">
        <ele>2707</ele>
        <time>2022-01-22T15:06:46Z</time>
      </trkpt>
      <trkpt lat="45.05371" lon="6.49472">
        <ele>2704</ele>
        <time>2022-01-22T15:07:28Z</time>
      </trkpt>
      <trkpt lat="45.0537" lon="6.49477">
        <ele>2704</ele>
        <time>2022-01-22T15:07:46Z</time>
      </trkpt>
      <trkpt lat="45.05367" lon="6.49468">
        <ele>2712</ele>
        <time>2022-01-22T15:07:54Z</time>
      </trkpt>
      <trkpt lat="45.05365" lon="6.49466">
        <ele>2712</ele>
        <time>2022-01-22T15:07:56Z</time>
      </trkpt>
      <trkpt lat="45.05364" lon="6.49461">
        <ele>2711</ele>
        <time>2022-01-22T15:08:00Z</time>
      </trkpt>
      <trkpt lat="45.05363" lon="6.49457">
        <ele>2711</ele>
        <time>2022-01-22T15:08:02Z</time>
      </trkpt>
      <trkpt lat="45.05364" lon="6.49456">
        <ele>2709</ele>
        <time>2022-01-22T15:08:06Z</time>
      </trkpt>
      <trkpt lat="45.05372" lon="6.4943">
        <ele>2724</ele>
        <time>2022-01-22T15:08:57Z</time>
      </trkpt>
      <trkpt lat="45.05368" lon="6.4943">
        <ele>2723</ele>
        <time>2022-01-22T15:08:58Z</time>
      </trkpt>
      <trkpt lat="45.0536" lon="6.49437">
        <ele>2722</ele>
        <time>2022-01-22T15:09:20Z</time>
      </trkpt>
      <trkpt lat="45.0535" lon="6.49434">
        <ele>2723</ele>
        <time>2022-01-22T15:10:19Z</time>
      </trkpt>
      <trkpt lat="45.05342" lon="6.49442">
        <ele>2726</ele>
        <time>2022-01-22T15:10:50Z</time>
      </trkpt>
      <trkpt lat="45.05339" lon="6.49455">
        <ele>2728</ele>
        <time>2022-01-22T15:11:12Z</time>
      </trkpt>
      <trkpt lat="45.05335" lon="6.4947">
        <ele>2730</ele>
        <time>2022-01-22T15:11:34Z</time>
      </trkpt>
      <trkpt lat="45.05333" lon="6.49472">
        <ele>2731</ele>
        <time>2022-01-22T15:11:37Z</time>
      </trkpt>
      <trkpt lat="45.05324" lon="6.49467">
        <ele>2733</ele>
        <time>2022-01-22T15:17:23Z</time>
      </trkpt>
      <trkpt lat="45.05323" lon="6.49465">
        <ele>2734</ele>
        <time>2022-01-22T15:17:31Z</time>
      </trkpt>
      <trkpt lat="45.05325" lon="6.49452">
        <ele>2736</ele>
        <time>2022-01-22T15:19:37Z</time>
      </trkpt>
      <trkpt lat="45.05327" lon="6.49455">
        <ele>2737</ele>
        <time>2022-01-22T15:19:40Z</time>
      </trkpt>
      <trkpt lat="45.05328" lon="6.49468">
        <ele>2733</ele>
        <time>2022-01-22T15:21:18Z</time>
      </trkpt>
      <trkpt lat="45.05328" lon="6.49466">
        <ele>2729</ele>
        <time>2022-01-22T15:21:26Z</time>
      </trkpt>
      <trkpt lat="45.05325" lon="6.49473">
        <ele>2726</ele>
        <time>2022-01-22T15:21:55Z</time>
      </trkpt>
      <trkpt lat="45.05333" lon="6.49467">
        <ele>2724</ele>
        <time>2022-01-22T15:25:16Z</time>
      </trkpt>
      <trkpt lat="45.05335" lon="6.49453">
        <ele>2728</ele>
        <time>2022-01-22T15:25:59Z</time>
      </trkpt>
      <trkpt lat="45.05337" lon="6.49435">
        <ele>2729</ele>
        <time>2022-01-22T15:26:23Z</time>
      </trkpt>
      <trkpt lat="45.05338" lon="6.49448">
        <ele>2737</ele>
        <time>2022-01-22T15:26:53Z</time>
      </trkpt>
      <trkpt lat="45.05337" lon="6.49463">
        <ele>2745</ele>
        <time>2022-01-22T15:27:21Z</time>
      </trkpt>
      <trkpt lat="45.05329" lon="6.49471">
        <ele>2745</ele>
        <time>2022-01-22T15:27:48Z</time>
      </trkpt>
      <trkpt lat="45.05328" lon="6.4947">
        <ele>2745</ele>
        <time>2022-01-22T15:27:51Z</time>
      </trkpt>
      <trkpt lat="45.0533" lon="6.49463">
        <ele>2743</ele>
        <time>2022-01-22T15:28:27Z</time>
      </trkpt>
      <trkpt lat="45.05327" lon="6.49461">
        <ele>2742</ele>
        <time>2022-01-22T15:28:29Z</time>
      </trkpt>
      <trkpt lat="45.05329" lon="6.49473">
        <ele>2735</ele>
        <time>2022-01-22T15:32:14Z</time>
      </trkpt>
      <trkpt lat="45.05329" lon="6.49471">
        <ele>2732</ele>
        <time>2022-01-22T15:34:09Z</time>
      </trkpt>
      <trkpt lat="45.05323" lon="6.4946">
        <ele>2736</ele>
        <time>2022-01-22T15:34:19Z</time>
      </trkpt>
      <trkpt lat="45.05324" lon="6.49463">
        <ele>2737</ele>
        <time>2022-01-22T15:34:22Z</time>
      </trkpt>
      <trkpt lat="45.05322" lon="6.4947">
        <ele>2736</ele>
        <time>2022-01-22T15:34:33Z</time>
      </trkpt>
      <trkpt lat="45.05319" lon="6.49472">
        <ele>2734</ele>
        <time>2022-01-22T15:34:36Z</time>
      </trkpt>
      <trkpt lat="45.05311" lon="6.4947">
        <ele>2732</ele>
        <time>2022-01-22T15:34:53Z</time>
      </trkpt>
      <trkpt lat="45.05309" lon="6.49468">
        <ele>2732</ele>
        <time>2022-01-22T15:34:54Z</time>
      </trkpt>
      <trkpt lat="45.05307" lon="6.49461">
        <ele>2730</ele>
        <time>2022-01-22T15:34:56Z</time>
      </trkpt>
      <trkpt lat="45.05311" lon="6.49454">
        <ele>2728</ele>
        <time>2022-01-22T15:35:08Z</time>
      </trkpt>
      <trkpt lat="45.05311" lon="6.4945">
        <ele>2727</ele>
        <time>2022-01-22T15:35:09Z</time>
      </trkpt>
      <trkpt lat="45.05311" lon="6.49446">
        <ele>2726</ele>
        <time>2022-01-22T15:35:10Z</time>
      </trkpt>
      <trkpt lat="45.05309" lon="6.49441">
        <ele>2724</ele>
        <time>2022-01-22T15:35:11Z</time>
      </trkpt>
      <trkpt lat="45.05309" lon="6.49428">
        <ele>2721</ele>
        <time>2022-01-22T15:35:13Z</time>
      </trkpt>
      <trkpt lat="45.05309" lon="6.49422">
        <ele>2720</ele>
        <time>2022-01-22T15:35:14Z</time>
      </trkpt>
      <trkpt lat="45.05306" lon="6.4942">
        <ele>2719</ele>
        <time>2022-01-22T15:35:15Z</time>
      </trkpt>
      <trkpt lat="45.05303" lon="6.49415">
        <ele>2717</ele>
        <time>2022-01-22T15:35:16Z</time>
      </trkpt>
      <trkpt lat="45.05302" lon="6.49401">
        <ele>2715</ele>
        <time>2022-01-22T15:35:18Z</time>
      </trkpt>
      <trkpt lat="45.05305" lon="6.49387">
        <ele>2711</ele>
        <time>2022-01-22T15:35:20Z</time>
      </trkpt>
      <trkpt lat="45.05301" lon="6.49389">
        <ele>2709</ele>
        <time>2022-01-22T15:35:21Z</time>
      </trkpt>
      <trkpt lat="45.05296" lon="6.49393">
        <ele>2706</ele>
        <time>2022-01-22T15:35:22Z</time>
      </trkpt>
      <trkpt lat="45.05291" lon="6.49399">
        <ele>2704</ele>
        <time>2022-01-22T15:35:23Z</time>
      </trkpt>
      <trkpt lat="45.05287" lon="6.49406">
        <ele>2701</ele>
        <time>2022-01-22T15:35:24Z</time>
      </trkpt>
      <trkpt lat="45.05273" lon="6.49424">
        <ele>2696</ele>
        <time>2022-01-22T15:35:27Z</time>
      </trkpt>
      <trkpt lat="45.05267" lon="6.49429">
        <ele>2694</ele>
        <time>2022-01-22T15:35:28Z</time>
      </trkpt>
      <trkpt lat="45.0526" lon="6.49434">
        <ele>2692</ele>
        <time>2022-01-22T15:35:29Z</time>
      </trkpt>
      <trkpt lat="45.05252" lon="6.49439">
        <ele>2689</ele>
        <time>2022-01-22T15:35:30Z</time>
      </trkpt>
      <trkpt lat="45.05244" lon="6.49443">
        <ele>2687</ele>
        <time>2022-01-22T15:35:31Z</time>
      </trkpt>
      <trkpt lat="45.05236" lon="6.49447">
        <ele>2684</ele>
        <time>2022-01-22T15:35:32Z</time>
      </trkpt>
      <trkpt lat="45.05218" lon="6.49447">
        <ele>2679</ele>
        <time>2022-01-22T15:35:34Z</time>
      </trkpt>
      <trkpt lat="45.05201" lon="6.49428">
        <ele>2676</ele>
        <time>2022-01-22T15:35:36Z</time>
      </trkpt>
      <trkpt lat="45.05178" lon="6.49387">
        <ele>2671</ele>
        <time>2022-01-22T15:35:39Z</time>
      </trkpt>
      <trkpt lat="45.05171" lon="6.49373">
        <ele>2669</ele>
        <time>2022-01-22T15:35:40Z</time>
      </trkpt>
      <trkpt lat="45.05164" lon="6.49361">
        <ele>2667</ele>
        <time>2022-01-22T15:35:41Z</time>
      </trkpt>
      <trkpt lat="45.05149" lon="6.49327">
        <ele>2661</ele>
        <time>2022-01-22T15:35:44Z</time>
      </trkpt>
      <trkpt lat="45.05145" lon="6.49321">
        <ele>2658</ele>
        <time>2022-01-22T15:35:45Z</time>
      </trkpt>
      <trkpt lat="45.05141" lon="6.49319">
        <ele>2656</ele>
        <time>2022-01-22T15:35:46Z</time>
      </trkpt>
      <trkpt lat="45.05138" lon="6.4932">
        <ele>2655</ele>
        <time>2022-01-22T15:35:47Z</time>
      </trkpt>
      <trkpt lat="45.05139" lon="6.49316">
        <ele>2648</ele>
        <time>2022-01-22T15:36:20Z</time>
      </trkpt>
      <trkpt lat="45.05136" lon="6.49313">
        <ele>2647</ele>
        <time>2022-01-22T15:36:21Z</time>
      </trkpt>
      <trkpt lat="45.05127" lon="6.49308">
        <ele>2647</ele>
        <time>2022-01-22T15:36:23Z</time>
      </trkpt>
      <trkpt lat="45.05122" lon="6.49307">
        <ele>2646</ele>
        <time>2022-01-22T15:36:24Z</time>
      </trkpt>
      <trkpt lat="45.05118" lon="6.49309">
        <ele>2646</ele>
        <time>2022-01-22T15:36:25Z</time>
      </trkpt>
      <trkpt lat="45.05116" lon="6.49314">
        <ele>2647</ele>
        <time>2022-01-22T15:36:27Z</time>
      </trkpt>
      <trkpt lat="45.05114" lon="6.49316">
        <ele>2647</ele>
        <time>2022-01-22T15:36:29Z</time>
      </trkpt>
      <trkpt lat="45.05108" lon="6.49315">
        <ele>2647</ele>
        <time>2022-01-22T15:36:31Z</time>
      </trkpt>
      <trkpt lat="45.051" lon="6.49316">
        <ele>2645</ele>
        <time>2022-01-22T15:36:33Z</time>
      </trkpt>
      <trkpt lat="45.05094" lon="6.49321">
        <ele>2645</ele>
        <time>2022-01-22T15:36:35Z</time>
      </trkpt>
      <trkpt lat="45.05087" lon="6.49315">
        <ele>2646</ele>
        <time>2022-01-22T15:36:46Z</time>
      </trkpt>
      <trkpt lat="45.05085" lon="6.4928">
        <ele>2643</ele>
        <time>2022-01-22T15:36:50Z</time>
      </trkpt>
      <trkpt lat="45.05082" lon="6.49263">
        <ele>2640</ele>
        <time>2022-01-22T15:36:52Z</time>
      </trkpt>
      <trkpt lat="45.05079" lon="6.49258">
        <ele>2639</ele>
        <time>2022-01-22T15:36:53Z</time>
      </trkpt>
      <trkpt lat="45.05076" lon="6.49259">
        <ele>2637</ele>
        <time>2022-01-22T15:36:54Z</time>
      </trkpt>
      <trkpt lat="45.05072" lon="6.49268">
        <ele>2635</ele>
        <time>2022-01-22T15:36:56Z</time>
      </trkpt>
      <trkpt lat="45.0507" lon="6.49272">
        <ele>2634</ele>
        <time>2022-01-22T15:36:57Z</time>
      </trkpt>
      <trkpt lat="45.05066" lon="6.49272">
        <ele>2632</ele>
        <time>2022-01-22T15:36:58Z</time>
      </trkpt>
      <trkpt lat="45.05059" lon="6.49263">
        <ele>2629</ele>
        <time>2022-01-22T15:37:00Z</time>
      </trkpt>
      <trkpt lat="45.05056" lon="6.49261">
        <ele>2628</ele>
        <time>2022-01-22T15:37:01Z</time>
      </trkpt>
      <trkpt lat="45.05052" lon="6.49263">
        <ele>2626</ele>
        <time>2022-01-22T15:37:02Z</time>
      </trkpt>
      <trkpt lat="45.05048" lon="6.49261">
        <ele>2624</ele>
        <time>2022-01-22T15:37:03Z</time>
      </trkpt>
      <trkpt lat="45.05044" lon="6.49263">
        <ele>2622</ele>
        <time>2022-01-22T15:37:04Z</time>
      </trkpt>
      <trkpt lat="45.0504" lon="6.49267">
        <ele>2620</ele>
        <time>2022-01-22T15:37:05Z</time>
      </trkpt>
      <trkpt lat="45.05031" lon="6.49266">
        <ele>2614</ele>
        <time>2022-01-22T15:37:07Z</time>
      </trkpt>
      <trkpt lat="45.05022" lon="6.49275">
        <ele>2610</ele>
        <time>2022-01-22T15:37:09Z</time>
      </trkpt>
      <trkpt lat="45.05017" lon="6.49272">
        <ele>2607</ele>
        <time>2022-01-22T15:37:10Z</time>
      </trkpt>
      <trkpt lat="45.05003" lon="6.49272">
        <ele>2599</ele>
        <time>2022-01-22T15:37:13Z</time>
      </trkpt>
      <trkpt lat="45.04998" lon="6.49268">
        <ele>2597</ele>
        <time>2022-01-22T15:37:14Z</time>
      </trkpt>
      <trkpt lat="45.04993" lon="6.49261">
        <ele>2595</ele>
        <time>2022-01-22T15:37:15Z</time>
      </trkpt>
      <trkpt lat="45.04986" lon="6.49257">
        <ele>2593</ele>
        <time>2022-01-22T15:37:16Z</time>
      </trkpt>
      <trkpt lat="45.04982" lon="6.49259">
        <ele>2590</ele>
        <time>2022-01-22T15:37:17Z</time>
      </trkpt>
      <trkpt lat="45.04972" lon="6.49266">
        <ele>2586</ele>
        <time>2022-01-22T15:37:19Z</time>
      </trkpt>
      <trkpt lat="45.04965" lon="6.49263">
        <ele>2585</ele>
        <time>2022-01-22T15:37:20Z</time>
      </trkpt>
      <trkpt lat="45.04958" lon="6.49251">
        <ele>2582</ele>
        <time>2022-01-22T15:37:21Z</time>
      </trkpt>
      <trkpt lat="45.04948" lon="6.4923">
        <ele>2577</ele>
        <time>2022-01-22T15:37:23Z</time>
      </trkpt>
      <trkpt lat="45.04944" lon="6.49222">
        <ele>2574</ele>
        <time>2022-01-22T15:37:24Z</time>
      </trkpt>
      <trkpt lat="45.0494" lon="6.49215">
        <ele>2572</ele>
        <time>2022-01-22T15:37:25Z</time>
      </trkpt>
      <trkpt lat="45.04933" lon="6.49203">
        <ele>2567</ele>
        <time>2022-01-22T15:37:27Z</time>
      </trkpt>
      <trkpt lat="45.04928" lon="6.49199">
        <ele>2566</ele>
        <time>2022-01-22T15:37:28Z</time>
      </trkpt>
      <trkpt lat="45.04921" lon="6.49191">
        <ele>2562</ele>
        <time>2022-01-22T15:37:30Z</time>
      </trkpt>
      <trkpt lat="45.04917" lon="6.49188">
        <ele>2558</ele>
        <time>2022-01-22T15:37:39Z</time>
      </trkpt>
      <trkpt lat="45.04915" lon="6.49189">
        <ele>2558</ele>
        <time>2022-01-22T15:37:40Z</time>
      </trkpt>
      <trkpt lat="45.04913" lon="6.4919">
        <ele>2556</ele>
        <time>2022-01-22T15:37:41Z</time>
      </trkpt>
      <trkpt lat="45.04914" lon="6.49161">
        <ele>2545</ele>
        <time>2022-01-22T15:37:54Z</time>
      </trkpt>
      <trkpt lat="45.0491" lon="6.49153">
        <ele>2543</ele>
        <time>2022-01-22T15:37:55Z</time>
      </trkpt>
      <trkpt lat="45.049" lon="6.49145">
        <ele>2540</ele>
        <time>2022-01-22T15:37:57Z</time>
      </trkpt>
      <trkpt lat="45.04896" lon="6.49139">
        <ele>2539</ele>
        <time>2022-01-22T15:37:58Z</time>
      </trkpt>
      <trkpt lat="45.04891" lon="6.49137">
        <ele>2538</ele>
        <time>2022-01-22T15:37:59Z</time>
      </trkpt>
      <trkpt lat="45.04886" lon="6.49139">
        <ele>2538</ele>
        <time>2022-01-22T15:38:00Z</time>
      </trkpt>
      <trkpt lat="45.04881" lon="6.49142">
        <ele>2537</ele>
        <time>2022-01-22T15:38:01Z</time>
      </trkpt>
      <trkpt lat="45.04877" lon="6.49138">
        <ele>2536</ele>
        <time>2022-01-22T15:38:02Z</time>
      </trkpt>
      <trkpt lat="45.04874" lon="6.49138">
        <ele>2535</ele>
        <time>2022-01-22T15:38:03Z</time>
      </trkpt>
      <trkpt lat="45.0487" lon="6.4914">
        <ele>2534</ele>
        <time>2022-01-22T15:38:04Z</time>
      </trkpt>
      <trkpt lat="45.0486" lon="6.49156">
        <ele>2531</ele>
        <time>2022-01-22T15:38:07Z</time>
      </trkpt>
      <trkpt lat="45.04858" lon="6.4916">
        <ele>2530</ele>
        <time>2022-01-22T15:38:08Z</time>
      </trkpt>
      <trkpt lat="45.04844" lon="6.4916">
        <ele>2527</ele>
        <time>2022-01-22T15:38:20Z</time>
      </trkpt>
      <trkpt lat="45.0482" lon="6.49173">
        <ele>2523</ele>
        <time>2022-01-22T15:38:23Z</time>
      </trkpt>
      <trkpt lat="45.04812" lon="6.49178">
        <ele>2521</ele>
        <time>2022-01-22T15:38:24Z</time>
      </trkpt>
      <trkpt lat="45.04801" lon="6.49184">
        <ele>2518</ele>
        <time>2022-01-22T15:38:25Z</time>
      </trkpt>
      <trkpt lat="45.0479" lon="6.49191">
        <ele>2516</ele>
        <time>2022-01-22T15:38:26Z</time>
      </trkpt>
      <trkpt lat="45.04779" lon="6.49196">
        <ele>2513</ele>
        <time>2022-01-22T15:38:27Z</time>
      </trkpt>
      <trkpt lat="45.04762" lon="6.49199">
        <ele>2509</ele>
        <time>2022-01-22T15:38:29Z</time>
      </trkpt>
      <trkpt lat="45.04755" lon="6.49197">
        <ele>2506</ele>
        <time>2022-01-22T15:38:30Z</time>
      </trkpt>
      <trkpt lat="45.04706" lon="6.49158">
        <ele>2492</ele>
        <time>2022-01-22T15:38:38Z</time>
      </trkpt>
      <trkpt lat="45.04655" lon="6.49141">
        <ele>2480</ele>
        <time>2022-01-22T15:38:47Z</time>
      </trkpt>
      <trkpt lat="45.04616" lon="6.49119">
        <ele>2474</ele>
        <time>2022-01-22T15:38:52Z</time>
      </trkpt>
      <trkpt lat="45.04602" lon="6.49108">
        <ele>2473</ele>
        <time>2022-01-22T15:38:55Z</time>
      </trkpt>
      <trkpt lat="45.04522" lon="6.49069">
        <ele>2461</ele>
        <time>2022-01-22T15:39:14Z</time>
      </trkpt>
      <trkpt lat="45.04474" lon="6.49027">
        <ele>2454</ele>
        <time>2022-01-22T15:39:24Z</time>
      </trkpt>
      <trkpt lat="45.04461" lon="6.49011">
        <ele>2450</ele>
        <time>2022-01-22T15:39:29Z</time>
      </trkpt>
      <trkpt lat="45.04455" lon="6.49006">
        <ele>2450</ele>
        <time>2022-01-22T15:39:31Z</time>
      </trkpt>
      <trkpt lat="45.04452" lon="6.49004">
        <ele>2450</ele>
        <time>2022-01-22T15:39:32Z</time>
      </trkpt>
      <trkpt lat="45.04442" lon="6.49002">
        <ele>2450</ele>
        <time>2022-01-22T15:39:36Z</time>
      </trkpt>
      <trkpt lat="45.04431" lon="6.48997">
        <ele>2448</ele>
        <time>2022-01-22T15:39:43Z</time>
      </trkpt>
      <trkpt lat="45.0439" lon="6.48964">
        <ele>2444</ele>
        <time>2022-01-22T15:39:55Z</time>
      </trkpt>
      <trkpt lat="45.04384" lon="6.48962">
        <ele>2443</ele>
        <time>2022-01-22T15:39:57Z</time>
      </trkpt>
      <trkpt lat="45.04306" lon="6.48959">
        <ele>2436</ele>
        <time>2022-01-22T15:40:13Z</time>
      </trkpt>
      <trkpt lat="45.04259" lon="6.48961">
        <ele>2428</ele>
        <time>2022-01-22T15:40:19Z</time>
      </trkpt>
      <trkpt lat="45.04148" lon="6.48923">
        <ele>2412</ele>
        <time>2022-01-22T15:40:49Z</time>
      </trkpt>
      <trkpt lat="45.04062" lon="6.48888">
        <ele>2402</ele>
        <time>2022-01-22T15:41:08Z</time>
      </trkpt>
      <trkpt lat="45.04043" lon="6.48888">
        <ele>2402</ele>
        <time>2022-01-22T15:41:12Z</time>
      </trkpt>
      <trkpt lat="45.04006" lon="6.48897">
        <ele>2398</ele>
        <time>2022-01-22T15:41:24Z</time>
      </trkpt>
      <trkpt lat="45.03981" lon="6.4891">
        <ele>2396</ele>
        <time>2022-01-22T15:41:29Z</time>
      </trkpt>
      <trkpt lat="45.03969" lon="6.48913">
        <ele>2395</ele>
        <time>2022-01-22T15:41:31Z</time>
      </trkpt>
      <trkpt lat="45.03964" lon="6.48904">
        <ele>2391</ele>
        <time>2022-01-22T15:41:32Z</time>
      </trkpt>
      <trkpt lat="45.03959" lon="6.48899">
        <ele>2388</ele>
        <time>2022-01-22T15:41:33Z</time>
      </trkpt>
      <trkpt lat="45.03921" lon="6.48908">
        <ele>2381</ele>
        <time>2022-01-22T15:41:38Z</time>
      </trkpt>
      <trkpt lat="45.03907" lon="6.48915">
        <ele>2378</ele>
        <time>2022-01-22T15:41:40Z</time>
      </trkpt>
      <trkpt lat="45.03883" lon="6.48951">
        <ele>2370</ele>
        <time>2022-01-22T15:41:45Z</time>
      </trkpt>
      <trkpt lat="45.03871" lon="6.4896">
        <ele>2367</ele>
        <time>2022-01-22T15:41:47Z</time>
      </trkpt>
      <trkpt lat="45.03847" lon="6.48967">
        <ele>2363</ele>
        <time>2022-01-22T15:41:50Z</time>
      </trkpt>
      <trkpt lat="45.03829" lon="6.48964">
        <ele>2361</ele>
        <time>2022-01-22T15:41:52Z</time>
      </trkpt>
      <trkpt lat="45.0382" lon="6.48959">
        <ele>2360</ele>
        <time>2022-01-22T15:41:53Z</time>
      </trkpt>
      <trkpt lat="45.03783" lon="6.48919">
        <ele>2358</ele>
        <time>2022-01-22T15:41:58Z</time>
      </trkpt>
      <trkpt lat="45.03766" lon="6.48896">
        <ele>2355</ele>
        <time>2022-01-22T15:42:01Z</time>
      </trkpt>
      <trkpt lat="45.03759" lon="6.48877">
        <ele>2351</ele>
        <time>2022-01-22T15:42:03Z</time>
      </trkpt>
      <trkpt lat="45.03753" lon="6.48831">
        <ele>2344</ele>
        <time>2022-01-22T15:42:08Z</time>
      </trkpt>
      <trkpt lat="45.03754" lon="6.48827">
        <ele>2343</ele>
        <time>2022-01-22T15:42:09Z</time>
      </trkpt>
      <trkpt lat="45.03754" lon="6.48824">
        <ele>2341</ele>
        <time>2022-01-22T15:42:10Z</time>
      </trkpt>
      <trkpt lat="45.03754" lon="6.48821">
        <ele>2339</ele>
        <time>2022-01-22T15:42:12Z</time>
      </trkpt>
      <trkpt lat="45.03751" lon="6.48815">
        <ele>2335</ele>
        <time>2022-01-22T15:42:14Z</time>
      </trkpt>
      <trkpt lat="45.03749" lon="6.4881">
        <ele>2333</ele>
        <time>2022-01-22T15:42:15Z</time>
      </trkpt>
      <trkpt lat="45.03753" lon="6.48804">
        <ele>2332</ele>
        <time>2022-01-22T15:42:16Z</time>
      </trkpt>
      <trkpt lat="45.03762" lon="6.48791">
        <ele>2329</ele>
        <time>2022-01-22T15:42:18Z</time>
      </trkpt>
      <trkpt lat="45.03769" lon="6.48772">
        <ele>2326</ele>
        <time>2022-01-22T15:42:20Z</time>
      </trkpt>
      <trkpt lat="45.03771" lon="6.48763">
        <ele>2324</ele>
        <time>2022-01-22T15:42:21Z</time>
      </trkpt>
      <trkpt lat="45.03771" lon="6.48755">
        <ele>2323</ele>
        <time>2022-01-22T15:42:22Z</time>
      </trkpt>
      <trkpt lat="45.03769" lon="6.48751">
        <ele>2323</ele>
        <time>2022-01-22T15:42:23Z</time>
      </trkpt>
      <trkpt lat="45.03765" lon="6.48751">
        <ele>2322</ele>
        <time>2022-01-22T15:42:24Z</time>
      </trkpt>
      <trkpt lat="45.03746" lon="6.48751">
        <ele>2323</ele>
        <time>2022-01-22T15:42:31Z</time>
      </trkpt>
      <trkpt lat="45.03744" lon="6.48751">
        <ele>2323</ele>
        <time>2022-01-22T15:42:32Z</time>
      </trkpt>
      <trkpt lat="45.03742" lon="6.48751">
        <ele>2326</ele>
        <time>2022-01-22T15:42:33Z</time>
      </trkpt>
      <trkpt lat="45.03735" lon="6.4875">
        <ele>2329</ele>
        <time>2022-01-22T15:42:36Z</time>
      </trkpt>
      <trkpt lat="45.03733" lon="6.48749">
        <ele>2328</ele>
        <time>2022-01-22T15:42:37Z</time>
      </trkpt>
      <trkpt lat="45.03731" lon="6.48748">
        <ele>2328</ele>
        <time>2022-01-22T15:42:38Z</time>
      </trkpt>
      <trkpt lat="45.0373" lon="6.48744">
        <ele>2327</ele>
        <time>2022-01-22T15:42:39Z</time>
      </trkpt>
      <trkpt lat="45.03732" lon="6.48739">
        <ele>2326</ele>
        <time>2022-01-22T15:42:40Z</time>
      </trkpt>
      <trkpt lat="45.03748" lon="6.48717">
        <ele>2323</ele>
        <time>2022-01-22T15:42:43Z</time>
      </trkpt>
      <trkpt lat="45.03759" lon="6.487">
        <ele>2320</ele>
        <time>2022-01-22T15:42:45Z</time>
      </trkpt>
      <trkpt lat="45.03763" lon="6.48692">
        <ele>2319</ele>
        <time>2022-01-22T15:42:46Z</time>
      </trkpt>
      <trkpt lat="45.03762" lon="6.48687">
        <ele>2317</ele>
        <time>2022-01-22T15:42:47Z</time>
      </trkpt>
      <trkpt lat="45.03758" lon="6.48685">
        <ele>2316</ele>
        <time>2022-01-22T15:42:48Z</time>
      </trkpt>
      <trkpt lat="45.03754" lon="6.4868">
        <ele>2315</ele>
        <time>2022-01-22T15:42:49Z</time>
      </trkpt>
      <trkpt lat="45.03752" lon="6.48668">
        <ele>2313</ele>
        <time>2022-01-22T15:42:50Z</time>
      </trkpt>
      <trkpt lat="45.03753" lon="6.48656">
        <ele>2311</ele>
        <time>2022-01-22T15:42:51Z</time>
      </trkpt>
      <trkpt lat="45.03755" lon="6.48644">
        <ele>2309</ele>
        <time>2022-01-22T15:42:52Z</time>
      </trkpt>
      <trkpt lat="45.03757" lon="6.48633">
        <ele>2306</ele>
        <time>2022-01-22T15:42:53Z</time>
      </trkpt>
      <trkpt lat="45.03758" lon="6.48614">
        <ele>2303</ele>
        <time>2022-01-22T15:42:55Z</time>
      </trkpt>
      <trkpt lat="45.03755" lon="6.48607">
        <ele>2301</ele>
        <time>2022-01-22T15:42:56Z</time>
      </trkpt>
      <trkpt lat="45.03746" lon="6.48615">
        <ele>2300</ele>
        <time>2022-01-22T15:42:57Z</time>
      </trkpt>
      <trkpt lat="45.03738" lon="6.48618">
        <ele>2298</ele>
        <time>2022-01-22T15:42:58Z</time>
      </trkpt>
      <trkpt lat="45.03731" lon="6.48614">
        <ele>2295</ele>
        <time>2022-01-22T15:42:59Z</time>
      </trkpt>
      <trkpt lat="45.03719" lon="6.48596">
        <ele>2292</ele>
        <time>2022-01-22T15:43:01Z</time>
      </trkpt>
      <trkpt lat="45.0371" lon="6.48588">
        <ele>2291</ele>
        <time>2022-01-22T15:43:02Z</time>
      </trkpt>
      <trkpt lat="45.03699" lon="6.48585">
        <ele>2288</ele>
        <time>2022-01-22T15:43:03Z</time>
      </trkpt>
      <trkpt lat="45.03689" lon="6.48581">
        <ele>2286</ele>
        <time>2022-01-22T15:43:04Z</time>
      </trkpt>
      <trkpt lat="45.03682" lon="6.48574">
        <ele>2284</ele>
        <time>2022-01-22T15:43:05Z</time>
      </trkpt>
      <trkpt lat="45.03673" lon="6.48569">
        <ele>2281</ele>
        <time>2022-01-22T15:43:06Z</time>
      </trkpt>
      <trkpt lat="45.03665" lon="6.4857">
        <ele>2280</ele>
        <time>2022-01-22T15:43:07Z</time>
      </trkpt>
      <trkpt lat="45.03652" lon="6.48579">
        <ele>2277</ele>
        <time>2022-01-22T15:43:09Z</time>
      </trkpt>
      <trkpt lat="45.03642" lon="6.48569">
        <ele>2273</ele>
        <time>2022-01-22T15:43:11Z</time>
      </trkpt>
      <trkpt lat="45.03633" lon="6.48557">
        <ele>2271</ele>
        <time>2022-01-22T15:43:13Z</time>
      </trkpt>
      <trkpt lat="45.03625" lon="6.48566">
        <ele>2269</ele>
        <time>2022-01-22T15:43:15Z</time>
      </trkpt>
      <trkpt lat="45.03619" lon="6.48568">
        <ele>2267</ele>
        <time>2022-01-22T15:43:16Z</time>
      </trkpt>
      <trkpt lat="45.03615" lon="6.48566">
        <ele>2266</ele>
        <time>2022-01-22T15:43:17Z</time>
      </trkpt>
      <trkpt lat="45.03611" lon="6.48562">
        <ele>2265</ele>
        <time>2022-01-22T15:43:18Z</time>
      </trkpt>
      <trkpt lat="45.03606" lon="6.48551">
        <ele>2262</ele>
        <time>2022-01-22T15:43:20Z</time>
      </trkpt>
      <trkpt lat="45.03602" lon="6.48521">
        <ele>2257</ele>
        <time>2022-01-22T15:43:23Z</time>
      </trkpt>
      <trkpt lat="45.03597" lon="6.48513">
        <ele>2255</ele>
        <time>2022-01-22T15:43:24Z</time>
      </trkpt>
      <trkpt lat="45.03591" lon="6.48512">
        <ele>2253</ele>
        <time>2022-01-22T15:43:25Z</time>
      </trkpt>
      <trkpt lat="45.03574" lon="6.48525">
        <ele>2249</ele>
        <time>2022-01-22T15:43:28Z</time>
      </trkpt>
      <trkpt lat="45.03569" lon="6.4853">
        <ele>2248</ele>
        <time>2022-01-22T15:43:29Z</time>
      </trkpt>
      <trkpt lat="45.03559" lon="6.48544">
        <ele>2246</ele>
        <time>2022-01-22T15:43:31Z</time>
      </trkpt>
      <trkpt lat="45.03554" lon="6.48547">
        <ele>2244</ele>
        <time>2022-01-22T15:43:32Z</time>
      </trkpt>
      <trkpt lat="45.03542" lon="6.48544">
        <ele>2240</ele>
        <time>2022-01-22T15:43:34Z</time>
      </trkpt>
      <trkpt lat="45.03536" lon="6.48544">
        <ele>2239</ele>
        <time>2022-01-22T15:43:35Z</time>
      </trkpt>
      <trkpt lat="45.03534" lon="6.4855">
        <ele>2239</ele>
        <time>2022-01-22T15:43:36Z</time>
      </trkpt>
      <trkpt lat="45.03535" lon="6.48559">
        <ele>2238</ele>
        <time>2022-01-22T15:43:38Z</time>
      </trkpt>
      <trkpt lat="45.03537" lon="6.48558">
        <ele>2238</ele>
        <time>2022-01-22T15:43:40Z</time>
      </trkpt>
      <trkpt lat="45.03492" lon="6.48617">
        <ele>2232</ele>
        <time>2022-01-22T15:43:57Z</time>
      </trkpt>
      <trkpt lat="45.03443" lon="6.48665">
        <ele>2222</ele>
        <time>2022-01-22T15:44:05Z</time>
      </trkpt>
      <trkpt lat="45.03425" lon="6.48671">
        <ele>2219</ele>
        <time>2022-01-22T15:44:07Z</time>
      </trkpt>
      <trkpt lat="45.03365" lon="6.48671">
        <ele>2209</ele>
        <time>2022-01-22T15:44:17Z</time>
      </trkpt>
      <trkpt lat="45.03348" lon="6.48667">
        <ele>2207</ele>
        <time>2022-01-22T15:44:22Z</time>
      </trkpt>
      <trkpt lat="45.03324" lon="6.48668">
        <ele>2204</ele>
        <time>2022-01-22T15:44:28Z</time>
      </trkpt>
      <trkpt lat="45.03289" lon="6.48671">
        <ele>2203</ele>
        <time>2022-01-22T15:44:35Z</time>
      </trkpt>
      <trkpt lat="45.03275" lon="6.48671">
        <ele>2202</ele>
        <time>2022-01-22T15:44:37Z</time>
      </trkpt>
      <trkpt lat="45.03243" lon="6.48657">
        <ele>2198</ele>
        <time>2022-01-22T15:44:43Z</time>
      </trkpt>
      <trkpt lat="45.03137" lon="6.48575">
        <ele>2178</ele>
        <time>2022-01-22T15:45:06Z</time>
      </trkpt>
      <trkpt lat="45.03125" lon="6.4857">
        <ele>2173</ele>
        <time>2022-01-22T15:45:10Z</time>
      </trkpt>
      <trkpt lat="45.03116" lon="6.48559">
        <ele>2169</ele>
        <time>2022-01-22T15:45:15Z</time>
      </trkpt>
      <trkpt lat="45.03102" lon="6.48538">
        <ele>2166</ele>
        <time>2022-01-22T15:45:25Z</time>
      </trkpt>
      <trkpt lat="45.03091" lon="6.48528">
        <ele>2164</ele>
        <time>2022-01-22T15:45:34Z</time>
      </trkpt>
      <trkpt lat="45.03088" lon="6.48522">
        <ele>2165</ele>
        <time>2022-01-22T15:45:38Z</time>
      </trkpt>
      <trkpt lat="45.0308" lon="6.48517">
        <ele>2166</ele>
        <time>2022-01-22T15:45:44Z</time>
      </trkpt>
      <trkpt lat="45.03078" lon="6.48516">
        <ele>2167</ele>
        <time>2022-01-22T15:45:45Z</time>
      </trkpt>
      <trkpt lat="45.03075" lon="6.48515">
        <ele>2168</ele>
        <time>2022-01-22T15:45:47Z</time>
      </trkpt>
      <trkpt lat="45.0306" lon="6.48516">
        <ele>2172</ele>
        <time>2022-01-22T15:45:55Z</time>
      </trkpt>
      <trkpt lat="45.03057" lon="6.48517">
        <ele>2173</ele>
        <time>2022-01-22T15:45:56Z</time>
      </trkpt>
      <trkpt lat="45.03045" lon="6.4853">
        <ele>2172</ele>
        <time>2022-01-22T15:46:01Z</time>
      </trkpt>
      <trkpt lat="45.03034" lon="6.48534">
        <ele>2170</ele>
        <time>2022-01-22T15:46:03Z</time>
      </trkpt>
      <trkpt lat="45.0293" lon="6.48549">
        <ele>2153</ele>
        <time>2022-01-22T15:46:16Z</time>
      </trkpt>
      <trkpt lat="45.02921" lon="6.48544">
        <ele>2150</ele>
        <time>2022-01-22T15:46:18Z</time>
      </trkpt>
      <trkpt lat="45.02914" lon="6.48536">
        <ele>2149</ele>
        <time>2022-01-22T15:46:20Z</time>
      </trkpt>
      <trkpt lat="45.02911" lon="6.48531">
        <ele>2148</ele>
        <time>2022-01-22T15:46:21Z</time>
      </trkpt>
      <trkpt lat="45.02896" lon="6.48438">
        <ele>2140</ele>
        <time>2022-01-22T15:46:30Z</time>
      </trkpt>
      <trkpt lat="45.02894" lon="6.48372">
        <ele>2132</ele>
        <time>2022-01-22T15:46:35Z</time>
      </trkpt>
      <trkpt lat="45.02903" lon="6.48312">
        <ele>2123</ele>
        <time>2022-01-22T15:46:40Z</time>
      </trkpt>
      <trkpt lat="45.02902" lon="6.48302">
        <ele>2122</ele>
        <time>2022-01-22T15:46:41Z</time>
      </trkpt>
      <trkpt lat="45.02894" lon="6.48278">
        <ele>2119</ele>
        <time>2022-01-22T15:46:44Z</time>
      </trkpt>
      <trkpt lat="45.02889" lon="6.48272">
        <ele>2118</ele>
        <time>2022-01-22T15:46:46Z</time>
      </trkpt>
      <trkpt lat="45.02881" lon="6.48268">
        <ele>2120</ele>
        <time>2022-01-22T15:46:50Z</time>
      </trkpt>
      <trkpt lat="45.02879" lon="6.48267">
        <ele>2121</ele>
        <time>2022-01-22T15:46:51Z</time>
      </trkpt>
      <trkpt lat="45.02877" lon="6.48267">
        <ele>2122</ele>
        <time>2022-01-22T15:46:52Z</time>
      </trkpt>
      <trkpt lat="45.02875" lon="6.48265">
        <ele>2123</ele>
        <time>2022-01-22T15:46:53Z</time>
      </trkpt>
      <trkpt lat="45.02851" lon="6.48271">
        <ele>2119</ele>
        <time>2022-01-22T15:47:03Z</time>
      </trkpt>
      <trkpt lat="45.02813" lon="6.48265">
        <ele>2114</ele>
        <time>2022-01-22T15:47:13Z</time>
      </trkpt>
      <trkpt lat="45.02802" lon="6.4826">
        <ele>2113</ele>
        <time>2022-01-22T15:47:15Z</time>
      </trkpt>
      <trkpt lat="45.02807" lon="6.48244">
        <ele>2110</ele>
        <time>2022-01-22T15:47:17Z</time>
      </trkpt>
      <trkpt lat="45.02806" lon="6.48237">
        <ele>2109</ele>
        <time>2022-01-22T15:47:18Z</time>
      </trkpt>
      <trkpt lat="45.02799" lon="6.48237">
        <ele>2109</ele>
        <time>2022-01-22T15:47:20Z</time>
      </trkpt>
      <trkpt lat="45.02772" lon="6.48234">
        <ele>2102</ele>
        <time>2022-01-22T15:47:25Z</time>
      </trkpt>
      <trkpt lat="45.02769" lon="6.48229">
        <ele>2100</ele>
        <time>2022-01-22T15:47:26Z</time>
      </trkpt>
      <trkpt lat="45.02768" lon="6.48222">
        <ele>2097</ele>
        <time>2022-01-22T15:47:27Z</time>
      </trkpt>
      <trkpt lat="45.0277" lon="6.48214">
        <ele>2094</ele>
        <time>2022-01-22T15:47:28Z</time>
      </trkpt>
      <trkpt lat="45.02773" lon="6.48206">
        <ele>2091</ele>
        <time>2022-01-22T15:47:29Z</time>
      </trkpt>
      <trkpt lat="45.02774" lon="6.48197">
        <ele>2089</ele>
        <time>2022-01-22T15:47:30Z</time>
      </trkpt>
      <trkpt lat="45.02769" lon="6.4819">
        <ele>2087</ele>
        <time>2022-01-22T15:47:31Z</time>
      </trkpt>
      <trkpt lat="45.02757" lon="6.48183">
        <ele>2084</ele>
        <time>2022-01-22T15:47:33Z</time>
      </trkpt>
      <trkpt lat="45.02741" lon="6.48181">
        <ele>2081</ele>
        <time>2022-01-22T15:47:36Z</time>
      </trkpt>
      <trkpt lat="45.02737" lon="6.48179">
        <ele>2079</ele>
        <time>2022-01-22T15:47:37Z</time>
      </trkpt>
      <trkpt lat="45.02735" lon="6.48174">
        <ele>2079</ele>
        <time>2022-01-22T15:47:38Z</time>
      </trkpt>
      <trkpt lat="45.02736" lon="6.48168">
        <ele>2078</ele>
        <time>2022-01-22T15:47:39Z</time>
      </trkpt>
      <trkpt lat="45.02739" lon="6.48163">
        <ele>2077</ele>
        <time>2022-01-22T15:47:40Z</time>
      </trkpt>
      <trkpt lat="45.0274" lon="6.48152">
        <ele>2074</ele>
        <time>2022-01-22T15:47:42Z</time>
      </trkpt>
      <trkpt lat="45.02739" lon="6.48146">
        <ele>2073</ele>
        <time>2022-01-22T15:47:43Z</time>
      </trkpt>
      <trkpt lat="45.02736" lon="6.48142">
        <ele>2071</ele>
        <time>2022-01-22T15:47:44Z</time>
      </trkpt>
      <trkpt lat="45.02735" lon="6.48137">
        <ele>2070</ele>
        <time>2022-01-22T15:47:45Z</time>
      </trkpt>
      <trkpt lat="45.02735" lon="6.48132">
        <ele>2068</ele>
        <time>2022-01-22T15:47:46Z</time>
      </trkpt>
      <trkpt lat="45.02737" lon="6.48125">
        <ele>2066</ele>
        <time>2022-01-22T15:47:47Z</time>
      </trkpt>
      <trkpt lat="45.02741" lon="6.48121">
        <ele>2064</ele>
        <time>2022-01-22T15:47:48Z</time>
      </trkpt>
      <trkpt lat="45.02745" lon="6.48116">
        <ele>2063</ele>
        <time>2022-01-22T15:47:49Z</time>
      </trkpt>
      <trkpt lat="45.02747" lon="6.48111">
        <ele>2062</ele>
        <time>2022-01-22T15:47:50Z</time>
      </trkpt>
      <trkpt lat="45.02744" lon="6.481">
        <ele>2058</ele>
        <time>2022-01-22T15:47:52Z</time>
      </trkpt>
      <trkpt lat="45.02745" lon="6.48094">
        <ele>2057</ele>
        <time>2022-01-22T15:47:53Z</time>
      </trkpt>
      <trkpt lat="45.02745" lon="6.48088">
        <ele>2056</ele>
        <time>2022-01-22T15:47:54Z</time>
      </trkpt>
      <trkpt lat="45.02742" lon="6.48075">
        <ele>2054</ele>
        <time>2022-01-22T15:47:56Z</time>
      </trkpt>
      <trkpt lat="45.02743" lon="6.48068">
        <ele>2053</ele>
        <time>2022-01-22T15:47:57Z</time>
      </trkpt>
      <trkpt lat="45.0276" lon="6.48044">
        <ele>2046</ele>
        <time>2022-01-22T15:48:02Z</time>
      </trkpt>
      <trkpt lat="45.02762" lon="6.48038">
        <ele>2045</ele>
        <time>2022-01-22T15:48:03Z</time>
      </trkpt>
      <trkpt lat="45.02762" lon="6.48033">
        <ele>2044</ele>
        <time>2022-01-22T15:48:04Z</time>
      </trkpt>
      <trkpt lat="45.02753" lon="6.48027">
        <ele>2042</ele>
        <time>2022-01-22T15:48:06Z</time>
      </trkpt>
      <trkpt lat="45.02742" lon="6.48006">
        <ele>2036</ele>
        <time>2022-01-22T15:48:09Z</time>
      </trkpt>
      <trkpt lat="45.02725" lon="6.47987">
        <ele>2029</ele>
        <time>2022-01-22T15:48:13Z</time>
      </trkpt>
      <trkpt lat="45.02719" lon="6.47983">
        <ele>2026</ele>
        <time>2022-01-22T15:48:14Z</time>
      </trkpt>
      <trkpt lat="45.02713" lon="6.47981">
        <ele>2024</ele>
        <time>2022-01-22T15:48:15Z</time>
      </trkpt>
      <trkpt lat="45.02707" lon="6.4798">
        <ele>2022</ele>
        <time>2022-01-22T15:48:16Z</time>
      </trkpt>
      <trkpt lat="45.02702" lon="6.47982">
        <ele>2020</ele>
        <time>2022-01-22T15:48:17Z</time>
      </trkpt>
      <trkpt lat="45.02693" lon="6.47979">
        <ele>2018</ele>
        <time>2022-01-22T15:48:19Z</time>
      </trkpt>
      <trkpt lat="45.02685" lon="6.47976">
        <ele>2016</ele>
        <time>2022-01-22T15:48:21Z</time>
      </trkpt>
      <trkpt lat="45.02681" lon="6.47973">
        <ele>2015</ele>
        <time>2022-01-22T15:48:22Z</time>
      </trkpt>
      <trkpt lat="45.02681" lon="6.47967">
        <ele>2014</ele>
        <time>2022-01-22T15:48:23Z</time>
      </trkpt>
      <trkpt lat="45.02679" lon="6.47964">
        <ele>2013</ele>
        <time>2022-01-22T15:48:24Z</time>
      </trkpt>
      <trkpt lat="45.02675" lon="6.47962">
        <ele>2011</ele>
        <time>2022-01-22T15:48:25Z</time>
      </trkpt>
      <trkpt lat="45.02666" lon="6.47962">
        <ele>2009</ele>
        <time>2022-01-22T15:48:27Z</time>
      </trkpt>
      <trkpt lat="45.02644" lon="6.47964">
        <ele>2005</ele>
        <time>2022-01-22T15:48:30Z</time>
      </trkpt>
      <trkpt lat="45.02633" lon="6.47961">
        <ele>2003</ele>
        <time>2022-01-22T15:48:32Z</time>
      </trkpt>
      <trkpt lat="45.02621" lon="6.47955">
        <ele>2001</ele>
        <time>2022-01-22T15:48:34Z</time>
      </trkpt>
      <trkpt lat="45.02608" lon="6.47941">
        <ele>2000</ele>
        <time>2022-01-22T15:48:37Z</time>
      </trkpt>
      <trkpt lat="45.02606" lon="6.47935">
        <ele>1999</ele>
        <time>2022-01-22T15:48:38Z</time>
      </trkpt>
      <trkpt lat="45.02608" lon="6.47931">
        <ele>1999</ele>
        <time>2022-01-22T15:48:39Z</time>
      </trkpt>
      <trkpt lat="45.0261" lon="6.47927">
        <ele>1998</ele>
        <time>2022-01-22T15:48:40Z</time>
      </trkpt>
      <trkpt lat="45.0261" lon="6.47922">
        <ele>1997</ele>
        <time>2022-01-22T15:48:41Z</time>
      </trkpt>
      <trkpt lat="45.0261" lon="6.47918">
        <ele>1996</ele>
        <time>2022-01-22T15:48:42Z</time>
      </trkpt>
      <trkpt lat="45.02613" lon="6.47913">
        <ele>1994</ele>
        <time>2022-01-22T15:48:43Z</time>
      </trkpt>
      <trkpt lat="45.02617" lon="6.47911">
        <ele>1993</ele>
        <time>2022-01-22T15:48:44Z</time>
      </trkpt>
      <trkpt lat="45.02621" lon="6.47908">
        <ele>1992</ele>
        <time>2022-01-22T15:48:45Z</time>
      </trkpt>
      <trkpt lat="45.02623" lon="6.47905">
        <ele>1991</ele>
        <time>2022-01-22T15:48:46Z</time>
      </trkpt>
      <trkpt lat="45.02623" lon="6.479">
        <ele>1988</ele>
        <time>2022-01-22T15:48:47Z</time>
      </trkpt>
      <trkpt lat="45.02622" lon="6.47893">
        <ele>1985</ele>
        <time>2022-01-22T15:48:48Z</time>
      </trkpt>
      <trkpt lat="45.02626" lon="6.47887">
        <ele>1984</ele>
        <time>2022-01-22T15:48:49Z</time>
      </trkpt>
      <trkpt lat="45.02632" lon="6.47884">
        <ele>1984</ele>
        <time>2022-01-22T15:48:50Z</time>
      </trkpt>
      <trkpt lat="45.02634" lon="6.47879">
        <ele>1985</ele>
        <time>2022-01-22T15:48:51Z</time>
      </trkpt>
      <trkpt lat="45.02628" lon="6.47869">
        <ele>1986</ele>
        <time>2022-01-22T15:48:53Z</time>
      </trkpt>
      <trkpt lat="45.02626" lon="6.47862">
        <ele>1986</ele>
        <time>2022-01-22T15:48:54Z</time>
      </trkpt>
      <trkpt lat="45.02626" lon="6.47838">
        <ele>1985</ele>
        <time>2022-01-22T15:48:57Z</time>
      </trkpt>
      <trkpt lat="45.02628" lon="6.47832">
        <ele>1982</ele>
        <time>2022-01-22T15:48:58Z</time>
      </trkpt>
      <trkpt lat="45.02627" lon="6.47826">
        <ele>1980</ele>
        <time>2022-01-22T15:48:59Z</time>
      </trkpt>
      <trkpt lat="45.02624" lon="6.4782">
        <ele>1978</ele>
        <time>2022-01-22T15:49:00Z</time>
      </trkpt>
      <trkpt lat="45.02603" lon="6.47802">
        <ele>1973</ele>
        <time>2022-01-22T15:49:05Z</time>
      </trkpt>
      <trkpt lat="45.02574" lon="6.47781">
        <ele>1965</ele>
        <time>2022-01-22T15:49:11Z</time>
      </trkpt>
      <trkpt lat="45.0257" lon="6.47777">
        <ele>1962</ele>
        <time>2022-01-22T15:49:12Z</time>
      </trkpt>
      <trkpt lat="45.02567" lon="6.47769">
        <ele>1960</ele>
        <time>2022-01-22T15:49:13Z</time>
      </trkpt>
      <trkpt lat="45.0257" lon="6.47761">
        <ele>1957</ele>
        <time>2022-01-22T15:49:14Z</time>
      </trkpt>
      <trkpt lat="45.02572" lon="6.47752">
        <ele>1954</ele>
        <time>2022-01-22T15:49:15Z</time>
      </trkpt>
      <trkpt lat="45.02571" lon="6.47742">
        <ele>1950</ele>
        <time>2022-01-22T15:49:16Z</time>
      </trkpt>
      <trkpt lat="45.02568" lon="6.47732">
        <ele>1948</ele>
        <time>2022-01-22T15:49:17Z</time>
      </trkpt>
      <trkpt lat="45.02565" lon="6.47722">
        <ele>1946</ele>
        <time>2022-01-22T15:49:18Z</time>
      </trkpt>
      <trkpt lat="45.02566" lon="6.477">
        <ele>1943</ele>
        <time>2022-01-22T15:49:20Z</time>
      </trkpt>
      <trkpt lat="45.0257" lon="6.47693">
        <ele>1942</ele>
        <time>2022-01-22T15:49:21Z</time>
      </trkpt>
      <trkpt lat="45.02579" lon="6.4769">
        <ele>1941</ele>
        <time>2022-01-22T15:49:22Z</time>
      </trkpt>
      <trkpt lat="45.02584" lon="6.47686">
        <ele>1940</ele>
        <time>2022-01-22T15:49:23Z</time>
      </trkpt>
      <trkpt lat="45.02586" lon="6.47678">
        <ele>1938</ele>
        <time>2022-01-22T15:49:24Z</time>
      </trkpt>
      <trkpt lat="45.02583" lon="6.47669">
        <ele>1937</ele>
        <time>2022-01-22T15:49:25Z</time>
      </trkpt>
      <trkpt lat="45.02571" lon="6.47655">
        <ele>1935</ele>
        <time>2022-01-22T15:49:27Z</time>
      </trkpt>
      <trkpt lat="45.02567" lon="6.47647">
        <ele>1933</ele>
        <time>2022-01-22T15:49:28Z</time>
      </trkpt>
      <trkpt lat="45.02567" lon="6.4764">
        <ele>1932</ele>
        <time>2022-01-22T15:49:29Z</time>
      </trkpt>
      <trkpt lat="45.0257" lon="6.47634">
        <ele>1930</ele>
        <time>2022-01-22T15:49:30Z</time>
      </trkpt>
      <trkpt lat="45.02576" lon="6.47629">
        <ele>1927</ele>
        <time>2022-01-22T15:49:31Z</time>
      </trkpt>
      <trkpt lat="45.02578" lon="6.47621">
        <ele>1925</ele>
        <time>2022-01-22T15:49:32Z</time>
      </trkpt>
      <trkpt lat="45.02576" lon="6.47612">
        <ele>1923</ele>
        <time>2022-01-22T15:49:33Z</time>
      </trkpt>
      <trkpt lat="45.02568" lon="6.47596">
        <ele>1919</ele>
        <time>2022-01-22T15:49:35Z</time>
      </trkpt>
      <trkpt lat="45.02565" lon="6.47579">
        <ele>1916</ele>
        <time>2022-01-22T15:49:37Z</time>
      </trkpt>
      <trkpt lat="45.02558" lon="6.47562">
        <ele>1913</ele>
        <time>2022-01-22T15:49:39Z</time>
      </trkpt>
      <trkpt lat="45.02556" lon="6.47552">
        <ele>1912</ele>
        <time>2022-01-22T15:49:40Z</time>
      </trkpt>
      <trkpt lat="45.02554" lon="6.47543">
        <ele>1910</ele>
        <time>2022-01-22T15:49:41Z</time>
      </trkpt>
      <trkpt lat="45.02549" lon="6.47536">
        <ele>1909</ele>
        <time>2022-01-22T15:49:42Z</time>
      </trkpt>
      <trkpt lat="45.02545" lon="6.47531">
        <ele>1907</ele>
        <time>2022-01-22T15:49:43Z</time>
      </trkpt>
      <trkpt lat="45.02545" lon="6.47521">
        <ele>1905</ele>
        <time>2022-01-22T15:49:44Z</time>
      </trkpt>
      <trkpt lat="45.02549" lon="6.47511">
        <ele>1903</ele>
        <time>2022-01-22T15:49:45Z</time>
      </trkpt>
      <trkpt lat="45.0255" lon="6.47499">
        <ele>1901</ele>
        <time>2022-01-22T15:49:46Z</time>
      </trkpt>
      <trkpt lat="45.02548" lon="6.47488">
        <ele>1899</ele>
        <time>2022-01-22T15:49:47Z</time>
      </trkpt>
      <trkpt lat="45.02534" lon="6.47473">
        <ele>1896</ele>
        <time>2022-01-22T15:49:49Z</time>
      </trkpt>
      <trkpt lat="45.02518" lon="6.47462">
        <ele>1893</ele>
        <time>2022-01-22T15:49:51Z</time>
      </trkpt>
      <trkpt lat="45.02508" lon="6.47446">
        <ele>1890</ele>
        <time>2022-01-22T15:49:53Z</time>
      </trkpt>
      <trkpt lat="45.02507" lon="6.47425">
        <ele>1887</ele>
        <time>2022-01-22T15:49:55Z</time>
      </trkpt>
      <trkpt lat="45.02502" lon="6.47407">
        <ele>1884</ele>
        <time>2022-01-22T15:49:57Z</time>
      </trkpt>
      <trkpt lat="45.02501" lon="6.47396">
        <ele>1883</ele>
        <time>2022-01-22T15:49:58Z</time>
      </trkpt>
      <trkpt lat="45.02494" lon="6.47366">
        <ele>1882</ele>
        <time>2022-01-22T15:50:01Z</time>
      </trkpt>
      <trkpt lat="45.02492" lon="6.47345">
        <ele>1881</ele>
        <time>2022-01-22T15:50:03Z</time>
      </trkpt>
      <trkpt lat="45.02483" lon="6.47326">
        <ele>1881</ele>
        <time>2022-01-22T15:50:05Z</time>
      </trkpt>
      <trkpt lat="45.02466" lon="6.47302">
        <ele>1882</ele>
        <time>2022-01-22T15:50:08Z</time>
      </trkpt>
      <trkpt lat="45.02459" lon="6.47283">
        <ele>1881</ele>
        <time>2022-01-22T15:50:10Z</time>
      </trkpt>
      <trkpt lat="45.02437" lon="6.47255">
        <ele>1879</ele>
        <time>2022-01-22T15:50:14Z</time>
      </trkpt>
      <trkpt lat="45.02429" lon="6.47233">
        <ele>1877</ele>
        <time>2022-01-22T15:50:16Z</time>
      </trkpt>
      <trkpt lat="45.02427" lon="6.4722">
        <ele>1876</ele>
        <time>2022-01-22T15:50:17Z</time>
      </trkpt>
      <trkpt lat="45.02428" lon="6.47207">
        <ele>1873</ele>
        <time>2022-01-22T15:50:18Z</time>
      </trkpt>
      <trkpt lat="45.02429" lon="6.47194">
        <ele>1870</ele>
        <time>2022-01-22T15:50:19Z</time>
      </trkpt>
      <trkpt lat="45.02428" lon="6.47182">
        <ele>1867</ele>
        <time>2022-01-22T15:50:20Z</time>
      </trkpt>
      <trkpt lat="45.02425" lon="6.4717">
        <ele>1865</ele>
        <time>2022-01-22T15:50:21Z</time>
      </trkpt>
      <trkpt lat="45.02421" lon="6.47159">
        <ele>1862</ele>
        <time>2022-01-22T15:50:22Z</time>
      </trkpt>
      <trkpt lat="45.02419" lon="6.47149">
        <ele>1860</ele>
        <time>2022-01-22T15:50:23Z</time>
      </trkpt>
      <trkpt lat="45.02418" lon="6.47138">
        <ele>1857</ele>
        <time>2022-01-22T15:50:24Z</time>
      </trkpt>
      <trkpt lat="45.02419" lon="6.47127">
        <ele>1855</ele>
        <time>2022-01-22T15:50:25Z</time>
      </trkpt>
      <trkpt lat="45.02419" lon="6.47116">
        <ele>1853</ele>
        <time>2022-01-22T15:50:26Z</time>
      </trkpt>
      <trkpt lat="45.02415" lon="6.47108">
        <ele>1851</ele>
        <time>2022-01-22T15:50:27Z</time>
      </trkpt>
      <trkpt lat="45.02404" lon="6.47092">
        <ele>1848</ele>
        <time>2022-01-22T15:50:29Z</time>
      </trkpt>
      <trkpt lat="45.0239" lon="6.47077">
        <ele>1846</ele>
        <time>2022-01-22T15:50:31Z</time>
      </trkpt>
      <trkpt lat="45.0238" lon="6.47059">
        <ele>1843</ele>
        <time>2022-01-22T15:50:33Z</time>
      </trkpt>
      <trkpt lat="45.02367" lon="6.47046">
        <ele>1841</ele>
        <time>2022-01-22T15:50:35Z</time>
      </trkpt>
      <trkpt lat="45.02356" lon="6.4703">
        <ele>1839</ele>
        <time>2022-01-22T15:50:37Z</time>
      </trkpt>
      <trkpt lat="45.02322" lon="6.47003">
        <ele>1833</ele>
        <time>2022-01-22T15:50:42Z</time>
      </trkpt>
      <trkpt lat="45.0231" lon="6.46997">
        <ele>1831</ele>
        <time>2022-01-22T15:50:44Z</time>
      </trkpt>
      <trkpt lat="45.02249" lon="6.47002">
        <ele>1825</ele>
        <time>2022-01-22T15:50:51Z</time>
      </trkpt>
      <trkpt lat="45.02188" lon="6.46984">
        <ele>1822</ele>
        <time>2022-01-22T15:50:59Z</time>
      </trkpt>
      <trkpt lat="45.02082" lon="6.47004">
        <ele>1815</ele>
        <time>2022-01-22T15:51:15Z</time>
      </trkpt>
      <trkpt lat="45.02069" lon="6.47">
        <ele>1813</ele>
        <time>2022-01-22T15:51:18Z</time>
      </trkpt>
      <trkpt lat="45.02063" lon="6.46999">
        <ele>1813</ele>
        <time>2022-01-22T15:51:20Z</time>
      </trkpt>
      <trkpt lat="45.02049" lon="6.46991">
        <ele>1811</ele>
        <time>2022-01-22T15:51:24Z</time>
      </trkpt>
      <trkpt lat="45.02001" lon="6.46983">
        <ele>1800</ele>
        <time>2022-01-22T15:51:36Z</time>
      </trkpt>
      <trkpt lat="45.01995" lon="6.46984">
        <ele>1799</ele>
        <time>2022-01-22T15:51:38Z</time>
      </trkpt>
      <trkpt lat="45.01988" lon="6.46993">
        <ele>1797</ele>
        <time>2022-01-22T15:51:42Z</time>
      </trkpt>
      <trkpt lat="45.01975" lon="6.47005">
        <ele>1794</ele>
        <time>2022-01-22T15:51:45Z</time>
      </trkpt>
      <trkpt lat="45.0197" lon="6.47005">
        <ele>1792</ele>
        <time>2022-01-22T15:51:46Z</time>
      </trkpt>
      <trkpt lat="45.01965" lon="6.47004">
        <ele>1790</ele>
        <time>2022-01-22T15:51:47Z</time>
      </trkpt>
      <trkpt lat="45.01957" lon="6.46998">
        <ele>1786</ele>
        <time>2022-01-22T15:51:49Z</time>
      </trkpt>
      <trkpt lat="45.01952" lon="6.46995">
        <ele>1784</ele>
        <time>2022-01-22T15:51:50Z</time>
      </trkpt>
      <trkpt lat="45.01947" lon="6.46994">
        <ele>1783</ele>
        <time>2022-01-22T15:51:51Z</time>
      </trkpt>
      <trkpt lat="45.01943" lon="6.46992">
        <ele>1781</ele>
        <time>2022-01-22T15:51:52Z</time>
      </trkpt>
      <trkpt lat="45.01938" lon="6.46992">
        <ele>1780</ele>
        <time>2022-01-22T15:51:53Z</time>
      </trkpt>
      <trkpt lat="45.01932" lon="6.46991">
        <ele>1778</ele>
        <time>2022-01-22T15:51:54Z</time>
      </trkpt>
      <trkpt lat="45.01895" lon="6.46993">
        <ele>1771</ele>
        <time>2022-01-22T15:52:02Z</time>
      </trkpt>
      <trkpt lat="45.01893" lon="6.46993">
        <ele>1770</ele>
        <time>2022-01-22T15:52:04Z</time>
      </trkpt>
      <trkpt lat="45.01886" lon="6.46993">
        <ele>1768</ele>
        <time>2022-01-22T15:52:07Z</time>
      </trkpt>
      <trkpt lat="45.01886" lon="6.47">
        <ele>1765</ele>
        <time>2022-01-22T15:52:55Z</time>
      </trkpt>
      <trkpt lat="45.01881" lon="6.47002">
        <ele>1765</ele>
        <time>2022-01-22T15:53:03Z</time>
      </trkpt>
      <trkpt lat="45.01877" lon="6.47002">
        <ele>1766</ele>
        <time>2022-01-22T15:54:06Z</time>
      </trkpt>
      <trkpt lat="45.01878" lon="6.46999">
        <ele>1766</ele>
        <time>2022-01-22T15:54:08Z</time>
      </trkpt>
      <trkpt lat="45.01878" lon="6.46996">
        <ele>1765</ele>
        <time>2022-01-22T15:54:10Z</time>
      </trkpt>
      <trkpt lat="45.01874" lon="6.4699">
        <ele>1765</ele>
        <time>2022-01-22T15:54:17Z</time>
      </trkpt>
      <trkpt lat="45.0187" lon="6.46989">
        <ele>1765</ele>
        <time>2022-01-22T15:54:18Z</time>
      </trkpt>
      <trkpt lat="45.01868" lon="6.46991">
        <ele>1765</ele>
        <time>2022-01-22T15:54:19Z</time>
      </trkpt>
      <trkpt lat="45.01866" lon="6.46993">
        <ele>1764</ele>
        <time>2022-01-22T15:54:20Z</time>
      </trkpt>
      <trkpt lat="45.01864" lon="6.46999">
        <ele>1764</ele>
        <time>2022-01-22T15:54:21Z</time>
      </trkpt>
      <trkpt lat="45.01862" lon="6.47003">
        <ele>1764</ele>
        <time>2022-01-22T15:54:22Z</time>
      </trkpt>
      <trkpt lat="45.01859" lon="6.47006">
        <ele>1763</ele>
        <time>2022-01-22T15:54:23Z</time>
      </trkpt>
      <trkpt lat="45.01846" lon="6.47009">
        <ele>1762</ele>
        <time>2022-01-22T15:54:26Z</time>
      </trkpt>
      <trkpt lat="45.01834" lon="6.47007">
        <ele>1761</ele>
        <time>2022-01-22T15:54:28Z</time>
      </trkpt>
      <trkpt lat="45.01828" lon="6.47004">
        <ele>1761</ele>
        <time>2022-01-22T15:54:29Z</time>
      </trkpt>
      <trkpt lat="45.01824" lon="6.46997">
        <ele>1760</ele>
        <time>2022-01-22T15:54:30Z</time>
      </trkpt>
      <trkpt lat="45.01821" lon="6.46982">
        <ele>1757</ele>
        <time>2022-01-22T15:54:32Z</time>
      </trkpt>
      <trkpt lat="45.01819" lon="6.46973">
        <ele>1754</ele>
        <time>2022-01-22T15:54:33Z</time>
      </trkpt>
      <trkpt lat="45.01818" lon="6.46964">
        <ele>1752</ele>
        <time>2022-01-22T15:54:34Z</time>
      </trkpt>
      <trkpt lat="45.01816" lon="6.46954">
        <ele>1749</ele>
        <time>2022-01-22T15:54:35Z</time>
      </trkpt>
      <trkpt lat="45.01814" lon="6.46944">
        <ele>1745</ele>
        <time>2022-01-22T15:54:36Z</time>
      </trkpt>
      <trkpt lat="45.01811" lon="6.46935">
        <ele>1743</ele>
        <time>2022-01-22T15:54:37Z</time>
      </trkpt>
      <trkpt lat="45.01807" lon="6.46928">
        <ele>1740</ele>
        <time>2022-01-22T15:54:38Z</time>
      </trkpt>
      <trkpt lat="45.01776" lon="6.46891">
        <ele>1725</ele>
        <time>2022-01-22T15:54:45Z</time>
      </trkpt>
      <trkpt lat="45.01773" lon="6.46887">
        <ele>1723</ele>
        <time>2022-01-22T15:54:46Z</time>
      </trkpt>
      <trkpt lat="45.01773" lon="6.46883">
        <ele>1722</ele>
        <time>2022-01-22T15:54:47Z</time>
      </trkpt>
      <trkpt lat="45.01773" lon="6.46879">
        <ele>1721</ele>
        <time>2022-01-22T15:54:48Z</time>
      </trkpt>
      <trkpt lat="45.01771" lon="6.46874">
        <ele>1721</ele>
        <time>2022-01-22T15:54:49Z</time>
      </trkpt>
      <trkpt lat="45.01771" lon="6.46869">
        <ele>1720</ele>
        <time>2022-01-22T15:54:50Z</time>
      </trkpt>
      <trkpt lat="45.01775" lon="6.46862">
        <ele>1719</ele>
        <time>2022-01-22T15:54:52Z</time>
      </trkpt>
      <trkpt lat="45.01776" lon="6.4686">
        <ele>1718</ele>
        <time>2022-01-22T15:54:53Z</time>
      </trkpt>
      <trkpt lat="45.01779" lon="6.46859">
        <ele>1717</ele>
        <time>2022-01-22T15:54:54Z</time>
      </trkpt>
      <trkpt lat="45.01782" lon="6.46858">
        <ele>1717</ele>
        <time>2022-01-22T15:54:55Z</time>
      </trkpt>
      <trkpt lat="45.01785" lon="6.46859">
        <ele>1716</ele>
        <time>2022-01-22T15:54:56Z</time>
      </trkpt>
      <trkpt lat="45.01789" lon="6.46859">
        <ele>1715</ele>
        <time>2022-01-22T15:54:57Z</time>
      </trkpt>
      <trkpt lat="45.01792" lon="6.46859">
        <ele>1715</ele>
        <time>2022-01-22T15:54:58Z</time>
      </trkpt>
      <trkpt lat="45.01791" lon="6.46855">
        <ele>1714</ele>
        <time>2022-01-22T15:55:00Z</time>
      </trkpt>
      <trkpt lat="45.01788" lon="6.4685">
        <ele>1712</ele>
        <time>2022-01-22T15:55:01Z</time>
      </trkpt>
      <trkpt lat="45.01788" lon="6.46843">
        <ele>1711</ele>
        <time>2022-01-22T15:55:02Z</time>
      </trkpt>
      <trkpt lat="45.01789" lon="6.46836">
        <ele>1711</ele>
        <time>2022-01-22T15:55:03Z</time>
      </trkpt>
      <trkpt lat="45.01788" lon="6.46828">
        <ele>1710</ele>
        <time>2022-01-22T15:55:04Z</time>
      </trkpt>
      <trkpt lat="45.01786" lon="6.46822">
        <ele>1710</ele>
        <time>2022-01-22T15:55:05Z</time>
      </trkpt>
      <trkpt lat="45.0178" lon="6.46812">
        <ele>1708</ele>
        <time>2022-01-22T15:55:07Z</time>
      </trkpt>
      <trkpt lat="45.01769" lon="6.46792">
        <ele>1706</ele>
        <time>2022-01-22T15:55:10Z</time>
      </trkpt>
      <trkpt lat="45.01749" lon="6.467">
        <ele>1693</ele>
        <time>2022-01-22T15:55:23Z</time>
      </trkpt>
      <trkpt lat="45.0175" lon="6.46696">
        <ele>1692</ele>
        <time>2022-01-22T15:55:24Z</time>
      </trkpt>
      <trkpt lat="45.01751" lon="6.46692">
        <ele>1691</ele>
        <time>2022-01-22T15:55:25Z</time>
      </trkpt>
      <trkpt lat="45.01749" lon="6.46678">
        <ele>1688</ele>
        <time>2022-01-22T15:55:28Z</time>
      </trkpt>
      <trkpt lat="45.01748" lon="6.46673">
        <ele>1688</ele>
        <time>2022-01-22T15:55:29Z</time>
      </trkpt>
      <trkpt lat="45.01745" lon="6.4667">
        <ele>1687</ele>
        <time>2022-01-22T15:55:30Z</time>
      </trkpt>
      <trkpt lat="45.01743" lon="6.46665">
        <ele>1686</ele>
        <time>2022-01-22T15:55:31Z</time>
      </trkpt>
      <trkpt lat="45.01742" lon="6.46661">
        <ele>1685</ele>
        <time>2022-01-22T15:55:32Z</time>
      </trkpt>
      <trkpt lat="45.01743" lon="6.46658">
        <ele>1684</ele>
        <time>2022-01-22T15:55:33Z</time>
      </trkpt>
      <trkpt lat="45.01748" lon="6.46652">
        <ele>1680</ele>
        <time>2022-01-22T15:55:40Z</time>
      </trkpt>
      <trkpt lat="45.01751" lon="6.46652">
        <ele>1679</ele>
        <time>2022-01-22T15:55:41Z</time>
      </trkpt>
      <trkpt lat="45.01779" lon="6.4667">
        <ele>1674</ele>
        <time>2022-01-22T15:55:49Z</time>
      </trkpt>
      <trkpt lat="45.01786" lon="6.46677">
        <ele>1672</ele>
        <time>2022-01-22T15:55:51Z</time>
      </trkpt>
      <trkpt lat="45.01801" lon="6.46687">
        <ele>1667</ele>
        <time>2022-01-22T15:55:55Z</time>
      </trkpt>
      <trkpt lat="45.01805" lon="6.46695">
        <ele>1665</ele>
        <time>2022-01-22T15:55:57Z</time>
      </trkpt>
      <trkpt lat="45.01807" lon="6.46703">
        <ele>1664</ele>
        <time>2022-01-22T15:55:59Z</time>
      </trkpt>
      <trkpt lat="45.01808" lon="6.46705">
        <ele>1663</ele>
        <time>2022-01-22T15:56:00Z</time>
      </trkpt>
      <trkpt lat="45.01811" lon="6.46707">
        <ele>1663</ele>
        <time>2022-01-22T15:56:01Z</time>
      </trkpt>
      <trkpt lat="45.01813" lon="6.46711">
        <ele>1663</ele>
        <time>2022-01-22T15:56:02Z</time>
      </trkpt>
      <trkpt lat="45.01816" lon="6.46712">
        <ele>1663</ele>
        <time>2022-01-22T15:56:03Z</time>
      </trkpt>
      <trkpt lat="45.01819" lon="6.46711">
        <ele>1664</ele>
        <time>2022-01-22T15:56:04Z</time>
      </trkpt>
      <trkpt lat="45.01822" lon="6.46703">
        <ele>1664</ele>
        <time>2022-01-22T15:56:06Z</time>
      </trkpt>
      <trkpt lat="45.01811" lon="6.4664">
        <ele>1657</ele>
        <time>2022-01-22T15:56:14Z</time>
      </trkpt>
      <trkpt lat="45.01808" lon="6.4663">
        <ele>1656</ele>
        <time>2022-01-22T15:56:16Z</time>
      </trkpt>
      <trkpt lat="45.01806" lon="6.46628">
        <ele>1655</ele>
        <time>2022-01-22T15:56:17Z</time>
      </trkpt>
    </trkseg>
  </trk>
</gpx>